<?xml version="1.0" encoding="UTF-8" standalone="no" ?>
<gpx xmlns="http://www.topografix.com/GPX/1/1" xmlns:xsi="http://www.w3.org/2001/XMLSchema-instance" xsi:schemaLocation="http://www.topografix.com/GPX/1/1 http://www.topografix.com/GPX/1/1/gpx.xsd" version="1.1" creator="VisuGPX - https://www.visugpx.com">
  <metadata>
    <name>Traversée du Dévoluy</name>
    <desc><![CDATA[De gap direction le col du noyer, passage dans les stations et retour sur gap]]></desc>
  </metadata>
  <trk>
    <name><![CDATA[Dévoluy]]></name>
    <trkseg>
      <trkpt lat="44.56772" lon="6.09666">
        <ele>782.7</ele>
        <time>2014-05-09T11:29:07Z</time>
      </trkpt>
      <trkpt lat="44.5678" lon="6.09679">
        <ele>783.5</ele>
        <time>2014-05-09T11:31:48Z</time>
      </trkpt>
      <trkpt lat="44.56808" lon="6.09664">
        <ele>784.1</ele>
        <time>2014-05-09T11:32:02Z</time>
      </trkpt>
      <trkpt lat="44.56817" lon="6.09683">
        <ele>784.8</ele>
        <time>2014-05-09T11:32:15Z</time>
      </trkpt>
      <trkpt lat="44.56827" lon="6.0969">
        <ele>784.7</ele>
        <time>2014-05-09T11:32:29Z</time>
      </trkpt>
      <trkpt lat="44.56845" lon="6.09679">
        <ele>785</ele>
        <time>2014-05-09T11:32:35Z</time>
      </trkpt>
      <trkpt lat="44.56865" lon="6.09675">
        <ele>785.6</ele>
        <time>2014-05-09T11:32:41Z</time>
      </trkpt>
      <trkpt lat="44.56887" lon="6.09689">
        <ele>786.4</ele>
        <time>2014-05-09T11:32:47Z</time>
      </trkpt>
      <trkpt lat="44.56927" lon="6.09714">
        <ele>788.8</ele>
        <time>2014-05-09T11:32:59Z</time>
      </trkpt>
      <trkpt lat="44.56948" lon="6.09727">
        <ele>789.9</ele>
        <time>2014-05-09T11:33:05Z</time>
      </trkpt>
      <trkpt lat="44.56972" lon="6.0974">
        <ele>791.3</ele>
        <time>2014-05-09T11:33:11Z</time>
      </trkpt>
      <trkpt lat="44.56984" lon="6.09744">
        <ele>791.8</ele>
        <time>2014-05-09T11:33:14Z</time>
      </trkpt>
      <trkpt lat="44.57032" lon="6.09751">
        <ele>794</ele>
        <time>2014-05-09T11:33:26Z</time>
      </trkpt>
      <trkpt lat="44.57055" lon="6.09753">
        <ele>795.2</ele>
        <time>2014-05-09T11:33:32Z</time>
      </trkpt>
      <trkpt lat="44.57101" lon="6.09757">
        <ele>797.5</ele>
        <time>2014-05-09T11:33:44Z</time>
      </trkpt>
      <trkpt lat="44.57135" lon="6.0976">
        <ele>799.6</ele>
        <time>2014-05-09T11:33:53Z</time>
      </trkpt>
      <trkpt lat="44.57179" lon="6.09765">
        <ele>802.2</ele>
        <time>2014-05-09T11:34:05Z</time>
      </trkpt>
      <trkpt lat="44.572" lon="6.09767">
        <ele>804.1</ele>
        <time>2014-05-09T11:34:11Z</time>
      </trkpt>
      <trkpt lat="44.5722" lon="6.09758">
        <ele>805.5</ele>
        <time>2014-05-09T11:34:17Z</time>
      </trkpt>
      <trkpt lat="44.57236" lon="6.0974">
        <ele>807.1</ele>
        <time>2014-05-09T11:34:23Z</time>
      </trkpt>
      <trkpt lat="44.57254" lon="6.09709">
        <ele>809.3</ele>
        <time>2014-05-09T11:34:32Z</time>
      </trkpt>
      <trkpt lat="44.57268" lon="6.0967">
        <ele>812.7</ele>
        <time>2014-05-09T11:34:43Z</time>
      </trkpt>
      <trkpt lat="44.57282" lon="6.09643">
        <ele>814.5</ele>
        <time>2014-05-09T11:34:51Z</time>
      </trkpt>
      <trkpt lat="44.57295" lon="6.09619">
        <ele>815.9</ele>
        <time>2014-05-09T11:34:57Z</time>
      </trkpt>
      <trkpt lat="44.57307" lon="6.09599">
        <ele>817.2</ele>
        <time>2014-05-09T11:35:03Z</time>
      </trkpt>
      <trkpt lat="44.57323" lon="6.09579">
        <ele>818.5</ele>
        <time>2014-05-09T11:35:10Z</time>
      </trkpt>
      <trkpt lat="44.5734" lon="6.09555">
        <ele>819.6</ele>
        <time>2014-05-09T11:35:16Z</time>
      </trkpt>
      <trkpt lat="44.57348" lon="6.09544">
        <ele>820.2</ele>
        <time>2014-05-09T11:35:19Z</time>
      </trkpt>
      <trkpt lat="44.57362" lon="6.09523">
        <ele>822</ele>
        <time>2014-05-09T11:35:25Z</time>
      </trkpt>
      <trkpt lat="44.57372" lon="6.09516">
        <ele>822.8</ele>
        <time>2014-05-09T11:35:28Z</time>
      </trkpt>
      <trkpt lat="44.57392" lon="6.09519">
        <ele>824.1</ele>
        <time>2014-05-09T11:35:34Z</time>
      </trkpt>
      <trkpt lat="44.5741" lon="6.09542">
        <ele>824.1</ele>
        <time>2014-05-09T11:35:40Z</time>
      </trkpt>
      <trkpt lat="44.57428" lon="6.09562">
        <ele>824.5</ele>
        <time>2014-05-09T11:35:45Z</time>
      </trkpt>
      <trkpt lat="44.57444" lon="6.09577">
        <ele>825</ele>
        <time>2014-05-09T11:35:49Z</time>
      </trkpt>
      <trkpt lat="44.57452" lon="6.09583">
        <ele>825.3</ele>
        <time>2014-05-09T11:35:51Z</time>
      </trkpt>
      <trkpt lat="44.57509" lon="6.09624">
        <ele>829.2</ele>
        <time>2014-05-09T11:36:06Z</time>
      </trkpt>
      <trkpt lat="44.5752" lon="6.09631">
        <ele>830</ele>
        <time>2014-05-09T11:36:09Z</time>
      </trkpt>
      <trkpt lat="44.5756" lon="6.09664">
        <ele>833.1</ele>
        <time>2014-05-09T11:36:21Z</time>
      </trkpt>
      <trkpt lat="44.57582" lon="6.0968">
        <ele>834.1</ele>
        <time>2014-05-09T11:36:27Z</time>
      </trkpt>
      <trkpt lat="44.57602" lon="6.097">
        <ele>835.5</ele>
        <time>2014-05-09T11:36:33Z</time>
      </trkpt>
      <trkpt lat="44.57632" lon="6.09732">
        <ele>836.8</ele>
        <time>2014-05-09T11:36:42Z</time>
      </trkpt>
      <trkpt lat="44.57651" lon="6.09754">
        <ele>837.7</ele>
        <time>2014-05-09T11:36:48Z</time>
      </trkpt>
      <trkpt lat="44.57667" lon="6.0978">
        <ele>838.9</ele>
        <time>2014-05-09T11:36:54Z</time>
      </trkpt>
      <trkpt lat="44.57681" lon="6.09811">
        <ele>839.6</ele>
        <time>2014-05-09T11:37:00Z</time>
      </trkpt>
      <trkpt lat="44.57685" lon="6.09828">
        <ele>839.8</ele>
        <time>2014-05-09T11:37:03Z</time>
      </trkpt>
      <trkpt lat="44.5769" lon="6.09853">
        <ele>840.5</ele>
        <time>2014-05-09T11:37:07Z</time>
      </trkpt>
      <trkpt lat="44.57693" lon="6.09871">
        <ele>841.2</ele>
        <time>2014-05-09T11:37:10Z</time>
      </trkpt>
      <trkpt lat="44.57704" lon="6.09934">
        <ele>842.9</ele>
        <time>2014-05-09T11:37:20Z</time>
      </trkpt>
      <trkpt lat="44.57711" lon="6.09973">
        <ele>843.9</ele>
        <time>2014-05-09T11:37:26Z</time>
      </trkpt>
      <trkpt lat="44.5772" lon="6.10025">
        <ele>845.1</ele>
        <time>2014-05-09T11:37:34Z</time>
      </trkpt>
      <trkpt lat="44.57727" lon="6.10051">
        <ele>845.2</ele>
        <time>2014-05-09T11:37:38Z</time>
      </trkpt>
      <trkpt lat="44.57738" lon="6.10075">
        <ele>845.3</ele>
        <time>2014-05-09T11:37:42Z</time>
      </trkpt>
      <trkpt lat="44.57745" lon="6.10086">
        <ele>845.4</ele>
        <time>2014-05-09T11:37:44Z</time>
      </trkpt>
      <trkpt lat="44.57763" lon="6.10103">
        <ele>845.4</ele>
        <time>2014-05-09T11:37:48Z</time>
      </trkpt>
      <trkpt lat="44.57785" lon="6.10112">
        <ele>845.5</ele>
        <time>2014-05-09T11:37:52Z</time>
      </trkpt>
      <trkpt lat="44.5781" lon="6.10112">
        <ele>844.7</ele>
        <time>2014-05-09T11:37:56Z</time>
      </trkpt>
      <trkpt lat="44.57835" lon="6.10108">
        <ele>844.2</ele>
        <time>2014-05-09T11:38:00Z</time>
      </trkpt>
      <trkpt lat="44.5786" lon="6.10106">
        <ele>844.2</ele>
        <time>2014-05-09T11:38:04Z</time>
      </trkpt>
      <trkpt lat="44.57872" lon="6.10107">
        <ele>844</ele>
        <time>2014-05-09T11:38:06Z</time>
      </trkpt>
      <trkpt lat="44.57904" lon="6.10117">
        <ele>844.8</ele>
        <time>2014-05-09T11:38:12Z</time>
      </trkpt>
      <trkpt lat="44.57939" lon="6.10127">
        <ele>846.6</ele>
        <time>2014-05-09T11:38:20Z</time>
      </trkpt>
      <trkpt lat="44.57962" lon="6.10136">
        <ele>848.6</ele>
        <time>2014-05-09T11:38:26Z</time>
      </trkpt>
      <trkpt lat="44.57964" lon="6.10167">
        <ele>849.9</ele>
        <time>2014-05-09T11:38:32Z</time>
      </trkpt>
      <trkpt lat="44.57943" lon="6.10178">
        <ele>851.7</ele>
        <time>2014-05-09T11:38:38Z</time>
      </trkpt>
      <trkpt lat="44.57922" lon="6.10186">
        <ele>853.5</ele>
        <time>2014-05-09T11:38:44Z</time>
      </trkpt>
      <trkpt lat="44.57903" lon="6.10198">
        <ele>855.1</ele>
        <time>2014-05-09T11:38:50Z</time>
      </trkpt>
      <trkpt lat="44.57891" lon="6.10223">
        <ele>856.7</ele>
        <time>2014-05-09T11:38:56Z</time>
      </trkpt>
      <trkpt lat="44.5789" lon="6.10238">
        <ele>857.1</ele>
        <time>2014-05-09T11:38:59Z</time>
      </trkpt>
      <trkpt lat="44.57896" lon="6.10266">
        <ele>858.3</ele>
        <time>2014-05-09T11:39:05Z</time>
      </trkpt>
      <trkpt lat="44.57913" lon="6.10302">
        <ele>860.9</ele>
        <time>2014-05-09T11:39:14Z</time>
      </trkpt>
      <trkpt lat="44.57929" lon="6.10335">
        <ele>863.3</ele>
        <time>2014-05-09T11:39:23Z</time>
      </trkpt>
      <trkpt lat="44.57961" lon="6.1039">
        <ele>866.7</ele>
        <time>2014-05-09T11:39:38Z</time>
      </trkpt>
      <trkpt lat="44.57971" lon="6.10416">
        <ele>867.9</ele>
        <time>2014-05-09T11:39:44Z</time>
      </trkpt>
      <trkpt lat="44.57987" lon="6.10453">
        <ele>869.2</ele>
        <time>2014-05-09T11:39:53Z</time>
      </trkpt>
      <trkpt lat="44.58007" lon="6.10441">
        <ele>869.7</ele>
        <time>2014-05-09T11:39:59Z</time>
      </trkpt>
      <trkpt lat="44.5803" lon="6.10422">
        <ele>870.4</ele>
        <time>2014-05-09T11:40:05Z</time>
      </trkpt>
      <trkpt lat="44.58052" lon="6.10409">
        <ele>871.1</ele>
        <time>2014-05-09T11:40:11Z</time>
      </trkpt>
      <trkpt lat="44.58074" lon="6.10405">
        <ele>872.4</ele>
        <time>2014-05-09T11:40:17Z</time>
      </trkpt>
      <trkpt lat="44.58095" lon="6.10404">
        <ele>874.2</ele>
        <time>2014-05-09T11:40:23Z</time>
      </trkpt>
      <trkpt lat="44.58137" lon="6.10404">
        <ele>877.1</ele>
        <time>2014-05-09T11:40:35Z</time>
      </trkpt>
      <trkpt lat="44.58159" lon="6.10405">
        <ele>878.5</ele>
        <time>2014-05-09T11:40:41Z</time>
      </trkpt>
      <trkpt lat="44.5817" lon="6.10407">
        <ele>879.3</ele>
        <time>2014-05-09T11:40:44Z</time>
      </trkpt>
      <trkpt lat="44.58189" lon="6.10418">
        <ele>880.8</ele>
        <time>2014-05-09T11:40:50Z</time>
      </trkpt>
      <trkpt lat="44.58204" lon="6.10436">
        <ele>882.4</ele>
        <time>2014-05-09T11:40:56Z</time>
      </trkpt>
      <trkpt lat="44.58215" lon="6.10462">
        <ele>883.8</ele>
        <time>2014-05-09T11:41:02Z</time>
      </trkpt>
      <trkpt lat="44.58219" lon="6.10492">
        <ele>885</ele>
        <time>2014-05-09T11:41:08Z</time>
      </trkpt>
      <trkpt lat="44.5822" lon="6.10572">
        <ele>887.7</ele>
        <time>2014-05-09T11:41:23Z</time>
      </trkpt>
      <trkpt lat="44.58222" lon="6.10604">
        <ele>889</ele>
        <time>2014-05-09T11:41:29Z</time>
      </trkpt>
      <trkpt lat="44.58221" lon="6.10634">
        <ele>889.5</ele>
        <time>2014-05-09T11:41:35Z</time>
      </trkpt>
      <trkpt lat="44.58223" lon="6.10663">
        <ele>890.6</ele>
        <time>2014-05-09T11:41:41Z</time>
      </trkpt>
      <trkpt lat="44.58225" lon="6.10678">
        <ele>891.1</ele>
        <time>2014-05-09T11:41:44Z</time>
      </trkpt>
      <trkpt lat="44.58231" lon="6.1071">
        <ele>891.8</ele>
        <time>2014-05-09T11:41:50Z</time>
      </trkpt>
      <trkpt lat="44.58245" lon="6.10751">
        <ele>893.7</ele>
        <time>2014-05-09T11:41:59Z</time>
      </trkpt>
      <trkpt lat="44.58254" lon="6.10774">
        <ele>895.4</ele>
        <time>2014-05-09T11:42:05Z</time>
      </trkpt>
      <trkpt lat="44.58277" lon="6.10798">
        <ele>898.4</ele>
        <time>2014-05-09T11:42:14Z</time>
      </trkpt>
      <trkpt lat="44.58297" lon="6.10824">
        <ele>901.1</ele>
        <time>2014-05-09T11:42:23Z</time>
      </trkpt>
      <trkpt lat="44.58297" lon="6.10841">
        <ele>902.2</ele>
        <time>2014-05-09T11:42:27Z</time>
      </trkpt>
      <trkpt lat="44.58294" lon="6.10867">
        <ele>903.6</ele>
        <time>2014-05-09T11:42:33Z</time>
      </trkpt>
      <trkpt lat="44.58296" lon="6.10896">
        <ele>905.6</ele>
        <time>2014-05-09T11:42:40Z</time>
      </trkpt>
      <trkpt lat="44.58298" lon="6.10912">
        <ele>906.5</ele>
        <time>2014-05-09T11:42:44Z</time>
      </trkpt>
      <trkpt lat="44.58303" lon="6.10967">
        <ele>909.4</ele>
        <time>2014-05-09T11:42:57Z</time>
      </trkpt>
      <trkpt lat="44.58306" lon="6.10993">
        <ele>910.3</ele>
        <time>2014-05-09T11:43:03Z</time>
      </trkpt>
      <trkpt lat="44.58316" lon="6.11056">
        <ele>914.3</ele>
        <time>2014-05-09T11:43:19Z</time>
      </trkpt>
      <trkpt lat="44.58322" lon="6.11085">
        <ele>916.3</ele>
        <time>2014-05-09T11:43:27Z</time>
      </trkpt>
      <trkpt lat="44.58336" lon="6.11127">
        <ele>919.3</ele>
        <time>2014-05-09T11:43:39Z</time>
      </trkpt>
      <trkpt lat="44.58355" lon="6.11183">
        <ele>923.1</ele>
        <time>2014-05-09T11:43:55Z</time>
      </trkpt>
      <trkpt lat="44.58377" lon="6.11236">
        <ele>926.2</ele>
        <time>2014-05-09T11:44:10Z</time>
      </trkpt>
      <trkpt lat="44.58389" lon="6.11262">
        <ele>928.8</ele>
        <time>2014-05-09T11:44:18Z</time>
      </trkpt>
      <trkpt lat="44.58396" lon="6.11274">
        <ele>929.4</ele>
        <time>2014-05-09T11:44:22Z</time>
      </trkpt>
      <trkpt lat="44.58411" lon="6.11299">
        <ele>931.1</ele>
        <time>2014-05-09T11:44:30Z</time>
      </trkpt>
      <trkpt lat="44.58419" lon="6.11313">
        <ele>932</ele>
        <time>2014-05-09T11:44:34Z</time>
      </trkpt>
      <trkpt lat="44.58432" lon="6.11349">
        <ele>933.7</ele>
        <time>2014-05-09T11:44:43Z</time>
      </trkpt>
      <trkpt lat="44.58441" lon="6.11376">
        <ele>934.2</ele>
        <time>2014-05-09T11:44:49Z</time>
      </trkpt>
      <trkpt lat="44.58447" lon="6.11389">
        <ele>934.5</ele>
        <time>2014-05-09T11:44:52Z</time>
      </trkpt>
      <trkpt lat="44.58458" lon="6.11414">
        <ele>935.4</ele>
        <time>2014-05-09T11:44:58Z</time>
      </trkpt>
      <trkpt lat="44.58472" lon="6.11449">
        <ele>937.5</ele>
        <time>2014-05-09T11:45:07Z</time>
      </trkpt>
      <trkpt lat="44.58484" lon="6.11476">
        <ele>938.5</ele>
        <time>2014-05-09T11:45:14Z</time>
      </trkpt>
      <trkpt lat="44.58497" lon="6.11502">
        <ele>938.7</ele>
        <time>2014-05-09T11:45:20Z</time>
      </trkpt>
      <trkpt lat="44.58513" lon="6.1153">
        <ele>939.1</ele>
        <time>2014-05-09T11:45:26Z</time>
      </trkpt>
      <trkpt lat="44.5853" lon="6.11563">
        <ele>938.7</ele>
        <time>2014-05-09T11:45:32Z</time>
      </trkpt>
      <trkpt lat="44.58543" lon="6.11589">
        <ele>938.6</ele>
        <time>2014-05-09T11:45:36Z</time>
      </trkpt>
      <trkpt lat="44.58564" lon="6.11639">
        <ele>938.6</ele>
        <time>2014-05-09T11:45:44Z</time>
      </trkpt>
      <trkpt lat="44.58572" lon="6.1165">
        <ele>938.6</ele>
        <time>2014-05-09T11:45:46Z</time>
      </trkpt>
      <trkpt lat="44.5859" lon="6.11665">
        <ele>939</ele>
        <time>2014-05-09T11:45:50Z</time>
      </trkpt>
      <trkpt lat="44.58608" lon="6.11675">
        <ele>939.6</ele>
        <time>2014-05-09T11:45:54Z</time>
      </trkpt>
      <trkpt lat="44.58625" lon="6.11686">
        <ele>940.2</ele>
        <time>2014-05-09T11:45:58Z</time>
      </trkpt>
      <trkpt lat="44.58636" lon="6.11695">
        <ele>940.6</ele>
        <time>2014-05-09T11:46:01Z</time>
      </trkpt>
      <trkpt lat="44.58656" lon="6.11716">
        <ele>941.6</ele>
        <time>2014-05-09T11:46:07Z</time>
      </trkpt>
      <trkpt lat="44.58673" lon="6.11737">
        <ele>943.6</ele>
        <time>2014-05-09T11:46:13Z</time>
      </trkpt>
      <trkpt lat="44.58691" lon="6.11759">
        <ele>945.1</ele>
        <time>2014-05-09T11:46:19Z</time>
      </trkpt>
      <trkpt lat="44.5871" lon="6.11779">
        <ele>946.3</ele>
        <time>2014-05-09T11:46:25Z</time>
      </trkpt>
      <trkpt lat="44.58719" lon="6.11787">
        <ele>947</ele>
        <time>2014-05-09T11:46:28Z</time>
      </trkpt>
      <trkpt lat="44.58749" lon="6.11806">
        <ele>949</ele>
        <time>2014-05-09T11:46:37Z</time>
      </trkpt>
      <trkpt lat="44.58788" lon="6.11828">
        <ele>951.3</ele>
        <time>2014-05-09T11:46:49Z</time>
      </trkpt>
      <trkpt lat="44.58807" lon="6.11837">
        <ele>952.6</ele>
        <time>2014-05-09T11:46:55Z</time>
      </trkpt>
      <trkpt lat="44.58826" lon="6.11845">
        <ele>953.5</ele>
        <time>2014-05-09T11:47:01Z</time>
      </trkpt>
      <trkpt lat="44.58847" lon="6.11852">
        <ele>955.3</ele>
        <time>2014-05-09T11:47:08Z</time>
      </trkpt>
      <trkpt lat="44.58865" lon="6.11861">
        <ele>957.5</ele>
        <time>2014-05-09T11:47:14Z</time>
      </trkpt>
      <trkpt lat="44.58875" lon="6.11871">
        <ele>958.6</ele>
        <time>2014-05-09T11:47:18Z</time>
      </trkpt>
      <trkpt lat="44.58893" lon="6.11891">
        <ele>961.1</ele>
        <time>2014-05-09T11:47:26Z</time>
      </trkpt>
      <trkpt lat="44.58901" lon="6.11903">
        <ele>962.2</ele>
        <time>2014-05-09T11:47:30Z</time>
      </trkpt>
      <trkpt lat="44.58915" lon="6.11929">
        <ele>964.2</ele>
        <time>2014-05-09T11:47:38Z</time>
      </trkpt>
      <trkpt lat="44.58934" lon="6.11978">
        <ele>967</ele>
        <time>2014-05-09T11:47:51Z</time>
      </trkpt>
      <trkpt lat="44.58945" lon="6.12006">
        <ele>968.9</ele>
        <time>2014-05-09T11:47:59Z</time>
      </trkpt>
      <trkpt lat="44.58959" lon="6.12032">
        <ele>971.3</ele>
        <time>2014-05-09T11:48:07Z</time>
      </trkpt>
      <trkpt lat="44.58975" lon="6.12055">
        <ele>973.1</ele>
        <time>2014-05-09T11:48:15Z</time>
      </trkpt>
      <trkpt lat="44.58984" lon="6.12064">
        <ele>974.3</ele>
        <time>2014-05-09T11:48:19Z</time>
      </trkpt>
      <trkpt lat="44.59003" lon="6.12078">
        <ele>976.6</ele>
        <time>2014-05-09T11:48:27Z</time>
      </trkpt>
      <trkpt lat="44.59022" lon="6.12085">
        <ele>979</ele>
        <time>2014-05-09T11:48:35Z</time>
      </trkpt>
      <trkpt lat="44.59044" lon="6.12094">
        <ele>980.8</ele>
        <time>2014-05-09T11:48:43Z</time>
      </trkpt>
      <trkpt lat="44.59065" lon="6.12097">
        <ele>982.9</ele>
        <time>2014-05-09T11:48:51Z</time>
      </trkpt>
      <trkpt lat="44.59077" lon="6.12096">
        <ele>983.9</ele>
        <time>2014-05-09T11:48:55Z</time>
      </trkpt>
      <trkpt lat="44.59099" lon="6.12094">
        <ele>986</ele>
        <time>2014-05-09T11:49:03Z</time>
      </trkpt>
      <trkpt lat="44.59119" lon="6.12107">
        <ele>988.1</ele>
        <time>2014-05-09T11:49:11Z</time>
      </trkpt>
      <trkpt lat="44.59126" lon="6.12119">
        <ele>989.4</ele>
        <time>2014-05-09T11:49:15Z</time>
      </trkpt>
      <trkpt lat="44.59142" lon="6.1214">
        <ele>991.3</ele>
        <time>2014-05-09T11:49:23Z</time>
      </trkpt>
      <trkpt lat="44.59152" lon="6.12148">
        <ele>992.4</ele>
        <time>2014-05-09T11:49:27Z</time>
      </trkpt>
      <trkpt lat="44.59171" lon="6.12159">
        <ele>994.1</ele>
        <time>2014-05-09T11:49:35Z</time>
      </trkpt>
      <trkpt lat="44.59182" lon="6.1216">
        <ele>995.5</ele>
        <time>2014-05-09T11:49:39Z</time>
      </trkpt>
      <trkpt lat="44.592" lon="6.12144">
        <ele>996.9</ele>
        <time>2014-05-09T11:49:46Z</time>
      </trkpt>
      <trkpt lat="44.5921" lon="6.12123">
        <ele>998.1</ele>
        <time>2014-05-09T11:49:52Z</time>
      </trkpt>
      <trkpt lat="44.59213" lon="6.12077">
        <ele>1001.2</ele>
        <time>2014-05-09T11:50:03Z</time>
      </trkpt>
      <trkpt lat="44.59215" lon="6.12049">
        <ele>1003</ele>
        <time>2014-05-09T11:50:10Z</time>
      </trkpt>
      <trkpt lat="44.59218" lon="6.12033">
        <ele>1004</ele>
        <time>2014-05-09T11:50:14Z</time>
      </trkpt>
      <trkpt lat="44.59237" lon="6.12024">
        <ele>1006.3</ele>
        <time>2014-05-09T11:50:22Z</time>
      </trkpt>
      <trkpt lat="44.59249" lon="6.12048">
        <ele>1007.7</ele>
        <time>2014-05-09T11:50:29Z</time>
      </trkpt>
      <trkpt lat="44.59257" lon="6.12102">
        <ele>1010.5</ele>
        <time>2014-05-09T11:50:42Z</time>
      </trkpt>
      <trkpt lat="44.59263" lon="6.12127">
        <ele>1011.6</ele>
        <time>2014-05-09T11:50:48Z</time>
      </trkpt>
      <trkpt lat="44.59269" lon="6.12157">
        <ele>1013.2</ele>
        <time>2014-05-09T11:50:56Z</time>
      </trkpt>
      <trkpt lat="44.59272" lon="6.12189">
        <ele>1014.6</ele>
        <time>2014-05-09T11:51:04Z</time>
      </trkpt>
      <trkpt lat="44.59272" lon="6.12222">
        <ele>1016.6</ele>
        <time>2014-05-09T11:51:12Z</time>
      </trkpt>
      <trkpt lat="44.59267" lon="6.12248">
        <ele>1017.6</ele>
        <time>2014-05-09T11:51:18Z</time>
      </trkpt>
      <trkpt lat="44.59259" lon="6.12275">
        <ele>1019.3</ele>
        <time>2014-05-09T11:51:25Z</time>
      </trkpt>
      <trkpt lat="44.59248" lon="6.123">
        <ele>1019.8</ele>
        <time>2014-05-09T11:51:31Z</time>
      </trkpt>
      <trkpt lat="44.59235" lon="6.1232">
        <ele>1021</ele>
        <time>2014-05-09T11:51:37Z</time>
      </trkpt>
      <trkpt lat="44.59225" lon="6.12349">
        <ele>1021.6</ele>
        <time>2014-05-09T11:51:43Z</time>
      </trkpt>
      <trkpt lat="44.59231" lon="6.12418">
        <ele>1022.8</ele>
        <time>2014-05-09T11:51:55Z</time>
      </trkpt>
      <trkpt lat="44.59234" lon="6.12436">
        <ele>1023.7</ele>
        <time>2014-05-09T11:51:58Z</time>
      </trkpt>
      <trkpt lat="44.59239" lon="6.12468">
        <ele>1024.9</ele>
        <time>2014-05-09T11:52:04Z</time>
      </trkpt>
      <trkpt lat="44.59242" lon="6.12497">
        <ele>1027</ele>
        <time>2014-05-09T11:52:10Z</time>
      </trkpt>
      <trkpt lat="44.59244" lon="6.12541">
        <ele>1029.3</ele>
        <time>2014-05-09T11:52:19Z</time>
      </trkpt>
      <trkpt lat="44.59241" lon="6.12569">
        <ele>1031.1</ele>
        <time>2014-05-09T11:52:25Z</time>
      </trkpt>
      <trkpt lat="44.59233" lon="6.12609">
        <ele>1033.3</ele>
        <time>2014-05-09T11:52:34Z</time>
      </trkpt>
      <trkpt lat="44.59239" lon="6.12632">
        <ele>1034.1</ele>
        <time>2014-05-09T11:52:41Z</time>
      </trkpt>
      <trkpt lat="44.5925" lon="6.12607">
        <ele>1035.7</ele>
        <time>2014-05-09T11:52:48Z</time>
      </trkpt>
      <trkpt lat="44.59259" lon="6.12581">
        <ele>1036.8</ele>
        <time>2014-05-09T11:52:54Z</time>
      </trkpt>
      <trkpt lat="44.59275" lon="6.12565">
        <ele>1038.2</ele>
        <time>2014-05-09T11:53:00Z</time>
      </trkpt>
      <trkpt lat="44.59294" lon="6.12561">
        <ele>1040</ele>
        <time>2014-05-09T11:53:06Z</time>
      </trkpt>
      <trkpt lat="44.59305" lon="6.12557">
        <ele>1041.1</ele>
        <time>2014-05-09T11:53:10Z</time>
      </trkpt>
      <trkpt lat="44.59322" lon="6.12539">
        <ele>1042.4</ele>
        <time>2014-05-09T11:53:17Z</time>
      </trkpt>
      <trkpt lat="44.59326" lon="6.12511">
        <ele>1044</ele>
        <time>2014-05-09T11:53:24Z</time>
      </trkpt>
      <trkpt lat="44.59324" lon="6.12468">
        <ele>1045.7</ele>
        <time>2014-05-09T11:53:33Z</time>
      </trkpt>
      <trkpt lat="44.59326" lon="6.12435">
        <ele>1047.4</ele>
        <time>2014-05-09T11:53:41Z</time>
      </trkpt>
      <trkpt lat="44.59331" lon="6.12409">
        <ele>1049.2</ele>
        <time>2014-05-09T11:53:47Z</time>
      </trkpt>
      <trkpt lat="44.59357" lon="6.12389">
        <ele>1050.5</ele>
        <time>2014-05-09T11:53:56Z</time>
      </trkpt>
      <trkpt lat="44.59377" lon="6.12404">
        <ele>1051.2</ele>
        <time>2014-05-09T11:54:02Z</time>
      </trkpt>
      <trkpt lat="44.59382" lon="6.12419">
        <ele>1051.9</ele>
        <time>2014-05-09T11:54:05Z</time>
      </trkpt>
      <trkpt lat="44.59385" lon="6.12451">
        <ele>1052.9</ele>
        <time>2014-05-09T11:54:11Z</time>
      </trkpt>
      <trkpt lat="44.59387" lon="6.12482">
        <ele>1054.2</ele>
        <time>2014-05-09T11:54:17Z</time>
      </trkpt>
      <trkpt lat="44.5939" lon="6.12511">
        <ele>1055.6</ele>
        <time>2014-05-09T11:54:23Z</time>
      </trkpt>
      <trkpt lat="44.59397" lon="6.12567">
        <ele>1059</ele>
        <time>2014-05-09T11:54:35Z</time>
      </trkpt>
      <trkpt lat="44.59402" lon="6.12595">
        <ele>1060.3</ele>
        <time>2014-05-09T11:54:41Z</time>
      </trkpt>
      <trkpt lat="44.59401" lon="6.12638">
        <ele>1062.2</ele>
        <time>2014-05-09T11:54:50Z</time>
      </trkpt>
      <trkpt lat="44.59405" lon="6.12678">
        <ele>1064.6</ele>
        <time>2014-05-09T11:54:59Z</time>
      </trkpt>
      <trkpt lat="44.59414" lon="6.12728">
        <ele>1067.5</ele>
        <time>2014-05-09T11:55:11Z</time>
      </trkpt>
      <trkpt lat="44.59425" lon="6.1279">
        <ele>1071.2</ele>
        <time>2014-05-09T11:55:26Z</time>
      </trkpt>
      <trkpt lat="44.59429" lon="6.12842">
        <ele>1074.2</ele>
        <time>2014-05-09T11:55:38Z</time>
      </trkpt>
      <trkpt lat="44.59435" lon="6.12874">
        <ele>1076.2</ele>
        <time>2014-05-09T11:55:46Z</time>
      </trkpt>
      <trkpt lat="44.59449" lon="6.12918">
        <ele>1078.8</ele>
        <time>2014-05-09T11:55:58Z</time>
      </trkpt>
      <trkpt lat="44.5946" lon="6.12946">
        <ele>1080.3</ele>
        <time>2014-05-09T11:56:06Z</time>
      </trkpt>
      <trkpt lat="44.59466" lon="6.1296">
        <ele>1081.3</ele>
        <time>2014-05-09T11:56:10Z</time>
      </trkpt>
      <trkpt lat="44.59489" lon="6.13013">
        <ele>1085.1</ele>
        <time>2014-05-09T11:56:25Z</time>
      </trkpt>
      <trkpt lat="44.59499" lon="6.13038">
        <ele>1086.4</ele>
        <time>2014-05-09T11:56:32Z</time>
      </trkpt>
      <trkpt lat="44.59503" lon="6.13054">
        <ele>1087.7</ele>
        <time>2014-05-09T11:56:36Z</time>
      </trkpt>
      <trkpt lat="44.59513" lon="6.1312">
        <ele>1091.4</ele>
        <time>2014-05-09T11:56:52Z</time>
      </trkpt>
      <trkpt lat="44.59517" lon="6.13149">
        <ele>1093.3</ele>
        <time>2014-05-09T11:56:59Z</time>
      </trkpt>
      <trkpt lat="44.59517" lon="6.13187">
        <ele>1095.6</ele>
        <time>2014-05-09T11:57:08Z</time>
      </trkpt>
      <trkpt lat="44.59526" lon="6.13211">
        <ele>1096.9</ele>
        <time>2014-05-09T11:57:15Z</time>
      </trkpt>
      <trkpt lat="44.59538" lon="6.13188">
        <ele>1098.1</ele>
        <time>2014-05-09T11:57:22Z</time>
      </trkpt>
      <trkpt lat="44.59541" lon="6.13162">
        <ele>1099.5</ele>
        <time>2014-05-09T11:57:28Z</time>
      </trkpt>
      <trkpt lat="44.59553" lon="6.13143">
        <ele>1100.8</ele>
        <time>2014-05-09T11:57:34Z</time>
      </trkpt>
      <trkpt lat="44.59564" lon="6.1314">
        <ele>1101.2</ele>
        <time>2014-05-09T11:57:38Z</time>
      </trkpt>
      <trkpt lat="44.59587" lon="6.13142">
        <ele>1103.3</ele>
        <time>2014-05-09T11:57:46Z</time>
      </trkpt>
      <trkpt lat="44.59609" lon="6.13148">
        <ele>1105.4</ele>
        <time>2014-05-09T11:57:54Z</time>
      </trkpt>
      <trkpt lat="44.59621" lon="6.13152">
        <ele>1106.3</ele>
        <time>2014-05-09T11:57:58Z</time>
      </trkpt>
      <trkpt lat="44.59642" lon="6.13148">
        <ele>1107.8</ele>
        <time>2014-05-09T11:58:06Z</time>
      </trkpt>
      <trkpt lat="44.59685" lon="6.13098">
        <ele>1111.1</ele>
        <time>2014-05-09T11:58:25Z</time>
      </trkpt>
      <trkpt lat="44.59703" lon="6.13081">
        <ele>1113.3</ele>
        <time>2014-05-09T11:58:33Z</time>
      </trkpt>
      <trkpt lat="44.59713" lon="6.13078">
        <ele>1113.8</ele>
        <time>2014-05-09T11:58:37Z</time>
      </trkpt>
      <trkpt lat="44.59731" lon="6.13089">
        <ele>1115.6</ele>
        <time>2014-05-09T11:58:45Z</time>
      </trkpt>
      <trkpt lat="44.59748" lon="6.13143">
        <ele>1119.2</ele>
        <time>2014-05-09T11:59:01Z</time>
      </trkpt>
      <trkpt lat="44.59759" lon="6.13172">
        <ele>1120.5</ele>
        <time>2014-05-09T11:59:09Z</time>
      </trkpt>
      <trkpt lat="44.59782" lon="6.13215">
        <ele>1122.1</ele>
        <time>2014-05-09T11:59:21Z</time>
      </trkpt>
      <trkpt lat="44.59792" lon="6.1324">
        <ele>1122.7</ele>
        <time>2014-05-09T11:59:27Z</time>
      </trkpt>
      <trkpt lat="44.598" lon="6.13267">
        <ele>1123.4</ele>
        <time>2014-05-09T11:59:33Z</time>
      </trkpt>
      <trkpt lat="44.59809" lon="6.13311">
        <ele>1125.1</ele>
        <time>2014-05-09T11:59:42Z</time>
      </trkpt>
      <trkpt lat="44.59811" lon="6.13326">
        <ele>1125.7</ele>
        <time>2014-05-09T11:59:45Z</time>
      </trkpt>
      <trkpt lat="44.59817" lon="6.13354">
        <ele>1126.6</ele>
        <time>2014-05-09T11:59:51Z</time>
      </trkpt>
      <trkpt lat="44.59838" lon="6.13417">
        <ele>1130.9</ele>
        <time>2014-05-09T12:00:07Z</time>
      </trkpt>
      <trkpt lat="44.59841" lon="6.13432">
        <ele>1131.5</ele>
        <time>2014-05-09T12:00:11Z</time>
      </trkpt>
      <trkpt lat="44.5984" lon="6.13464">
        <ele>1133.4</ele>
        <time>2014-05-09T12:00:19Z</time>
      </trkpt>
      <trkpt lat="44.59837" lon="6.1348">
        <ele>1134.3</ele>
        <time>2014-05-09T12:00:23Z</time>
      </trkpt>
      <trkpt lat="44.59832" lon="6.1352">
        <ele>1136.2</ele>
        <time>2014-05-09T12:00:33Z</time>
      </trkpt>
      <trkpt lat="44.59849" lon="6.13516">
        <ele>1137.1</ele>
        <time>2014-05-09T12:00:39Z</time>
      </trkpt>
      <trkpt lat="44.59865" lon="6.13483">
        <ele>1138.7</ele>
        <time>2014-05-09T12:00:48Z</time>
      </trkpt>
      <trkpt lat="44.59873" lon="6.1347">
        <ele>1139.5</ele>
        <time>2014-05-09T12:00:52Z</time>
      </trkpt>
      <trkpt lat="44.59891" lon="6.13473">
        <ele>1141.5</ele>
        <time>2014-05-09T12:00:59Z</time>
      </trkpt>
      <trkpt lat="44.5989" lon="6.13502">
        <ele>1143.6</ele>
        <time>2014-05-09T12:01:06Z</time>
      </trkpt>
      <trkpt lat="44.59891" lon="6.13528">
        <ele>1144.8</ele>
        <time>2014-05-09T12:01:12Z</time>
      </trkpt>
      <trkpt lat="44.59911" lon="6.13532">
        <ele>1146.4</ele>
        <time>2014-05-09T12:01:19Z</time>
      </trkpt>
      <trkpt lat="44.59929" lon="6.13534">
        <ele>1147.9</ele>
        <time>2014-05-09T12:01:25Z</time>
      </trkpt>
      <trkpt lat="44.59948" lon="6.13547">
        <ele>1148.8</ele>
        <time>2014-05-09T12:01:31Z</time>
      </trkpt>
      <trkpt lat="44.59993" lon="6.13581">
        <ele>1150.4</ele>
        <time>2014-05-09T12:01:47Z</time>
      </trkpt>
      <trkpt lat="44.60015" lon="6.13597">
        <ele>1151.1</ele>
        <time>2014-05-09T12:01:53Z</time>
      </trkpt>
      <trkpt lat="44.60033" lon="6.13608">
        <ele>1152</ele>
        <time>2014-05-09T12:01:58Z</time>
      </trkpt>
      <trkpt lat="44.60044" lon="6.1361">
        <ele>1152.3</ele>
        <time>2014-05-09T12:02:01Z</time>
      </trkpt>
      <trkpt lat="44.60064" lon="6.13614">
        <ele>1153.4</ele>
        <time>2014-05-09T12:02:07Z</time>
      </trkpt>
      <trkpt lat="44.60083" lon="6.13612">
        <ele>1154.9</ele>
        <time>2014-05-09T12:02:13Z</time>
      </trkpt>
      <trkpt lat="44.60106" lon="6.13585">
        <ele>1156.9</ele>
        <time>2014-05-09T12:02:22Z</time>
      </trkpt>
      <trkpt lat="44.60124" lon="6.13582">
        <ele>1159.1</ele>
        <time>2014-05-09T12:02:29Z</time>
      </trkpt>
      <trkpt lat="44.60164" lon="6.13625">
        <ele>1162</ele>
        <time>2014-05-09T12:02:44Z</time>
      </trkpt>
      <trkpt lat="44.60183" lon="6.13632">
        <ele>1162.9</ele>
        <time>2014-05-09T12:02:50Z</time>
      </trkpt>
      <trkpt lat="44.60202" lon="6.13623">
        <ele>1164.1</ele>
        <time>2014-05-09T12:02:56Z</time>
      </trkpt>
      <trkpt lat="44.60226" lon="6.13601">
        <ele>1166</ele>
        <time>2014-05-09T12:03:05Z</time>
      </trkpt>
      <trkpt lat="44.60245" lon="6.13586">
        <ele>1167.3</ele>
        <time>2014-05-09T12:03:12Z</time>
      </trkpt>
      <trkpt lat="44.60255" lon="6.1358">
        <ele>1168</ele>
        <time>2014-05-09T12:03:16Z</time>
      </trkpt>
      <trkpt lat="44.60286" lon="6.13567">
        <ele>1169.5</ele>
        <time>2014-05-09T12:03:27Z</time>
      </trkpt>
      <trkpt lat="44.60306" lon="6.13555">
        <ele>1171.4</ele>
        <time>2014-05-09T12:03:34Z</time>
      </trkpt>
      <trkpt lat="44.6033" lon="6.13524">
        <ele>1174.3</ele>
        <time>2014-05-09T12:03:46Z</time>
      </trkpt>
      <trkpt lat="44.60345" lon="6.13536">
        <ele>1176.5</ele>
        <time>2014-05-09T12:03:54Z</time>
      </trkpt>
      <trkpt lat="44.60345" lon="6.13568">
        <ele>1178.2</ele>
        <time>2014-05-09T12:04:02Z</time>
      </trkpt>
      <trkpt lat="44.60352" lon="6.13642">
        <ele>1182.6</ele>
        <time>2014-05-09T12:04:20Z</time>
      </trkpt>
      <trkpt lat="44.60355" lon="6.13687">
        <ele>1184.7</ele>
        <time>2014-05-09T12:04:32Z</time>
      </trkpt>
      <trkpt lat="44.60354" lon="6.13703">
        <ele>1185.4</ele>
        <time>2014-05-09T12:04:36Z</time>
      </trkpt>
      <trkpt lat="44.60346" lon="6.13733">
        <ele>1187.8</ele>
        <time>2014-05-09T12:04:44Z</time>
      </trkpt>
      <trkpt lat="44.60333" lon="6.1376">
        <ele>1189</ele>
        <time>2014-05-09T12:04:52Z</time>
      </trkpt>
      <trkpt lat="44.60327" lon="6.13774">
        <ele>1190.2</ele>
        <time>2014-05-09T12:04:56Z</time>
      </trkpt>
      <trkpt lat="44.60317" lon="6.13795">
        <ele>1191.1</ele>
        <time>2014-05-09T12:05:02Z</time>
      </trkpt>
      <trkpt lat="44.60314" lon="6.1381">
        <ele>1192</ele>
        <time>2014-05-09T12:05:06Z</time>
      </trkpt>
      <trkpt lat="44.60305" lon="6.1387">
        <ele>1196.1</ele>
        <time>2014-05-09T12:05:21Z</time>
      </trkpt>
      <trkpt lat="44.60307" lon="6.13901">
        <ele>1197.8</ele>
        <time>2014-05-09T12:05:29Z</time>
      </trkpt>
      <trkpt lat="44.60311" lon="6.13929">
        <ele>1199.2</ele>
        <time>2014-05-09T12:05:36Z</time>
      </trkpt>
      <trkpt lat="44.60313" lon="6.13962">
        <ele>1200.8</ele>
        <time>2014-05-09T12:05:44Z</time>
      </trkpt>
      <trkpt lat="44.60308" lon="6.13994">
        <ele>1202.4</ele>
        <time>2014-05-09T12:05:52Z</time>
      </trkpt>
      <trkpt lat="44.603" lon="6.14024">
        <ele>1204.3</ele>
        <time>2014-05-09T12:06:00Z</time>
      </trkpt>
      <trkpt lat="44.60297" lon="6.1404">
        <ele>1205.6</ele>
        <time>2014-05-09T12:06:04Z</time>
      </trkpt>
      <trkpt lat="44.60304" lon="6.14063">
        <ele>1206.8</ele>
        <time>2014-05-09T12:06:10Z</time>
      </trkpt>
      <trkpt lat="44.60323" lon="6.14078">
        <ele>1208.8</ele>
        <time>2014-05-09T12:06:18Z</time>
      </trkpt>
      <trkpt lat="44.60342" lon="6.14091">
        <ele>1210.5</ele>
        <time>2014-05-09T12:06:26Z</time>
      </trkpt>
      <trkpt lat="44.60362" lon="6.14097">
        <ele>1212.1</ele>
        <time>2014-05-09T12:06:34Z</time>
      </trkpt>
      <trkpt lat="44.60383" lon="6.14102">
        <ele>1213.8</ele>
        <time>2014-05-09T12:06:42Z</time>
      </trkpt>
      <trkpt lat="44.60395" lon="6.14127">
        <ele>1215.2</ele>
        <time>2014-05-09T12:06:50Z</time>
      </trkpt>
      <trkpt lat="44.60403" lon="6.14184">
        <ele>1217.9</ele>
        <time>2014-05-09T12:07:06Z</time>
      </trkpt>
      <trkpt lat="44.60407" lon="6.14214">
        <ele>1219.6</ele>
        <time>2014-05-09T12:07:14Z</time>
      </trkpt>
      <trkpt lat="44.60421" lon="6.1423">
        <ele>1222.1</ele>
        <time>2014-05-09T12:07:24Z</time>
      </trkpt>
      <trkpt lat="44.6045" lon="6.14219">
        <ele>1225.4</ele>
        <time>2014-05-09T12:07:36Z</time>
      </trkpt>
      <trkpt lat="44.60473" lon="6.14214">
        <ele>1226.4</ele>
        <time>2014-05-09T12:07:44Z</time>
      </trkpt>
      <trkpt lat="44.60484" lon="6.14213">
        <ele>1227.2</ele>
        <time>2014-05-09T12:07:48Z</time>
      </trkpt>
      <trkpt lat="44.60526" lon="6.1421">
        <ele>1230.4</ele>
        <time>2014-05-09T12:08:04Z</time>
      </trkpt>
      <trkpt lat="44.60547" lon="6.14208">
        <ele>1232.6</ele>
        <time>2014-05-09T12:08:12Z</time>
      </trkpt>
      <trkpt lat="44.60568" lon="6.14205">
        <ele>1235.1</ele>
        <time>2014-05-09T12:08:20Z</time>
      </trkpt>
      <trkpt lat="44.60611" lon="6.14198">
        <ele>1238.3</ele>
        <time>2014-05-09T12:08:36Z</time>
      </trkpt>
      <trkpt lat="44.60621" lon="6.14194">
        <ele>1239.2</ele>
        <time>2014-05-09T12:08:40Z</time>
      </trkpt>
      <trkpt lat="44.60643" lon="6.1419">
        <ele>1240.8</ele>
        <time>2014-05-09T12:08:48Z</time>
      </trkpt>
      <trkpt lat="44.60664" lon="6.14184">
        <ele>1242.4</ele>
        <time>2014-05-09T12:08:56Z</time>
      </trkpt>
      <trkpt lat="44.60686" lon="6.14178">
        <ele>1244</ele>
        <time>2014-05-09T12:09:04Z</time>
      </trkpt>
      <trkpt lat="44.60697" lon="6.14174">
        <ele>1244.3</ele>
        <time>2014-05-09T12:09:08Z</time>
      </trkpt>
      <trkpt lat="44.60716" lon="6.14163">
        <ele>1245.4</ele>
        <time>2014-05-09T12:09:15Z</time>
      </trkpt>
      <trkpt lat="44.60762" lon="6.14136">
        <ele>1247</ele>
        <time>2014-05-09T12:09:30Z</time>
      </trkpt>
      <trkpt lat="44.60802" lon="6.14114">
        <ele>1248</ele>
        <time>2014-05-09T12:09:42Z</time>
      </trkpt>
      <trkpt lat="44.60824" lon="6.14104">
        <ele>1248.7</ele>
        <time>2014-05-09T12:09:48Z</time>
      </trkpt>
      <trkpt lat="44.60845" lon="6.14097">
        <ele>1249.3</ele>
        <time>2014-05-09T12:09:54Z</time>
      </trkpt>
      <trkpt lat="44.60889" lon="6.14087">
        <ele>1251</ele>
        <time>2014-05-09T12:10:06Z</time>
      </trkpt>
      <trkpt lat="44.609" lon="6.14083">
        <ele>1251.2</ele>
        <time>2014-05-09T12:10:09Z</time>
      </trkpt>
      <trkpt lat="44.60921" lon="6.14073">
        <ele>1252</ele>
        <time>2014-05-09T12:10:15Z</time>
      </trkpt>
      <trkpt lat="44.6094" lon="6.14062">
        <ele>1253.6</ele>
        <time>2014-05-09T12:10:21Z</time>
      </trkpt>
      <trkpt lat="44.60959" lon="6.1405">
        <ele>1255.6</ele>
        <time>2014-05-09T12:10:27Z</time>
      </trkpt>
      <trkpt lat="44.60978" lon="6.14034">
        <ele>1256</ele>
        <time>2014-05-09T12:10:33Z</time>
      </trkpt>
      <trkpt lat="44.61015" lon="6.14002">
        <ele>1258.1</ele>
        <time>2014-05-09T12:10:45Z</time>
      </trkpt>
      <trkpt lat="44.61043" lon="6.13977">
        <ele>1258.6</ele>
        <time>2014-05-09T12:10:54Z</time>
      </trkpt>
      <trkpt lat="44.61058" lon="6.13959">
        <ele>1260.5</ele>
        <time>2014-05-09T12:11:00Z</time>
      </trkpt>
      <trkpt lat="44.61072" lon="6.13936">
        <ele>1261.3</ele>
        <time>2014-05-09T12:11:06Z</time>
      </trkpt>
      <trkpt lat="44.6109" lon="6.13914">
        <ele>1261.8</ele>
        <time>2014-05-09T12:11:12Z</time>
      </trkpt>
      <trkpt lat="44.61113" lon="6.13903">
        <ele>1261.8</ele>
        <time>2014-05-09T12:11:18Z</time>
      </trkpt>
      <trkpt lat="44.61125" lon="6.13902">
        <ele>1261.8</ele>
        <time>2014-05-09T12:11:21Z</time>
      </trkpt>
      <trkpt lat="44.61179" lon="6.13899">
        <ele>1261.8</ele>
        <time>2014-05-09T12:11:33Z</time>
      </trkpt>
      <trkpt lat="44.6121" lon="6.13896">
        <ele>1261.6</ele>
        <time>2014-05-09T12:11:39Z</time>
      </trkpt>
      <trkpt lat="44.61253" lon="6.13887">
        <ele>1261.6</ele>
        <time>2014-05-09T12:11:47Z</time>
      </trkpt>
      <trkpt lat="44.61312" lon="6.13867">
        <ele>1259.2</ele>
        <time>2014-05-09T12:11:57Z</time>
      </trkpt>
      <trkpt lat="44.61336" lon="6.13855">
        <ele>1257.9</ele>
        <time>2014-05-09T12:12:01Z</time>
      </trkpt>
      <trkpt lat="44.61359" lon="6.13839">
        <ele>1257.1</ele>
        <time>2014-05-09T12:12:05Z</time>
      </trkpt>
      <trkpt lat="44.61381" lon="6.13823">
        <ele>1257</ele>
        <time>2014-05-09T12:12:09Z</time>
      </trkpt>
      <trkpt lat="44.6141" lon="6.138">
        <ele>1255.2</ele>
        <time>2014-05-09T12:12:15Z</time>
      </trkpt>
      <trkpt lat="44.61419" lon="6.13793">
        <ele>1254.8</ele>
        <time>2014-05-09T12:12:17Z</time>
      </trkpt>
      <trkpt lat="44.61438" lon="6.13783">
        <ele>1254</ele>
        <time>2014-05-09T12:12:21Z</time>
      </trkpt>
      <trkpt lat="44.61456" lon="6.13781">
        <ele>1253.4</ele>
        <time>2014-05-09T12:12:25Z</time>
      </trkpt>
      <trkpt lat="44.61475" lon="6.13765">
        <ele>1253</ele>
        <time>2014-05-09T12:12:30Z</time>
      </trkpt>
      <trkpt lat="44.61489" lon="6.13749">
        <ele>1253</ele>
        <time>2014-05-09T12:12:34Z</time>
      </trkpt>
      <trkpt lat="44.61515" lon="6.13732">
        <ele>1252</ele>
        <time>2014-05-09T12:12:40Z</time>
      </trkpt>
      <trkpt lat="44.61535" lon="6.13722">
        <ele>1251</ele>
        <time>2014-05-09T12:12:44Z</time>
      </trkpt>
      <trkpt lat="44.61566" lon="6.13704">
        <ele>1250.7</ele>
        <time>2014-05-09T12:12:50Z</time>
      </trkpt>
      <trkpt lat="44.61613" lon="6.13678">
        <ele>1248.6</ele>
        <time>2014-05-09T12:12:58Z</time>
      </trkpt>
      <trkpt lat="44.61639" lon="6.13665">
        <ele>1247.9</ele>
        <time>2014-05-09T12:13:02Z</time>
      </trkpt>
      <trkpt lat="44.61651" lon="6.13657">
        <ele>1247.4</ele>
        <time>2014-05-09T12:13:04Z</time>
      </trkpt>
      <trkpt lat="44.61692" lon="6.13636">
        <ele>1245.4</ele>
        <time>2014-05-09T12:13:10Z</time>
      </trkpt>
      <trkpt lat="44.61706" lon="6.13627">
        <ele>1244.6</ele>
        <time>2014-05-09T12:13:12Z</time>
      </trkpt>
      <trkpt lat="44.61721" lon="6.13615">
        <ele>1244.3</ele>
        <time>2014-05-09T12:13:14Z</time>
      </trkpt>
      <trkpt lat="44.61743" lon="6.13592">
        <ele>1243.3</ele>
        <time>2014-05-09T12:13:17Z</time>
      </trkpt>
      <trkpt lat="44.61771" lon="6.13557">
        <ele>1242.5</ele>
        <time>2014-05-09T12:13:21Z</time>
      </trkpt>
      <trkpt lat="44.61807" lon="6.13513">
        <ele>1241.9</ele>
        <time>2014-05-09T12:13:26Z</time>
      </trkpt>
      <trkpt lat="44.61828" lon="6.13491">
        <ele>1241.9</ele>
        <time>2014-05-09T12:13:29Z</time>
      </trkpt>
      <trkpt lat="44.61843" lon="6.13479">
        <ele>1242.3</ele>
        <time>2014-05-09T12:13:31Z</time>
      </trkpt>
      <trkpt lat="44.61858" lon="6.1347">
        <ele>1242.3</ele>
        <time>2014-05-09T12:13:33Z</time>
      </trkpt>
      <trkpt lat="44.61873" lon="6.13463">
        <ele>1242.4</ele>
        <time>2014-05-09T12:13:35Z</time>
      </trkpt>
      <trkpt lat="44.61902" lon="6.13455">
        <ele>1241.1</ele>
        <time>2014-05-09T12:13:39Z</time>
      </trkpt>
      <trkpt lat="44.61918" lon="6.13454">
        <ele>1240.2</ele>
        <time>2014-05-09T12:13:41Z</time>
      </trkpt>
      <trkpt lat="44.61934" lon="6.13454">
        <ele>1239.5</ele>
        <time>2014-05-09T12:13:43Z</time>
      </trkpt>
      <trkpt lat="44.6195" lon="6.13456">
        <ele>1239.1</ele>
        <time>2014-05-09T12:13:45Z</time>
      </trkpt>
      <trkpt lat="44.61967" lon="6.1346">
        <ele>1238.3</ele>
        <time>2014-05-09T12:13:47Z</time>
      </trkpt>
      <trkpt lat="44.61983" lon="6.13466">
        <ele>1237.3</ele>
        <time>2014-05-09T12:13:49Z</time>
      </trkpt>
      <trkpt lat="44.62044" lon="6.13494">
        <ele>1233.5</ele>
        <time>2014-05-09T12:13:57Z</time>
      </trkpt>
      <trkpt lat="44.62071" lon="6.13483">
        <ele>1231.6</ele>
        <time>2014-05-09T12:14:01Z</time>
      </trkpt>
      <trkpt lat="44.62079" lon="6.13443">
        <ele>1230.7</ele>
        <time>2014-05-09T12:14:05Z</time>
      </trkpt>
      <trkpt lat="44.62092" lon="6.13413">
        <ele>1230.9</ele>
        <time>2014-05-09T12:14:09Z</time>
      </trkpt>
      <trkpt lat="44.62112" lon="6.13398">
        <ele>1231.7</ele>
        <time>2014-05-09T12:14:13Z</time>
      </trkpt>
      <trkpt lat="44.6216" lon="6.13381">
        <ele>1231.8</ele>
        <time>2014-05-09T12:14:21Z</time>
      </trkpt>
      <trkpt lat="44.62197" lon="6.13363">
        <ele>1230.5</ele>
        <time>2014-05-09T12:14:27Z</time>
      </trkpt>
      <trkpt lat="44.62223" lon="6.13352">
        <ele>1229.4</ele>
        <time>2014-05-09T12:14:31Z</time>
      </trkpt>
      <trkpt lat="44.62251" lon="6.13342">
        <ele>1228</ele>
        <time>2014-05-09T12:14:35Z</time>
      </trkpt>
      <trkpt lat="44.62293" lon="6.13326">
        <ele>1226.4</ele>
        <time>2014-05-09T12:14:41Z</time>
      </trkpt>
      <trkpt lat="44.62318" lon="6.1331">
        <ele>1226.4</ele>
        <time>2014-05-09T12:14:45Z</time>
      </trkpt>
      <trkpt lat="44.6234" lon="6.13292">
        <ele>1226.5</ele>
        <time>2014-05-09T12:14:49Z</time>
      </trkpt>
      <trkpt lat="44.62351" lon="6.13281">
        <ele>1226.5</ele>
        <time>2014-05-09T12:14:51Z</time>
      </trkpt>
      <trkpt lat="44.62374" lon="6.13262">
        <ele>1226.3</ele>
        <time>2014-05-09T12:14:55Z</time>
      </trkpt>
      <trkpt lat="44.62397" lon="6.13245">
        <ele>1225.7</ele>
        <time>2014-05-09T12:14:59Z</time>
      </trkpt>
      <trkpt lat="44.62443" lon="6.13212">
        <ele>1225.1</ele>
        <time>2014-05-09T12:15:07Z</time>
      </trkpt>
      <trkpt lat="44.62466" lon="6.13194">
        <ele>1224.8</ele>
        <time>2014-05-09T12:15:11Z</time>
      </trkpt>
      <trkpt lat="44.62516" lon="6.13146">
        <ele>1223.1</ele>
        <time>2014-05-09T12:15:19Z</time>
      </trkpt>
      <trkpt lat="44.62529" lon="6.13131">
        <ele>1221.9</ele>
        <time>2014-05-09T12:15:21Z</time>
      </trkpt>
      <trkpt lat="44.62541" lon="6.13113">
        <ele>1220.4</ele>
        <time>2014-05-09T12:15:23Z</time>
      </trkpt>
      <trkpt lat="44.62553" lon="6.13094">
        <ele>1219.3</ele>
        <time>2014-05-09T12:15:25Z</time>
      </trkpt>
      <trkpt lat="44.62573" lon="6.13069">
        <ele>1219.3</ele>
        <time>2014-05-09T12:15:28Z</time>
      </trkpt>
      <trkpt lat="44.62587" lon="6.13056">
        <ele>1219.3</ele>
        <time>2014-05-09T12:15:30Z</time>
      </trkpt>
      <trkpt lat="44.626" lon="6.13044">
        <ele>1219.2</ele>
        <time>2014-05-09T12:15:32Z</time>
      </trkpt>
      <trkpt lat="44.62615" lon="6.13035">
        <ele>1218.9</ele>
        <time>2014-05-09T12:15:34Z</time>
      </trkpt>
      <trkpt lat="44.6267" lon="6.13001">
        <ele>1217.4</ele>
        <time>2014-05-09T12:15:42Z</time>
      </trkpt>
      <trkpt lat="44.62686" lon="6.12994">
        <ele>1216.8</ele>
        <time>2014-05-09T12:15:44Z</time>
      </trkpt>
      <trkpt lat="44.6272" lon="6.12983">
        <ele>1215.2</ele>
        <time>2014-05-09T12:15:48Z</time>
      </trkpt>
      <trkpt lat="44.62735" lon="6.12976">
        <ele>1215.2</ele>
        <time>2014-05-09T12:15:50Z</time>
      </trkpt>
      <trkpt lat="44.6275" lon="6.12966">
        <ele>1214.3</ele>
        <time>2014-05-09T12:15:52Z</time>
      </trkpt>
      <trkpt lat="44.62763" lon="6.12954">
        <ele>1213.5</ele>
        <time>2014-05-09T12:15:54Z</time>
      </trkpt>
      <trkpt lat="44.62811" lon="6.12906">
        <ele>1213.5</ele>
        <time>2014-05-09T12:16:02Z</time>
      </trkpt>
      <trkpt lat="44.62847" lon="6.1287">
        <ele>1212.6</ele>
        <time>2014-05-09T12:16:08Z</time>
      </trkpt>
      <trkpt lat="44.6286" lon="6.12856">
        <ele>1212.2</ele>
        <time>2014-05-09T12:16:10Z</time>
      </trkpt>
      <trkpt lat="44.62896" lon="6.12807">
        <ele>1210.5</ele>
        <time>2014-05-09T12:16:16Z</time>
      </trkpt>
      <trkpt lat="44.62909" lon="6.12793">
        <ele>1209.9</ele>
        <time>2014-05-09T12:16:18Z</time>
      </trkpt>
      <trkpt lat="44.62922" lon="6.1278">
        <ele>1209.1</ele>
        <time>2014-05-09T12:16:20Z</time>
      </trkpt>
      <trkpt lat="44.62978" lon="6.12733">
        <ele>1207.4</ele>
        <time>2014-05-09T12:16:28Z</time>
      </trkpt>
      <trkpt lat="44.63008" lon="6.12707">
        <ele>1206.6</ele>
        <time>2014-05-09T12:16:32Z</time>
      </trkpt>
      <trkpt lat="44.63051" lon="6.12666">
        <ele>1203.9</ele>
        <time>2014-05-09T12:16:38Z</time>
      </trkpt>
      <trkpt lat="44.63064" lon="6.12652">
        <ele>1202.9</ele>
        <time>2014-05-09T12:16:40Z</time>
      </trkpt>
      <trkpt lat="44.63077" lon="6.12637">
        <ele>1201.8</ele>
        <time>2014-05-09T12:16:42Z</time>
      </trkpt>
      <trkpt lat="44.63109" lon="6.12593">
        <ele>1199.6</ele>
        <time>2014-05-09T12:16:47Z</time>
      </trkpt>
      <trkpt lat="44.63123" lon="6.12576">
        <ele>1198.1</ele>
        <time>2014-05-09T12:16:49Z</time>
      </trkpt>
      <trkpt lat="44.63138" lon="6.12562">
        <ele>1197</ele>
        <time>2014-05-09T12:16:51Z</time>
      </trkpt>
      <trkpt lat="44.63154" lon="6.12548">
        <ele>1196.2</ele>
        <time>2014-05-09T12:16:53Z</time>
      </trkpt>
      <trkpt lat="44.63169" lon="6.12534">
        <ele>1195.3</ele>
        <time>2014-05-09T12:16:55Z</time>
      </trkpt>
      <trkpt lat="44.63183" lon="6.12517">
        <ele>1194.1</ele>
        <time>2014-05-09T12:16:57Z</time>
      </trkpt>
      <trkpt lat="44.63218" lon="6.12468">
        <ele>1191.6</ele>
        <time>2014-05-09T12:17:02Z</time>
      </trkpt>
      <trkpt lat="44.63232" lon="6.12446">
        <ele>1190.1</ele>
        <time>2014-05-09T12:17:04Z</time>
      </trkpt>
      <trkpt lat="44.63239" lon="6.12435">
        <ele>1189.5</ele>
        <time>2014-05-09T12:17:05Z</time>
      </trkpt>
      <trkpt lat="44.63259" lon="6.124">
        <ele>1187.3</ele>
        <time>2014-05-09T12:17:08Z</time>
      </trkpt>
      <trkpt lat="44.63273" lon="6.12377">
        <ele>1185.9</ele>
        <time>2014-05-09T12:17:10Z</time>
      </trkpt>
      <trkpt lat="44.63295" lon="6.12342">
        <ele>1184</ele>
        <time>2014-05-09T12:17:13Z</time>
      </trkpt>
      <trkpt lat="44.63325" lon="6.12297">
        <ele>1181.5</ele>
        <time>2014-05-09T12:17:17Z</time>
      </trkpt>
      <trkpt lat="44.63333" lon="6.12285">
        <ele>1180.8</ele>
        <time>2014-05-09T12:17:18Z</time>
      </trkpt>
      <trkpt lat="44.63362" lon="6.12238">
        <ele>1177.9</ele>
        <time>2014-05-09T12:17:22Z</time>
      </trkpt>
      <trkpt lat="44.63376" lon="6.12213">
        <ele>1176.3</ele>
        <time>2014-05-09T12:17:24Z</time>
      </trkpt>
      <trkpt lat="44.63391" lon="6.12189">
        <ele>1175</ele>
        <time>2014-05-09T12:17:26Z</time>
      </trkpt>
      <trkpt lat="44.63399" lon="6.12178">
        <ele>1174.1</ele>
        <time>2014-05-09T12:17:27Z</time>
      </trkpt>
      <trkpt lat="44.63418" lon="6.12163">
        <ele>1172.1</ele>
        <time>2014-05-09T12:17:29Z</time>
      </trkpt>
      <trkpt lat="44.6343" lon="6.1216">
        <ele>1171.1</ele>
        <time>2014-05-09T12:17:30Z</time>
      </trkpt>
      <trkpt lat="44.63452" lon="6.12162">
        <ele>1169.5</ele>
        <time>2014-05-09T12:17:32Z</time>
      </trkpt>
      <trkpt lat="44.63473" lon="6.1217">
        <ele>1168.2</ele>
        <time>2014-05-09T12:17:34Z</time>
      </trkpt>
      <trkpt lat="44.63495" lon="6.12174">
        <ele>1166.8</ele>
        <time>2014-05-09T12:17:36Z</time>
      </trkpt>
      <trkpt lat="44.63516" lon="6.12165">
        <ele>1165.2</ele>
        <time>2014-05-09T12:17:38Z</time>
      </trkpt>
      <trkpt lat="44.63535" lon="6.12146">
        <ele>1163.4</ele>
        <time>2014-05-09T12:17:40Z</time>
      </trkpt>
      <trkpt lat="44.63552" lon="6.12124">
        <ele>1162.2</ele>
        <time>2014-05-09T12:17:42Z</time>
      </trkpt>
      <trkpt lat="44.63579" lon="6.12087">
        <ele>1159.2</ele>
        <time>2014-05-09T12:17:45Z</time>
      </trkpt>
      <trkpt lat="44.63606" lon="6.12047">
        <ele>1156.4</ele>
        <time>2014-05-09T12:17:48Z</time>
      </trkpt>
      <trkpt lat="44.63624" lon="6.12018">
        <ele>1153.9</ele>
        <time>2014-05-09T12:17:50Z</time>
      </trkpt>
      <trkpt lat="44.63641" lon="6.11989">
        <ele>1152.1</ele>
        <time>2014-05-09T12:17:52Z</time>
      </trkpt>
      <trkpt lat="44.63656" lon="6.11956">
        <ele>1149.6</ele>
        <time>2014-05-09T12:17:54Z</time>
      </trkpt>
      <trkpt lat="44.6368" lon="6.11887">
        <ele>1144.3</ele>
        <time>2014-05-09T12:17:58Z</time>
      </trkpt>
      <trkpt lat="44.63686" lon="6.1187">
        <ele>1143.5</ele>
        <time>2014-05-09T12:17:59Z</time>
      </trkpt>
      <trkpt lat="44.63699" lon="6.11839">
        <ele>1141.4</ele>
        <time>2014-05-09T12:18:01Z</time>
      </trkpt>
      <trkpt lat="44.63709" lon="6.11827">
        <ele>1140.2</ele>
        <time>2014-05-09T12:18:02Z</time>
      </trkpt>
      <trkpt lat="44.63733" lon="6.11808">
        <ele>1137.9</ele>
        <time>2014-05-09T12:18:04Z</time>
      </trkpt>
      <trkpt lat="44.63784" lon="6.11776">
        <ele>1133.5</ele>
        <time>2014-05-09T12:18:08Z</time>
      </trkpt>
      <trkpt lat="44.63834" lon="6.11742">
        <ele>1129.2</ele>
        <time>2014-05-09T12:18:12Z</time>
      </trkpt>
      <trkpt lat="44.63856" lon="6.11719">
        <ele>1127.8</ele>
        <time>2014-05-09T12:18:14Z</time>
      </trkpt>
      <trkpt lat="44.63875" lon="6.11693">
        <ele>1126.5</ele>
        <time>2014-05-09T12:18:16Z</time>
      </trkpt>
      <trkpt lat="44.63895" lon="6.11669">
        <ele>1125.1</ele>
        <time>2014-05-09T12:18:18Z</time>
      </trkpt>
      <trkpt lat="44.63916" lon="6.11649">
        <ele>1123.5</ele>
        <time>2014-05-09T12:18:20Z</time>
      </trkpt>
      <trkpt lat="44.63938" lon="6.11633">
        <ele>1121.9</ele>
        <time>2014-05-09T12:18:22Z</time>
      </trkpt>
      <trkpt lat="44.63961" lon="6.11619">
        <ele>1120.5</ele>
        <time>2014-05-09T12:18:24Z</time>
      </trkpt>
      <trkpt lat="44.63972" lon="6.11611">
        <ele>1119.9</ele>
        <time>2014-05-09T12:18:25Z</time>
      </trkpt>
      <trkpt lat="44.63992" lon="6.11592">
        <ele>1118.9</ele>
        <time>2014-05-09T12:18:27Z</time>
      </trkpt>
      <trkpt lat="44.64009" lon="6.1157">
        <ele>1117.4</ele>
        <time>2014-05-09T12:18:29Z</time>
      </trkpt>
      <trkpt lat="44.64038" lon="6.11524">
        <ele>1118.3</ele>
        <time>2014-05-09T12:18:33Z</time>
      </trkpt>
      <trkpt lat="44.64077" lon="6.11462">
        <ele>1116.1</ele>
        <time>2014-05-09T12:18:39Z</time>
      </trkpt>
      <trkpt lat="44.641" lon="6.11424">
        <ele>1114.8</ele>
        <time>2014-05-09T12:18:43Z</time>
      </trkpt>
      <trkpt lat="44.64112" lon="6.11405">
        <ele>1113.4</ele>
        <time>2014-05-09T12:18:45Z</time>
      </trkpt>
      <trkpt lat="44.64126" lon="6.11388">
        <ele>1112.6</ele>
        <time>2014-05-09T12:18:47Z</time>
      </trkpt>
      <trkpt lat="44.64147" lon="6.11365">
        <ele>1111.1</ele>
        <time>2014-05-09T12:18:50Z</time>
      </trkpt>
      <trkpt lat="44.64159" lon="6.11349">
        <ele>1110.3</ele>
        <time>2014-05-09T12:18:52Z</time>
      </trkpt>
      <trkpt lat="44.64169" lon="6.11329">
        <ele>1109.5</ele>
        <time>2014-05-09T12:18:54Z</time>
      </trkpt>
      <trkpt lat="44.64186" lon="6.11273">
        <ele>1105.9</ele>
        <time>2014-05-09T12:18:59Z</time>
      </trkpt>
      <trkpt lat="44.64202" lon="6.11263">
        <ele>1104.5</ele>
        <time>2014-05-09T12:19:01Z</time>
      </trkpt>
      <trkpt lat="44.6423" lon="6.11259">
        <ele>1103.6</ele>
        <time>2014-05-09T12:19:04Z</time>
      </trkpt>
      <trkpt lat="44.64244" lon="6.1124">
        <ele>1101.9</ele>
        <time>2014-05-09T12:19:06Z</time>
      </trkpt>
      <trkpt lat="44.64257" lon="6.11215">
        <ele>1100.6</ele>
        <time>2014-05-09T12:19:08Z</time>
      </trkpt>
      <trkpt lat="44.64283" lon="6.11163">
        <ele>1097.7</ele>
        <time>2014-05-09T12:19:12Z</time>
      </trkpt>
      <trkpt lat="44.64302" lon="6.11123">
        <ele>1094.5</ele>
        <time>2014-05-09T12:19:15Z</time>
      </trkpt>
      <trkpt lat="44.64314" lon="6.11099">
        <ele>1092.1</ele>
        <time>2014-05-09T12:19:17Z</time>
      </trkpt>
      <trkpt lat="44.64327" lon="6.11077">
        <ele>1090.2</ele>
        <time>2014-05-09T12:19:19Z</time>
      </trkpt>
      <trkpt lat="44.64342" lon="6.11058">
        <ele>1087.8</ele>
        <time>2014-05-09T12:19:21Z</time>
      </trkpt>
      <trkpt lat="44.64356" lon="6.11046">
        <ele>1085.5</ele>
        <time>2014-05-09T12:19:23Z</time>
      </trkpt>
      <trkpt lat="44.64382" lon="6.11048">
        <ele>1082.5</ele>
        <time>2014-05-09T12:19:27Z</time>
      </trkpt>
      <trkpt lat="44.64408" lon="6.11032">
        <ele>1081.4</ele>
        <time>2014-05-09T12:19:31Z</time>
      </trkpt>
      <trkpt lat="44.64455" lon="6.10994">
        <ele>1079.9</ele>
        <time>2014-05-09T12:19:39Z</time>
      </trkpt>
      <trkpt lat="44.64472" lon="6.10968">
        <ele>1080</ele>
        <time>2014-05-09T12:19:43Z</time>
      </trkpt>
      <trkpt lat="44.64481" lon="6.10935">
        <ele>1079.3</ele>
        <time>2014-05-09T12:19:47Z</time>
      </trkpt>
      <trkpt lat="44.64494" lon="6.10902">
        <ele>1078.3</ele>
        <time>2014-05-09T12:19:51Z</time>
      </trkpt>
      <trkpt lat="44.64509" lon="6.10868">
        <ele>1076.8</ele>
        <time>2014-05-09T12:19:55Z</time>
      </trkpt>
      <trkpt lat="44.64529" lon="6.10836">
        <ele>1075.4</ele>
        <time>2014-05-09T12:19:59Z</time>
      </trkpt>
      <trkpt lat="44.64542" lon="6.10824">
        <ele>1074.7</ele>
        <time>2014-05-09T12:20:01Z</time>
      </trkpt>
      <trkpt lat="44.64557" lon="6.10812">
        <ele>1074.2</ele>
        <time>2014-05-09T12:20:03Z</time>
      </trkpt>
      <trkpt lat="44.64584" lon="6.10783">
        <ele>1073.2</ele>
        <time>2014-05-09T12:20:07Z</time>
      </trkpt>
      <trkpt lat="44.64608" lon="6.10748">
        <ele>1071.3</ele>
        <time>2014-05-09T12:20:11Z</time>
      </trkpt>
      <trkpt lat="44.64621" lon="6.10732">
        <ele>1070.2</ele>
        <time>2014-05-09T12:20:13Z</time>
      </trkpt>
      <trkpt lat="44.64635" lon="6.10717">
        <ele>1069</ele>
        <time>2014-05-09T12:20:15Z</time>
      </trkpt>
      <trkpt lat="44.64653" lon="6.10689">
        <ele>1067.8</ele>
        <time>2014-05-09T12:20:18Z</time>
      </trkpt>
      <trkpt lat="44.64676" lon="6.10648">
        <ele>1065.6</ele>
        <time>2014-05-09T12:20:22Z</time>
      </trkpt>
      <trkpt lat="44.6469" lon="6.10629">
        <ele>1064.4</ele>
        <time>2014-05-09T12:20:24Z</time>
      </trkpt>
      <trkpt lat="44.64709" lon="6.10618">
        <ele>1063</ele>
        <time>2014-05-09T12:20:26Z</time>
      </trkpt>
      <trkpt lat="44.64729" lon="6.10617">
        <ele>1061.6</ele>
        <time>2014-05-09T12:20:28Z</time>
      </trkpt>
      <trkpt lat="44.64753" lon="6.10619">
        <ele>1059.4</ele>
        <time>2014-05-09T12:20:31Z</time>
      </trkpt>
      <trkpt lat="44.64773" lon="6.10607">
        <ele>1058.1</ele>
        <time>2014-05-09T12:20:35Z</time>
      </trkpt>
      <trkpt lat="44.64779" lon="6.10575">
        <ele>1057.5</ele>
        <time>2014-05-09T12:20:39Z</time>
      </trkpt>
      <trkpt lat="44.64782" lon="6.10542">
        <ele>1057.4</ele>
        <time>2014-05-09T12:20:43Z</time>
      </trkpt>
      <trkpt lat="44.64787" lon="6.10479">
        <ele>1057.3</ele>
        <time>2014-05-09T12:20:51Z</time>
      </trkpt>
      <trkpt lat="44.64788" lon="6.10463">
        <ele>1057.1</ele>
        <time>2014-05-09T12:20:53Z</time>
      </trkpt>
      <trkpt lat="44.64789" lon="6.10431">
        <ele>1056.8</ele>
        <time>2014-05-09T12:20:57Z</time>
      </trkpt>
      <trkpt lat="44.64778" lon="6.10371">
        <ele>1058.2</ele>
        <time>2014-05-09T12:21:05Z</time>
      </trkpt>
      <trkpt lat="44.64776" lon="6.10357">
        <ele>1058.9</ele>
        <time>2014-05-09T12:21:07Z</time>
      </trkpt>
      <trkpt lat="44.64762" lon="6.10285">
        <ele>1060.5</ele>
        <time>2014-05-09T12:21:17Z</time>
      </trkpt>
      <trkpt lat="44.64752" lon="6.10223">
        <ele>1061</ele>
        <time>2014-05-09T12:21:25Z</time>
      </trkpt>
      <trkpt lat="44.64749" lon="6.10208">
        <ele>1061.2</ele>
        <time>2014-05-09T12:21:27Z</time>
      </trkpt>
      <trkpt lat="44.64738" lon="6.10142">
        <ele>1060.9</ele>
        <time>2014-05-09T12:21:35Z</time>
      </trkpt>
      <trkpt lat="44.64732" lon="6.10108">
        <ele>1061.3</ele>
        <time>2014-05-09T12:21:39Z</time>
      </trkpt>
      <trkpt lat="44.64728" lon="6.10074">
        <ele>1061.2</ele>
        <time>2014-05-09T12:21:43Z</time>
      </trkpt>
      <trkpt lat="44.64727" lon="6.10055">
        <ele>1061</ele>
        <time>2014-05-09T12:21:45Z</time>
      </trkpt>
      <trkpt lat="44.64736" lon="6.1002">
        <ele>1060.5</ele>
        <time>2014-05-09T12:21:49Z</time>
      </trkpt>
      <trkpt lat="44.64748" lon="6.09987">
        <ele>1060.4</ele>
        <time>2014-05-09T12:21:53Z</time>
      </trkpt>
      <trkpt lat="44.64761" lon="6.09956">
        <ele>1060.2</ele>
        <time>2014-05-09T12:21:57Z</time>
      </trkpt>
      <trkpt lat="44.64777" lon="6.09925">
        <ele>1060</ele>
        <time>2014-05-09T12:22:01Z</time>
      </trkpt>
      <trkpt lat="44.64781" lon="6.09883">
        <ele>1059.7</ele>
        <time>2014-05-09T12:22:05Z</time>
      </trkpt>
      <trkpt lat="44.64779" lon="6.09861">
        <ele>1059.2</ele>
        <time>2014-05-09T12:22:07Z</time>
      </trkpt>
      <trkpt lat="44.6478" lon="6.09822">
        <ele>1058.7</ele>
        <time>2014-05-09T12:22:11Z</time>
      </trkpt>
      <trkpt lat="44.64794" lon="6.09789">
        <ele>1058.5</ele>
        <time>2014-05-09T12:22:15Z</time>
      </trkpt>
      <trkpt lat="44.64827" lon="6.09725">
        <ele>1058.1</ele>
        <time>2014-05-09T12:22:23Z</time>
      </trkpt>
      <trkpt lat="44.64853" lon="6.0967">
        <ele>1057.5</ele>
        <time>2014-05-09T12:22:29Z</time>
      </trkpt>
      <trkpt lat="44.6489" lon="6.09591">
        <ele>1054.9</ele>
        <time>2014-05-09T12:22:37Z</time>
      </trkpt>
      <trkpt lat="44.64907" lon="6.09551">
        <ele>1053.8</ele>
        <time>2014-05-09T12:22:41Z</time>
      </trkpt>
      <trkpt lat="44.64933" lon="6.09491">
        <ele>1053.5</ele>
        <time>2014-05-09T12:22:47Z</time>
      </trkpt>
      <trkpt lat="44.64942" lon="6.09471">
        <ele>1052.7</ele>
        <time>2014-05-09T12:22:49Z</time>
      </trkpt>
      <trkpt lat="44.64977" lon="6.09393">
        <ele>1051.8</ele>
        <time>2014-05-09T12:22:57Z</time>
      </trkpt>
      <trkpt lat="44.65009" lon="6.09319">
        <ele>1049.8</ele>
        <time>2014-05-09T12:23:04Z</time>
      </trkpt>
      <trkpt lat="44.65045" lon="6.09238">
        <ele>1048.6</ele>
        <time>2014-05-09T12:23:12Z</time>
      </trkpt>
      <trkpt lat="44.6506" lon="6.09199">
        <ele>1048</ele>
        <time>2014-05-09T12:23:16Z</time>
      </trkpt>
      <trkpt lat="44.6508" lon="6.0914">
        <ele>1048.6</ele>
        <time>2014-05-09T12:23:22Z</time>
      </trkpt>
      <trkpt lat="44.65094" lon="6.091">
        <ele>1047.9</ele>
        <time>2014-05-09T12:23:26Z</time>
      </trkpt>
      <trkpt lat="44.65102" lon="6.09059">
        <ele>1047.1</ele>
        <time>2014-05-09T12:23:30Z</time>
      </trkpt>
      <trkpt lat="44.65104" lon="6.09038">
        <ele>1046.8</ele>
        <time>2014-05-09T12:23:32Z</time>
      </trkpt>
      <trkpt lat="44.65105" lon="6.09015">
        <ele>1046.7</ele>
        <time>2014-05-09T12:23:34Z</time>
      </trkpt>
      <trkpt lat="44.65104" lon="6.08992">
        <ele>1046.4</ele>
        <time>2014-05-09T12:23:36Z</time>
      </trkpt>
      <trkpt lat="44.65103" lon="6.089">
        <ele>1046.7</ele>
        <time>2014-05-09T12:23:44Z</time>
      </trkpt>
      <trkpt lat="44.65104" lon="6.08876">
        <ele>1046.5</ele>
        <time>2014-05-09T12:23:46Z</time>
      </trkpt>
      <trkpt lat="44.65112" lon="6.08856">
        <ele>1046.5</ele>
        <time>2014-05-09T12:23:48Z</time>
      </trkpt>
      <trkpt lat="44.65137" lon="6.08835">
        <ele>1047</ele>
        <time>2014-05-09T12:23:52Z</time>
      </trkpt>
      <trkpt lat="44.65167" lon="6.08828">
        <ele>1046.8</ele>
        <time>2014-05-09T12:23:56Z</time>
      </trkpt>
      <trkpt lat="44.65195" lon="6.08818">
        <ele>1046.2</ele>
        <time>2014-05-09T12:24:00Z</time>
      </trkpt>
      <trkpt lat="44.6522" lon="6.08794">
        <ele>1045.4</ele>
        <time>2014-05-09T12:24:04Z</time>
      </trkpt>
      <trkpt lat="44.65242" lon="6.08764">
        <ele>1044.8</ele>
        <time>2014-05-09T12:24:08Z</time>
      </trkpt>
      <trkpt lat="44.65298" lon="6.08688">
        <ele>1043.7</ele>
        <time>2014-05-09T12:24:18Z</time>
      </trkpt>
      <trkpt lat="44.6532" lon="6.08658">
        <ele>1042.9</ele>
        <time>2014-05-09T12:24:22Z</time>
      </trkpt>
      <trkpt lat="44.65368" lon="6.08602">
        <ele>1041.9</ele>
        <time>2014-05-09T12:24:30Z</time>
      </trkpt>
      <trkpt lat="44.65389" lon="6.08574">
        <ele>1041.2</ele>
        <time>2014-05-09T12:24:34Z</time>
      </trkpt>
      <trkpt lat="44.65409" lon="6.08544">
        <ele>1040.6</ele>
        <time>2014-05-09T12:24:38Z</time>
      </trkpt>
      <trkpt lat="44.65435" lon="6.085">
        <ele>1040.4</ele>
        <time>2014-05-09T12:24:44Z</time>
      </trkpt>
      <trkpt lat="44.65455" lon="6.08485">
        <ele>1041.4</ele>
        <time>2014-05-09T12:24:48Z</time>
      </trkpt>
      <trkpt lat="44.65498" lon="6.08484">
        <ele>1040.3</ele>
        <time>2014-05-09T12:24:54Z</time>
      </trkpt>
      <trkpt lat="44.65557" lon="6.08481">
        <ele>1037</ele>
        <time>2014-05-09T12:25:01Z</time>
      </trkpt>
      <trkpt lat="44.65605" lon="6.08479">
        <ele>1034.6</ele>
        <time>2014-05-09T12:25:06Z</time>
      </trkpt>
      <trkpt lat="44.65648" lon="6.08478">
        <ele>1031.6</ele>
        <time>2014-05-09T12:25:10Z</time>
      </trkpt>
      <trkpt lat="44.65659" lon="6.08478">
        <ele>1031.1</ele>
        <time>2014-05-09T12:25:11Z</time>
      </trkpt>
      <trkpt lat="44.65682" lon="6.08479">
        <ele>1029.9</ele>
        <time>2014-05-09T12:25:13Z</time>
      </trkpt>
      <trkpt lat="44.65732" lon="6.08484">
        <ele>1026.7</ele>
        <time>2014-05-09T12:25:17Z</time>
      </trkpt>
      <trkpt lat="44.65758" lon="6.08486">
        <ele>1024.6</ele>
        <time>2014-05-09T12:25:19Z</time>
      </trkpt>
      <trkpt lat="44.65787" lon="6.0849">
        <ele>1022.3</ele>
        <time>2014-05-09T12:25:21Z</time>
      </trkpt>
      <trkpt lat="44.65801" lon="6.0849">
        <ele>1021.2</ele>
        <time>2014-05-09T12:25:22Z</time>
      </trkpt>
      <trkpt lat="44.6583" lon="6.08486">
        <ele>1018.9</ele>
        <time>2014-05-09T12:25:24Z</time>
      </trkpt>
      <trkpt lat="44.65844" lon="6.08483">
        <ele>1017.6</ele>
        <time>2014-05-09T12:25:25Z</time>
      </trkpt>
      <trkpt lat="44.65873" lon="6.08474">
        <ele>1015</ele>
        <time>2014-05-09T12:25:27Z</time>
      </trkpt>
      <trkpt lat="44.65915" lon="6.0846">
        <ele>1011.1</ele>
        <time>2014-05-09T12:25:30Z</time>
      </trkpt>
      <trkpt lat="44.65971" lon="6.08442">
        <ele>1005.9</ele>
        <time>2014-05-09T12:25:34Z</time>
      </trkpt>
      <trkpt lat="44.66024" lon="6.08425">
        <ele>1002.2</ele>
        <time>2014-05-09T12:25:38Z</time>
      </trkpt>
      <trkpt lat="44.6606" lon="6.08416">
        <ele>1000.8</ele>
        <time>2014-05-09T12:25:41Z</time>
      </trkpt>
      <trkpt lat="44.66083" lon="6.08408">
        <ele>999.9</ele>
        <time>2014-05-09T12:25:43Z</time>
      </trkpt>
      <trkpt lat="44.66127" lon="6.08394">
        <ele>998</ele>
        <time>2014-05-09T12:25:47Z</time>
      </trkpt>
      <trkpt lat="44.66169" lon="6.08379">
        <ele>996.6</ele>
        <time>2014-05-09T12:25:51Z</time>
      </trkpt>
      <trkpt lat="44.66179" lon="6.08375">
        <ele>996.3</ele>
        <time>2014-05-09T12:25:52Z</time>
      </trkpt>
      <trkpt lat="44.66196" lon="6.08366">
        <ele>995.9</ele>
        <time>2014-05-09T12:25:54Z</time>
      </trkpt>
      <trkpt lat="44.66248" lon="6.08342">
        <ele>995.8</ele>
        <time>2014-05-09T12:26:00Z</time>
      </trkpt>
      <trkpt lat="44.6628" lon="6.08328">
        <ele>996.2</ele>
        <time>2014-05-09T12:26:04Z</time>
      </trkpt>
      <trkpt lat="44.66295" lon="6.0832">
        <ele>996</ele>
        <time>2014-05-09T12:26:06Z</time>
      </trkpt>
      <trkpt lat="44.6634" lon="6.08299">
        <ele>997.2</ele>
        <time>2014-05-09T12:26:12Z</time>
      </trkpt>
      <trkpt lat="44.66369" lon="6.08287">
        <ele>997.3</ele>
        <time>2014-05-09T12:26:16Z</time>
      </trkpt>
      <trkpt lat="44.66431" lon="6.08255">
        <ele>997</ele>
        <time>2014-05-09T12:26:25Z</time>
      </trkpt>
      <trkpt lat="44.66442" lon="6.08251">
        <ele>997</ele>
        <time>2014-05-09T12:26:26Z</time>
      </trkpt>
      <trkpt lat="44.6648" lon="6.08234">
        <ele>996.5</ele>
        <time>2014-05-09T12:26:30Z</time>
      </trkpt>
      <trkpt lat="44.66525" lon="6.0821">
        <ele>995</ele>
        <time>2014-05-09T12:26:35Z</time>
      </trkpt>
      <trkpt lat="44.66544" lon="6.08199">
        <ele>994.3</ele>
        <time>2014-05-09T12:26:37Z</time>
      </trkpt>
      <trkpt lat="44.66562" lon="6.08186">
        <ele>993.2</ele>
        <time>2014-05-09T12:26:39Z</time>
      </trkpt>
      <trkpt lat="44.6658" lon="6.0817">
        <ele>992.2</ele>
        <time>2014-05-09T12:26:41Z</time>
      </trkpt>
      <trkpt lat="44.66596" lon="6.08149">
        <ele>990.9</ele>
        <time>2014-05-09T12:26:43Z</time>
      </trkpt>
      <trkpt lat="44.66613" lon="6.08127">
        <ele>989.3</ele>
        <time>2014-05-09T12:26:45Z</time>
      </trkpt>
      <trkpt lat="44.6664" lon="6.08093">
        <ele>987.8</ele>
        <time>2014-05-09T12:26:48Z</time>
      </trkpt>
      <trkpt lat="44.66658" lon="6.08072">
        <ele>986.8</ele>
        <time>2014-05-09T12:26:50Z</time>
      </trkpt>
      <trkpt lat="44.66683" lon="6.08042">
        <ele>985.8</ele>
        <time>2014-05-09T12:26:53Z</time>
      </trkpt>
      <trkpt lat="44.66708" lon="6.08013">
        <ele>984.2</ele>
        <time>2014-05-09T12:26:56Z</time>
      </trkpt>
      <trkpt lat="44.66747" lon="6.07967">
        <ele>983</ele>
        <time>2014-05-09T12:27:01Z</time>
      </trkpt>
      <trkpt lat="44.66763" lon="6.07949">
        <ele>982.9</ele>
        <time>2014-05-09T12:27:03Z</time>
      </trkpt>
      <trkpt lat="44.66793" lon="6.07916">
        <ele>982.3</ele>
        <time>2014-05-09T12:27:07Z</time>
      </trkpt>
      <trkpt lat="44.66819" lon="6.07886">
        <ele>981.6</ele>
        <time>2014-05-09T12:27:11Z</time>
      </trkpt>
      <trkpt lat="44.66853" lon="6.07847">
        <ele>980.3</ele>
        <time>2014-05-09T12:27:16Z</time>
      </trkpt>
      <trkpt lat="44.66897" lon="6.07799">
        <ele>979.1</ele>
        <time>2014-05-09T12:27:22Z</time>
      </trkpt>
      <trkpt lat="44.66928" lon="6.07767">
        <ele>978.1</ele>
        <time>2014-05-09T12:27:26Z</time>
      </trkpt>
      <trkpt lat="44.66943" lon="6.07752">
        <ele>977.6</ele>
        <time>2014-05-09T12:27:28Z</time>
      </trkpt>
      <trkpt lat="44.66959" lon="6.07738">
        <ele>977.4</ele>
        <time>2014-05-09T12:27:30Z</time>
      </trkpt>
      <trkpt lat="44.66974" lon="6.07724">
        <ele>976.9</ele>
        <time>2014-05-09T12:27:32Z</time>
      </trkpt>
      <trkpt lat="44.67013" lon="6.07689">
        <ele>976.9</ele>
        <time>2014-05-09T12:27:37Z</time>
      </trkpt>
      <trkpt lat="44.67036" lon="6.07668">
        <ele>977.2</ele>
        <time>2014-05-09T12:27:40Z</time>
      </trkpt>
      <trkpt lat="44.67076" lon="6.07631">
        <ele>977.2</ele>
        <time>2014-05-09T12:27:45Z</time>
      </trkpt>
      <trkpt lat="44.67115" lon="6.07595">
        <ele>976.8</ele>
        <time>2014-05-09T12:27:50Z</time>
      </trkpt>
      <trkpt lat="44.67139" lon="6.07574">
        <ele>977.1</ele>
        <time>2014-05-09T12:27:53Z</time>
      </trkpt>
      <trkpt lat="44.67184" lon="6.07531">
        <ele>976.4</ele>
        <time>2014-05-09T12:27:59Z</time>
      </trkpt>
      <trkpt lat="44.67213" lon="6.07502">
        <ele>975.8</ele>
        <time>2014-05-09T12:28:03Z</time>
      </trkpt>
      <trkpt lat="44.67254" lon="6.07464">
        <ele>975.7</ele>
        <time>2014-05-09T12:28:09Z</time>
      </trkpt>
      <trkpt lat="44.67282" lon="6.0744">
        <ele>975.9</ele>
        <time>2014-05-09T12:28:13Z</time>
      </trkpt>
      <trkpt lat="44.67295" lon="6.07429">
        <ele>975.7</ele>
        <time>2014-05-09T12:28:15Z</time>
      </trkpt>
      <trkpt lat="44.67321" lon="6.07406">
        <ele>975.2</ele>
        <time>2014-05-09T12:28:19Z</time>
      </trkpt>
      <trkpt lat="44.6739" lon="6.07343">
        <ele>973.5</ele>
        <time>2014-05-09T12:28:29Z</time>
      </trkpt>
      <trkpt lat="44.67417" lon="6.07317">
        <ele>973.2</ele>
        <time>2014-05-09T12:28:33Z</time>
      </trkpt>
      <trkpt lat="44.67455" lon="6.07283">
        <ele>972</ele>
        <time>2014-05-09T12:28:39Z</time>
      </trkpt>
      <trkpt lat="44.6748" lon="6.07266">
        <ele>971.4</ele>
        <time>2014-05-09T12:28:43Z</time>
      </trkpt>
      <trkpt lat="44.67506" lon="6.07249">
        <ele>971.6</ele>
        <time>2014-05-09T12:28:47Z</time>
      </trkpt>
      <trkpt lat="44.67515" lon="6.07232">
        <ele>971.1</ele>
        <time>2014-05-09T12:28:49Z</time>
      </trkpt>
      <trkpt lat="44.67537" lon="6.07208">
        <ele>971.2</ele>
        <time>2014-05-09T12:28:53Z</time>
      </trkpt>
      <trkpt lat="44.67576" lon="6.07172">
        <ele>969.8</ele>
        <time>2014-05-09T12:28:59Z</time>
      </trkpt>
      <trkpt lat="44.6759" lon="6.07163">
        <ele>969.4</ele>
        <time>2014-05-09T12:29:01Z</time>
      </trkpt>
      <trkpt lat="44.67642" lon="6.07114">
        <ele>968.2</ele>
        <time>2014-05-09T12:29:09Z</time>
      </trkpt>
      <trkpt lat="44.67669" lon="6.07093">
        <ele>966.8</ele>
        <time>2014-05-09T12:29:13Z</time>
      </trkpt>
      <trkpt lat="44.67708" lon="6.07058">
        <ele>967.1</ele>
        <time>2014-05-09T12:29:19Z</time>
      </trkpt>
      <trkpt lat="44.67733" lon="6.07031">
        <ele>966.9</ele>
        <time>2014-05-09T12:29:23Z</time>
      </trkpt>
      <trkpt lat="44.67746" lon="6.07019">
        <ele>966.4</ele>
        <time>2014-05-09T12:29:25Z</time>
      </trkpt>
      <trkpt lat="44.67802" lon="6.06971">
        <ele>964.6</ele>
        <time>2014-05-09T12:29:33Z</time>
      </trkpt>
      <trkpt lat="44.67815" lon="6.06957">
        <ele>964.1</ele>
        <time>2014-05-09T12:29:35Z</time>
      </trkpt>
      <trkpt lat="44.67831" lon="6.0695">
        <ele>963.8</ele>
        <time>2014-05-09T12:29:37Z</time>
      </trkpt>
      <trkpt lat="44.67861" lon="6.06926">
        <ele>963.3</ele>
        <time>2014-05-09T12:29:41Z</time>
      </trkpt>
      <trkpt lat="44.67875" lon="6.06913">
        <ele>963.2</ele>
        <time>2014-05-09T12:29:43Z</time>
      </trkpt>
      <trkpt lat="44.67917" lon="6.06877">
        <ele>962</ele>
        <time>2014-05-09T12:29:49Z</time>
      </trkpt>
      <trkpt lat="44.67947" lon="6.06853">
        <ele>961.4</ele>
        <time>2014-05-09T12:29:53Z</time>
      </trkpt>
      <trkpt lat="44.67962" lon="6.06842">
        <ele>961.6</ele>
        <time>2014-05-09T12:29:55Z</time>
      </trkpt>
      <trkpt lat="44.67977" lon="6.06832">
        <ele>961.3</ele>
        <time>2014-05-09T12:29:57Z</time>
      </trkpt>
      <trkpt lat="44.68009" lon="6.06816">
        <ele>961.1</ele>
        <time>2014-05-09T12:30:01Z</time>
      </trkpt>
      <trkpt lat="44.68025" lon="6.06811">
        <ele>960.8</ele>
        <time>2014-05-09T12:30:03Z</time>
      </trkpt>
      <trkpt lat="44.68086" lon="6.06785">
        <ele>962.6</ele>
        <time>2014-05-09T12:30:11Z</time>
      </trkpt>
      <trkpt lat="44.6811" lon="6.06774">
        <ele>962.8</ele>
        <time>2014-05-09T12:30:15Z</time>
      </trkpt>
      <trkpt lat="44.68136" lon="6.06763">
        <ele>962.3</ele>
        <time>2014-05-09T12:30:19Z</time>
      </trkpt>
      <trkpt lat="44.68166" lon="6.0675">
        <ele>962.5</ele>
        <time>2014-05-09T12:30:23Z</time>
      </trkpt>
      <trkpt lat="44.68181" lon="6.06744">
        <ele>962.5</ele>
        <time>2014-05-09T12:30:25Z</time>
      </trkpt>
      <trkpt lat="44.68251" lon="6.06713">
        <ele>962.3</ele>
        <time>2014-05-09T12:30:35Z</time>
      </trkpt>
      <trkpt lat="44.68291" lon="6.06692">
        <ele>961.2</ele>
        <time>2014-05-09T12:30:41Z</time>
      </trkpt>
      <trkpt lat="44.68326" lon="6.06676">
        <ele>960.6</ele>
        <time>2014-05-09T12:30:47Z</time>
      </trkpt>
      <trkpt lat="44.68339" lon="6.06654">
        <ele>960</ele>
        <time>2014-05-09T12:30:51Z</time>
      </trkpt>
      <trkpt lat="44.68346" lon="6.06644">
        <ele>960.2</ele>
        <time>2014-05-09T12:30:53Z</time>
      </trkpt>
      <trkpt lat="44.68363" lon="6.06628">
        <ele>960.5</ele>
        <time>2014-05-09T12:30:57Z</time>
      </trkpt>
      <trkpt lat="44.68386" lon="6.06615">
        <ele>960.9</ele>
        <time>2014-05-09T12:31:03Z</time>
      </trkpt>
      <trkpt lat="44.68408" lon="6.06601">
        <ele>962.8</ele>
        <time>2014-05-09T12:31:09Z</time>
      </trkpt>
      <trkpt lat="44.68425" lon="6.06583">
        <ele>964.9</ele>
        <time>2014-05-09T12:31:15Z</time>
      </trkpt>
      <trkpt lat="44.68432" lon="6.06571">
        <ele>965.8</ele>
        <time>2014-05-09T12:31:18Z</time>
      </trkpt>
      <trkpt lat="44.68445" lon="6.06541">
        <ele>967.5</ele>
        <time>2014-05-09T12:31:24Z</time>
      </trkpt>
      <trkpt lat="44.68459" lon="6.06514">
        <ele>968.6</ele>
        <time>2014-05-09T12:31:30Z</time>
      </trkpt>
      <trkpt lat="44.68483" lon="6.06477">
        <ele>969.4</ele>
        <time>2014-05-09T12:31:39Z</time>
      </trkpt>
      <trkpt lat="44.68516" lon="6.06424">
        <ele>970.4</ele>
        <time>2014-05-09T12:31:51Z</time>
      </trkpt>
      <trkpt lat="44.68533" lon="6.06402">
        <ele>971.4</ele>
        <time>2014-05-09T12:31:57Z</time>
      </trkpt>
      <trkpt lat="44.68551" lon="6.06388">
        <ele>972.7</ele>
        <time>2014-05-09T12:32:03Z</time>
      </trkpt>
      <trkpt lat="44.68573" lon="6.06373">
        <ele>974.3</ele>
        <time>2014-05-09T12:32:09Z</time>
      </trkpt>
      <trkpt lat="44.68591" lon="6.06359">
        <ele>976.7</ele>
        <time>2014-05-09T12:32:15Z</time>
      </trkpt>
      <trkpt lat="44.68606" lon="6.06335">
        <ele>977.9</ele>
        <time>2014-05-09T12:32:21Z</time>
      </trkpt>
      <trkpt lat="44.68618" lon="6.0631">
        <ele>979.1</ele>
        <time>2014-05-09T12:32:27Z</time>
      </trkpt>
      <trkpt lat="44.68624" lon="6.06299">
        <ele>979.4</ele>
        <time>2014-05-09T12:32:30Z</time>
      </trkpt>
      <trkpt lat="44.68645" lon="6.06266">
        <ele>980.6</ele>
        <time>2014-05-09T12:32:39Z</time>
      </trkpt>
      <trkpt lat="44.68667" lon="6.06235">
        <ele>983.2</ele>
        <time>2014-05-09T12:32:48Z</time>
      </trkpt>
      <trkpt lat="44.6868" lon="6.06215">
        <ele>985</ele>
        <time>2014-05-09T12:32:54Z</time>
      </trkpt>
      <trkpt lat="44.68708" lon="6.06157">
        <ele>989.9</ele>
        <time>2014-05-09T12:33:13Z</time>
      </trkpt>
      <trkpt lat="44.68719" lon="6.06133">
        <ele>991.6</ele>
        <time>2014-05-09T12:33:21Z</time>
      </trkpt>
      <trkpt lat="44.68732" lon="6.06109">
        <ele>994.4</ele>
        <time>2014-05-09T12:33:29Z</time>
      </trkpt>
      <trkpt lat="44.68737" lon="6.0608">
        <ele>996.2</ele>
        <time>2014-05-09T12:33:37Z</time>
      </trkpt>
      <trkpt lat="44.68738" lon="6.06052">
        <ele>998.5</ele>
        <time>2014-05-09T12:33:44Z</time>
      </trkpt>
      <trkpt lat="44.68745" lon="6.06024">
        <ele>1000.2</ele>
        <time>2014-05-09T12:33:52Z</time>
      </trkpt>
      <trkpt lat="44.68751" lon="6.06011">
        <ele>1001.4</ele>
        <time>2014-05-09T12:33:56Z</time>
      </trkpt>
      <trkpt lat="44.68767" lon="6.0599">
        <ele>1003.5</ele>
        <time>2014-05-09T12:34:04Z</time>
      </trkpt>
      <trkpt lat="44.68774" lon="6.05963">
        <ele>1006</ele>
        <time>2014-05-09T12:34:12Z</time>
      </trkpt>
      <trkpt lat="44.68784" lon="6.05941">
        <ele>1006.8</ele>
        <time>2014-05-09T12:34:18Z</time>
      </trkpt>
      <trkpt lat="44.68793" lon="6.05931">
        <ele>1007.2</ele>
        <time>2014-05-09T12:34:22Z</time>
      </trkpt>
      <trkpt lat="44.68815" lon="6.05918">
        <ele>1008.9</ele>
        <time>2014-05-09T12:34:30Z</time>
      </trkpt>
      <trkpt lat="44.68832" lon="6.05904">
        <ele>1009.6</ele>
        <time>2014-05-09T12:34:36Z</time>
      </trkpt>
      <trkpt lat="44.68856" lon="6.05875">
        <ele>1010.7</ele>
        <time>2014-05-09T12:34:45Z</time>
      </trkpt>
      <trkpt lat="44.68872" lon="6.05855">
        <ele>1011.5</ele>
        <time>2014-05-09T12:34:51Z</time>
      </trkpt>
      <trkpt lat="44.6888" lon="6.05845">
        <ele>1011.8</ele>
        <time>2014-05-09T12:34:54Z</time>
      </trkpt>
      <trkpt lat="44.68912" lon="6.05803">
        <ele>1013.6</ele>
        <time>2014-05-09T12:35:06Z</time>
      </trkpt>
      <trkpt lat="44.68927" lon="6.05782">
        <ele>1014.5</ele>
        <time>2014-05-09T12:35:12Z</time>
      </trkpt>
      <trkpt lat="44.6894" lon="6.05759">
        <ele>1016</ele>
        <time>2014-05-09T12:35:18Z</time>
      </trkpt>
      <trkpt lat="44.6895" lon="6.05733">
        <ele>1016.7</ele>
        <time>2014-05-09T12:35:24Z</time>
      </trkpt>
      <trkpt lat="44.68958" lon="6.05706">
        <ele>1017.9</ele>
        <time>2014-05-09T12:35:30Z</time>
      </trkpt>
      <trkpt lat="44.68965" lon="6.0568">
        <ele>1019.5</ele>
        <time>2014-05-09T12:35:36Z</time>
      </trkpt>
      <trkpt lat="44.68969" lon="6.05653">
        <ele>1020.7</ele>
        <time>2014-05-09T12:35:42Z</time>
      </trkpt>
      <trkpt lat="44.68975" lon="6.0561">
        <ele>1023</ele>
        <time>2014-05-09T12:35:52Z</time>
      </trkpt>
      <trkpt lat="44.68979" lon="6.05584">
        <ele>1024.9</ele>
        <time>2014-05-09T12:35:58Z</time>
      </trkpt>
      <trkpt lat="44.68986" lon="6.05559">
        <ele>1026.1</ele>
        <time>2014-05-09T12:36:04Z</time>
      </trkpt>
      <trkpt lat="44.68995" lon="6.05532">
        <ele>1027.7</ele>
        <time>2014-05-09T12:36:12Z</time>
      </trkpt>
      <trkpt lat="44.69002" lon="6.0552">
        <ele>1028.8</ele>
        <time>2014-05-09T12:36:16Z</time>
      </trkpt>
      <trkpt lat="44.69017" lon="6.05498">
        <ele>1031.8</ele>
        <time>2014-05-09T12:36:24Z</time>
      </trkpt>
      <trkpt lat="44.69056" lon="6.05451">
        <ele>1037.9</ele>
        <time>2014-05-09T12:36:44Z</time>
      </trkpt>
      <trkpt lat="44.6908" lon="6.05425">
        <ele>1042.3</ele>
        <time>2014-05-09T12:36:56Z</time>
      </trkpt>
      <trkpt lat="44.69095" lon="6.05403">
        <ele>1044.8</ele>
        <time>2014-05-09T12:37:04Z</time>
      </trkpt>
      <trkpt lat="44.69106" lon="6.05376">
        <ele>1046.7</ele>
        <time>2014-05-09T12:37:12Z</time>
      </trkpt>
      <trkpt lat="44.69111" lon="6.05349">
        <ele>1047.6</ele>
        <time>2014-05-09T12:37:19Z</time>
      </trkpt>
      <trkpt lat="44.69118" lon="6.05322">
        <ele>1049.1</ele>
        <time>2014-05-09T12:37:26Z</time>
      </trkpt>
      <trkpt lat="44.69124" lon="6.05309">
        <ele>1050</ele>
        <time>2014-05-09T12:37:30Z</time>
      </trkpt>
      <trkpt lat="44.69138" lon="6.05283">
        <ele>1051</ele>
        <time>2014-05-09T12:37:38Z</time>
      </trkpt>
      <trkpt lat="44.69152" lon="6.05249">
        <ele>1052</ele>
        <time>2014-05-09T12:37:47Z</time>
      </trkpt>
      <trkpt lat="44.69159" lon="6.05224">
        <ele>1052.8</ele>
        <time>2014-05-09T12:37:53Z</time>
      </trkpt>
      <trkpt lat="44.69162" lon="6.05197">
        <ele>1053.7</ele>
        <time>2014-05-09T12:37:59Z</time>
      </trkpt>
      <trkpt lat="44.69156" lon="6.05136">
        <ele>1052.1</ele>
        <time>2014-05-09T12:38:09Z</time>
      </trkpt>
      <trkpt lat="44.69155" lon="6.0512">
        <ele>1051.6</ele>
        <time>2014-05-09T12:38:11Z</time>
      </trkpt>
      <trkpt lat="44.69157" lon="6.0509">
        <ele>1051</ele>
        <time>2014-05-09T12:38:15Z</time>
      </trkpt>
      <trkpt lat="44.69158" lon="6.05062">
        <ele>1050.2</ele>
        <time>2014-05-09T12:38:19Z</time>
      </trkpt>
      <trkpt lat="44.69163" lon="6.0503">
        <ele>1049.9</ele>
        <time>2014-05-09T12:38:24Z</time>
      </trkpt>
      <trkpt lat="44.69162" lon="6.05002">
        <ele>1049.9</ele>
        <time>2014-05-09T12:38:28Z</time>
      </trkpt>
      <trkpt lat="44.69163" lon="6.04975">
        <ele>1050.2</ele>
        <time>2014-05-09T12:38:32Z</time>
      </trkpt>
      <trkpt lat="44.69166" lon="6.04934">
        <ele>1050.2</ele>
        <time>2014-05-09T12:38:38Z</time>
      </trkpt>
      <trkpt lat="44.69169" lon="6.04905">
        <ele>1050.3</ele>
        <time>2014-05-09T12:38:43Z</time>
      </trkpt>
      <trkpt lat="44.69169" lon="6.04884">
        <ele>1050</ele>
        <time>2014-05-09T12:39:45Z</time>
      </trkpt>
      <trkpt lat="44.69172" lon="6.04856">
        <ele>1050.8</ele>
        <time>2014-05-09T12:39:53Z</time>
      </trkpt>
      <trkpt lat="44.69173" lon="6.04827">
        <ele>1052.3</ele>
        <time>2014-05-09T12:40:00Z</time>
      </trkpt>
      <trkpt lat="44.69182" lon="6.04755">
        <ele>1052.3</ele>
        <time>2014-05-09T12:40:12Z</time>
      </trkpt>
      <trkpt lat="44.69185" lon="6.04709">
        <ele>1052.2</ele>
        <time>2014-05-09T12:40:18Z</time>
      </trkpt>
      <trkpt lat="44.69188" lon="6.04647">
        <ele>1050.5</ele>
        <time>2014-05-09T12:40:26Z</time>
      </trkpt>
      <trkpt lat="44.69188" lon="6.04615">
        <ele>1050.9</ele>
        <time>2014-05-09T12:40:30Z</time>
      </trkpt>
      <trkpt lat="44.69186" lon="6.04585">
        <ele>1050.6</ele>
        <time>2014-05-09T12:40:34Z</time>
      </trkpt>
      <trkpt lat="44.69182" lon="6.04542">
        <ele>1050.1</ele>
        <time>2014-05-09T12:40:40Z</time>
      </trkpt>
      <trkpt lat="44.6918" lon="6.04512">
        <ele>1049.8</ele>
        <time>2014-05-09T12:40:44Z</time>
      </trkpt>
      <trkpt lat="44.69182" lon="6.04481">
        <ele>1049.2</ele>
        <time>2014-05-09T12:40:48Z</time>
      </trkpt>
      <trkpt lat="44.6919" lon="6.04449">
        <ele>1048.6</ele>
        <time>2014-05-09T12:40:52Z</time>
      </trkpt>
      <trkpt lat="44.69206" lon="6.04405">
        <ele>1047.3</ele>
        <time>2014-05-09T12:40:58Z</time>
      </trkpt>
      <trkpt lat="44.69214" lon="6.04376">
        <ele>1047</ele>
        <time>2014-05-09T12:41:02Z</time>
      </trkpt>
      <trkpt lat="44.69216" lon="6.04349">
        <ele>1046.3</ele>
        <time>2014-05-09T12:41:06Z</time>
      </trkpt>
      <trkpt lat="44.69213" lon="6.04315">
        <ele>1047.4</ele>
        <time>2014-05-09T12:41:12Z</time>
      </trkpt>
      <trkpt lat="44.69211" lon="6.04299">
        <ele>1048.1</ele>
        <time>2014-05-09T12:41:15Z</time>
      </trkpt>
      <trkpt lat="44.69204" lon="6.0427">
        <ele>1049.1</ele>
        <time>2014-05-09T12:41:21Z</time>
      </trkpt>
      <trkpt lat="44.69196" lon="6.04244">
        <ele>1050.5</ele>
        <time>2014-05-09T12:41:27Z</time>
      </trkpt>
      <trkpt lat="44.69186" lon="6.04219">
        <ele>1051.5</ele>
        <time>2014-05-09T12:41:33Z</time>
      </trkpt>
      <trkpt lat="44.6917" lon="6.04183">
        <ele>1052.8</ele>
        <time>2014-05-09T12:41:42Z</time>
      </trkpt>
      <trkpt lat="44.69159" lon="6.04159">
        <ele>1054.1</ele>
        <time>2014-05-09T12:41:48Z</time>
      </trkpt>
      <trkpt lat="44.6913" lon="6.04091">
        <ele>1058.1</ele>
        <time>2014-05-09T12:42:06Z</time>
      </trkpt>
      <trkpt lat="44.6912" lon="6.04068">
        <ele>1059</ele>
        <time>2014-05-09T12:42:12Z</time>
      </trkpt>
      <trkpt lat="44.69111" lon="6.04046">
        <ele>1060.7</ele>
        <time>2014-05-09T12:42:18Z</time>
      </trkpt>
      <trkpt lat="44.69101" lon="6.04024">
        <ele>1061.6</ele>
        <time>2014-05-09T12:42:24Z</time>
      </trkpt>
      <trkpt lat="44.69089" lon="6.04003">
        <ele>1062.9</ele>
        <time>2014-05-09T12:42:30Z</time>
      </trkpt>
      <trkpt lat="44.69053" lon="6.0394">
        <ele>1066.3</ele>
        <time>2014-05-09T12:42:49Z</time>
      </trkpt>
      <trkpt lat="44.69038" lon="6.03925">
        <ele>1067.4</ele>
        <time>2014-05-09T12:42:55Z</time>
      </trkpt>
      <trkpt lat="44.69016" lon="6.03913">
        <ele>1069.5</ele>
        <time>2014-05-09T12:43:03Z</time>
      </trkpt>
      <trkpt lat="44.69001" lon="6.03897">
        <ele>1070.7</ele>
        <time>2014-05-09T12:43:09Z</time>
      </trkpt>
      <trkpt lat="44.68991" lon="6.03875">
        <ele>1072</ele>
        <time>2014-05-09T12:43:15Z</time>
      </trkpt>
      <trkpt lat="44.6898" lon="6.03836">
        <ele>1074.1</ele>
        <time>2014-05-09T12:43:26Z</time>
      </trkpt>
      <trkpt lat="44.68969" lon="6.03796">
        <ele>1076.3</ele>
        <time>2014-05-09T12:43:36Z</time>
      </trkpt>
      <trkpt lat="44.68962" lon="6.03765">
        <ele>1078.4</ele>
        <time>2014-05-09T12:43:44Z</time>
      </trkpt>
      <trkpt lat="44.68956" lon="6.03734">
        <ele>1080.6</ele>
        <time>2014-05-09T12:43:52Z</time>
      </trkpt>
      <trkpt lat="44.68953" lon="6.03686">
        <ele>1083.1</ele>
        <time>2014-05-09T12:44:04Z</time>
      </trkpt>
      <trkpt lat="44.68945" lon="6.0366">
        <ele>1084.3</ele>
        <time>2014-05-09T12:44:11Z</time>
      </trkpt>
      <trkpt lat="44.68926" lon="6.03644">
        <ele>1086.3</ele>
        <time>2014-05-09T12:44:19Z</time>
      </trkpt>
      <trkpt lat="44.68904" lon="6.03636">
        <ele>1087.4</ele>
        <time>2014-05-09T12:44:27Z</time>
      </trkpt>
      <trkpt lat="44.68884" lon="6.03627">
        <ele>1089.2</ele>
        <time>2014-05-09T12:44:35Z</time>
      </trkpt>
      <trkpt lat="44.68874" lon="6.03621">
        <ele>1090.1</ele>
        <time>2014-05-09T12:44:39Z</time>
      </trkpt>
      <trkpt lat="44.68855" lon="6.03606">
        <ele>1092.2</ele>
        <time>2014-05-09T12:44:47Z</time>
      </trkpt>
      <trkpt lat="44.68838" lon="6.03587">
        <ele>1093.7</ele>
        <time>2014-05-09T12:44:55Z</time>
      </trkpt>
      <trkpt lat="44.6883" lon="6.03575">
        <ele>1094.5</ele>
        <time>2014-05-09T12:44:59Z</time>
      </trkpt>
      <trkpt lat="44.68821" lon="6.03548">
        <ele>1095.9</ele>
        <time>2014-05-09T12:45:06Z</time>
      </trkpt>
      <trkpt lat="44.6882" lon="6.03532">
        <ele>1096</ele>
        <time>2014-05-09T12:45:09Z</time>
      </trkpt>
      <trkpt lat="44.68823" lon="6.03501">
        <ele>1096.4</ele>
        <time>2014-05-09T12:45:14Z</time>
      </trkpt>
      <trkpt lat="44.68828" lon="6.03474">
        <ele>1096.1</ele>
        <time>2014-05-09T12:45:18Z</time>
      </trkpt>
      <trkpt lat="44.68843" lon="6.03423">
        <ele>1094.4</ele>
        <time>2014-05-09T12:45:24Z</time>
      </trkpt>
      <trkpt lat="44.68856" lon="6.03391">
        <ele>1093.3</ele>
        <time>2014-05-09T12:45:28Z</time>
      </trkpt>
      <trkpt lat="44.6887" lon="6.03367">
        <ele>1094</ele>
        <time>2014-05-09T12:45:32Z</time>
      </trkpt>
      <trkpt lat="44.68882" lon="6.03337">
        <ele>1096.8</ele>
        <time>2014-05-09T12:45:38Z</time>
      </trkpt>
      <trkpt lat="44.68889" lon="6.03306">
        <ele>1097.8</ele>
        <time>2014-05-09T12:45:44Z</time>
      </trkpt>
      <trkpt lat="44.68902" lon="6.03261">
        <ele>1097.2</ele>
        <time>2014-05-09T12:45:51Z</time>
      </trkpt>
      <trkpt lat="44.68912" lon="6.0323">
        <ele>1096.3</ele>
        <time>2014-05-09T12:45:55Z</time>
      </trkpt>
      <trkpt lat="44.68926" lon="6.03198">
        <ele>1095.3</ele>
        <time>2014-05-09T12:45:59Z</time>
      </trkpt>
      <trkpt lat="44.68931" lon="6.03179">
        <ele>1095</ele>
        <time>2014-05-09T12:46:01Z</time>
      </trkpt>
      <trkpt lat="44.68948" lon="6.03116">
        <ele>1092.9</ele>
        <time>2014-05-09T12:46:07Z</time>
      </trkpt>
      <trkpt lat="44.68952" lon="6.03094">
        <ele>1092.6</ele>
        <time>2014-05-09T12:46:09Z</time>
      </trkpt>
      <trkpt lat="44.68956" lon="6.03056">
        <ele>1092.4</ele>
        <time>2014-05-09T12:46:13Z</time>
      </trkpt>
      <trkpt lat="44.68964" lon="6.03008">
        <ele>1092.7</ele>
        <time>2014-05-09T12:46:19Z</time>
      </trkpt>
      <trkpt lat="44.68969" lon="6.02977">
        <ele>1094</ele>
        <time>2014-05-09T12:46:24Z</time>
      </trkpt>
      <trkpt lat="44.68969" lon="6.02959">
        <ele>1094.2</ele>
        <time>2014-05-09T12:46:27Z</time>
      </trkpt>
      <trkpt lat="44.68966" lon="6.02927">
        <ele>1094.8</ele>
        <time>2014-05-09T12:46:32Z</time>
      </trkpt>
      <trkpt lat="44.68967" lon="6.029">
        <ele>1095.6</ele>
        <time>2014-05-09T12:46:36Z</time>
      </trkpt>
      <trkpt lat="44.68973" lon="6.02859">
        <ele>1095.4</ele>
        <time>2014-05-09T12:46:42Z</time>
      </trkpt>
      <trkpt lat="44.68981" lon="6.02801">
        <ele>1095.8</ele>
        <time>2014-05-09T12:46:50Z</time>
      </trkpt>
      <trkpt lat="44.68984" lon="6.02771">
        <ele>1095.9</ele>
        <time>2014-05-09T12:46:54Z</time>
      </trkpt>
      <trkpt lat="44.68988" lon="6.02741">
        <ele>1095.8</ele>
        <time>2014-05-09T12:46:58Z</time>
      </trkpt>
      <trkpt lat="44.6899" lon="6.02725">
        <ele>1096.1</ele>
        <time>2014-05-09T12:47:00Z</time>
      </trkpt>
      <trkpt lat="44.69005" lon="6.02652">
        <ele>1096.8</ele>
        <time>2014-05-09T12:47:10Z</time>
      </trkpt>
      <trkpt lat="44.69009" lon="6.02624">
        <ele>1096.6</ele>
        <time>2014-05-09T12:47:14Z</time>
      </trkpt>
      <trkpt lat="44.69011" lon="6.02597">
        <ele>1096.3</ele>
        <time>2014-05-09T12:47:18Z</time>
      </trkpt>
      <trkpt lat="44.69011" lon="6.02571">
        <ele>1096.5</ele>
        <time>2014-05-09T12:47:22Z</time>
      </trkpt>
      <trkpt lat="44.6901" lon="6.02541">
        <ele>1097.6</ele>
        <time>2014-05-09T12:47:28Z</time>
      </trkpt>
      <trkpt lat="44.69009" lon="6.02508">
        <ele>1098.8</ele>
        <time>2014-05-09T12:47:34Z</time>
      </trkpt>
      <trkpt lat="44.69006" lon="6.02474">
        <ele>1099</ele>
        <time>2014-05-09T12:47:40Z</time>
      </trkpt>
      <trkpt lat="44.69" lon="6.0244">
        <ele>1100.4</ele>
        <time>2014-05-09T12:47:46Z</time>
      </trkpt>
      <trkpt lat="44.68997" lon="6.02404">
        <ele>1101.2</ele>
        <time>2014-05-09T12:47:52Z</time>
      </trkpt>
      <trkpt lat="44.68995" lon="6.02372">
        <ele>1101.7</ele>
        <time>2014-05-09T12:47:57Z</time>
      </trkpt>
      <trkpt lat="44.68989" lon="6.02347">
        <ele>1102.2</ele>
        <time>2014-05-09T12:48:01Z</time>
      </trkpt>
      <trkpt lat="44.68984" lon="6.02335">
        <ele>1102.6</ele>
        <time>2014-05-09T12:48:03Z</time>
      </trkpt>
      <trkpt lat="44.68944" lon="6.02273">
        <ele>1104.3</ele>
        <time>2014-05-09T12:48:15Z</time>
      </trkpt>
      <trkpt lat="44.68924" lon="6.02239">
        <ele>1105.5</ele>
        <time>2014-05-09T12:48:22Z</time>
      </trkpt>
      <trkpt lat="44.6891" lon="6.02209">
        <ele>1106.8</ele>
        <time>2014-05-09T12:48:28Z</time>
      </trkpt>
      <trkpt lat="44.68898" lon="6.02179">
        <ele>1108.5</ele>
        <time>2014-05-09T12:48:34Z</time>
      </trkpt>
      <trkpt lat="44.68882" lon="6.02152">
        <ele>1109.7</ele>
        <time>2014-05-09T12:48:40Z</time>
      </trkpt>
      <trkpt lat="44.6886" lon="6.02136">
        <ele>1110.7</ele>
        <time>2014-05-09T12:48:46Z</time>
      </trkpt>
      <trkpt lat="44.68847" lon="6.02133">
        <ele>1111.2</ele>
        <time>2014-05-09T12:48:49Z</time>
      </trkpt>
      <trkpt lat="44.68824" lon="6.02133">
        <ele>1112</ele>
        <time>2014-05-09T12:48:54Z</time>
      </trkpt>
      <trkpt lat="44.68785" lon="6.02137">
        <ele>1113</ele>
        <time>2014-05-09T12:49:02Z</time>
      </trkpt>
      <trkpt lat="44.68765" lon="6.02137">
        <ele>1113.5</ele>
        <time>2014-05-09T12:49:06Z</time>
      </trkpt>
      <trkpt lat="44.68735" lon="6.02134">
        <ele>1113.5</ele>
        <time>2014-05-09T12:49:12Z</time>
      </trkpt>
      <trkpt lat="44.68684" lon="6.02129">
        <ele>1113.9</ele>
        <time>2014-05-09T12:49:22Z</time>
      </trkpt>
      <trkpt lat="44.68665" lon="6.02127">
        <ele>1114.5</ele>
        <time>2014-05-09T12:49:26Z</time>
      </trkpt>
      <trkpt lat="44.68646" lon="6.02122">
        <ele>1115.2</ele>
        <time>2014-05-09T12:49:30Z</time>
      </trkpt>
      <trkpt lat="44.68595" lon="6.02106">
        <ele>1115.6</ele>
        <time>2014-05-09T12:49:40Z</time>
      </trkpt>
      <trkpt lat="44.68574" lon="6.02102">
        <ele>1115.7</ele>
        <time>2014-05-09T12:49:44Z</time>
      </trkpt>
      <trkpt lat="44.68551" lon="6.021">
        <ele>1116.1</ele>
        <time>2014-05-09T12:49:48Z</time>
      </trkpt>
      <trkpt lat="44.68527" lon="6.02102">
        <ele>1115.8</ele>
        <time>2014-05-09T12:49:52Z</time>
      </trkpt>
      <trkpt lat="44.68503" lon="6.02108">
        <ele>1115.7</ele>
        <time>2014-05-09T12:49:56Z</time>
      </trkpt>
      <trkpt lat="44.68456" lon="6.02129">
        <ele>1115.7</ele>
        <time>2014-05-09T12:50:04Z</time>
      </trkpt>
      <trkpt lat="44.68432" lon="6.02131">
        <ele>1116.4</ele>
        <time>2014-05-09T12:50:08Z</time>
      </trkpt>
      <trkpt lat="44.68411" lon="6.02117">
        <ele>1117.4</ele>
        <time>2014-05-09T12:50:12Z</time>
      </trkpt>
      <trkpt lat="44.68403" lon="6.02106">
        <ele>1117.8</ele>
        <time>2014-05-09T12:50:14Z</time>
      </trkpt>
      <trkpt lat="44.68393" lon="6.02079">
        <ele>1118.5</ele>
        <time>2014-05-09T12:50:18Z</time>
      </trkpt>
      <trkpt lat="44.68389" lon="6.02049">
        <ele>1118.8</ele>
        <time>2014-05-09T12:50:22Z</time>
      </trkpt>
      <trkpt lat="44.68382" lon="6.02019">
        <ele>1118.7</ele>
        <time>2014-05-09T12:50:26Z</time>
      </trkpt>
      <trkpt lat="44.68373" lon="6.01989">
        <ele>1118.8</ele>
        <time>2014-05-09T12:50:30Z</time>
      </trkpt>
      <trkpt lat="44.68365" lon="6.01954">
        <ele>1118.5</ele>
        <time>2014-05-09T12:50:34Z</time>
      </trkpt>
      <trkpt lat="44.6836" lon="6.01916">
        <ele>1118.4</ele>
        <time>2014-05-09T12:50:38Z</time>
      </trkpt>
      <trkpt lat="44.68361" lon="6.01895">
        <ele>1117.7</ele>
        <time>2014-05-09T12:50:40Z</time>
      </trkpt>
      <trkpt lat="44.68366" lon="6.01858">
        <ele>1117.3</ele>
        <time>2014-05-09T12:50:44Z</time>
      </trkpt>
      <trkpt lat="44.68376" lon="6.01809">
        <ele>1117.3</ele>
        <time>2014-05-09T12:50:50Z</time>
      </trkpt>
      <trkpt lat="44.68383" lon="6.01777">
        <ele>1117.8</ele>
        <time>2014-05-09T12:50:54Z</time>
      </trkpt>
      <trkpt lat="44.68395" lon="6.01717">
        <ele>1119.5</ele>
        <time>2014-05-09T12:51:02Z</time>
      </trkpt>
      <trkpt lat="44.68407" lon="6.01661">
        <ele>1120.4</ele>
        <time>2014-05-09T12:51:10Z</time>
      </trkpt>
      <trkpt lat="44.68417" lon="6.01616">
        <ele>1120.6</ele>
        <time>2014-05-09T12:51:16Z</time>
      </trkpt>
      <trkpt lat="44.68422" lon="6.01586">
        <ele>1120.5</ele>
        <time>2014-05-09T12:51:20Z</time>
      </trkpt>
      <trkpt lat="44.68426" lon="6.01552">
        <ele>1120.4</ele>
        <time>2014-05-09T12:51:24Z</time>
      </trkpt>
      <trkpt lat="44.68428" lon="6.01517">
        <ele>1120</ele>
        <time>2014-05-09T12:51:28Z</time>
      </trkpt>
      <trkpt lat="44.68427" lon="6.01498">
        <ele>1119.8</ele>
        <time>2014-05-09T12:51:30Z</time>
      </trkpt>
      <trkpt lat="44.68424" lon="6.01461">
        <ele>1119.3</ele>
        <time>2014-05-09T12:51:34Z</time>
      </trkpt>
      <trkpt lat="44.68417" lon="6.01421">
        <ele>1118.3</ele>
        <time>2014-05-09T12:51:38Z</time>
      </trkpt>
      <trkpt lat="44.68404" lon="6.01379">
        <ele>1117.3</ele>
        <time>2014-05-09T12:51:42Z</time>
      </trkpt>
      <trkpt lat="44.68389" lon="6.01338">
        <ele>1116.5</ele>
        <time>2014-05-09T12:51:46Z</time>
      </trkpt>
      <trkpt lat="44.68382" lon="6.01298">
        <ele>1115.6</ele>
        <time>2014-05-09T12:51:50Z</time>
      </trkpt>
      <trkpt lat="44.68392" lon="6.01264">
        <ele>1115.6</ele>
        <time>2014-05-09T12:51:54Z</time>
      </trkpt>
      <trkpt lat="44.68406" lon="6.01243">
        <ele>1116.4</ele>
        <time>2014-05-09T12:51:58Z</time>
      </trkpt>
      <trkpt lat="44.68417" lon="6.01235">
        <ele>1117.1</ele>
        <time>2014-05-09T12:52:01Z</time>
      </trkpt>
      <trkpt lat="44.68441" lon="6.01226">
        <ele>1118.6</ele>
        <time>2014-05-09T12:52:07Z</time>
      </trkpt>
      <trkpt lat="44.68463" lon="6.01223">
        <ele>1120.3</ele>
        <time>2014-05-09T12:52:12Z</time>
      </trkpt>
      <trkpt lat="44.68481" lon="6.01225">
        <ele>1121.3</ele>
        <time>2014-05-09T12:52:16Z</time>
      </trkpt>
      <trkpt lat="44.68504" lon="6.01231">
        <ele>1121.9</ele>
        <time>2014-05-09T12:52:21Z</time>
      </trkpt>
      <trkpt lat="44.68513" lon="6.01234">
        <ele>1122</ele>
        <time>2014-05-09T12:52:23Z</time>
      </trkpt>
      <trkpt lat="44.68559" lon="6.01253">
        <ele>1121.1</ele>
        <time>2014-05-09T12:52:31Z</time>
      </trkpt>
      <trkpt lat="44.68587" lon="6.01263">
        <ele>1120</ele>
        <time>2014-05-09T12:52:35Z</time>
      </trkpt>
      <trkpt lat="44.68602" lon="6.01267">
        <ele>1119.6</ele>
        <time>2014-05-09T12:52:37Z</time>
      </trkpt>
      <trkpt lat="44.68618" lon="6.0127">
        <ele>1119</ele>
        <time>2014-05-09T12:52:39Z</time>
      </trkpt>
      <trkpt lat="44.68635" lon="6.01272">
        <ele>1118.2</ele>
        <time>2014-05-09T12:52:41Z</time>
      </trkpt>
      <trkpt lat="44.68652" lon="6.0127">
        <ele>1117.4</ele>
        <time>2014-05-09T12:52:43Z</time>
      </trkpt>
      <trkpt lat="44.68669" lon="6.01264">
        <ele>1116.5</ele>
        <time>2014-05-09T12:52:45Z</time>
      </trkpt>
      <trkpt lat="44.68703" lon="6.01244">
        <ele>1115.2</ele>
        <time>2014-05-09T12:52:49Z</time>
      </trkpt>
      <trkpt lat="44.68718" lon="6.01234">
        <ele>1114.6</ele>
        <time>2014-05-09T12:52:51Z</time>
      </trkpt>
      <trkpt lat="44.68732" lon="6.01221">
        <ele>1114.7</ele>
        <time>2014-05-09T12:52:53Z</time>
      </trkpt>
      <trkpt lat="44.68752" lon="6.01197">
        <ele>1115.1</ele>
        <time>2014-05-09T12:52:57Z</time>
      </trkpt>
      <trkpt lat="44.68766" lon="6.01176">
        <ele>1116.3</ele>
        <time>2014-05-09T12:53:01Z</time>
      </trkpt>
      <trkpt lat="44.68773" lon="6.01161">
        <ele>1117</ele>
        <time>2014-05-09T12:53:04Z</time>
      </trkpt>
      <trkpt lat="44.68784" lon="6.01131">
        <ele>1119</ele>
        <time>2014-05-09T12:53:10Z</time>
      </trkpt>
      <trkpt lat="44.6879" lon="6.01103">
        <ele>1120.3</ele>
        <time>2014-05-09T12:53:16Z</time>
      </trkpt>
      <trkpt lat="44.68797" lon="6.01053">
        <ele>1123.6</ele>
        <time>2014-05-09T12:53:28Z</time>
      </trkpt>
      <trkpt lat="44.68801" lon="6.01024">
        <ele>1125.6</ele>
        <time>2014-05-09T12:53:35Z</time>
      </trkpt>
      <trkpt lat="44.68805" lon="6.01007">
        <ele>1126.5</ele>
        <time>2014-05-09T12:53:39Z</time>
      </trkpt>
      <trkpt lat="44.68813" lon="6.00984">
        <ele>1127.8</ele>
        <time>2014-05-09T12:53:45Z</time>
      </trkpt>
      <trkpt lat="44.6882" lon="6.00975">
        <ele>1128.7</ele>
        <time>2014-05-09T12:53:48Z</time>
      </trkpt>
      <trkpt lat="44.68836" lon="6.00966">
        <ele>1130.1</ele>
        <time>2014-05-09T12:53:54Z</time>
      </trkpt>
      <trkpt lat="44.68855" lon="6.0096">
        <ele>1130.9</ele>
        <time>2014-05-09T12:54:00Z</time>
      </trkpt>
      <trkpt lat="44.68874" lon="6.00954">
        <ele>1131.4</ele>
        <time>2014-05-09T12:54:06Z</time>
      </trkpt>
      <trkpt lat="44.68894" lon="6.00949">
        <ele>1132.3</ele>
        <time>2014-05-09T12:54:12Z</time>
      </trkpt>
      <trkpt lat="44.68917" lon="6.00949">
        <ele>1132.9</ele>
        <time>2014-05-09T12:54:18Z</time>
      </trkpt>
      <trkpt lat="44.68941" lon="6.00959">
        <ele>1132.9</ele>
        <time>2014-05-09T12:54:24Z</time>
      </trkpt>
      <trkpt lat="44.68952" lon="6.00967">
        <ele>1132.6</ele>
        <time>2014-05-09T12:54:27Z</time>
      </trkpt>
      <trkpt lat="44.69005" lon="6.01002">
        <ele>1130.2</ele>
        <time>2014-05-09T12:54:37Z</time>
      </trkpt>
      <trkpt lat="44.69019" lon="6.01013">
        <ele>1129.4</ele>
        <time>2014-05-09T12:54:39Z</time>
      </trkpt>
      <trkpt lat="44.69036" lon="6.01043">
        <ele>1127.7</ele>
        <time>2014-05-09T12:54:42Z</time>
      </trkpt>
      <trkpt lat="44.69045" lon="6.01068">
        <ele>1126.5</ele>
        <time>2014-05-09T12:54:44Z</time>
      </trkpt>
      <trkpt lat="44.69054" lon="6.01092">
        <ele>1125.4</ele>
        <time>2014-05-09T12:54:46Z</time>
      </trkpt>
      <trkpt lat="44.69066" lon="6.01116">
        <ele>1124.5</ele>
        <time>2014-05-09T12:54:48Z</time>
      </trkpt>
      <trkpt lat="44.69084" lon="6.0115">
        <ele>1123.3</ele>
        <time>2014-05-09T12:54:51Z</time>
      </trkpt>
      <trkpt lat="44.69094" lon="6.01175">
        <ele>1122.2</ele>
        <time>2014-05-09T12:54:53Z</time>
      </trkpt>
      <trkpt lat="44.69099" lon="6.01203">
        <ele>1121.5</ele>
        <time>2014-05-09T12:54:55Z</time>
      </trkpt>
      <trkpt lat="44.69105" lon="6.01262">
        <ele>1119.8</ele>
        <time>2014-05-09T12:54:59Z</time>
      </trkpt>
      <trkpt lat="44.69107" lon="6.01278">
        <ele>1119.3</ele>
        <time>2014-05-09T12:55:00Z</time>
      </trkpt>
      <trkpt lat="44.69116" lon="6.01339">
        <ele>1116.3</ele>
        <time>2014-05-09T12:55:04Z</time>
      </trkpt>
      <trkpt lat="44.69122" lon="6.01369">
        <ele>1115.4</ele>
        <time>2014-05-09T12:55:06Z</time>
      </trkpt>
      <trkpt lat="44.69129" lon="6.01397">
        <ele>1115</ele>
        <time>2014-05-09T12:55:08Z</time>
      </trkpt>
      <trkpt lat="44.69139" lon="6.01421">
        <ele>1114.9</ele>
        <time>2014-05-09T12:55:10Z</time>
      </trkpt>
      <trkpt lat="44.69148" lon="6.01443">
        <ele>1114.6</ele>
        <time>2014-05-09T12:55:12Z</time>
      </trkpt>
      <trkpt lat="44.69158" lon="6.01463">
        <ele>1113.8</ele>
        <time>2014-05-09T12:55:14Z</time>
      </trkpt>
      <trkpt lat="44.6917" lon="6.0148">
        <ele>1113.6</ele>
        <time>2014-05-09T12:55:16Z</time>
      </trkpt>
      <trkpt lat="44.69182" lon="6.01495">
        <ele>1113.1</ele>
        <time>2014-05-09T12:55:18Z</time>
      </trkpt>
      <trkpt lat="44.69194" lon="6.01507">
        <ele>1113.1</ele>
        <time>2014-05-09T12:55:20Z</time>
      </trkpt>
      <trkpt lat="44.69219" lon="6.01526">
        <ele>1114.1</ele>
        <time>2014-05-09T12:55:24Z</time>
      </trkpt>
      <trkpt lat="44.6924" lon="6.01535">
        <ele>1115.1</ele>
        <time>2014-05-09T12:55:28Z</time>
      </trkpt>
      <trkpt lat="44.69261" lon="6.01539">
        <ele>1115.8</ele>
        <time>2014-05-09T12:55:32Z</time>
      </trkpt>
      <trkpt lat="44.69271" lon="6.01539">
        <ele>1116</ele>
        <time>2014-05-09T12:55:34Z</time>
      </trkpt>
      <trkpt lat="44.69299" lon="6.01536">
        <ele>1116.1</ele>
        <time>2014-05-09T12:55:40Z</time>
      </trkpt>
      <trkpt lat="44.69318" lon="6.01529">
        <ele>1116</ele>
        <time>2014-05-09T12:55:44Z</time>
      </trkpt>
      <trkpt lat="44.69368" lon="6.01507">
        <ele>1114.9</ele>
        <time>2014-05-09T12:55:55Z</time>
      </trkpt>
      <trkpt lat="44.69406" lon="6.01485">
        <ele>1113.9</ele>
        <time>2014-05-09T12:56:03Z</time>
      </trkpt>
      <trkpt lat="44.69426" lon="6.0147">
        <ele>1113.5</ele>
        <time>2014-05-09T12:56:07Z</time>
      </trkpt>
      <trkpt lat="44.69436" lon="6.0146">
        <ele>1113.2</ele>
        <time>2014-05-09T12:56:09Z</time>
      </trkpt>
      <trkpt lat="44.69453" lon="6.0144">
        <ele>1111.9</ele>
        <time>2014-05-09T12:56:13Z</time>
      </trkpt>
      <trkpt lat="44.69465" lon="6.01412">
        <ele>1111.9</ele>
        <time>2014-05-09T12:56:17Z</time>
      </trkpt>
      <trkpt lat="44.69469" lon="6.0138">
        <ele>1111.2</ele>
        <time>2014-05-09T12:56:21Z</time>
      </trkpt>
      <trkpt lat="44.69474" lon="6.01349">
        <ele>1111.1</ele>
        <time>2014-05-09T12:56:25Z</time>
      </trkpt>
      <trkpt lat="44.69479" lon="6.01336">
        <ele>1111.1</ele>
        <time>2014-05-09T12:56:27Z</time>
      </trkpt>
      <trkpt lat="44.69493" lon="6.01314">
        <ele>1111.6</ele>
        <time>2014-05-09T12:56:31Z</time>
      </trkpt>
      <trkpt lat="44.69526" lon="6.01276">
        <ele>1112.4</ele>
        <time>2014-05-09T12:56:39Z</time>
      </trkpt>
      <trkpt lat="44.69541" lon="6.01259">
        <ele>1112.8</ele>
        <time>2014-05-09T12:56:43Z</time>
      </trkpt>
      <trkpt lat="44.69568" lon="6.0123">
        <ele>1114.3</ele>
        <time>2014-05-09T12:56:52Z</time>
      </trkpt>
      <trkpt lat="44.69571" lon="6.01203">
        <ele>1115.1</ele>
        <time>2014-05-09T12:56:59Z</time>
      </trkpt>
      <trkpt lat="44.69566" lon="6.01188">
        <ele>1115.8</ele>
        <time>2014-05-09T12:57:03Z</time>
      </trkpt>
      <trkpt lat="44.69555" lon="6.0116">
        <ele>1117.6</ele>
        <time>2014-05-09T12:57:09Z</time>
      </trkpt>
      <trkpt lat="44.69547" lon="6.01135">
        <ele>1120</ele>
        <time>2014-05-09T12:57:16Z</time>
      </trkpt>
      <trkpt lat="44.6954" lon="6.01106">
        <ele>1122.3</ele>
        <time>2014-05-09T12:57:24Z</time>
      </trkpt>
      <trkpt lat="44.69525" lon="6.01075">
        <ele>1126.5</ele>
        <time>2014-05-09T12:57:36Z</time>
      </trkpt>
      <trkpt lat="44.69505" lon="6.01087">
        <ele>1128.7</ele>
        <time>2014-05-09T12:57:44Z</time>
      </trkpt>
      <trkpt lat="44.69494" lon="6.01092">
        <ele>1129.6</ele>
        <time>2014-05-09T12:57:48Z</time>
      </trkpt>
      <trkpt lat="44.69474" lon="6.01097">
        <ele>1130.6</ele>
        <time>2014-05-09T12:57:55Z</time>
      </trkpt>
      <trkpt lat="44.69462" lon="6.01095">
        <ele>1131.4</ele>
        <time>2014-05-09T12:57:59Z</time>
      </trkpt>
      <trkpt lat="44.69441" lon="6.01085">
        <ele>1133.4</ele>
        <time>2014-05-09T12:58:07Z</time>
      </trkpt>
      <trkpt lat="44.69422" lon="6.01072">
        <ele>1135.6</ele>
        <time>2014-05-09T12:58:15Z</time>
      </trkpt>
      <trkpt lat="44.69412" lon="6.01069">
        <ele>1136.5</ele>
        <time>2014-05-09T12:58:19Z</time>
      </trkpt>
      <trkpt lat="44.69394" lon="6.01072">
        <ele>1137.8</ele>
        <time>2014-05-09T12:58:26Z</time>
      </trkpt>
      <trkpt lat="44.69374" lon="6.01083">
        <ele>1139.6</ele>
        <time>2014-05-09T12:58:33Z</time>
      </trkpt>
      <trkpt lat="44.69355" lon="6.01101">
        <ele>1142</ele>
        <time>2014-05-09T12:58:41Z</time>
      </trkpt>
      <trkpt lat="44.69338" lon="6.01125">
        <ele>1143.3</ele>
        <time>2014-05-09T12:58:49Z</time>
      </trkpt>
      <trkpt lat="44.69323" lon="6.0115">
        <ele>1145.2</ele>
        <time>2014-05-09T12:58:57Z</time>
      </trkpt>
      <trkpt lat="44.69301" lon="6.01187">
        <ele>1148.1</ele>
        <time>2014-05-09T12:59:09Z</time>
      </trkpt>
      <trkpt lat="44.69292" lon="6.01198">
        <ele>1148.9</ele>
        <time>2014-05-09T12:59:13Z</time>
      </trkpt>
      <trkpt lat="44.69271" lon="6.01204">
        <ele>1151.3</ele>
        <time>2014-05-09T12:59:21Z</time>
      </trkpt>
      <trkpt lat="44.69252" lon="6.01195">
        <ele>1153.5</ele>
        <time>2014-05-09T12:59:28Z</time>
      </trkpt>
      <trkpt lat="44.69232" lon="6.01181">
        <ele>1155</ele>
        <time>2014-05-09T12:59:36Z</time>
      </trkpt>
      <trkpt lat="44.69223" lon="6.01171">
        <ele>1156.3</ele>
        <time>2014-05-09T12:59:40Z</time>
      </trkpt>
      <trkpt lat="44.69202" lon="6.01136">
        <ele>1158.7</ele>
        <time>2014-05-09T12:59:52Z</time>
      </trkpt>
      <trkpt lat="44.69192" lon="6.0111">
        <ele>1160.7</ele>
        <time>2014-05-09T13:00:00Z</time>
      </trkpt>
      <trkpt lat="44.69187" lon="6.01083">
        <ele>1162.8</ele>
        <time>2014-05-09T13:00:08Z</time>
      </trkpt>
      <trkpt lat="44.69184" lon="6.01055">
        <ele>1164.9</ele>
        <time>2014-05-09T13:00:16Z</time>
      </trkpt>
      <trkpt lat="44.69185" lon="6.01026">
        <ele>1166.4</ele>
        <time>2014-05-09T13:00:24Z</time>
      </trkpt>
      <trkpt lat="44.69188" lon="6.00997">
        <ele>1168.3</ele>
        <time>2014-05-09T13:00:32Z</time>
      </trkpt>
      <trkpt lat="44.69184" lon="6.00956">
        <ele>1170.7</ele>
        <time>2014-05-09T13:00:44Z</time>
      </trkpt>
      <trkpt lat="44.69176" lon="6.0093">
        <ele>1172.2</ele>
        <time>2014-05-09T13:00:52Z</time>
      </trkpt>
      <trkpt lat="44.69179" lon="6.00902">
        <ele>1174.2</ele>
        <time>2014-05-09T13:01:00Z</time>
      </trkpt>
      <trkpt lat="44.69184" lon="6.0089">
        <ele>1175.2</ele>
        <time>2014-05-09T13:01:04Z</time>
      </trkpt>
      <trkpt lat="44.69218" lon="6.00855">
        <ele>1179.2</ele>
        <time>2014-05-09T13:01:20Z</time>
      </trkpt>
      <trkpt lat="44.69229" lon="6.0083">
        <ele>1181.6</ele>
        <time>2014-05-09T13:01:28Z</time>
      </trkpt>
      <trkpt lat="44.69242" lon="6.00808">
        <ele>1184</ele>
        <time>2014-05-09T13:01:36Z</time>
      </trkpt>
      <trkpt lat="44.69257" lon="6.0079">
        <ele>1186.3</ele>
        <time>2014-05-09T13:01:44Z</time>
      </trkpt>
      <trkpt lat="44.69273" lon="6.00774">
        <ele>1188.6</ele>
        <time>2014-05-09T13:01:52Z</time>
      </trkpt>
      <trkpt lat="44.69291" lon="6.00761">
        <ele>1191.6</ele>
        <time>2014-05-09T13:02:00Z</time>
      </trkpt>
      <trkpt lat="44.6933" lon="6.0074">
        <ele>1196.1</ele>
        <time>2014-05-09T13:02:16Z</time>
      </trkpt>
      <trkpt lat="44.69344" lon="6.00717">
        <ele>1198</ele>
        <time>2014-05-09T13:02:24Z</time>
      </trkpt>
      <trkpt lat="44.69357" lon="6.00693">
        <ele>1199.7</ele>
        <time>2014-05-09T13:02:32Z</time>
      </trkpt>
      <trkpt lat="44.69365" lon="6.00681">
        <ele>1200.5</ele>
        <time>2014-05-09T13:02:36Z</time>
      </trkpt>
      <trkpt lat="44.69385" lon="6.00648">
        <ele>1203.9</ele>
        <time>2014-05-09T13:02:48Z</time>
      </trkpt>
      <trkpt lat="44.69416" lon="6.00606">
        <ele>1209</ele>
        <time>2014-05-09T13:03:04Z</time>
      </trkpt>
      <trkpt lat="44.69424" lon="6.00598">
        <ele>1209.8</ele>
        <time>2014-05-09T13:03:08Z</time>
      </trkpt>
      <trkpt lat="44.69446" lon="6.00588">
        <ele>1211.7</ele>
        <time>2014-05-09T13:03:16Z</time>
      </trkpt>
      <trkpt lat="44.69457" lon="6.00566">
        <ele>1213</ele>
        <time>2014-05-09T13:03:23Z</time>
      </trkpt>
      <trkpt lat="44.69462" lon="6.00552">
        <ele>1213.9</ele>
        <time>2014-05-09T13:03:27Z</time>
      </trkpt>
      <trkpt lat="44.69474" lon="6.0053">
        <ele>1215.1</ele>
        <time>2014-05-09T13:03:33Z</time>
      </trkpt>
      <trkpt lat="44.69481" lon="6.00519">
        <ele>1216.3</ele>
        <time>2014-05-09T13:03:37Z</time>
      </trkpt>
      <trkpt lat="44.69493" lon="6.00493">
        <ele>1218.2</ele>
        <time>2014-05-09T13:03:45Z</time>
      </trkpt>
      <trkpt lat="44.69512" lon="6.00489">
        <ele>1220.7</ele>
        <time>2014-05-09T13:03:54Z</time>
      </trkpt>
      <trkpt lat="44.6953" lon="6.00505">
        <ele>1222</ele>
        <time>2014-05-09T13:04:01Z</time>
      </trkpt>
      <trkpt lat="44.69549" lon="6.00516">
        <ele>1223.2</ele>
        <time>2014-05-09T13:04:07Z</time>
      </trkpt>
      <trkpt lat="44.69567" lon="6.00523">
        <ele>1225.6</ele>
        <time>2014-05-09T13:04:13Z</time>
      </trkpt>
      <trkpt lat="44.69575" lon="6.00528">
        <ele>1226.7</ele>
        <time>2014-05-09T13:04:16Z</time>
      </trkpt>
      <trkpt lat="44.69591" lon="6.00543">
        <ele>1228.1</ele>
        <time>2014-05-09T13:04:22Z</time>
      </trkpt>
      <trkpt lat="44.69614" lon="6.00565">
        <ele>1229.2</ele>
        <time>2014-05-09T13:04:31Z</time>
      </trkpt>
      <trkpt lat="44.69628" lon="6.00588">
        <ele>1230.6</ele>
        <time>2014-05-09T13:04:38Z</time>
      </trkpt>
      <trkpt lat="44.69639" lon="6.00595">
        <ele>1231.6</ele>
        <time>2014-05-09T13:04:42Z</time>
      </trkpt>
      <trkpt lat="44.6966" lon="6.00587">
        <ele>1232.5</ele>
        <time>2014-05-09T13:04:48Z</time>
      </trkpt>
      <trkpt lat="44.69677" lon="6.00574">
        <ele>1234.3</ele>
        <time>2014-05-09T13:04:54Z</time>
      </trkpt>
      <trkpt lat="44.69692" lon="6.00552">
        <ele>1236.8</ele>
        <time>2014-05-09T13:05:01Z</time>
      </trkpt>
      <trkpt lat="44.69702" lon="6.00529">
        <ele>1238</ele>
        <time>2014-05-09T13:05:07Z</time>
      </trkpt>
      <trkpt lat="44.69709" lon="6.00518">
        <ele>1238.8</ele>
        <time>2014-05-09T13:05:11Z</time>
      </trkpt>
      <trkpt lat="44.69726" lon="6.00497">
        <ele>1241</ele>
        <time>2014-05-09T13:05:19Z</time>
      </trkpt>
      <trkpt lat="44.69735" lon="6.00487">
        <ele>1242.1</ele>
        <time>2014-05-09T13:05:23Z</time>
      </trkpt>
      <trkpt lat="44.69749" lon="6.00466">
        <ele>1243.9</ele>
        <time>2014-05-09T13:05:30Z</time>
      </trkpt>
      <trkpt lat="44.69756" lon="6.00454">
        <ele>1244.9</ele>
        <time>2014-05-09T13:05:34Z</time>
      </trkpt>
      <trkpt lat="44.69771" lon="6.00431">
        <ele>1246.2</ele>
        <time>2014-05-09T13:05:41Z</time>
      </trkpt>
      <trkpt lat="44.69789" lon="6.00414">
        <ele>1247.5</ele>
        <time>2014-05-09T13:05:48Z</time>
      </trkpt>
      <trkpt lat="44.69813" lon="6.00386">
        <ele>1251</ele>
        <time>2014-05-09T13:05:59Z</time>
      </trkpt>
      <trkpt lat="44.69818" lon="6.00356">
        <ele>1252.2</ele>
        <time>2014-05-09T13:06:07Z</time>
      </trkpt>
      <trkpt lat="44.69821" lon="6.00341">
        <ele>1252.8</ele>
        <time>2014-05-09T13:06:11Z</time>
      </trkpt>
      <trkpt lat="44.69831" lon="6.00317">
        <ele>1254.1</ele>
        <time>2014-05-09T13:06:18Z</time>
      </trkpt>
      <trkpt lat="44.69853" lon="6.00307">
        <ele>1256</ele>
        <time>2014-05-09T13:06:26Z</time>
      </trkpt>
      <trkpt lat="44.69874" lon="6.00309">
        <ele>1258.6</ele>
        <time>2014-05-09T13:06:33Z</time>
      </trkpt>
      <trkpt lat="44.69914" lon="6.00319">
        <ele>1261.4</ele>
        <time>2014-05-09T13:06:46Z</time>
      </trkpt>
      <trkpt lat="44.69937" lon="6.00323">
        <ele>1263</ele>
        <time>2014-05-09T13:06:54Z</time>
      </trkpt>
      <trkpt lat="44.69959" lon="6.00333">
        <ele>1264.8</ele>
        <time>2014-05-09T13:07:02Z</time>
      </trkpt>
      <trkpt lat="44.69979" lon="6.00359">
        <ele>1267.5</ele>
        <time>2014-05-09T13:07:11Z</time>
      </trkpt>
      <trkpt lat="44.7" lon="6.00352">
        <ele>1269.7</ele>
        <time>2014-05-09T13:07:19Z</time>
      </trkpt>
      <trkpt lat="44.7001" lon="6.00328">
        <ele>1271.4</ele>
        <time>2014-05-09T13:07:25Z</time>
      </trkpt>
      <trkpt lat="44.70023" lon="6.00308">
        <ele>1272.9</ele>
        <time>2014-05-09T13:07:31Z</time>
      </trkpt>
      <trkpt lat="44.70042" lon="6.00295">
        <ele>1275.2</ele>
        <time>2014-05-09T13:07:38Z</time>
      </trkpt>
      <trkpt lat="44.70053" lon="6.00289">
        <ele>1276.5</ele>
        <time>2014-05-09T13:07:42Z</time>
      </trkpt>
      <trkpt lat="44.70072" lon="6.00278">
        <ele>1278.4</ele>
        <time>2014-05-09T13:07:50Z</time>
      </trkpt>
      <trkpt lat="44.7009" lon="6.00289">
        <ele>1280.6</ele>
        <time>2014-05-09T13:07:59Z</time>
      </trkpt>
      <trkpt lat="44.70112" lon="6.0033">
        <ele>1283.7</ele>
        <time>2014-05-09T13:08:12Z</time>
      </trkpt>
      <trkpt lat="44.70129" lon="6.00342">
        <ele>1285.5</ele>
        <time>2014-05-09T13:08:19Z</time>
      </trkpt>
      <trkpt lat="44.7015" lon="6.00329">
        <ele>1287.4</ele>
        <time>2014-05-09T13:08:27Z</time>
      </trkpt>
      <trkpt lat="44.70169" lon="6.00315">
        <ele>1289.3</ele>
        <time>2014-05-09T13:08:35Z</time>
      </trkpt>
      <trkpt lat="44.70199" lon="6.0029">
        <ele>1292.9</ele>
        <time>2014-05-09T13:08:47Z</time>
      </trkpt>
      <trkpt lat="44.70219" lon="6.00275">
        <ele>1295.1</ele>
        <time>2014-05-09T13:08:55Z</time>
      </trkpt>
      <trkpt lat="44.70236" lon="6.00259">
        <ele>1297</ele>
        <time>2014-05-09T13:09:02Z</time>
      </trkpt>
      <trkpt lat="44.70264" lon="6.00245">
        <ele>1298.8</ele>
        <time>2014-05-09T13:09:12Z</time>
      </trkpt>
      <trkpt lat="44.70286" lon="6.0024">
        <ele>1301.9</ele>
        <time>2014-05-09T13:09:20Z</time>
      </trkpt>
      <trkpt lat="44.70305" lon="6.0023">
        <ele>1303.7</ele>
        <time>2014-05-09T13:09:27Z</time>
      </trkpt>
      <trkpt lat="44.70325" lon="6.00213">
        <ele>1305.3</ele>
        <time>2014-05-09T13:09:35Z</time>
      </trkpt>
      <trkpt lat="44.70336" lon="6.0019">
        <ele>1308</ele>
        <time>2014-05-09T13:09:43Z</time>
      </trkpt>
      <trkpt lat="44.70324" lon="6.00188">
        <ele>1309.1</ele>
        <time>2014-05-09T13:09:47Z</time>
      </trkpt>
      <trkpt lat="44.70304" lon="6.00201">
        <ele>1309.9</ele>
        <time>2014-05-09T13:09:53Z</time>
      </trkpt>
      <trkpt lat="44.70285" lon="6.00206">
        <ele>1311.1</ele>
        <time>2014-05-09T13:09:59Z</time>
      </trkpt>
      <trkpt lat="44.70264" lon="6.00201">
        <ele>1312</ele>
        <time>2014-05-09T13:10:05Z</time>
      </trkpt>
      <trkpt lat="44.70232" lon="6.002">
        <ele>1314.1</ele>
        <time>2014-05-09T13:10:14Z</time>
      </trkpt>
      <trkpt lat="44.70222" lon="6.002">
        <ele>1315</ele>
        <time>2014-05-09T13:10:17Z</time>
      </trkpt>
      <trkpt lat="44.70201" lon="6.00203">
        <ele>1316.4</ele>
        <time>2014-05-09T13:10:23Z</time>
      </trkpt>
      <trkpt lat="44.7019" lon="6.00205">
        <ele>1317.1</ele>
        <time>2014-05-09T13:10:26Z</time>
      </trkpt>
      <trkpt lat="44.70171" lon="6.00203">
        <ele>1318.9</ele>
        <time>2014-05-09T13:10:32Z</time>
      </trkpt>
      <trkpt lat="44.7015" lon="6.00202">
        <ele>1320.9</ele>
        <time>2014-05-09T13:10:38Z</time>
      </trkpt>
      <trkpt lat="44.70132" lon="6.00189">
        <ele>1323.1</ele>
        <time>2014-05-09T13:10:44Z</time>
      </trkpt>
      <trkpt lat="44.70128" lon="6.00175">
        <ele>1324.5</ele>
        <time>2014-05-09T13:10:47Z</time>
      </trkpt>
      <trkpt lat="44.70122" lon="6.00149">
        <ele>1327.1</ele>
        <time>2014-05-09T13:10:53Z</time>
      </trkpt>
      <trkpt lat="44.7011" lon="6.00128">
        <ele>1328.9</ele>
        <time>2014-05-09T13:10:59Z</time>
      </trkpt>
      <trkpt lat="44.7006" lon="6.00083">
        <ele>1332.5</ele>
        <time>2014-05-09T13:11:17Z</time>
      </trkpt>
      <trkpt lat="44.70041" lon="6.00074">
        <ele>1333.9</ele>
        <time>2014-05-09T13:11:23Z</time>
      </trkpt>
      <trkpt lat="44.70022" lon="6.00072">
        <ele>1335.7</ele>
        <time>2014-05-09T13:11:29Z</time>
      </trkpt>
      <trkpt lat="44.69993" lon="6.00063">
        <ele>1338.1</ele>
        <time>2014-05-09T13:11:38Z</time>
      </trkpt>
      <trkpt lat="44.69971" lon="6.00055">
        <ele>1339.9</ele>
        <time>2014-05-09T13:11:46Z</time>
      </trkpt>
      <trkpt lat="44.69959" lon="6.00052">
        <ele>1340.9</ele>
        <time>2014-05-09T13:11:50Z</time>
      </trkpt>
      <trkpt lat="44.69923" lon="6.00044">
        <ele>1343.8</ele>
        <time>2014-05-09T13:12:02Z</time>
      </trkpt>
      <trkpt lat="44.69904" lon="6.00043">
        <ele>1345.4</ele>
        <time>2014-05-09T13:12:08Z</time>
      </trkpt>
      <trkpt lat="44.69874" lon="6.00044">
        <ele>1348.6</ele>
        <time>2014-05-09T13:12:18Z</time>
      </trkpt>
      <trkpt lat="44.69845" lon="6.00042">
        <ele>1350.2</ele>
        <time>2014-05-09T13:12:27Z</time>
      </trkpt>
      <trkpt lat="44.69818" lon="6.00046">
        <ele>1353.4</ele>
        <time>2014-05-09T13:12:36Z</time>
      </trkpt>
      <trkpt lat="44.69799" lon="6.00047">
        <ele>1355</ele>
        <time>2014-05-09T13:12:42Z</time>
      </trkpt>
      <trkpt lat="44.6978" lon="6.00046">
        <ele>1357</ele>
        <time>2014-05-09T13:12:48Z</time>
      </trkpt>
      <trkpt lat="44.69744" lon="6.00034">
        <ele>1361.2</ele>
        <time>2014-05-09T13:13:00Z</time>
      </trkpt>
      <trkpt lat="44.69728" lon="6.00018">
        <ele>1362.4</ele>
        <time>2014-05-09T13:13:06Z</time>
      </trkpt>
      <trkpt lat="44.69707" lon="5.99992">
        <ele>1364.8</ele>
        <time>2014-05-09T13:13:15Z</time>
      </trkpt>
      <trkpt lat="44.69691" lon="5.99974">
        <ele>1366.4</ele>
        <time>2014-05-09T13:13:21Z</time>
      </trkpt>
      <trkpt lat="44.69677" lon="5.99955">
        <ele>1367.8</ele>
        <time>2014-05-09T13:13:27Z</time>
      </trkpt>
      <trkpt lat="44.69661" lon="5.99942">
        <ele>1369.4</ele>
        <time>2014-05-09T13:13:33Z</time>
      </trkpt>
      <trkpt lat="44.69642" lon="5.99942">
        <ele>1370.8</ele>
        <time>2014-05-09T13:13:39Z</time>
      </trkpt>
      <trkpt lat="44.69622" lon="5.99947">
        <ele>1372.4</ele>
        <time>2014-05-09T13:13:45Z</time>
      </trkpt>
      <trkpt lat="44.69601" lon="5.99949">
        <ele>1373.3</ele>
        <time>2014-05-09T13:13:51Z</time>
      </trkpt>
      <trkpt lat="44.69582" lon="5.99942">
        <ele>1374.9</ele>
        <time>2014-05-09T13:13:57Z</time>
      </trkpt>
      <trkpt lat="44.69564" lon="5.99933">
        <ele>1376.7</ele>
        <time>2014-05-09T13:14:03Z</time>
      </trkpt>
      <trkpt lat="44.69541" lon="5.99911">
        <ele>1379.4</ele>
        <time>2014-05-09T13:14:12Z</time>
      </trkpt>
      <trkpt lat="44.69526" lon="5.99891">
        <ele>1382</ele>
        <time>2014-05-09T13:14:19Z</time>
      </trkpt>
      <trkpt lat="44.69503" lon="5.99842">
        <ele>1385.5</ele>
        <time>2014-05-09T13:14:33Z</time>
      </trkpt>
      <trkpt lat="44.69497" lon="5.99814">
        <ele>1387.9</ele>
        <time>2014-05-09T13:14:40Z</time>
      </trkpt>
      <trkpt lat="44.69495" lon="5.99772">
        <ele>1390.9</ele>
        <time>2014-05-09T13:14:50Z</time>
      </trkpt>
      <trkpt lat="44.69476" lon="5.99716">
        <ele>1395.8</ele>
        <time>2014-05-09T13:15:06Z</time>
      </trkpt>
      <trkpt lat="44.69464" lon="5.9969">
        <ele>1398.1</ele>
        <time>2014-05-09T13:15:14Z</time>
      </trkpt>
      <trkpt lat="44.69457" lon="5.99678">
        <ele>1399.3</ele>
        <time>2014-05-09T13:15:18Z</time>
      </trkpt>
      <trkpt lat="44.69442" lon="5.99641">
        <ele>1402.7</ele>
        <time>2014-05-09T13:15:30Z</time>
      </trkpt>
      <trkpt lat="44.69421" lon="5.99597">
        <ele>1407.6</ele>
        <time>2014-05-09T13:15:46Z</time>
      </trkpt>
      <trkpt lat="44.69421" lon="5.99575">
        <ele>1409.9</ele>
        <time>2014-05-09T13:15:55Z</time>
      </trkpt>
      <trkpt lat="44.69439" lon="5.99607">
        <ele>1411.9</ele>
        <time>2014-05-09T13:16:05Z</time>
      </trkpt>
      <trkpt lat="44.69464" lon="5.9964">
        <ele>1414.6</ele>
        <time>2014-05-09T13:16:17Z</time>
      </trkpt>
      <trkpt lat="44.69473" lon="5.99651">
        <ele>1415.4</ele>
        <time>2014-05-09T13:16:21Z</time>
      </trkpt>
      <trkpt lat="44.69498" lon="5.99683">
        <ele>1417.7</ele>
        <time>2014-05-09T13:16:33Z</time>
      </trkpt>
      <trkpt lat="44.69506" lon="5.99695">
        <ele>1418.5</ele>
        <time>2014-05-09T13:16:37Z</time>
      </trkpt>
      <trkpt lat="44.69519" lon="5.99715">
        <ele>1420</ele>
        <time>2014-05-09T13:16:43Z</time>
      </trkpt>
      <trkpt lat="44.69538" lon="5.99725">
        <ele>1420.9</ele>
        <time>2014-05-09T13:16:49Z</time>
      </trkpt>
      <trkpt lat="44.69557" lon="5.99741">
        <ele>1422</ele>
        <time>2014-05-09T13:16:55Z</time>
      </trkpt>
      <trkpt lat="44.69572" lon="5.99761">
        <ele>1423.6</ele>
        <time>2014-05-09T13:17:01Z</time>
      </trkpt>
      <trkpt lat="44.69592" lon="5.99773">
        <ele>1425.2</ele>
        <time>2014-05-09T13:17:07Z</time>
      </trkpt>
      <trkpt lat="44.69612" lon="5.99772">
        <ele>1426.6</ele>
        <time>2014-05-09T13:17:13Z</time>
      </trkpt>
      <trkpt lat="44.69642" lon="5.9978">
        <ele>1428.6</ele>
        <time>2014-05-09T13:17:22Z</time>
      </trkpt>
      <trkpt lat="44.69653" lon="5.99783">
        <ele>1429.4</ele>
        <time>2014-05-09T13:17:26Z</time>
      </trkpt>
      <trkpt lat="44.69676" lon="5.99784">
        <ele>1431</ele>
        <time>2014-05-09T13:17:34Z</time>
      </trkpt>
      <trkpt lat="44.69705" lon="5.99783">
        <ele>1433.1</ele>
        <time>2014-05-09T13:17:43Z</time>
      </trkpt>
      <trkpt lat="44.69725" lon="5.9979">
        <ele>1434.9</ele>
        <time>2014-05-09T13:17:49Z</time>
      </trkpt>
      <trkpt lat="44.69744" lon="5.99801">
        <ele>1437.2</ele>
        <time>2014-05-09T13:17:56Z</time>
      </trkpt>
      <trkpt lat="44.69755" lon="5.99805">
        <ele>1438.4</ele>
        <time>2014-05-09T13:18:00Z</time>
      </trkpt>
      <trkpt lat="44.69789" lon="5.99813">
        <ele>1442.3</ele>
        <time>2014-05-09T13:18:12Z</time>
      </trkpt>
      <trkpt lat="44.69813" lon="5.99816">
        <ele>1444.8</ele>
        <time>2014-05-09T13:18:20Z</time>
      </trkpt>
      <trkpt lat="44.69836" lon="5.99812">
        <ele>1447.8</ele>
        <time>2014-05-09T13:18:28Z</time>
      </trkpt>
      <trkpt lat="44.6986" lon="5.99793">
        <ele>1449.1</ele>
        <time>2014-05-09T13:18:37Z</time>
      </trkpt>
      <trkpt lat="44.69879" lon="5.99791">
        <ele>1450.6</ele>
        <time>2014-05-09T13:18:44Z</time>
      </trkpt>
      <trkpt lat="44.69897" lon="5.99802">
        <ele>1452.5</ele>
        <time>2014-05-09T13:18:52Z</time>
      </trkpt>
      <trkpt lat="44.69908" lon="5.99788">
        <ele>1455</ele>
        <time>2014-05-09T13:19:01Z</time>
      </trkpt>
      <trkpt lat="44.69884" lon="5.99769">
        <ele>1458.4</ele>
        <time>2014-05-09T13:19:13Z</time>
      </trkpt>
      <trkpt lat="44.69865" lon="5.99761">
        <ele>1461.5</ele>
        <time>2014-05-09T13:19:22Z</time>
      </trkpt>
      <trkpt lat="44.69846" lon="5.99763">
        <ele>1464</ele>
        <time>2014-05-09T13:19:30Z</time>
      </trkpt>
      <trkpt lat="44.69826" lon="5.99763">
        <ele>1466.7</ele>
        <time>2014-05-09T13:19:39Z</time>
      </trkpt>
      <trkpt lat="44.69815" lon="5.99759">
        <ele>1468.4</ele>
        <time>2014-05-09T13:19:44Z</time>
      </trkpt>
      <trkpt lat="44.69797" lon="5.99744">
        <ele>1471.4</ele>
        <time>2014-05-09T13:19:54Z</time>
      </trkpt>
      <trkpt lat="44.69774" lon="5.99714">
        <ele>1476.6</ele>
        <time>2014-05-09T13:20:09Z</time>
      </trkpt>
      <trkpt lat="44.69758" lon="5.99696">
        <ele>1479.4</ele>
        <time>2014-05-09T13:20:19Z</time>
      </trkpt>
      <trkpt lat="44.69741" lon="5.9968">
        <ele>1482.4</ele>
        <time>2014-05-09T13:20:29Z</time>
      </trkpt>
      <trkpt lat="44.69712" lon="5.99662">
        <ele>1487</ele>
        <time>2014-05-09T13:20:44Z</time>
      </trkpt>
      <trkpt lat="44.69703" lon="5.99655">
        <ele>1488.4</ele>
        <time>2014-05-09T13:20:49Z</time>
      </trkpt>
      <trkpt lat="44.69678" lon="5.9963">
        <ele>1493.3</ele>
        <time>2014-05-09T13:21:04Z</time>
      </trkpt>
      <trkpt lat="44.69661" lon="5.99612">
        <ele>1496.7</ele>
        <time>2014-05-09T13:21:14Z</time>
      </trkpt>
      <trkpt lat="44.69652" lon="5.99604">
        <ele>1498.1</ele>
        <time>2014-05-09T13:21:19Z</time>
      </trkpt>
      <trkpt lat="44.69635" lon="5.99586">
        <ele>1501.4</ele>
        <time>2014-05-09T13:21:29Z</time>
      </trkpt>
      <trkpt lat="44.69617" lon="5.99572">
        <ele>1504.8</ele>
        <time>2014-05-09T13:21:39Z</time>
      </trkpt>
      <trkpt lat="44.696" lon="5.99553">
        <ele>1508.5</ele>
        <time>2014-05-09T13:21:49Z</time>
      </trkpt>
      <trkpt lat="44.69586" lon="5.99532">
        <ele>1511.5</ele>
        <time>2014-05-09T13:21:59Z</time>
      </trkpt>
      <trkpt lat="44.69574" lon="5.99508">
        <ele>1514.8</ele>
        <time>2014-05-09T13:22:09Z</time>
      </trkpt>
      <trkpt lat="44.69564" lon="5.99484">
        <ele>1517.6</ele>
        <time>2014-05-09T13:22:19Z</time>
      </trkpt>
      <trkpt lat="44.6955" lon="5.99447">
        <ele>1521.7</ele>
        <time>2014-05-09T13:22:32Z</time>
      </trkpt>
      <trkpt lat="44.69544" lon="5.99421">
        <ele>1524.3</ele>
        <time>2014-05-09T13:22:41Z</time>
      </trkpt>
      <trkpt lat="44.69538" lon="5.99377">
        <ele>1528.4</ele>
        <time>2014-05-09T13:22:55Z</time>
      </trkpt>
      <trkpt lat="44.69532" lon="5.99351">
        <ele>1530.6</ele>
        <time>2014-05-09T13:23:03Z</time>
      </trkpt>
      <trkpt lat="44.69522" lon="5.99329">
        <ele>1532.5</ele>
        <time>2014-05-09T13:23:11Z</time>
      </trkpt>
      <trkpt lat="44.69509" lon="5.99309">
        <ele>1534.4</ele>
        <time>2014-05-09T13:23:20Z</time>
      </trkpt>
      <trkpt lat="44.695" lon="5.99299">
        <ele>1535.3</ele>
        <time>2014-05-09T13:23:25Z</time>
      </trkpt>
      <trkpt lat="44.69466" lon="5.99263">
        <ele>1541.2</ele>
        <time>2014-05-09T13:23:45Z</time>
      </trkpt>
      <trkpt lat="44.69454" lon="5.99241">
        <ele>1544</ele>
        <time>2014-05-09T13:23:55Z</time>
      </trkpt>
      <trkpt lat="44.69437" lon="5.99227">
        <ele>1547.2</ele>
        <time>2014-05-09T13:24:04Z</time>
      </trkpt>
      <trkpt lat="44.69421" lon="5.99211">
        <ele>1549.7</ele>
        <time>2014-05-09T13:24:12Z</time>
      </trkpt>
      <trkpt lat="44.69405" lon="5.99199">
        <ele>1551.6</ele>
        <time>2014-05-09T13:24:20Z</time>
      </trkpt>
      <trkpt lat="44.69391" lon="5.99182">
        <ele>1553.4</ele>
        <time>2014-05-09T13:24:28Z</time>
      </trkpt>
      <trkpt lat="44.69376" lon="5.99165">
        <ele>1555.3</ele>
        <time>2014-05-09T13:24:36Z</time>
      </trkpt>
      <trkpt lat="44.69367" lon="5.99158">
        <ele>1556.2</ele>
        <time>2014-05-09T13:24:40Z</time>
      </trkpt>
      <trkpt lat="44.69349" lon="5.99149">
        <ele>1558.8</ele>
        <time>2014-05-09T13:24:48Z</time>
      </trkpt>
      <trkpt lat="44.69332" lon="5.99139">
        <ele>1560.9</ele>
        <time>2014-05-09T13:24:56Z</time>
      </trkpt>
      <trkpt lat="44.6931" lon="5.99137">
        <ele>1564</ele>
        <time>2014-05-09T13:25:06Z</time>
      </trkpt>
      <trkpt lat="44.69305" lon="5.99111">
        <ele>1567.4</ele>
        <time>2014-05-09T13:25:16Z</time>
      </trkpt>
      <trkpt lat="44.693" lon="5.99098">
        <ele>1568.6</ele>
        <time>2014-05-09T13:25:21Z</time>
      </trkpt>
      <trkpt lat="44.69295" lon="5.99071">
        <ele>1571</ele>
        <time>2014-05-09T13:25:30Z</time>
      </trkpt>
      <trkpt lat="44.69297" lon="5.99056">
        <ele>1572.3</ele>
        <time>2014-05-09T13:25:35Z</time>
      </trkpt>
      <trkpt lat="44.69301" lon="5.99029">
        <ele>1574.5</ele>
        <time>2014-05-09T13:25:44Z</time>
      </trkpt>
      <trkpt lat="44.69295" lon="5.98999">
        <ele>1577.2</ele>
        <time>2014-05-09T13:25:54Z</time>
      </trkpt>
      <trkpt lat="44.69287" lon="5.98972">
        <ele>1580</ele>
        <time>2014-05-09T13:26:03Z</time>
      </trkpt>
      <trkpt lat="44.69282" lon="5.98944">
        <ele>1582.8</ele>
        <time>2014-05-09T13:26:12Z</time>
      </trkpt>
      <trkpt lat="44.69278" lon="5.98913">
        <ele>1585.4</ele>
        <time>2014-05-09T13:26:22Z</time>
      </trkpt>
      <trkpt lat="44.69271" lon="5.98886">
        <ele>1587.2</ele>
        <time>2014-05-09T13:26:31Z</time>
      </trkpt>
      <trkpt lat="44.69257" lon="5.9885">
        <ele>1588.9</ele>
        <time>2014-05-09T13:26:43Z</time>
      </trkpt>
      <trkpt lat="44.69245" lon="5.98829">
        <ele>1591</ele>
        <time>2014-05-09T13:26:51Z</time>
      </trkpt>
      <trkpt lat="44.69214" lon="5.98776">
        <ele>1596</ele>
        <time>2014-05-09T13:27:11Z</time>
      </trkpt>
      <trkpt lat="44.692" lon="5.98754">
        <ele>1597.6</ele>
        <time>2014-05-09T13:27:19Z</time>
      </trkpt>
      <trkpt lat="44.69187" lon="5.9873">
        <ele>1599</ele>
        <time>2014-05-09T13:27:27Z</time>
      </trkpt>
      <trkpt lat="44.69173" lon="5.98709">
        <ele>1600.8</ele>
        <time>2014-05-09T13:27:35Z</time>
      </trkpt>
      <trkpt lat="44.69156" lon="5.98691">
        <ele>1602.3</ele>
        <time>2014-05-09T13:27:43Z</time>
      </trkpt>
      <trkpt lat="44.69128" lon="5.9867">
        <ele>1606.5</ele>
        <time>2014-05-09T13:27:55Z</time>
      </trkpt>
      <trkpt lat="44.6914" lon="5.98671">
        <ele>1607.9</ele>
        <time>2014-05-09T13:28:00Z</time>
      </trkpt>
      <trkpt lat="44.69161" lon="5.98681">
        <ele>1608.7</ele>
        <time>2014-05-09T13:28:08Z</time>
      </trkpt>
      <trkpt lat="44.69196" lon="5.98704">
        <ele>1614.2</ele>
        <time>2014-05-09T13:29:13Z</time>
      </trkpt>
      <trkpt lat="44.69209" lon="5.98724">
        <ele>1615.3</ele>
        <time>2014-05-09T13:29:21Z</time>
      </trkpt>
      <trkpt lat="44.69224" lon="5.9874">
        <ele>1617.5</ele>
        <time>2014-05-09T13:29:29Z</time>
      </trkpt>
      <trkpt lat="44.69239" lon="5.9876">
        <ele>1619</ele>
        <time>2014-05-09T13:29:37Z</time>
      </trkpt>
      <trkpt lat="44.69254" lon="5.98777">
        <ele>1620.3</ele>
        <time>2014-05-09T13:29:45Z</time>
      </trkpt>
      <trkpt lat="44.6926" lon="5.98787">
        <ele>1621.3</ele>
        <time>2014-05-09T13:29:49Z</time>
      </trkpt>
      <trkpt lat="44.69267" lon="5.98779">
        <ele>1623.7</ele>
        <time>2014-05-09T13:29:58Z</time>
      </trkpt>
      <trkpt lat="44.69253" lon="5.98759">
        <ele>1625.8</ele>
        <time>2014-05-09T13:30:06Z</time>
      </trkpt>
      <trkpt lat="44.69241" lon="5.98738">
        <ele>1627.6</ele>
        <time>2014-05-09T13:30:14Z</time>
      </trkpt>
      <trkpt lat="44.69222" lon="5.98709">
        <ele>1630.1</ele>
        <time>2014-05-09T13:30:26Z</time>
      </trkpt>
      <trkpt lat="44.69206" lon="5.9869">
        <ele>1632</ele>
        <time>2014-05-09T13:30:35Z</time>
      </trkpt>
      <trkpt lat="44.69173" lon="5.98649">
        <ele>1636.5</ele>
        <time>2014-05-09T13:30:55Z</time>
      </trkpt>
      <trkpt lat="44.69167" lon="5.98637">
        <ele>1637.6</ele>
        <time>2014-05-09T13:31:00Z</time>
      </trkpt>
      <trkpt lat="44.69165" lon="5.98607">
        <ele>1640.1</ele>
        <time>2014-05-09T13:31:10Z</time>
      </trkpt>
      <trkpt lat="44.69168" lon="5.98578">
        <ele>1643</ele>
        <time>2014-05-09T13:31:20Z</time>
      </trkpt>
      <trkpt lat="44.69178" lon="5.98557">
        <ele>1645.2</ele>
        <time>2014-05-09T13:31:28Z</time>
      </trkpt>
      <trkpt lat="44.6919" lon="5.98537">
        <ele>1646.7</ele>
        <time>2014-05-09T13:31:36Z</time>
      </trkpt>
      <trkpt lat="44.69204" lon="5.98521">
        <ele>1648.9</ele>
        <time>2014-05-09T13:31:44Z</time>
      </trkpt>
      <trkpt lat="44.6921" lon="5.98508">
        <ele>1650.3</ele>
        <time>2014-05-09T13:31:49Z</time>
      </trkpt>
      <trkpt lat="44.6923" lon="5.98478">
        <ele>1654.3</ele>
        <time>2014-05-09T13:32:05Z</time>
      </trkpt>
      <trkpt lat="44.69235" lon="5.98471">
        <ele>1662.5</ele>
        <time>2014-05-09T13:36:08Z</time>
      </trkpt>
      <trkpt lat="44.69246" lon="5.98447">
        <ele>1662.6</ele>
        <time>2014-05-09T13:36:18Z</time>
      </trkpt>
      <trkpt lat="44.69261" lon="5.98425">
        <ele>1663.4</ele>
        <time>2014-05-09T13:36:26Z</time>
      </trkpt>
      <trkpt lat="44.6927" lon="5.98414">
        <ele>1664</ele>
        <time>2014-05-09T13:36:30Z</time>
      </trkpt>
      <trkpt lat="44.6928" lon="5.98391">
        <ele>1662.8</ele>
        <time>2014-05-09T13:36:37Z</time>
      </trkpt>
      <trkpt lat="44.69289" lon="5.98383">
        <ele>1668.9</ele>
        <time>2014-05-09T13:41:15Z</time>
      </trkpt>
      <trkpt lat="44.69303" lon="5.98361">
        <ele>1667.9</ele>
        <time>2014-05-09T13:41:19Z</time>
      </trkpt>
      <trkpt lat="44.6932" lon="5.98328">
        <ele>1667</ele>
        <time>2014-05-09T13:41:23Z</time>
      </trkpt>
      <trkpt lat="44.69328" lon="5.9831">
        <ele>1666.1</ele>
        <time>2014-05-09T13:41:25Z</time>
      </trkpt>
      <trkpt lat="44.69344" lon="5.98269">
        <ele>1663.9</ele>
        <time>2014-05-09T13:41:29Z</time>
      </trkpt>
      <trkpt lat="44.69362" lon="5.98219">
        <ele>1660.6</ele>
        <time>2014-05-09T13:41:33Z</time>
      </trkpt>
      <trkpt lat="44.69373" lon="5.98191">
        <ele>1659.3</ele>
        <time>2014-05-09T13:41:35Z</time>
      </trkpt>
      <trkpt lat="44.69385" lon="5.98163">
        <ele>1657.6</ele>
        <time>2014-05-09T13:41:37Z</time>
      </trkpt>
      <trkpt lat="44.69398" lon="5.98136">
        <ele>1656</ele>
        <time>2014-05-09T13:41:39Z</time>
      </trkpt>
      <trkpt lat="44.69412" lon="5.9811">
        <ele>1653.7</ele>
        <time>2014-05-09T13:41:41Z</time>
      </trkpt>
      <trkpt lat="44.69426" lon="5.98083">
        <ele>1651</ele>
        <time>2014-05-09T13:41:43Z</time>
      </trkpt>
      <trkpt lat="44.6944" lon="5.98054">
        <ele>1648.6</ele>
        <time>2014-05-09T13:41:45Z</time>
      </trkpt>
      <trkpt lat="44.69465" lon="5.98001">
        <ele>1644.6</ele>
        <time>2014-05-09T13:41:49Z</time>
      </trkpt>
      <trkpt lat="44.69472" lon="5.9799">
        <ele>1643.4</ele>
        <time>2014-05-09T13:41:50Z</time>
      </trkpt>
      <trkpt lat="44.6949" lon="5.97968">
        <ele>1641.3</ele>
        <time>2014-05-09T13:41:52Z</time>
      </trkpt>
      <trkpt lat="44.69507" lon="5.97942">
        <ele>1639.4</ele>
        <time>2014-05-09T13:41:54Z</time>
      </trkpt>
      <trkpt lat="44.69539" lon="5.97886">
        <ele>1635</ele>
        <time>2014-05-09T13:41:58Z</time>
      </trkpt>
      <trkpt lat="44.69554" lon="5.97856">
        <ele>1632.4</ele>
        <time>2014-05-09T13:42:00Z</time>
      </trkpt>
      <trkpt lat="44.69564" lon="5.97822">
        <ele>1630.9</ele>
        <time>2014-05-09T13:42:02Z</time>
      </trkpt>
      <trkpt lat="44.69573" lon="5.9779">
        <ele>1629.7</ele>
        <time>2014-05-09T13:42:04Z</time>
      </trkpt>
      <trkpt lat="44.69592" lon="5.97729">
        <ele>1626.2</ele>
        <time>2014-05-09T13:42:08Z</time>
      </trkpt>
      <trkpt lat="44.69603" lon="5.97702">
        <ele>1624.6</ele>
        <time>2014-05-09T13:42:10Z</time>
      </trkpt>
      <trkpt lat="44.69616" lon="5.97682">
        <ele>1624.5</ele>
        <time>2014-05-09T13:42:12Z</time>
      </trkpt>
      <trkpt lat="44.69627" lon="5.9766">
        <ele>1624.5</ele>
        <time>2014-05-09T13:42:14Z</time>
      </trkpt>
      <trkpt lat="44.6965" lon="5.97602">
        <ele>1621.2</ele>
        <time>2014-05-09T13:42:19Z</time>
      </trkpt>
      <trkpt lat="44.69677" lon="5.97541">
        <ele>1618.7</ele>
        <time>2014-05-09T13:42:24Z</time>
      </trkpt>
      <trkpt lat="44.69685" lon="5.97515">
        <ele>1618.1</ele>
        <time>2014-05-09T13:42:26Z</time>
      </trkpt>
      <trkpt lat="44.69687" lon="5.97486">
        <ele>1616.5</ele>
        <time>2014-05-09T13:42:28Z</time>
      </trkpt>
      <trkpt lat="44.69688" lon="5.97421">
        <ele>1612.9</ele>
        <time>2014-05-09T13:42:32Z</time>
      </trkpt>
      <trkpt lat="44.69687" lon="5.97392">
        <ele>1610.3</ele>
        <time>2014-05-09T13:42:34Z</time>
      </trkpt>
      <trkpt lat="44.69685" lon="5.97371">
        <ele>1608</ele>
        <time>2014-05-09T13:42:36Z</time>
      </trkpt>
      <trkpt lat="44.69705" lon="5.97375">
        <ele>1604.8</ele>
        <time>2014-05-09T13:42:41Z</time>
      </trkpt>
      <trkpt lat="44.69742" lon="5.97447">
        <ele>1602.3</ele>
        <time>2014-05-09T13:42:49Z</time>
      </trkpt>
      <trkpt lat="44.69756" lon="5.97434">
        <ele>1600.3</ele>
        <time>2014-05-09T13:42:53Z</time>
      </trkpt>
      <trkpt lat="44.69756" lon="5.97377">
        <ele>1597.5</ele>
        <time>2014-05-09T13:42:57Z</time>
      </trkpt>
      <trkpt lat="44.69757" lon="5.97361">
        <ele>1596.6</ele>
        <time>2014-05-09T13:42:58Z</time>
      </trkpt>
      <trkpt lat="44.6976" lon="5.97292">
        <ele>1592.8</ele>
        <time>2014-05-09T13:43:02Z</time>
      </trkpt>
      <trkpt lat="44.69757" lon="5.97256">
        <ele>1590.7</ele>
        <time>2014-05-09T13:43:04Z</time>
      </trkpt>
      <trkpt lat="44.69748" lon="5.97224">
        <ele>1589.1</ele>
        <time>2014-05-09T13:43:06Z</time>
      </trkpt>
      <trkpt lat="44.69734" lon="5.972">
        <ele>1586.4</ele>
        <time>2014-05-09T13:43:08Z</time>
      </trkpt>
      <trkpt lat="44.69722" lon="5.97175">
        <ele>1585</ele>
        <time>2014-05-09T13:43:10Z</time>
      </trkpt>
      <trkpt lat="44.69717" lon="5.97144">
        <ele>1582.3</ele>
        <time>2014-05-09T13:43:12Z</time>
      </trkpt>
      <trkpt lat="44.69716" lon="5.97111">
        <ele>1579.4</ele>
        <time>2014-05-09T13:43:14Z</time>
      </trkpt>
      <trkpt lat="44.69717" lon="5.97093">
        <ele>1578.4</ele>
        <time>2014-05-09T13:43:15Z</time>
      </trkpt>
      <trkpt lat="44.6972" lon="5.97061">
        <ele>1575.7</ele>
        <time>2014-05-09T13:43:17Z</time>
      </trkpt>
      <trkpt lat="44.69729" lon="5.97032">
        <ele>1574.3</ele>
        <time>2014-05-09T13:43:19Z</time>
      </trkpt>
      <trkpt lat="44.69729" lon="5.97003">
        <ele>1573.1</ele>
        <time>2014-05-09T13:43:21Z</time>
      </trkpt>
      <trkpt lat="44.69721" lon="5.96939">
        <ele>1567.4</ele>
        <time>2014-05-09T13:43:25Z</time>
      </trkpt>
      <trkpt lat="44.69715" lon="5.96904">
        <ele>1564.6</ele>
        <time>2014-05-09T13:43:27Z</time>
      </trkpt>
      <trkpt lat="44.69711" lon="5.96885">
        <ele>1563.3</ele>
        <time>2014-05-09T13:43:28Z</time>
      </trkpt>
      <trkpt lat="44.69702" lon="5.96848">
        <ele>1560.9</ele>
        <time>2014-05-09T13:43:30Z</time>
      </trkpt>
      <trkpt lat="44.69698" lon="5.96828">
        <ele>1559.7</ele>
        <time>2014-05-09T13:43:31Z</time>
      </trkpt>
      <trkpt lat="44.69692" lon="5.96747">
        <ele>1555.3</ele>
        <time>2014-05-09T13:43:35Z</time>
      </trkpt>
      <trkpt lat="44.69691" lon="5.96726">
        <ele>1554.1</ele>
        <time>2014-05-09T13:43:36Z</time>
      </trkpt>
      <trkpt lat="44.69691" lon="5.96685">
        <ele>1552.7</ele>
        <time>2014-05-09T13:43:38Z</time>
      </trkpt>
      <trkpt lat="44.69692" lon="5.96664">
        <ele>1551.7</ele>
        <time>2014-05-09T13:43:39Z</time>
      </trkpt>
      <trkpt lat="44.69697" lon="5.96588">
        <ele>1548.6</ele>
        <time>2014-05-09T13:43:43Z</time>
      </trkpt>
      <trkpt lat="44.69701" lon="5.96535">
        <ele>1546.5</ele>
        <time>2014-05-09T13:43:46Z</time>
      </trkpt>
      <trkpt lat="44.69706" lon="5.96468">
        <ele>1542.4</ele>
        <time>2014-05-09T13:43:50Z</time>
      </trkpt>
      <trkpt lat="44.69709" lon="5.96436">
        <ele>1541</ele>
        <time>2014-05-09T13:43:52Z</time>
      </trkpt>
      <trkpt lat="44.69713" lon="5.96389">
        <ele>1538.3</ele>
        <time>2014-05-09T13:43:55Z</time>
      </trkpt>
      <trkpt lat="44.69717" lon="5.9633">
        <ele>1536.1</ele>
        <time>2014-05-09T13:43:59Z</time>
      </trkpt>
      <trkpt lat="44.69721" lon="5.96275">
        <ele>1533.7</ele>
        <time>2014-05-09T13:44:03Z</time>
      </trkpt>
      <trkpt lat="44.69726" lon="5.9622">
        <ele>1531.1</ele>
        <time>2014-05-09T13:44:07Z</time>
      </trkpt>
      <trkpt lat="44.69732" lon="5.9619">
        <ele>1530.1</ele>
        <time>2014-05-09T13:44:09Z</time>
      </trkpt>
      <trkpt lat="44.69734" lon="5.96175">
        <ele>1529.6</ele>
        <time>2014-05-09T13:44:10Z</time>
      </trkpt>
      <trkpt lat="44.69736" lon="5.96146">
        <ele>1528.8</ele>
        <time>2014-05-09T13:44:12Z</time>
      </trkpt>
      <trkpt lat="44.69739" lon="5.96116">
        <ele>1528.2</ele>
        <time>2014-05-09T13:44:14Z</time>
      </trkpt>
      <trkpt lat="44.69744" lon="5.96087">
        <ele>1527.7</ele>
        <time>2014-05-09T13:44:16Z</time>
      </trkpt>
      <trkpt lat="44.69746" lon="5.96058">
        <ele>1526.8</ele>
        <time>2014-05-09T13:44:18Z</time>
      </trkpt>
      <trkpt lat="44.69747" lon="5.96017">
        <ele>1525.7</ele>
        <time>2014-05-09T13:44:21Z</time>
      </trkpt>
      <trkpt lat="44.69749" lon="5.9599">
        <ele>1525.2</ele>
        <time>2014-05-09T13:44:23Z</time>
      </trkpt>
      <trkpt lat="44.69754" lon="5.95912">
        <ele>1523.8</ele>
        <time>2014-05-09T13:44:29Z</time>
      </trkpt>
      <trkpt lat="44.69756" lon="5.95888">
        <ele>1522.8</ele>
        <time>2014-05-09T13:44:31Z</time>
      </trkpt>
      <trkpt lat="44.69762" lon="5.95795">
        <ele>1519.3</ele>
        <time>2014-05-09T13:44:39Z</time>
      </trkpt>
      <trkpt lat="44.69764" lon="5.95747">
        <ele>1517.7</ele>
        <time>2014-05-09T13:44:43Z</time>
      </trkpt>
      <trkpt lat="44.69766" lon="5.95724">
        <ele>1517.1</ele>
        <time>2014-05-09T13:44:45Z</time>
      </trkpt>
      <trkpt lat="44.69768" lon="5.95683">
        <ele>1517.1</ele>
        <time>2014-05-09T13:44:49Z</time>
      </trkpt>
      <trkpt lat="44.69772" lon="5.95615">
        <ele>1518.8</ele>
        <time>2014-05-09T13:44:57Z</time>
      </trkpt>
      <trkpt lat="44.69775" lon="5.9555">
        <ele>1519.7</ele>
        <time>2014-05-09T13:45:05Z</time>
      </trkpt>
      <trkpt lat="44.6978" lon="5.95492">
        <ele>1521.6</ele>
        <time>2014-05-09T13:45:13Z</time>
      </trkpt>
      <trkpt lat="44.6978" lon="5.95465">
        <ele>1522.6</ele>
        <time>2014-05-09T13:45:17Z</time>
      </trkpt>
      <trkpt lat="44.69776" lon="5.95439">
        <ele>1523.6</ele>
        <time>2014-05-09T13:45:21Z</time>
      </trkpt>
      <trkpt lat="44.69765" lon="5.95412">
        <ele>1525.6</ele>
        <time>2014-05-09T13:45:26Z</time>
      </trkpt>
      <trkpt lat="44.69756" lon="5.95398">
        <ele>1526.7</ele>
        <time>2014-05-09T13:45:29Z</time>
      </trkpt>
      <trkpt lat="44.69737" lon="5.95377">
        <ele>1526.9</ele>
        <time>2014-05-09T13:45:35Z</time>
      </trkpt>
      <trkpt lat="44.69726" lon="5.95367">
        <ele>1527.2</ele>
        <time>2014-05-09T13:45:38Z</time>
      </trkpt>
      <trkpt lat="44.69695" lon="5.95338">
        <ele>1527.9</ele>
        <time>2014-05-09T13:45:47Z</time>
      </trkpt>
      <trkpt lat="44.69675" lon="5.95321">
        <ele>1529.5</ele>
        <time>2014-05-09T13:45:53Z</time>
      </trkpt>
      <trkpt lat="44.69656" lon="5.95303">
        <ele>1530.6</ele>
        <time>2014-05-09T13:45:59Z</time>
      </trkpt>
      <trkpt lat="44.6963" lon="5.95272">
        <ele>1532.7</ele>
        <time>2014-05-09T13:46:08Z</time>
      </trkpt>
      <trkpt lat="44.69598" lon="5.95231">
        <ele>1534.3</ele>
        <time>2014-05-09T13:46:20Z</time>
      </trkpt>
      <trkpt lat="44.69588" lon="5.95223">
        <ele>1534.8</ele>
        <time>2014-05-09T13:46:23Z</time>
      </trkpt>
      <trkpt lat="44.69564" lon="5.95219">
        <ele>1534.9</ele>
        <time>2014-05-09T13:46:29Z</time>
      </trkpt>
      <trkpt lat="44.69555" lon="5.95219">
        <ele>1534.8</ele>
        <time>2014-05-09T13:46:31Z</time>
      </trkpt>
      <trkpt lat="44.69533" lon="5.95221">
        <ele>1534.2</ele>
        <time>2014-05-09T13:46:35Z</time>
      </trkpt>
      <trkpt lat="44.69489" lon="5.95226">
        <ele>1532.4</ele>
        <time>2014-05-09T13:46:43Z</time>
      </trkpt>
      <trkpt lat="44.69475" lon="5.95229">
        <ele>1531.8</ele>
        <time>2014-05-09T13:46:45Z</time>
      </trkpt>
      <trkpt lat="44.69445" lon="5.95237">
        <ele>1530.1</ele>
        <time>2014-05-09T13:46:49Z</time>
      </trkpt>
      <trkpt lat="44.69429" lon="5.95239">
        <ele>1528.9</ele>
        <time>2014-05-09T13:46:51Z</time>
      </trkpt>
      <trkpt lat="44.69386" lon="5.95236">
        <ele>1526.3</ele>
        <time>2014-05-09T13:46:56Z</time>
      </trkpt>
      <trkpt lat="44.69333" lon="5.95234">
        <ele>1523.2</ele>
        <time>2014-05-09T13:47:01Z</time>
      </trkpt>
      <trkpt lat="44.69285" lon="5.95233">
        <ele>1520.6</ele>
        <time>2014-05-09T13:47:05Z</time>
      </trkpt>
      <trkpt lat="44.6926" lon="5.95234">
        <ele>1519</ele>
        <time>2014-05-09T13:47:07Z</time>
      </trkpt>
      <trkpt lat="44.69234" lon="5.9524">
        <ele>1517.1</ele>
        <time>2014-05-09T13:47:09Z</time>
      </trkpt>
      <trkpt lat="44.69222" lon="5.95247">
        <ele>1516.3</ele>
        <time>2014-05-09T13:47:10Z</time>
      </trkpt>
      <trkpt lat="44.69197" lon="5.95265">
        <ele>1514.6</ele>
        <time>2014-05-09T13:47:12Z</time>
      </trkpt>
      <trkpt lat="44.6916" lon="5.95294">
        <ele>1512.1</ele>
        <time>2014-05-09T13:47:15Z</time>
      </trkpt>
      <trkpt lat="44.69133" lon="5.95309">
        <ele>1510.1</ele>
        <time>2014-05-09T13:47:17Z</time>
      </trkpt>
      <trkpt lat="44.69119" lon="5.95314">
        <ele>1509</ele>
        <time>2014-05-09T13:47:18Z</time>
      </trkpt>
      <trkpt lat="44.6909" lon="5.95322">
        <ele>1507.1</ele>
        <time>2014-05-09T13:47:20Z</time>
      </trkpt>
      <trkpt lat="44.69062" lon="5.95334">
        <ele>1504.6</ele>
        <time>2014-05-09T13:47:22Z</time>
      </trkpt>
      <trkpt lat="44.69036" lon="5.95355">
        <ele>1502.8</ele>
        <time>2014-05-09T13:47:24Z</time>
      </trkpt>
      <trkpt lat="44.68997" lon="5.9539">
        <ele>1499.2</ele>
        <time>2014-05-09T13:47:27Z</time>
      </trkpt>
      <trkpt lat="44.68983" lon="5.95401">
        <ele>1498</ele>
        <time>2014-05-09T13:47:28Z</time>
      </trkpt>
      <trkpt lat="44.68954" lon="5.95421">
        <ele>1495.5</ele>
        <time>2014-05-09T13:47:30Z</time>
      </trkpt>
      <trkpt lat="44.6894" lon="5.95431">
        <ele>1494.4</ele>
        <time>2014-05-09T13:47:31Z</time>
      </trkpt>
      <trkpt lat="44.68911" lon="5.95455">
        <ele>1492.7</ele>
        <time>2014-05-09T13:47:33Z</time>
      </trkpt>
      <trkpt lat="44.68882" lon="5.95476">
        <ele>1490.5</ele>
        <time>2014-05-09T13:47:35Z</time>
      </trkpt>
      <trkpt lat="44.68867" lon="5.95485">
        <ele>1489.6</ele>
        <time>2014-05-09T13:47:36Z</time>
      </trkpt>
      <trkpt lat="44.68852" lon="5.95492">
        <ele>1488.8</ele>
        <time>2014-05-09T13:47:37Z</time>
      </trkpt>
      <trkpt lat="44.68804" lon="5.95506">
        <ele>1484.1</ele>
        <time>2014-05-09T13:47:40Z</time>
      </trkpt>
      <trkpt lat="44.68788" lon="5.95512">
        <ele>1482.5</ele>
        <time>2014-05-09T13:47:41Z</time>
      </trkpt>
      <trkpt lat="44.68757" lon="5.95526">
        <ele>1479.6</ele>
        <time>2014-05-09T13:47:43Z</time>
      </trkpt>
      <trkpt lat="44.68741" lon="5.95532">
        <ele>1478.2</ele>
        <time>2014-05-09T13:47:44Z</time>
      </trkpt>
      <trkpt lat="44.68691" lon="5.95545">
        <ele>1474.4</ele>
        <time>2014-05-09T13:47:47Z</time>
      </trkpt>
      <trkpt lat="44.68625" lon="5.95568">
        <ele>1469.3</ele>
        <time>2014-05-09T13:47:51Z</time>
      </trkpt>
      <trkpt lat="44.68576" lon="5.95585">
        <ele>1465.4</ele>
        <time>2014-05-09T13:47:54Z</time>
      </trkpt>
      <trkpt lat="44.68534" lon="5.95601">
        <ele>1461.2</ele>
        <time>2014-05-09T13:47:57Z</time>
      </trkpt>
      <trkpt lat="44.68522" lon="5.95606">
        <ele>1459.5</ele>
        <time>2014-05-09T13:47:58Z</time>
      </trkpt>
      <trkpt lat="44.68501" lon="5.95615">
        <ele>1456.8</ele>
        <time>2014-05-09T13:48:00Z</time>
      </trkpt>
      <trkpt lat="44.68483" lon="5.95618">
        <ele>1454.9</ele>
        <time>2014-05-09T13:48:02Z</time>
      </trkpt>
      <trkpt lat="44.68465" lon="5.95605">
        <ele>1453.2</ele>
        <time>2014-05-09T13:48:04Z</time>
      </trkpt>
      <trkpt lat="44.68449" lon="5.95586">
        <ele>1451.5</ele>
        <time>2014-05-09T13:48:06Z</time>
      </trkpt>
      <trkpt lat="44.68427" lon="5.9558">
        <ele>1449.9</ele>
        <time>2014-05-09T13:48:08Z</time>
      </trkpt>
      <trkpt lat="44.68404" lon="5.95585">
        <ele>1448.2</ele>
        <time>2014-05-09T13:48:10Z</time>
      </trkpt>
      <trkpt lat="44.68379" lon="5.95594">
        <ele>1446.1</ele>
        <time>2014-05-09T13:48:12Z</time>
      </trkpt>
      <trkpt lat="44.68356" lon="5.95606">
        <ele>1444</ele>
        <time>2014-05-09T13:48:14Z</time>
      </trkpt>
      <trkpt lat="44.68336" lon="5.95629">
        <ele>1442.2</ele>
        <time>2014-05-09T13:48:16Z</time>
      </trkpt>
      <trkpt lat="44.683" lon="5.95677">
        <ele>1439.3</ele>
        <time>2014-05-09T13:48:20Z</time>
      </trkpt>
      <trkpt lat="44.68282" lon="5.95693">
        <ele>1437.8</ele>
        <time>2014-05-09T13:48:22Z</time>
      </trkpt>
      <trkpt lat="44.68262" lon="5.95696">
        <ele>1436.1</ele>
        <time>2014-05-09T13:48:24Z</time>
      </trkpt>
      <trkpt lat="44.68228" lon="5.95686">
        <ele>1433.6</ele>
        <time>2014-05-09T13:48:27Z</time>
      </trkpt>
      <trkpt lat="44.68205" lon="5.95685">
        <ele>1431.8</ele>
        <time>2014-05-09T13:48:29Z</time>
      </trkpt>
      <trkpt lat="44.68193" lon="5.95688">
        <ele>1431.1</ele>
        <time>2014-05-09T13:48:30Z</time>
      </trkpt>
      <trkpt lat="44.68149" lon="5.95704">
        <ele>1426.4</ele>
        <time>2014-05-09T13:48:34Z</time>
      </trkpt>
      <trkpt lat="44.68134" lon="5.95707">
        <ele>1424.8</ele>
        <time>2014-05-09T13:48:36Z</time>
      </trkpt>
      <trkpt lat="44.68128" lon="5.95676">
        <ele>1422.4</ele>
        <time>2014-05-09T13:48:40Z</time>
      </trkpt>
      <trkpt lat="44.68144" lon="5.95665">
        <ele>1421.2</ele>
        <time>2014-05-09T13:48:42Z</time>
      </trkpt>
      <trkpt lat="44.68161" lon="5.95659">
        <ele>1420.3</ele>
        <time>2014-05-09T13:48:44Z</time>
      </trkpt>
      <trkpt lat="44.68177" lon="5.95645">
        <ele>1419.6</ele>
        <time>2014-05-09T13:48:46Z</time>
      </trkpt>
      <trkpt lat="44.68202" lon="5.95619">
        <ele>1417.4</ele>
        <time>2014-05-09T13:48:49Z</time>
      </trkpt>
      <trkpt lat="44.6822" lon="5.95599">
        <ele>1416.1</ele>
        <time>2014-05-09T13:48:51Z</time>
      </trkpt>
      <trkpt lat="44.68239" lon="5.95582">
        <ele>1414.3</ele>
        <time>2014-05-09T13:48:53Z</time>
      </trkpt>
      <trkpt lat="44.68281" lon="5.9555">
        <ele>1410.9</ele>
        <time>2014-05-09T13:48:57Z</time>
      </trkpt>
      <trkpt lat="44.68301" lon="5.95534">
        <ele>1409.1</ele>
        <time>2014-05-09T13:48:59Z</time>
      </trkpt>
      <trkpt lat="44.6832" lon="5.95512">
        <ele>1406.4</ele>
        <time>2014-05-09T13:49:02Z</time>
      </trkpt>
      <trkpt lat="44.68308" lon="5.95487">
        <ele>1404.2</ele>
        <time>2014-05-09T13:49:06Z</time>
      </trkpt>
      <trkpt lat="44.68291" lon="5.95501">
        <ele>1401.4</ele>
        <time>2014-05-09T13:50:43Z</time>
      </trkpt>
      <trkpt lat="44.6827" lon="5.95515">
        <ele>1401.9</ele>
        <time>2014-05-09T13:50:53Z</time>
      </trkpt>
      <trkpt lat="44.6823" lon="5.9554">
        <ele>1402.5</ele>
        <time>2014-05-09T13:51:05Z</time>
      </trkpt>
      <trkpt lat="44.68208" lon="5.95554">
        <ele>1402.6</ele>
        <time>2014-05-09T13:51:11Z</time>
      </trkpt>
      <trkpt lat="44.68195" lon="5.95559">
        <ele>1402.4</ele>
        <time>2014-05-09T13:51:14Z</time>
      </trkpt>
      <trkpt lat="44.68175" lon="5.9556">
        <ele>1402.4</ele>
        <time>2014-05-09T13:51:18Z</time>
      </trkpt>
      <trkpt lat="44.68155" lon="5.95564">
        <ele>1402</ele>
        <time>2014-05-09T13:51:22Z</time>
      </trkpt>
      <trkpt lat="44.68123" lon="5.95581">
        <ele>1400.1</ele>
        <time>2014-05-09T13:51:28Z</time>
      </trkpt>
      <trkpt lat="44.68095" lon="5.95592">
        <ele>1399.2</ele>
        <time>2014-05-09T13:51:32Z</time>
      </trkpt>
      <trkpt lat="44.6808" lon="5.95595">
        <ele>1398.7</ele>
        <time>2014-05-09T13:51:34Z</time>
      </trkpt>
      <trkpt lat="44.68062" lon="5.95591">
        <ele>1398.3</ele>
        <time>2014-05-09T13:51:36Z</time>
      </trkpt>
      <trkpt lat="44.68045" lon="5.95586">
        <ele>1397.7</ele>
        <time>2014-05-09T13:51:38Z</time>
      </trkpt>
      <trkpt lat="44.68027" lon="5.95585">
        <ele>1397.2</ele>
        <time>2014-05-09T13:51:40Z</time>
      </trkpt>
      <trkpt lat="44.6801" lon="5.95589">
        <ele>1396.6</ele>
        <time>2014-05-09T13:51:42Z</time>
      </trkpt>
      <trkpt lat="44.67977" lon="5.956">
        <ele>1396.2</ele>
        <time>2014-05-09T13:51:46Z</time>
      </trkpt>
      <trkpt lat="44.67947" lon="5.95616">
        <ele>1395.7</ele>
        <time>2014-05-09T13:51:50Z</time>
      </trkpt>
      <trkpt lat="44.67932" lon="5.95627">
        <ele>1395.2</ele>
        <time>2014-05-09T13:51:52Z</time>
      </trkpt>
      <trkpt lat="44.67915" lon="5.95633">
        <ele>1394.3</ele>
        <time>2014-05-09T13:51:54Z</time>
      </trkpt>
      <trkpt lat="44.67896" lon="5.95631">
        <ele>1393.7</ele>
        <time>2014-05-09T13:51:56Z</time>
      </trkpt>
      <trkpt lat="44.67857" lon="5.9562">
        <ele>1391.2</ele>
        <time>2014-05-09T13:52:00Z</time>
      </trkpt>
      <trkpt lat="44.67815" lon="5.95608">
        <ele>1388.5</ele>
        <time>2014-05-09T13:52:04Z</time>
      </trkpt>
      <trkpt lat="44.67794" lon="5.95602">
        <ele>1387</ele>
        <time>2014-05-09T13:52:06Z</time>
      </trkpt>
      <trkpt lat="44.67772" lon="5.95597">
        <ele>1385.4</ele>
        <time>2014-05-09T13:52:08Z</time>
      </trkpt>
      <trkpt lat="44.67751" lon="5.95596">
        <ele>1383.8</ele>
        <time>2014-05-09T13:52:10Z</time>
      </trkpt>
      <trkpt lat="44.6774" lon="5.95597">
        <ele>1383.4</ele>
        <time>2014-05-09T13:52:11Z</time>
      </trkpt>
      <trkpt lat="44.67697" lon="5.95608">
        <ele>1380.8</ele>
        <time>2014-05-09T13:52:15Z</time>
      </trkpt>
      <trkpt lat="44.67677" lon="5.95607">
        <ele>1379.6</ele>
        <time>2014-05-09T13:52:17Z</time>
      </trkpt>
      <trkpt lat="44.6766" lon="5.95592">
        <ele>1378.2</ele>
        <time>2014-05-09T13:52:19Z</time>
      </trkpt>
      <trkpt lat="44.67653" lon="5.95582">
        <ele>1377.5</ele>
        <time>2014-05-09T13:52:20Z</time>
      </trkpt>
      <trkpt lat="44.67631" lon="5.95549">
        <ele>1375.2</ele>
        <time>2014-05-09T13:52:23Z</time>
      </trkpt>
      <trkpt lat="44.67598" lon="5.95505">
        <ele>1371.9</ele>
        <time>2014-05-09T13:52:27Z</time>
      </trkpt>
      <trkpt lat="44.67567" lon="5.95459">
        <ele>1369.1</ele>
        <time>2014-05-09T13:52:31Z</time>
      </trkpt>
      <trkpt lat="44.67553" lon="5.95438">
        <ele>1367.4</ele>
        <time>2014-05-09T13:52:33Z</time>
      </trkpt>
      <trkpt lat="44.67548" lon="5.95415">
        <ele>1365.5</ele>
        <time>2014-05-09T13:52:35Z</time>
      </trkpt>
      <trkpt lat="44.67555" lon="5.95396">
        <ele>1364.2</ele>
        <time>2014-05-09T13:52:37Z</time>
      </trkpt>
      <trkpt lat="44.6758" lon="5.95383">
        <ele>1362.8</ele>
        <time>2014-05-09T13:52:40Z</time>
      </trkpt>
      <trkpt lat="44.67619" lon="5.9538">
        <ele>1361</ele>
        <time>2014-05-09T13:52:44Z</time>
      </trkpt>
      <trkpt lat="44.67638" lon="5.95375">
        <ele>1359.9</ele>
        <time>2014-05-09T13:52:46Z</time>
      </trkpt>
      <trkpt lat="44.67667" lon="5.9536">
        <ele>1357.4</ele>
        <time>2014-05-09T13:52:49Z</time>
      </trkpt>
      <trkpt lat="44.67677" lon="5.95354">
        <ele>1356.6</ele>
        <time>2014-05-09T13:52:50Z</time>
      </trkpt>
      <trkpt lat="44.67697" lon="5.9534">
        <ele>1354.9</ele>
        <time>2014-05-09T13:52:52Z</time>
      </trkpt>
      <trkpt lat="44.67716" lon="5.95323">
        <ele>1353.8</ele>
        <time>2014-05-09T13:52:54Z</time>
      </trkpt>
      <trkpt lat="44.67753" lon="5.95284">
        <ele>1351.7</ele>
        <time>2014-05-09T13:52:58Z</time>
      </trkpt>
      <trkpt lat="44.67762" lon="5.95274">
        <ele>1350.8</ele>
        <time>2014-05-09T13:52:59Z</time>
      </trkpt>
      <trkpt lat="44.67798" lon="5.95235">
        <ele>1348.3</ele>
        <time>2014-05-09T13:53:03Z</time>
      </trkpt>
      <trkpt lat="44.67833" lon="5.95198">
        <ele>1346.2</ele>
        <time>2014-05-09T13:53:07Z</time>
      </trkpt>
      <trkpt lat="44.67842" lon="5.9519">
        <ele>1345.3</ele>
        <time>2014-05-09T13:53:08Z</time>
      </trkpt>
      <trkpt lat="44.6786" lon="5.95176">
        <ele>1343.7</ele>
        <time>2014-05-09T13:53:10Z</time>
      </trkpt>
      <trkpt lat="44.67879" lon="5.95164">
        <ele>1342.5</ele>
        <time>2014-05-09T13:53:12Z</time>
      </trkpt>
      <trkpt lat="44.67917" lon="5.95143">
        <ele>1340.2</ele>
        <time>2014-05-09T13:53:16Z</time>
      </trkpt>
      <trkpt lat="44.67936" lon="5.95132">
        <ele>1339</ele>
        <time>2014-05-09T13:53:18Z</time>
      </trkpt>
      <trkpt lat="44.67954" lon="5.95118">
        <ele>1337.8</ele>
        <time>2014-05-09T13:53:20Z</time>
      </trkpt>
      <trkpt lat="44.67993" lon="5.95073">
        <ele>1334.9</ele>
        <time>2014-05-09T13:53:25Z</time>
      </trkpt>
      <trkpt lat="44.6801" lon="5.95059">
        <ele>1334</ele>
        <time>2014-05-09T13:53:27Z</time>
      </trkpt>
      <trkpt lat="44.68047" lon="5.95036">
        <ele>1332.2</ele>
        <time>2014-05-09T13:53:31Z</time>
      </trkpt>
      <trkpt lat="44.68085" lon="5.95015">
        <ele>1329.9</ele>
        <time>2014-05-09T13:53:35Z</time>
      </trkpt>
      <trkpt lat="44.68103" lon="5.95003">
        <ele>1328.9</ele>
        <time>2014-05-09T13:53:37Z</time>
      </trkpt>
      <trkpt lat="44.6814" lon="5.94982">
        <ele>1326.9</ele>
        <time>2014-05-09T13:53:41Z</time>
      </trkpt>
      <trkpt lat="44.68159" lon="5.94972">
        <ele>1326.4</ele>
        <time>2014-05-09T13:53:43Z</time>
      </trkpt>
      <trkpt lat="44.68178" lon="5.94963">
        <ele>1325.4</ele>
        <time>2014-05-09T13:53:45Z</time>
      </trkpt>
      <trkpt lat="44.68198" lon="5.94957">
        <ele>1324.6</ele>
        <time>2014-05-09T13:53:47Z</time>
      </trkpt>
      <trkpt lat="44.68216" lon="5.94949">
        <ele>1324</ele>
        <time>2014-05-09T13:53:49Z</time>
      </trkpt>
      <trkpt lat="44.68233" lon="5.94937">
        <ele>1323.3</ele>
        <time>2014-05-09T13:53:51Z</time>
      </trkpt>
      <trkpt lat="44.68249" lon="5.94923">
        <ele>1323</ele>
        <time>2014-05-09T13:53:53Z</time>
      </trkpt>
      <trkpt lat="44.68265" lon="5.94912">
        <ele>1322.4</ele>
        <time>2014-05-09T13:53:55Z</time>
      </trkpt>
      <trkpt lat="44.68291" lon="5.94899">
        <ele>1321.7</ele>
        <time>2014-05-09T13:53:58Z</time>
      </trkpt>
      <trkpt lat="44.68325" lon="5.94884">
        <ele>1320.2</ele>
        <time>2014-05-09T13:54:02Z</time>
      </trkpt>
      <trkpt lat="44.68342" lon="5.94879">
        <ele>1319.7</ele>
        <time>2014-05-09T13:54:04Z</time>
      </trkpt>
      <trkpt lat="44.68358" lon="5.94876">
        <ele>1319.5</ele>
        <time>2014-05-09T13:54:06Z</time>
      </trkpt>
      <trkpt lat="44.68374" lon="5.94874">
        <ele>1318.6</ele>
        <time>2014-05-09T13:54:08Z</time>
      </trkpt>
      <trkpt lat="44.68403" lon="5.94865">
        <ele>1317.8</ele>
        <time>2014-05-09T13:54:12Z</time>
      </trkpt>
      <trkpt lat="44.68447" lon="5.94842">
        <ele>1316.5</ele>
        <time>2014-05-09T13:54:18Z</time>
      </trkpt>
      <trkpt lat="44.68491" lon="5.94817">
        <ele>1315.3</ele>
        <time>2014-05-09T13:54:24Z</time>
      </trkpt>
      <trkpt lat="44.68506" lon="5.94807">
        <ele>1314.7</ele>
        <time>2014-05-09T13:54:26Z</time>
      </trkpt>
      <trkpt lat="44.68532" lon="5.94784">
        <ele>1314</ele>
        <time>2014-05-09T13:54:30Z</time>
      </trkpt>
      <trkpt lat="44.68556" lon="5.94761">
        <ele>1313.8</ele>
        <time>2014-05-09T13:54:34Z</time>
      </trkpt>
      <trkpt lat="44.68591" lon="5.94729">
        <ele>1313.2</ele>
        <time>2014-05-09T13:54:40Z</time>
      </trkpt>
      <trkpt lat="44.68626" lon="5.94696">
        <ele>1312.1</ele>
        <time>2014-05-09T13:54:46Z</time>
      </trkpt>
      <trkpt lat="44.68688" lon="5.94641">
        <ele>1308.5</ele>
        <time>2014-05-09T13:54:56Z</time>
      </trkpt>
      <trkpt lat="44.68699" lon="5.94612">
        <ele>1306.7</ele>
        <time>2014-05-09T13:55:00Z</time>
      </trkpt>
      <trkpt lat="44.68688" lon="5.94576">
        <ele>1305.8</ele>
        <time>2014-05-09T13:55:04Z</time>
      </trkpt>
      <trkpt lat="44.68666" lon="5.94508">
        <ele>1305</ele>
        <time>2014-05-09T13:55:12Z</time>
      </trkpt>
      <trkpt lat="44.68662" lon="5.94492">
        <ele>1304.7</ele>
        <time>2014-05-09T13:55:14Z</time>
      </trkpt>
      <trkpt lat="44.68657" lon="5.94458">
        <ele>1303.9</ele>
        <time>2014-05-09T13:55:18Z</time>
      </trkpt>
      <trkpt lat="44.68663" lon="5.94428">
        <ele>1304.4</ele>
        <time>2014-05-09T13:55:22Z</time>
      </trkpt>
      <trkpt lat="44.68677" lon="5.94407">
        <ele>1305.1</ele>
        <time>2014-05-09T13:55:26Z</time>
      </trkpt>
      <trkpt lat="44.68704" lon="5.9437">
        <ele>1306.8</ele>
        <time>2014-05-09T13:55:34Z</time>
      </trkpt>
      <trkpt lat="44.68722" lon="5.94347">
        <ele>1308.1</ele>
        <time>2014-05-09T13:55:40Z</time>
      </trkpt>
      <trkpt lat="44.68747" lon="5.94322">
        <ele>1310.5</ele>
        <time>2014-05-09T13:55:49Z</time>
      </trkpt>
      <trkpt lat="44.68764" lon="5.94309">
        <ele>1312.4</ele>
        <time>2014-05-09T13:55:56Z</time>
      </trkpt>
      <trkpt lat="44.68784" lon="5.94294">
        <ele>1314</ele>
        <time>2014-05-09T13:56:04Z</time>
      </trkpt>
      <trkpt lat="44.68783" lon="5.94267">
        <ele>1315.4</ele>
        <time>2014-05-09T13:56:12Z</time>
      </trkpt>
      <trkpt lat="44.68761" lon="5.94268">
        <ele>1316.1</ele>
        <time>2014-05-09T13:56:20Z</time>
      </trkpt>
      <trkpt lat="44.6872" lon="5.94295">
        <ele>1319.6</ele>
        <time>2014-05-09T13:56:36Z</time>
      </trkpt>
      <trkpt lat="44.68701" lon="5.94304">
        <ele>1321.6</ele>
        <time>2014-05-09T13:56:45Z</time>
      </trkpt>
      <trkpt lat="44.68652" lon="5.9432">
        <ele>1326.3</ele>
        <time>2014-05-09T13:57:07Z</time>
      </trkpt>
      <trkpt lat="44.68603" lon="5.94342">
        <ele>1331.3</ele>
        <time>2014-05-09T13:57:30Z</time>
      </trkpt>
      <trkpt lat="44.68584" lon="5.94352">
        <ele>1333.4</ele>
        <time>2014-05-09T13:57:39Z</time>
      </trkpt>
      <trkpt lat="44.68566" lon="5.94358">
        <ele>1335.1</ele>
        <time>2014-05-09T13:57:47Z</time>
      </trkpt>
      <trkpt lat="44.68557" lon="5.94362">
        <ele>1335.8</ele>
        <time>2014-05-09T13:57:51Z</time>
      </trkpt>
      <trkpt lat="44.6854" lon="5.9437">
        <ele>1337.7</ele>
        <time>2014-05-09T13:57:59Z</time>
      </trkpt>
      <trkpt lat="44.68486" lon="5.94397">
        <ele>1342.8</ele>
        <time>2014-05-09T13:58:23Z</time>
      </trkpt>
      <trkpt lat="44.68441" lon="5.94414">
        <ele>1346.8</ele>
        <time>2014-05-09T13:58:43Z</time>
      </trkpt>
      <trkpt lat="44.68422" lon="5.94421">
        <ele>1348.2</ele>
        <time>2014-05-09T13:58:51Z</time>
      </trkpt>
      <trkpt lat="44.68404" lon="5.94426">
        <ele>1350</ele>
        <time>2014-05-09T13:58:59Z</time>
      </trkpt>
      <trkpt lat="44.68394" lon="5.94432">
        <ele>1351.2</ele>
        <time>2014-05-09T13:59:04Z</time>
      </trkpt>
      <trkpt lat="44.68348" lon="5.9445">
        <ele>1356</ele>
        <time>2014-05-09T13:59:25Z</time>
      </trkpt>
      <trkpt lat="44.68328" lon="5.94455">
        <ele>1357.6</ele>
        <time>2014-05-09T13:59:33Z</time>
      </trkpt>
      <trkpt lat="44.68309" lon="5.94465">
        <ele>1359.7</ele>
        <time>2014-05-09T13:59:42Z</time>
      </trkpt>
      <trkpt lat="44.68291" lon="5.94471">
        <ele>1361.6</ele>
        <time>2014-05-09T13:59:50Z</time>
      </trkpt>
      <trkpt lat="44.6826" lon="5.94478">
        <ele>1364.4</ele>
        <time>2014-05-09T14:00:04Z</time>
      </trkpt>
      <trkpt lat="44.68242" lon="5.94478">
        <ele>1366.6</ele>
        <time>2014-05-09T14:00:12Z</time>
      </trkpt>
      <trkpt lat="44.68214" lon="5.94472">
        <ele>1368.7</ele>
        <time>2014-05-09T14:00:24Z</time>
      </trkpt>
      <trkpt lat="44.68186" lon="5.94469">
        <ele>1371.2</ele>
        <time>2014-05-09T14:00:36Z</time>
      </trkpt>
      <trkpt lat="44.68146" lon="5.9447">
        <ele>1374.5</ele>
        <time>2014-05-09T14:00:52Z</time>
      </trkpt>
      <trkpt lat="44.68096" lon="5.94472">
        <ele>1378.6</ele>
        <time>2014-05-09T14:01:12Z</time>
      </trkpt>
      <trkpt lat="44.68066" lon="5.94479">
        <ele>1380.6</ele>
        <time>2014-05-09T14:01:24Z</time>
      </trkpt>
      <trkpt lat="44.68047" lon="5.94494">
        <ele>1381.9</ele>
        <time>2014-05-09T14:01:32Z</time>
      </trkpt>
      <trkpt lat="44.68038" lon="5.94504">
        <ele>1382.8</ele>
        <time>2014-05-09T14:01:36Z</time>
      </trkpt>
      <trkpt lat="44.68022" lon="5.94515">
        <ele>1384</ele>
        <time>2014-05-09T14:01:42Z</time>
      </trkpt>
      <trkpt lat="44.68012" lon="5.94492">
        <ele>1385.9</ele>
        <time>2014-05-09T14:01:49Z</time>
      </trkpt>
      <trkpt lat="44.68026" lon="5.94475">
        <ele>1386.8</ele>
        <time>2014-05-09T14:01:55Z</time>
      </trkpt>
      <trkpt lat="44.68078" lon="5.94439">
        <ele>1390.6</ele>
        <time>2014-05-09T14:02:14Z</time>
      </trkpt>
      <trkpt lat="44.68106" lon="5.94422">
        <ele>1392.3</ele>
        <time>2014-05-09T14:02:24Z</time>
      </trkpt>
      <trkpt lat="44.68126" lon="5.94408">
        <ele>1394.8</ele>
        <time>2014-05-09T14:02:32Z</time>
      </trkpt>
      <trkpt lat="44.68136" lon="5.94401">
        <ele>1395.9</ele>
        <time>2014-05-09T14:02:36Z</time>
      </trkpt>
      <trkpt lat="44.68154" lon="5.94385">
        <ele>1398.1</ele>
        <time>2014-05-09T14:02:44Z</time>
      </trkpt>
      <trkpt lat="44.68179" lon="5.94356">
        <ele>1399.5</ele>
        <time>2014-05-09T14:02:56Z</time>
      </trkpt>
      <trkpt lat="44.68195" lon="5.94336">
        <ele>1400.8</ele>
        <time>2014-05-09T14:03:04Z</time>
      </trkpt>
      <trkpt lat="44.68212" lon="5.94316">
        <ele>1402.4</ele>
        <time>2014-05-09T14:03:12Z</time>
      </trkpt>
      <trkpt lat="44.68245" lon="5.94274">
        <ele>1405.8</ele>
        <time>2014-05-09T14:03:28Z</time>
      </trkpt>
      <trkpt lat="44.68261" lon="5.94254">
        <ele>1407.7</ele>
        <time>2014-05-09T14:03:36Z</time>
      </trkpt>
      <trkpt lat="44.68277" lon="5.94233">
        <ele>1409.2</ele>
        <time>2014-05-09T14:03:44Z</time>
      </trkpt>
      <trkpt lat="44.68285" lon="5.94223">
        <ele>1410.1</ele>
        <time>2014-05-09T14:03:48Z</time>
      </trkpt>
      <trkpt lat="44.68301" lon="5.94202">
        <ele>1411.8</ele>
        <time>2014-05-09T14:03:56Z</time>
      </trkpt>
      <trkpt lat="44.68318" lon="5.94183">
        <ele>1414</ele>
        <time>2014-05-09T14:04:04Z</time>
      </trkpt>
      <trkpt lat="44.68351" lon="5.94146">
        <ele>1416.4</ele>
        <time>2014-05-09T14:04:20Z</time>
      </trkpt>
      <trkpt lat="44.68359" lon="5.94135">
        <ele>1416.8</ele>
        <time>2014-05-09T14:04:24Z</time>
      </trkpt>
      <trkpt lat="44.68353" lon="5.94108">
        <ele>1418.2</ele>
        <time>2014-05-09T14:04:32Z</time>
      </trkpt>
      <trkpt lat="44.68334" lon="5.94106">
        <ele>1419.1</ele>
        <time>2014-05-09T14:04:38Z</time>
      </trkpt>
      <trkpt lat="44.68324" lon="5.94109">
        <ele>1419.4</ele>
        <time>2014-05-09T14:04:41Z</time>
      </trkpt>
      <trkpt lat="44.68302" lon="5.94113">
        <ele>1419.8</ele>
        <time>2014-05-09T14:04:47Z</time>
      </trkpt>
      <trkpt lat="44.68292" lon="5.94116">
        <ele>1420.3</ele>
        <time>2014-05-09T14:04:50Z</time>
      </trkpt>
      <trkpt lat="44.68261" lon="5.94121">
        <ele>1422.1</ele>
        <time>2014-05-09T14:04:59Z</time>
      </trkpt>
      <trkpt lat="44.68218" lon="5.94127">
        <ele>1424</ele>
        <time>2014-05-09T14:05:11Z</time>
      </trkpt>
      <trkpt lat="44.68187" lon="5.94131">
        <ele>1426.2</ele>
        <time>2014-05-09T14:05:20Z</time>
      </trkpt>
      <trkpt lat="44.68136" lon="5.94138">
        <ele>1428.8</ele>
        <time>2014-05-09T14:05:35Z</time>
      </trkpt>
      <trkpt lat="44.68115" lon="5.9414">
        <ele>1430.3</ele>
        <time>2014-05-09T14:05:41Z</time>
      </trkpt>
      <trkpt lat="44.68095" lon="5.9414">
        <ele>1431.8</ele>
        <time>2014-05-09T14:05:47Z</time>
      </trkpt>
      <trkpt lat="44.68045" lon="5.94132">
        <ele>1434.7</ele>
        <time>2014-05-09T14:06:02Z</time>
      </trkpt>
      <trkpt lat="44.68016" lon="5.94125">
        <ele>1436.3</ele>
        <time>2014-05-09T14:06:11Z</time>
      </trkpt>
      <trkpt lat="44.67968" lon="5.94108">
        <ele>1439.2</ele>
        <time>2014-05-09T14:06:26Z</time>
      </trkpt>
      <trkpt lat="44.67938" lon="5.94095">
        <ele>1441</ele>
        <time>2014-05-09T14:06:35Z</time>
      </trkpt>
      <trkpt lat="44.6791" lon="5.94079">
        <ele>1443.3</ele>
        <time>2014-05-09T14:06:44Z</time>
      </trkpt>
      <trkpt lat="44.67891" lon="5.94068">
        <ele>1444.4</ele>
        <time>2014-05-09T14:06:50Z</time>
      </trkpt>
      <trkpt lat="44.67881" lon="5.94062">
        <ele>1444.9</ele>
        <time>2014-05-09T14:06:53Z</time>
      </trkpt>
      <trkpt lat="44.6786" lon="5.94052">
        <ele>1446.3</ele>
        <time>2014-05-09T14:06:59Z</time>
      </trkpt>
      <trkpt lat="44.6785" lon="5.94045">
        <ele>1447</ele>
        <time>2014-05-09T14:07:02Z</time>
      </trkpt>
      <trkpt lat="44.6781" lon="5.94022">
        <ele>1449.6</ele>
        <time>2014-05-09T14:07:14Z</time>
      </trkpt>
      <trkpt lat="44.6779" lon="5.94009">
        <ele>1450.7</ele>
        <time>2014-05-09T14:07:20Z</time>
      </trkpt>
      <trkpt lat="44.6776" lon="5.93994">
        <ele>1453</ele>
        <time>2014-05-09T14:07:29Z</time>
      </trkpt>
      <trkpt lat="44.6775" lon="5.93987">
        <ele>1453.8</ele>
        <time>2014-05-09T14:07:32Z</time>
      </trkpt>
      <trkpt lat="44.67711" lon="5.93962">
        <ele>1455.6</ele>
        <time>2014-05-09T14:07:44Z</time>
      </trkpt>
      <trkpt lat="44.6769" lon="5.9395">
        <ele>1456.5</ele>
        <time>2014-05-09T14:07:50Z</time>
      </trkpt>
      <trkpt lat="44.67651" lon="5.93926">
        <ele>1458.6</ele>
        <time>2014-05-09T14:08:02Z</time>
      </trkpt>
      <trkpt lat="44.67632" lon="5.93915">
        <ele>1459.8</ele>
        <time>2014-05-09T14:08:08Z</time>
      </trkpt>
      <trkpt lat="44.67586" lon="5.93885">
        <ele>1462.4</ele>
        <time>2014-05-09T14:08:23Z</time>
      </trkpt>
      <trkpt lat="44.67569" lon="5.93872">
        <ele>1463.8</ele>
        <time>2014-05-09T14:08:29Z</time>
      </trkpt>
      <trkpt lat="44.67553" lon="5.93858">
        <ele>1464.2</ele>
        <time>2014-05-09T14:08:35Z</time>
      </trkpt>
      <trkpt lat="44.67535" lon="5.9384">
        <ele>1465.9</ele>
        <time>2014-05-09T14:08:42Z</time>
      </trkpt>
      <trkpt lat="44.67521" lon="5.93822">
        <ele>1466.8</ele>
        <time>2014-05-09T14:08:48Z</time>
      </trkpt>
      <trkpt lat="44.67491" lon="5.93782">
        <ele>1468.8</ele>
        <time>2014-05-09T14:09:00Z</time>
      </trkpt>
      <trkpt lat="44.67481" lon="5.93773">
        <ele>1469.3</ele>
        <time>2014-05-09T14:09:03Z</time>
      </trkpt>
      <trkpt lat="44.67464" lon="5.9375">
        <ele>1470.4</ele>
        <time>2014-05-09T14:09:09Z</time>
      </trkpt>
      <trkpt lat="44.67452" lon="5.93725">
        <ele>1471.5</ele>
        <time>2014-05-09T14:09:15Z</time>
      </trkpt>
      <trkpt lat="44.67439" lon="5.93703">
        <ele>1472</ele>
        <time>2014-05-09T14:09:21Z</time>
      </trkpt>
      <trkpt lat="44.67422" lon="5.93683">
        <ele>1473</ele>
        <time>2014-05-09T14:09:27Z</time>
      </trkpt>
      <trkpt lat="44.67409" lon="5.93659">
        <ele>1474.4</ele>
        <time>2014-05-09T14:09:33Z</time>
      </trkpt>
      <trkpt lat="44.67401" lon="5.9363">
        <ele>1474.9</ele>
        <time>2014-05-09T14:09:39Z</time>
      </trkpt>
      <trkpt lat="44.67399" lon="5.93599">
        <ele>1476.5</ele>
        <time>2014-05-09T14:09:45Z</time>
      </trkpt>
      <trkpt lat="44.67407" lon="5.93568">
        <ele>1477.6</ele>
        <time>2014-05-09T14:09:51Z</time>
      </trkpt>
      <trkpt lat="44.67419" lon="5.93542">
        <ele>1478.6</ele>
        <time>2014-05-09T14:09:57Z</time>
      </trkpt>
      <trkpt lat="44.67426" lon="5.9353">
        <ele>1478.8</ele>
        <time>2014-05-09T14:10:00Z</time>
      </trkpt>
      <trkpt lat="44.67441" lon="5.93506">
        <ele>1480.3</ele>
        <time>2014-05-09T14:10:06Z</time>
      </trkpt>
      <trkpt lat="44.67469" lon="5.93457">
        <ele>1482.4</ele>
        <time>2014-05-09T14:10:18Z</time>
      </trkpt>
      <trkpt lat="44.67477" lon="5.93444">
        <ele>1482.8</ele>
        <time>2014-05-09T14:10:21Z</time>
      </trkpt>
      <trkpt lat="44.67488" lon="5.93417">
        <ele>1483.7</ele>
        <time>2014-05-09T14:10:27Z</time>
      </trkpt>
      <trkpt lat="44.67491" lon="5.93386">
        <ele>1484.5</ele>
        <time>2014-05-09T14:10:33Z</time>
      </trkpt>
      <trkpt lat="44.6749" lon="5.93371">
        <ele>1485</ele>
        <time>2014-05-09T14:10:36Z</time>
      </trkpt>
      <trkpt lat="44.67492" lon="5.93341">
        <ele>1485.5</ele>
        <time>2014-05-09T14:10:42Z</time>
      </trkpt>
      <trkpt lat="44.675" lon="5.93299">
        <ele>1486.5</ele>
        <time>2014-05-09T14:10:51Z</time>
      </trkpt>
      <trkpt lat="44.67505" lon="5.93272">
        <ele>1487.6</ele>
        <time>2014-05-09T14:10:57Z</time>
      </trkpt>
      <trkpt lat="44.6751" lon="5.93244">
        <ele>1488.1</ele>
        <time>2014-05-09T14:11:07Z</time>
      </trkpt>
      <trkpt lat="44.67495" lon="5.93237">
        <ele>1487.4</ele>
        <time>2014-05-09T14:11:18Z</time>
      </trkpt>
      <trkpt lat="44.67491" lon="5.93262">
        <ele>1487.1</ele>
        <time>2014-05-09T14:11:25Z</time>
      </trkpt>
      <trkpt lat="44.67495" lon="5.93278">
        <ele>1486.6</ele>
        <time>2014-05-09T14:11:28Z</time>
      </trkpt>
      <trkpt lat="44.67497" lon="5.93305">
        <ele>1486</ele>
        <time>2014-05-09T14:11:32Z</time>
      </trkpt>
      <trkpt lat="44.67492" lon="5.93336">
        <ele>1485.1</ele>
        <time>2014-05-09T14:11:36Z</time>
      </trkpt>
      <trkpt lat="44.6749" lon="5.93354">
        <ele>1484.7</ele>
        <time>2014-05-09T14:11:38Z</time>
      </trkpt>
      <trkpt lat="44.67489" lon="5.93388">
        <ele>1483.7</ele>
        <time>2014-05-09T14:11:42Z</time>
      </trkpt>
      <trkpt lat="44.67488" lon="5.93406">
        <ele>1483.5</ele>
        <time>2014-05-09T14:11:44Z</time>
      </trkpt>
      <trkpt lat="44.67479" lon="5.93438">
        <ele>1482.4</ele>
        <time>2014-05-09T14:11:48Z</time>
      </trkpt>
      <trkpt lat="44.67466" lon="5.93463">
        <ele>1481.3</ele>
        <time>2014-05-09T14:11:53Z</time>
      </trkpt>
      <trkpt lat="44.6745" lon="5.93486">
        <ele>1480</ele>
        <time>2014-05-09T14:11:58Z</time>
      </trkpt>
      <trkpt lat="44.67444" lon="5.93498">
        <ele>1479.7</ele>
        <time>2014-05-09T14:12:00Z</time>
      </trkpt>
      <trkpt lat="44.67435" lon="5.9352">
        <ele>1476.4</ele>
        <time>2014-05-09T14:13:05Z</time>
      </trkpt>
      <trkpt lat="44.67414" lon="5.93553">
        <ele>1471.9</ele>
        <time>2014-05-09T14:16:09Z</time>
      </trkpt>
      <trkpt lat="44.67403" lon="5.93576">
        <ele>1471.3</ele>
        <time>2014-05-09T14:16:13Z</time>
      </trkpt>
      <trkpt lat="44.67397" lon="5.93607">
        <ele>1469.3</ele>
        <time>2014-05-09T14:17:05Z</time>
      </trkpt>
      <trkpt lat="44.67399" lon="5.93638">
        <ele>1468.8</ele>
        <time>2014-05-09T14:17:10Z</time>
      </trkpt>
      <trkpt lat="44.67409" lon="5.93669">
        <ele>1467.6</ele>
        <time>2014-05-09T14:17:14Z</time>
      </trkpt>
      <trkpt lat="44.67417" lon="5.93685">
        <ele>1467.3</ele>
        <time>2014-05-09T14:17:16Z</time>
      </trkpt>
      <trkpt lat="44.67454" lon="5.93743">
        <ele>1464.8</ele>
        <time>2014-05-09T14:17:23Z</time>
      </trkpt>
      <trkpt lat="44.67467" lon="5.93763">
        <ele>1464.1</ele>
        <time>2014-05-09T14:17:25Z</time>
      </trkpt>
      <trkpt lat="44.67481" lon="5.93785">
        <ele>1463.2</ele>
        <time>2014-05-09T14:17:27Z</time>
      </trkpt>
      <trkpt lat="44.67511" lon="5.93828">
        <ele>1462</ele>
        <time>2014-05-09T14:17:31Z</time>
      </trkpt>
      <trkpt lat="44.67527" lon="5.93849">
        <ele>1461.4</ele>
        <time>2014-05-09T14:17:33Z</time>
      </trkpt>
      <trkpt lat="44.67545" lon="5.93867">
        <ele>1460.3</ele>
        <time>2014-05-09T14:17:35Z</time>
      </trkpt>
      <trkpt lat="44.67566" lon="5.93882">
        <ele>1459.2</ele>
        <time>2014-05-09T14:17:37Z</time>
      </trkpt>
      <trkpt lat="44.67578" lon="5.93889">
        <ele>1458.3</ele>
        <time>2014-05-09T14:17:38Z</time>
      </trkpt>
      <trkpt lat="44.67599" lon="5.93903">
        <ele>1457</ele>
        <time>2014-05-09T14:17:40Z</time>
      </trkpt>
      <trkpt lat="44.67631" lon="5.93922">
        <ele>1455.5</ele>
        <time>2014-05-09T14:17:43Z</time>
      </trkpt>
      <trkpt lat="44.67652" lon="5.93936">
        <ele>1454.1</ele>
        <time>2014-05-09T14:17:45Z</time>
      </trkpt>
      <trkpt lat="44.67674" lon="5.93949">
        <ele>1452.6</ele>
        <time>2014-05-09T14:17:47Z</time>
      </trkpt>
      <trkpt lat="44.67697" lon="5.93962">
        <ele>1451.2</ele>
        <time>2014-05-09T14:17:49Z</time>
      </trkpt>
      <trkpt lat="44.6772" lon="5.93976">
        <ele>1450.4</ele>
        <time>2014-05-09T14:17:51Z</time>
      </trkpt>
      <trkpt lat="44.67764" lon="5.94003">
        <ele>1448.4</ele>
        <time>2014-05-09T14:17:55Z</time>
      </trkpt>
      <trkpt lat="44.67786" lon="5.94016">
        <ele>1447.3</ele>
        <time>2014-05-09T14:17:57Z</time>
      </trkpt>
      <trkpt lat="44.6783" lon="5.94044">
        <ele>1443.2</ele>
        <time>2014-05-09T14:18:01Z</time>
      </trkpt>
      <trkpt lat="44.67854" lon="5.94057">
        <ele>1442.1</ele>
        <time>2014-05-09T14:18:03Z</time>
      </trkpt>
      <trkpt lat="44.67911" lon="5.94092">
        <ele>1438.1</ele>
        <time>2014-05-09T14:18:08Z</time>
      </trkpt>
      <trkpt lat="44.67935" lon="5.94105">
        <ele>1437</ele>
        <time>2014-05-09T14:18:10Z</time>
      </trkpt>
      <trkpt lat="44.6796" lon="5.94116">
        <ele>1435.9</ele>
        <time>2014-05-09T14:18:12Z</time>
      </trkpt>
      <trkpt lat="44.67985" lon="5.94126">
        <ele>1434.4</ele>
        <time>2014-05-09T14:18:14Z</time>
      </trkpt>
      <trkpt lat="44.68011" lon="5.94134">
        <ele>1432.8</ele>
        <time>2014-05-09T14:18:16Z</time>
      </trkpt>
      <trkpt lat="44.68064" lon="5.94145">
        <ele>1429.8</ele>
        <time>2014-05-09T14:18:20Z</time>
      </trkpt>
      <trkpt lat="44.68091" lon="5.94148">
        <ele>1427.8</ele>
        <time>2014-05-09T14:18:22Z</time>
      </trkpt>
      <trkpt lat="44.68118" lon="5.94148">
        <ele>1426.3</ele>
        <time>2014-05-09T14:18:24Z</time>
      </trkpt>
      <trkpt lat="44.68146" lon="5.94146">
        <ele>1425.2</ele>
        <time>2014-05-09T14:18:26Z</time>
      </trkpt>
      <trkpt lat="44.68188" lon="5.9414">
        <ele>1422.8</ele>
        <time>2014-05-09T14:18:29Z</time>
      </trkpt>
      <trkpt lat="44.68228" lon="5.94134">
        <ele>1419.8</ele>
        <time>2014-05-09T14:18:32Z</time>
      </trkpt>
      <trkpt lat="44.68282" lon="5.94126">
        <ele>1416.6</ele>
        <time>2014-05-09T14:18:36Z</time>
      </trkpt>
      <trkpt lat="44.68321" lon="5.94119">
        <ele>1414.1</ele>
        <time>2014-05-09T14:18:39Z</time>
      </trkpt>
      <trkpt lat="44.68344" lon="5.94116">
        <ele>1411.8</ele>
        <time>2014-05-09T14:18:41Z</time>
      </trkpt>
      <trkpt lat="44.68357" lon="5.94127">
        <ele>1409.7</ele>
        <time>2014-05-09T14:18:43Z</time>
      </trkpt>
      <trkpt lat="44.68347" lon="5.94157">
        <ele>1407.5</ele>
        <time>2014-05-09T14:18:46Z</time>
      </trkpt>
      <trkpt lat="44.68331" lon="5.94173">
        <ele>1406.3</ele>
        <time>2014-05-09T14:18:48Z</time>
      </trkpt>
      <trkpt lat="44.68314" lon="5.94191">
        <ele>1405.1</ele>
        <time>2014-05-09T14:18:50Z</time>
      </trkpt>
      <trkpt lat="44.68277" lon="5.94234">
        <ele>1402.6</ele>
        <time>2014-05-09T14:18:54Z</time>
      </trkpt>
      <trkpt lat="44.68247" lon="5.9427">
        <ele>1400.2</ele>
        <time>2014-05-09T14:18:57Z</time>
      </trkpt>
      <trkpt lat="44.68237" lon="5.94283">
        <ele>1399.3</ele>
        <time>2014-05-09T14:18:58Z</time>
      </trkpt>
      <trkpt lat="44.68205" lon="5.94322">
        <ele>1396.3</ele>
        <time>2014-05-09T14:19:01Z</time>
      </trkpt>
      <trkpt lat="44.68161" lon="5.94378">
        <ele>1392.5</ele>
        <time>2014-05-09T14:19:05Z</time>
      </trkpt>
      <trkpt lat="44.68135" lon="5.94402">
        <ele>1390.2</ele>
        <time>2014-05-09T14:19:07Z</time>
      </trkpt>
      <trkpt lat="44.68107" lon="5.94423">
        <ele>1387.6</ele>
        <time>2014-05-09T14:19:09Z</time>
      </trkpt>
      <trkpt lat="44.68078" lon="5.94442">
        <ele>1386</ele>
        <time>2014-05-09T14:19:11Z</time>
      </trkpt>
      <trkpt lat="44.6804" lon="5.94465">
        <ele>1381.9</ele>
        <time>2014-05-09T14:19:14Z</time>
      </trkpt>
      <trkpt lat="44.6802" lon="5.94477">
        <ele>1379.1</ele>
        <time>2014-05-09T14:19:16Z</time>
      </trkpt>
      <trkpt lat="44.68005" lon="5.94502">
        <ele>1376.4</ele>
        <time>2014-05-09T14:19:19Z</time>
      </trkpt>
      <trkpt lat="44.68011" lon="5.9452">
        <ele>1375.2</ele>
        <time>2014-05-09T14:19:21Z</time>
      </trkpt>
      <trkpt lat="44.68028" lon="5.94521">
        <ele>1374.1</ele>
        <time>2014-05-09T14:19:23Z</time>
      </trkpt>
      <trkpt lat="44.68044" lon="5.94507">
        <ele>1373.4</ele>
        <time>2014-05-09T14:19:25Z</time>
      </trkpt>
      <trkpt lat="44.68062" lon="5.94494">
        <ele>1372.2</ele>
        <time>2014-05-09T14:19:27Z</time>
      </trkpt>
      <trkpt lat="44.68083" lon="5.94487">
        <ele>1371.1</ele>
        <time>2014-05-09T14:19:29Z</time>
      </trkpt>
      <trkpt lat="44.68106" lon="5.94484">
        <ele>1370.5</ele>
        <time>2014-05-09T14:19:31Z</time>
      </trkpt>
      <trkpt lat="44.68142" lon="5.94483">
        <ele>1368.9</ele>
        <time>2014-05-09T14:19:34Z</time>
      </trkpt>
      <trkpt lat="44.68166" lon="5.94481">
        <ele>1367.9</ele>
        <time>2014-05-09T14:19:36Z</time>
      </trkpt>
      <trkpt lat="44.68191" lon="5.94482">
        <ele>1365.9</ele>
        <time>2014-05-09T14:19:38Z</time>
      </trkpt>
      <trkpt lat="44.6823" lon="5.94488">
        <ele>1362.9</ele>
        <time>2014-05-09T14:19:41Z</time>
      </trkpt>
      <trkpt lat="44.68256" lon="5.94489">
        <ele>1360.5</ele>
        <time>2014-05-09T14:19:43Z</time>
      </trkpt>
      <trkpt lat="44.68283" lon="5.94484">
        <ele>1358.4</ele>
        <time>2014-05-09T14:19:45Z</time>
      </trkpt>
      <trkpt lat="44.6831" lon="5.94476">
        <ele>1356.2</ele>
        <time>2014-05-09T14:19:47Z</time>
      </trkpt>
      <trkpt lat="44.68351" lon="5.94461">
        <ele>1352.1</ele>
        <time>2014-05-09T14:19:50Z</time>
      </trkpt>
      <trkpt lat="44.68393" lon="5.94444">
        <ele>1348.5</ele>
        <time>2014-05-09T14:19:53Z</time>
      </trkpt>
      <trkpt lat="44.68436" lon="5.94427">
        <ele>1344.7</ele>
        <time>2014-05-09T14:19:56Z</time>
      </trkpt>
      <trkpt lat="44.68465" lon="5.94416">
        <ele>1342</ele>
        <time>2014-05-09T14:19:58Z</time>
      </trkpt>
      <trkpt lat="44.68493" lon="5.94404">
        <ele>1339.3</ele>
        <time>2014-05-09T14:20:00Z</time>
      </trkpt>
      <trkpt lat="44.68522" lon="5.9439">
        <ele>1336.7</ele>
        <time>2014-05-09T14:20:02Z</time>
      </trkpt>
      <trkpt lat="44.68579" lon="5.94362">
        <ele>1330.8</ele>
        <time>2014-05-09T14:20:06Z</time>
      </trkpt>
      <trkpt lat="44.6865" lon="5.94328">
        <ele>1323.6</ele>
        <time>2014-05-09T14:20:11Z</time>
      </trkpt>
      <trkpt lat="44.68664" lon="5.94323">
        <ele>1321.7</ele>
        <time>2014-05-09T14:20:12Z</time>
      </trkpt>
      <trkpt lat="44.68693" lon="5.94314">
        <ele>1318.9</ele>
        <time>2014-05-09T14:20:14Z</time>
      </trkpt>
      <trkpt lat="44.6872" lon="5.94302">
        <ele>1315.7</ele>
        <time>2014-05-09T14:20:16Z</time>
      </trkpt>
      <trkpt lat="44.68744" lon="5.94288">
        <ele>1312.6</ele>
        <time>2014-05-09T14:20:18Z</time>
      </trkpt>
      <trkpt lat="44.68763" lon="5.94275">
        <ele>1309.7</ele>
        <time>2014-05-09T14:20:20Z</time>
      </trkpt>
      <trkpt lat="44.68778" lon="5.94272">
        <ele>1306.8</ele>
        <time>2014-05-09T14:20:22Z</time>
      </trkpt>
      <trkpt lat="44.68769" lon="5.94298">
        <ele>1302</ele>
        <time>2014-05-09T14:20:26Z</time>
      </trkpt>
      <trkpt lat="44.68745" lon="5.94314">
        <ele>1300.5</ele>
        <time>2014-05-09T14:20:29Z</time>
      </trkpt>
      <trkpt lat="44.68719" lon="5.9434">
        <ele>1298.2</ele>
        <time>2014-05-09T14:20:32Z</time>
      </trkpt>
      <trkpt lat="44.68703" lon="5.94361">
        <ele>1296.5</ele>
        <time>2014-05-09T14:20:34Z</time>
      </trkpt>
      <trkpt lat="44.68695" lon="5.94374">
        <ele>1296</ele>
        <time>2014-05-09T14:20:35Z</time>
      </trkpt>
      <trkpt lat="44.68678" lon="5.94398">
        <ele>1294.3</ele>
        <time>2014-05-09T14:20:37Z</time>
      </trkpt>
      <trkpt lat="44.68669" lon="5.9441">
        <ele>1293.6</ele>
        <time>2014-05-09T14:20:38Z</time>
      </trkpt>
      <trkpt lat="44.68657" lon="5.9444">
        <ele>1293</ele>
        <time>2014-05-09T14:20:40Z</time>
      </trkpt>
      <trkpt lat="44.68655" lon="5.94473">
        <ele>1292.5</ele>
        <time>2014-05-09T14:20:42Z</time>
      </trkpt>
      <trkpt lat="44.68662" lon="5.94505">
        <ele>1292.5</ele>
        <time>2014-05-09T14:20:44Z</time>
      </trkpt>
      <trkpt lat="44.68673" lon="5.94548">
        <ele>1291.7</ele>
        <time>2014-05-09T14:20:47Z</time>
      </trkpt>
      <trkpt lat="44.68692" lon="5.94607">
        <ele>1291.5</ele>
        <time>2014-05-09T14:20:52Z</time>
      </trkpt>
      <trkpt lat="44.68716" lon="5.94621">
        <ele>1291.7</ele>
        <time>2014-05-09T14:20:56Z</time>
      </trkpt>
      <trkpt lat="44.68757" lon="5.94589">
        <ele>1291.6</ele>
        <time>2014-05-09T14:21:02Z</time>
      </trkpt>
      <trkpt lat="44.68772" lon="5.94579">
        <ele>1291.5</ele>
        <time>2014-05-09T14:21:04Z</time>
      </trkpt>
      <trkpt lat="44.68815" lon="5.94547">
        <ele>1289.6</ele>
        <time>2014-05-09T14:21:10Z</time>
      </trkpt>
      <trkpt lat="44.68829" lon="5.94535">
        <ele>1288.9</ele>
        <time>2014-05-09T14:21:12Z</time>
      </trkpt>
      <trkpt lat="44.68851" lon="5.94501">
        <ele>1289.1</ele>
        <time>2014-05-09T14:21:16Z</time>
      </trkpt>
      <trkpt lat="44.68862" lon="5.94482">
        <ele>1288.9</ele>
        <time>2014-05-09T14:21:18Z</time>
      </trkpt>
      <trkpt lat="44.68871" lon="5.94462">
        <ele>1288.3</ele>
        <time>2014-05-09T14:21:20Z</time>
      </trkpt>
      <trkpt lat="44.68882" lon="5.94444">
        <ele>1287.6</ele>
        <time>2014-05-09T14:21:22Z</time>
      </trkpt>
      <trkpt lat="44.68893" lon="5.94426">
        <ele>1287.5</ele>
        <time>2014-05-09T14:21:24Z</time>
      </trkpt>
      <trkpt lat="44.68905" lon="5.9441">
        <ele>1286.9</ele>
        <time>2014-05-09T14:21:26Z</time>
      </trkpt>
      <trkpt lat="44.68919" lon="5.94397">
        <ele>1286.3</ele>
        <time>2014-05-09T14:21:28Z</time>
      </trkpt>
      <trkpt lat="44.68934" lon="5.94386">
        <ele>1285.7</ele>
        <time>2014-05-09T14:21:30Z</time>
      </trkpt>
      <trkpt lat="44.68961" lon="5.94361">
        <ele>1284.5</ele>
        <time>2014-05-09T14:21:34Z</time>
      </trkpt>
      <trkpt lat="44.68988" lon="5.9434">
        <ele>1284.2</ele>
        <time>2014-05-09T14:21:38Z</time>
      </trkpt>
      <trkpt lat="44.69014" lon="5.94323">
        <ele>1284.3</ele>
        <time>2014-05-09T14:21:42Z</time>
      </trkpt>
      <trkpt lat="44.69036" lon="5.94305">
        <ele>1284.1</ele>
        <time>2014-05-09T14:21:46Z</time>
      </trkpt>
      <trkpt lat="44.69055" lon="5.94292">
        <ele>1284.9</ele>
        <time>2014-05-09T14:21:50Z</time>
      </trkpt>
      <trkpt lat="44.69075" lon="5.94272">
        <ele>1285.8</ele>
        <time>2014-05-09T14:21:56Z</time>
      </trkpt>
      <trkpt lat="44.69115" lon="5.94238">
        <ele>1287.6</ele>
        <time>2014-05-09T14:22:08Z</time>
      </trkpt>
      <trkpt lat="44.69127" lon="5.94229">
        <ele>1288</ele>
        <time>2014-05-09T14:22:11Z</time>
      </trkpt>
      <trkpt lat="44.69158" lon="5.94203">
        <ele>1288.6</ele>
        <time>2014-05-09T14:22:20Z</time>
      </trkpt>
      <trkpt lat="44.69169" lon="5.94196">
        <ele>1288.7</ele>
        <time>2014-05-09T14:22:23Z</time>
      </trkpt>
      <trkpt lat="44.6919" lon="5.9418">
        <ele>1289.5</ele>
        <time>2014-05-09T14:22:29Z</time>
      </trkpt>
      <trkpt lat="44.69213" lon="5.94165">
        <ele>1290</ele>
        <time>2014-05-09T14:22:35Z</time>
      </trkpt>
      <trkpt lat="44.69223" lon="5.9416">
        <ele>1289.9</ele>
        <time>2014-05-09T14:22:37Z</time>
      </trkpt>
      <trkpt lat="44.69263" lon="5.9414">
        <ele>1289.1</ele>
        <time>2014-05-09T14:22:45Z</time>
      </trkpt>
      <trkpt lat="44.69273" lon="5.94134">
        <ele>1288.7</ele>
        <time>2014-05-09T14:22:47Z</time>
      </trkpt>
      <trkpt lat="44.69294" lon="5.94128">
        <ele>1288.6</ele>
        <time>2014-05-09T14:22:51Z</time>
      </trkpt>
      <trkpt lat="44.69315" lon="5.94131">
        <ele>1289.2</ele>
        <time>2014-05-09T14:22:55Z</time>
      </trkpt>
      <trkpt lat="44.69341" lon="5.94125">
        <ele>1290.1</ele>
        <time>2014-05-09T14:23:01Z</time>
      </trkpt>
      <trkpt lat="44.69353" lon="5.94123">
        <ele>1290.7</ele>
        <time>2014-05-09T14:23:04Z</time>
      </trkpt>
      <trkpt lat="44.69376" lon="5.94107">
        <ele>1291.7</ele>
        <time>2014-05-09T14:23:10Z</time>
      </trkpt>
      <trkpt lat="44.69393" lon="5.94088">
        <ele>1291.9</ele>
        <time>2014-05-09T14:23:16Z</time>
      </trkpt>
      <trkpt lat="44.69434" lon="5.94022">
        <ele>1290.5</ele>
        <time>2014-05-09T14:23:27Z</time>
      </trkpt>
      <trkpt lat="44.69443" lon="5.94009">
        <ele>1290.2</ele>
        <time>2014-05-09T14:23:29Z</time>
      </trkpt>
      <trkpt lat="44.69458" lon="5.9398">
        <ele>1289.9</ele>
        <time>2014-05-09T14:23:33Z</time>
      </trkpt>
      <trkpt lat="44.69473" lon="5.93942">
        <ele>1289.1</ele>
        <time>2014-05-09T14:23:38Z</time>
      </trkpt>
      <trkpt lat="44.69486" lon="5.93891">
        <ele>1288.3</ele>
        <time>2014-05-09T14:23:44Z</time>
      </trkpt>
      <trkpt lat="44.69502" lon="5.93816">
        <ele>1287.9</ele>
        <time>2014-05-09T14:23:52Z</time>
      </trkpt>
      <trkpt lat="44.69509" lon="5.93778">
        <ele>1287.8</ele>
        <time>2014-05-09T14:23:56Z</time>
      </trkpt>
      <trkpt lat="44.69519" lon="5.9374">
        <ele>1287.4</ele>
        <time>2014-05-09T14:24:00Z</time>
      </trkpt>
      <trkpt lat="44.69526" lon="5.93721">
        <ele>1287</ele>
        <time>2014-05-09T14:24:02Z</time>
      </trkpt>
      <trkpt lat="44.69544" lon="5.93687">
        <ele>1287.1</ele>
        <time>2014-05-09T14:24:06Z</time>
      </trkpt>
      <trkpt lat="44.69582" lon="5.93626">
        <ele>1285.7</ele>
        <time>2014-05-09T14:24:14Z</time>
      </trkpt>
      <trkpt lat="44.696" lon="5.93594">
        <ele>1286.1</ele>
        <time>2014-05-09T14:24:18Z</time>
      </trkpt>
      <trkpt lat="44.69623" lon="5.93543">
        <ele>1284.9</ele>
        <time>2014-05-09T14:24:24Z</time>
      </trkpt>
      <trkpt lat="44.69628" lon="5.93468">
        <ele>1283.2</ele>
        <time>2014-05-09T14:24:32Z</time>
      </trkpt>
      <trkpt lat="44.69637" lon="5.93435">
        <ele>1283.3</ele>
        <time>2014-05-09T14:24:36Z</time>
      </trkpt>
      <trkpt lat="44.69649" lon="5.934">
        <ele>1283</ele>
        <time>2014-05-09T14:24:41Z</time>
      </trkpt>
      <trkpt lat="44.69657" lon="5.93381">
        <ele>1283.6</ele>
        <time>2014-05-09T14:24:44Z</time>
      </trkpt>
      <trkpt lat="44.69671" lon="5.93355">
        <ele>1283.7</ele>
        <time>2014-05-09T14:24:49Z</time>
      </trkpt>
      <trkpt lat="44.69685" lon="5.93333">
        <ele>1283.8</ele>
        <time>2014-05-09T14:24:56Z</time>
      </trkpt>
      <trkpt lat="44.69699" lon="5.93315">
        <ele>1282</ele>
        <time>2014-05-09T14:25:14Z</time>
      </trkpt>
      <trkpt lat="44.69719" lon="5.93308">
        <ele>1282</ele>
        <time>2014-05-09T14:25:26Z</time>
      </trkpt>
      <trkpt lat="44.69758" lon="5.93287">
        <ele>1281.5</ele>
        <time>2014-05-09T14:25:37Z</time>
      </trkpt>
      <trkpt lat="44.69808" lon="5.9327">
        <ele>1279.5</ele>
        <time>2014-05-09T14:25:44Z</time>
      </trkpt>
      <trkpt lat="44.69833" lon="5.93258">
        <ele>1278.8</ele>
        <time>2014-05-09T14:25:47Z</time>
      </trkpt>
      <trkpt lat="44.69848" lon="5.93243">
        <ele>1278.6</ele>
        <time>2014-05-09T14:25:49Z</time>
      </trkpt>
      <trkpt lat="44.69868" lon="5.93214">
        <ele>1277.9</ele>
        <time>2014-05-09T14:25:52Z</time>
      </trkpt>
      <trkpt lat="44.6988" lon="5.93194">
        <ele>1277</ele>
        <time>2014-05-09T14:25:54Z</time>
      </trkpt>
      <trkpt lat="44.69892" lon="5.93171">
        <ele>1275.9</ele>
        <time>2014-05-09T14:25:56Z</time>
      </trkpt>
      <trkpt lat="44.69903" lon="5.93149">
        <ele>1274.5</ele>
        <time>2014-05-09T14:25:58Z</time>
      </trkpt>
      <trkpt lat="44.69904" lon="5.93124">
        <ele>1272</ele>
        <time>2014-05-09T14:26:00Z</time>
      </trkpt>
      <trkpt lat="44.69917" lon="5.93085">
        <ele>1269</ele>
        <time>2014-05-09T14:26:04Z</time>
      </trkpt>
      <trkpt lat="44.6995" lon="5.93073">
        <ele>1265</ele>
        <time>2014-05-09T14:26:08Z</time>
      </trkpt>
      <trkpt lat="44.69989" lon="5.9308">
        <ele>1261</ele>
        <time>2014-05-09T14:26:12Z</time>
      </trkpt>
      <trkpt lat="44.70028" lon="5.93085">
        <ele>1257</ele>
        <time>2014-05-09T14:26:16Z</time>
      </trkpt>
      <trkpt lat="44.70046" lon="5.93064">
        <ele>1256.2</ele>
        <time>2014-05-09T14:26:19Z</time>
      </trkpt>
      <trkpt lat="44.70044" lon="5.9304">
        <ele>1254.9</ele>
        <time>2014-05-09T14:26:21Z</time>
      </trkpt>
      <trkpt lat="44.70042" lon="5.9299">
        <ele>1252</ele>
        <time>2014-05-09T14:26:25Z</time>
      </trkpt>
      <trkpt lat="44.70044" lon="5.92941">
        <ele>1250</ele>
        <time>2014-05-09T14:26:29Z</time>
      </trkpt>
      <trkpt lat="44.70063" lon="5.92911">
        <ele>1250</ele>
        <time>2014-05-09T14:26:33Z</time>
      </trkpt>
      <trkpt lat="44.70081" lon="5.92894">
        <ele>1251</ele>
        <time>2014-05-09T14:26:37Z</time>
      </trkpt>
      <trkpt lat="44.70094" lon="5.92863">
        <ele>1253.3</ele>
        <time>2014-05-09T14:26:44Z</time>
      </trkpt>
      <trkpt lat="44.70096" lon="5.9283">
        <ele>1254.7</ele>
        <time>2014-05-09T14:26:50Z</time>
      </trkpt>
      <trkpt lat="44.70091" lon="5.928">
        <ele>1255.9</ele>
        <time>2014-05-09T14:26:56Z</time>
      </trkpt>
      <trkpt lat="44.70081" lon="5.92767">
        <ele>1257</ele>
        <time>2014-05-09T14:27:03Z</time>
      </trkpt>
      <trkpt lat="44.70079" lon="5.92728">
        <ele>1258</ele>
        <time>2014-05-09T14:27:11Z</time>
      </trkpt>
      <trkpt lat="44.7008" lon="5.92676">
        <ele>1261.6</ele>
        <time>2014-05-09T14:27:22Z</time>
      </trkpt>
      <trkpt lat="44.70085" lon="5.92636">
        <ele>1263.7</ele>
        <time>2014-05-09T14:27:31Z</time>
      </trkpt>
      <trkpt lat="44.70097" lon="5.92617">
        <ele>1265.2</ele>
        <time>2014-05-09T14:27:37Z</time>
      </trkpt>
      <trkpt lat="44.70143" lon="5.92608">
        <ele>1268.9</ele>
        <time>2014-05-09T14:27:53Z</time>
      </trkpt>
      <trkpt lat="44.70159" lon="5.92584">
        <ele>1270.7</ele>
        <time>2014-05-09T14:28:01Z</time>
      </trkpt>
      <trkpt lat="44.70169" lon="5.92554">
        <ele>1272.2</ele>
        <time>2014-05-09T14:28:09Z</time>
      </trkpt>
      <trkpt lat="44.70174" lon="5.92522">
        <ele>1273.3</ele>
        <time>2014-05-09T14:28:17Z</time>
      </trkpt>
      <trkpt lat="44.70181" lon="5.92445">
        <ele>1277.4</ele>
        <time>2014-05-09T14:28:37Z</time>
      </trkpt>
      <trkpt lat="44.70185" lon="5.92414">
        <ele>1278.6</ele>
        <time>2014-05-09T14:28:45Z</time>
      </trkpt>
      <trkpt lat="44.70188" lon="5.92399">
        <ele>1279.7</ele>
        <time>2014-05-09T14:28:49Z</time>
      </trkpt>
      <trkpt lat="44.70199" lon="5.92372">
        <ele>1281.6</ele>
        <time>2014-05-09T14:28:57Z</time>
      </trkpt>
      <trkpt lat="44.70216" lon="5.92351">
        <ele>1283.5</ele>
        <time>2014-05-09T14:29:05Z</time>
      </trkpt>
      <trkpt lat="44.70233" lon="5.92332">
        <ele>1284.6</ele>
        <time>2014-05-09T14:29:13Z</time>
      </trkpt>
      <trkpt lat="44.70247" lon="5.92308">
        <ele>1286.5</ele>
        <time>2014-05-09T14:29:21Z</time>
      </trkpt>
      <trkpt lat="44.70254" lon="5.92278">
        <ele>1288</ele>
        <time>2014-05-09T14:29:29Z</time>
      </trkpt>
      <trkpt lat="44.70257" lon="5.92246">
        <ele>1289.3</ele>
        <time>2014-05-09T14:29:37Z</time>
      </trkpt>
      <trkpt lat="44.70253" lon="5.92214">
        <ele>1290.7</ele>
        <time>2014-05-09T14:29:45Z</time>
      </trkpt>
      <trkpt lat="44.70248" lon="5.92199">
        <ele>1291.4</ele>
        <time>2014-05-09T14:29:49Z</time>
      </trkpt>
      <trkpt lat="44.70238" lon="5.92169">
        <ele>1292.7</ele>
        <time>2014-05-09T14:29:57Z</time>
      </trkpt>
      <trkpt lat="44.70233" lon="5.92139">
        <ele>1294.2</ele>
        <time>2014-05-09T14:30:05Z</time>
      </trkpt>
      <trkpt lat="44.70236" lon="5.92107">
        <ele>1295.8</ele>
        <time>2014-05-09T14:30:13Z</time>
      </trkpt>
      <trkpt lat="44.70251" lon="5.92049">
        <ele>1298.6</ele>
        <time>2014-05-09T14:30:29Z</time>
      </trkpt>
      <trkpt lat="44.70256" lon="5.92035">
        <ele>1299.4</ele>
        <time>2014-05-09T14:30:33Z</time>
      </trkpt>
      <trkpt lat="44.70266" lon="5.92009">
        <ele>1301.3</ele>
        <time>2014-05-09T14:30:40Z</time>
      </trkpt>
      <trkpt lat="44.70272" lon="5.91996">
        <ele>1302.1</ele>
        <time>2014-05-09T14:30:44Z</time>
      </trkpt>
      <trkpt lat="44.70286" lon="5.91972">
        <ele>1303.6</ele>
        <time>2014-05-09T14:30:52Z</time>
      </trkpt>
      <trkpt lat="44.70301" lon="5.91948">
        <ele>1305.1</ele>
        <time>2014-05-09T14:31:00Z</time>
      </trkpt>
      <trkpt lat="44.70324" lon="5.91914">
        <ele>1307.7</ele>
        <time>2014-05-09T14:31:12Z</time>
      </trkpt>
      <trkpt lat="44.70354" lon="5.91868">
        <ele>1311.5</ele>
        <time>2014-05-09T14:31:28Z</time>
      </trkpt>
      <trkpt lat="44.70367" lon="5.91844">
        <ele>1313.3</ele>
        <time>2014-05-09T14:31:36Z</time>
      </trkpt>
      <trkpt lat="44.70375" lon="5.91817">
        <ele>1314.6</ele>
        <time>2014-05-09T14:31:44Z</time>
      </trkpt>
      <trkpt lat="44.7038" lon="5.91786">
        <ele>1315.3</ele>
        <time>2014-05-09T14:31:52Z</time>
      </trkpt>
      <trkpt lat="44.70382" lon="5.9177">
        <ele>1315.9</ele>
        <time>2014-05-09T14:31:56Z</time>
      </trkpt>
      <trkpt lat="44.70381" lon="5.9174">
        <ele>1316.7</ele>
        <time>2014-05-09T14:32:03Z</time>
      </trkpt>
      <trkpt lat="44.70378" lon="5.91713">
        <ele>1317.5</ele>
        <time>2014-05-09T14:32:09Z</time>
      </trkpt>
      <trkpt lat="44.70373" lon="5.91683">
        <ele>1318</ele>
        <time>2014-05-09T14:32:15Z</time>
      </trkpt>
      <trkpt lat="44.70371" lon="5.91669">
        <ele>1318.6</ele>
        <time>2014-05-09T14:32:18Z</time>
      </trkpt>
      <trkpt lat="44.7037" lon="5.91641">
        <ele>1320.1</ele>
        <time>2014-05-09T14:32:24Z</time>
      </trkpt>
      <trkpt lat="44.70373" lon="5.91615">
        <ele>1321.2</ele>
        <time>2014-05-09T14:32:30Z</time>
      </trkpt>
      <trkpt lat="44.70382" lon="5.91583">
        <ele>1322.6</ele>
        <time>2014-05-09T14:32:38Z</time>
      </trkpt>
      <trkpt lat="44.70394" lon="5.91554">
        <ele>1324.7</ele>
        <time>2014-05-09T14:32:46Z</time>
      </trkpt>
      <trkpt lat="44.70418" lon="5.9151">
        <ele>1327.1</ele>
        <time>2014-05-09T14:32:59Z</time>
      </trkpt>
      <trkpt lat="44.70437" lon="5.91464">
        <ele>1329.7</ele>
        <time>2014-05-09T14:33:11Z</time>
      </trkpt>
      <trkpt lat="44.70446" lon="5.91441">
        <ele>1330.5</ele>
        <time>2014-05-09T14:33:17Z</time>
      </trkpt>
      <trkpt lat="44.70455" lon="5.91418">
        <ele>1331.8</ele>
        <time>2014-05-09T14:33:23Z</time>
      </trkpt>
      <trkpt lat="44.70462" lon="5.91394">
        <ele>1333</ele>
        <time>2014-05-09T14:33:29Z</time>
      </trkpt>
      <trkpt lat="44.70469" lon="5.91369">
        <ele>1333.8</ele>
        <time>2014-05-09T14:33:35Z</time>
      </trkpt>
      <trkpt lat="44.70474" lon="5.91343">
        <ele>1334.6</ele>
        <time>2014-05-09T14:33:41Z</time>
      </trkpt>
      <trkpt lat="44.70481" lon="5.91304">
        <ele>1336.8</ele>
        <time>2014-05-09T14:33:50Z</time>
      </trkpt>
      <trkpt lat="44.70486" lon="5.91279">
        <ele>1337.8</ele>
        <time>2014-05-09T14:33:56Z</time>
      </trkpt>
      <trkpt lat="44.70494" lon="5.91255">
        <ele>1338.7</ele>
        <time>2014-05-09T14:34:02Z</time>
      </trkpt>
      <trkpt lat="44.70509" lon="5.91223">
        <ele>1340.7</ele>
        <time>2014-05-09T14:34:11Z</time>
      </trkpt>
      <trkpt lat="44.70541" lon="5.9116">
        <ele>1344</ele>
        <time>2014-05-09T14:34:29Z</time>
      </trkpt>
      <trkpt lat="44.70569" lon="5.91107">
        <ele>1346.5</ele>
        <time>2014-05-09T14:34:44Z</time>
      </trkpt>
      <trkpt lat="44.70582" lon="5.9107">
        <ele>1348.6</ele>
        <time>2014-05-09T14:34:53Z</time>
      </trkpt>
      <trkpt lat="44.70586" lon="5.91043">
        <ele>1349.7</ele>
        <time>2014-05-09T14:34:59Z</time>
      </trkpt>
      <trkpt lat="44.70584" lon="5.90974">
        <ele>1352</ele>
        <time>2014-05-09T14:35:14Z</time>
      </trkpt>
      <trkpt lat="44.70584" lon="5.90898">
        <ele>1354</ele>
        <time>2014-05-09T14:35:29Z</time>
      </trkpt>
      <trkpt lat="44.70578" lon="5.90862">
        <ele>1354.8</ele>
        <time>2014-05-09T14:35:35Z</time>
      </trkpt>
      <trkpt lat="44.70564" lon="5.90833">
        <ele>1355.4</ele>
        <time>2014-05-09T14:35:41Z</time>
      </trkpt>
      <trkpt lat="44.70545" lon="5.90811">
        <ele>1355.5</ele>
        <time>2014-05-09T14:35:47Z</time>
      </trkpt>
      <trkpt lat="44.70523" lon="5.90803">
        <ele>1355.7</ele>
        <time>2014-05-09T14:35:52Z</time>
      </trkpt>
      <trkpt lat="44.70476" lon="5.90818">
        <ele>1354.3</ele>
        <time>2014-05-09T14:36:00Z</time>
      </trkpt>
      <trkpt lat="44.7046" lon="5.90821">
        <ele>1353.7</ele>
        <time>2014-05-09T14:36:02Z</time>
      </trkpt>
      <trkpt lat="44.70433" lon="5.90819">
        <ele>1352.5</ele>
        <time>2014-05-09T14:36:05Z</time>
      </trkpt>
      <trkpt lat="44.70414" lon="5.90815">
        <ele>1351.5</ele>
        <time>2014-05-09T14:36:07Z</time>
      </trkpt>
      <trkpt lat="44.70395" lon="5.90807">
        <ele>1350.5</ele>
        <time>2014-05-09T14:36:09Z</time>
      </trkpt>
      <trkpt lat="44.70378" lon="5.90793">
        <ele>1349.9</ele>
        <time>2014-05-09T14:36:11Z</time>
      </trkpt>
      <trkpt lat="44.70367" lon="5.90772">
        <ele>1349.3</ele>
        <time>2014-05-09T14:36:13Z</time>
      </trkpt>
      <trkpt lat="44.70365" lon="5.90758">
        <ele>1349.1</ele>
        <time>2014-05-09T14:36:14Z</time>
      </trkpt>
      <trkpt lat="44.70368" lon="5.90733">
        <ele>1348.8</ele>
        <time>2014-05-09T14:36:16Z</time>
      </trkpt>
      <trkpt lat="44.70376" lon="5.90714">
        <ele>1349.1</ele>
        <time>2014-05-09T14:36:18Z</time>
      </trkpt>
      <trkpt lat="44.70401" lon="5.90695">
        <ele>1349.6</ele>
        <time>2014-05-09T14:36:22Z</time>
      </trkpt>
      <trkpt lat="44.70423" lon="5.90681">
        <ele>1351.3</ele>
        <time>2014-05-09T14:36:27Z</time>
      </trkpt>
      <trkpt lat="44.70467" lon="5.90666">
        <ele>1354.3</ele>
        <time>2014-05-09T14:36:38Z</time>
      </trkpt>
      <trkpt lat="44.70511" lon="5.90655">
        <ele>1357.1</ele>
        <time>2014-05-09T14:36:50Z</time>
      </trkpt>
      <trkpt lat="44.70541" lon="5.9065">
        <ele>1358.9</ele>
        <time>2014-05-09T14:36:59Z</time>
      </trkpt>
      <trkpt lat="44.70559" lon="5.9064">
        <ele>1360.5</ele>
        <time>2014-05-09T14:37:07Z</time>
      </trkpt>
      <trkpt lat="44.70581" lon="5.90642">
        <ele>1360.7</ele>
        <time>2014-05-09T14:37:19Z</time>
      </trkpt>
      <trkpt lat="44.70602" lon="5.90649">
        <ele>1361</ele>
        <time>2014-05-09T14:37:24Z</time>
      </trkpt>
      <trkpt lat="44.70612" lon="5.90654">
        <ele>1361.6</ele>
        <time>2014-05-09T14:37:27Z</time>
      </trkpt>
      <trkpt lat="44.70628" lon="5.9067">
        <ele>1361.8</ele>
        <time>2014-05-09T14:37:33Z</time>
      </trkpt>
      <trkpt lat="44.70629" lon="5.9066">
        <ele>1361.9</ele>
        <time>2014-05-09T14:38:31Z</time>
      </trkpt>
      <trkpt lat="44.70609" lon="5.9065">
        <ele>1361.6</ele>
        <time>2014-05-09T14:38:37Z</time>
      </trkpt>
      <trkpt lat="44.70595" lon="5.90645">
        <ele>1361.7</ele>
        <time>2014-05-09T14:38:40Z</time>
      </trkpt>
      <trkpt lat="44.70573" lon="5.90638">
        <ele>1360.8</ele>
        <time>2014-05-09T14:38:44Z</time>
      </trkpt>
      <trkpt lat="44.70556" lon="5.90627">
        <ele>1360.3</ele>
        <time>2014-05-09T14:38:48Z</time>
      </trkpt>
      <trkpt lat="44.70531" lon="5.90619">
        <ele>1361.5</ele>
        <time>2014-05-09T14:38:54Z</time>
      </trkpt>
      <trkpt lat="44.7051" lon="5.90617">
        <ele>1362.6</ele>
        <time>2014-05-09T14:39:00Z</time>
      </trkpt>
      <trkpt lat="44.70467" lon="5.90611">
        <ele>1365.5</ele>
        <time>2014-05-09T14:39:13Z</time>
      </trkpt>
      <trkpt lat="44.70445" lon="5.90607">
        <ele>1367</ele>
        <time>2014-05-09T14:39:19Z</time>
      </trkpt>
      <trkpt lat="44.70435" lon="5.90603">
        <ele>1367.4</ele>
        <time>2014-05-09T14:39:22Z</time>
      </trkpt>
      <trkpt lat="44.70415" lon="5.90596">
        <ele>1368.6</ele>
        <time>2014-05-09T14:39:28Z</time>
      </trkpt>
      <trkpt lat="44.70394" lon="5.90591">
        <ele>1369.8</ele>
        <time>2014-05-09T14:39:34Z</time>
      </trkpt>
      <trkpt lat="44.70372" lon="5.90589">
        <ele>1371.1</ele>
        <time>2014-05-09T14:39:40Z</time>
      </trkpt>
      <trkpt lat="44.7035" lon="5.90588">
        <ele>1372.4</ele>
        <time>2014-05-09T14:39:46Z</time>
      </trkpt>
      <trkpt lat="44.70328" lon="5.90586">
        <ele>1373.5</ele>
        <time>2014-05-09T14:39:52Z</time>
      </trkpt>
      <trkpt lat="44.70305" lon="5.90581">
        <ele>1374.5</ele>
        <time>2014-05-09T14:39:58Z</time>
      </trkpt>
      <trkpt lat="44.70287" lon="5.90559">
        <ele>1376</ele>
        <time>2014-05-09T14:40:04Z</time>
      </trkpt>
      <trkpt lat="44.70282" lon="5.90528">
        <ele>1377.5</ele>
        <time>2014-05-09T14:40:10Z</time>
      </trkpt>
      <trkpt lat="44.70286" lon="5.90499">
        <ele>1378.7</ele>
        <time>2014-05-09T14:40:16Z</time>
      </trkpt>
      <trkpt lat="44.703" lon="5.90433">
        <ele>1381.7</ele>
        <time>2014-05-09T14:40:31Z</time>
      </trkpt>
      <trkpt lat="44.70304" lon="5.90408">
        <ele>1382.9</ele>
        <time>2014-05-09T14:40:37Z</time>
      </trkpt>
      <trkpt lat="44.70306" lon="5.90382">
        <ele>1384.2</ele>
        <time>2014-05-09T14:40:43Z</time>
      </trkpt>
      <trkpt lat="44.70302" lon="5.90355">
        <ele>1385.3</ele>
        <time>2014-05-09T14:40:49Z</time>
      </trkpt>
      <trkpt lat="44.70295" lon="5.90329">
        <ele>1386.7</ele>
        <time>2014-05-09T14:40:55Z</time>
      </trkpt>
      <trkpt lat="44.70272" lon="5.90264">
        <ele>1390</ele>
        <time>2014-05-09T14:41:10Z</time>
      </trkpt>
      <trkpt lat="44.70263" lon="5.90238">
        <ele>1391.4</ele>
        <time>2014-05-09T14:41:16Z</time>
      </trkpt>
      <trkpt lat="44.70241" lon="5.90173">
        <ele>1394.5</ele>
        <time>2014-05-09T14:41:31Z</time>
      </trkpt>
      <trkpt lat="44.70226" lon="5.90133">
        <ele>1396.1</ele>
        <time>2014-05-09T14:41:40Z</time>
      </trkpt>
      <trkpt lat="44.70211" lon="5.90091">
        <ele>1397.4</ele>
        <time>2014-05-09T14:41:49Z</time>
      </trkpt>
      <trkpt lat="44.70202" lon="5.90061">
        <ele>1398.3</ele>
        <time>2014-05-09T14:41:55Z</time>
      </trkpt>
      <trkpt lat="44.70197" lon="5.90031">
        <ele>1399.1</ele>
        <time>2014-05-09T14:42:01Z</time>
      </trkpt>
      <trkpt lat="44.70193" lon="5.89969">
        <ele>1401.9</ele>
        <time>2014-05-09T14:42:13Z</time>
      </trkpt>
      <trkpt lat="44.70191" lon="5.89922">
        <ele>1403.8</ele>
        <time>2014-05-09T14:42:22Z</time>
      </trkpt>
      <trkpt lat="44.70189" lon="5.8989">
        <ele>1405.1</ele>
        <time>2014-05-09T14:42:28Z</time>
      </trkpt>
      <trkpt lat="44.70184" lon="5.89857">
        <ele>1405.7</ele>
        <time>2014-05-09T14:42:34Z</time>
      </trkpt>
      <trkpt lat="44.70179" lon="5.8984">
        <ele>1405.9</ele>
        <time>2014-05-09T14:42:37Z</time>
      </trkpt>
      <trkpt lat="44.70169" lon="5.89818">
        <ele>1406.3</ele>
        <time>2014-05-09T14:42:41Z</time>
      </trkpt>
      <trkpt lat="44.70152" lon="5.89786">
        <ele>1406.7</ele>
        <time>2014-05-09T14:42:47Z</time>
      </trkpt>
      <trkpt lat="44.70139" lon="5.89763">
        <ele>1406.9</ele>
        <time>2014-05-09T14:42:51Z</time>
      </trkpt>
      <trkpt lat="44.7012" lon="5.89727">
        <ele>1407.3</ele>
        <time>2014-05-09T14:42:57Z</time>
      </trkpt>
      <trkpt lat="44.70099" lon="5.89691">
        <ele>1407.6</ele>
        <time>2014-05-09T14:43:03Z</time>
      </trkpt>
      <trkpt lat="44.70085" lon="5.89668">
        <ele>1408.4</ele>
        <time>2014-05-09T14:43:07Z</time>
      </trkpt>
      <trkpt lat="44.70069" lon="5.89647">
        <ele>1408.5</ele>
        <time>2014-05-09T14:43:11Z</time>
      </trkpt>
      <trkpt lat="44.70052" lon="5.89629">
        <ele>1408.9</ele>
        <time>2014-05-09T14:43:15Z</time>
      </trkpt>
      <trkpt lat="44.70035" lon="5.89612">
        <ele>1409.4</ele>
        <time>2014-05-09T14:43:19Z</time>
      </trkpt>
      <trkpt lat="44.69987" lon="5.89565">
        <ele>1412.3</ele>
        <time>2014-05-09T14:43:31Z</time>
      </trkpt>
      <trkpt lat="44.69971" lon="5.89548">
        <ele>1412.6</ele>
        <time>2014-05-09T14:43:35Z</time>
      </trkpt>
      <trkpt lat="44.69956" lon="5.89528">
        <ele>1413.3</ele>
        <time>2014-05-09T14:43:39Z</time>
      </trkpt>
      <trkpt lat="44.69949" lon="5.89517">
        <ele>1413.6</ele>
        <time>2014-05-09T14:43:41Z</time>
      </trkpt>
      <trkpt lat="44.69937" lon="5.89495">
        <ele>1414.1</ele>
        <time>2014-05-09T14:43:45Z</time>
      </trkpt>
      <trkpt lat="44.69911" lon="5.89435">
        <ele>1416.2</ele>
        <time>2014-05-09T14:43:55Z</time>
      </trkpt>
      <trkpt lat="44.69886" lon="5.89379">
        <ele>1417.7</ele>
        <time>2014-05-09T14:44:05Z</time>
      </trkpt>
      <trkpt lat="44.69878" lon="5.89355">
        <ele>1418.4</ele>
        <time>2014-05-09T14:44:09Z</time>
      </trkpt>
      <trkpt lat="44.69873" lon="5.89331">
        <ele>1419.1</ele>
        <time>2014-05-09T14:44:13Z</time>
      </trkpt>
      <trkpt lat="44.69866" lon="5.8929">
        <ele>1419.6</ele>
        <time>2014-05-09T14:44:19Z</time>
      </trkpt>
      <trkpt lat="44.6986" lon="5.89262">
        <ele>1419.1</ele>
        <time>2014-05-09T14:44:23Z</time>
      </trkpt>
      <trkpt lat="44.69841" lon="5.89242">
        <ele>1418.8</ele>
        <time>2014-05-09T14:44:27Z</time>
      </trkpt>
      <trkpt lat="44.69822" lon="5.89234">
        <ele>1418.8</ele>
        <time>2014-05-09T14:44:31Z</time>
      </trkpt>
      <trkpt lat="44.69809" lon="5.89231">
        <ele>1419.2</ele>
        <time>2014-05-09T14:44:34Z</time>
      </trkpt>
      <trkpt lat="44.69785" lon="5.89235">
        <ele>1420.7</ele>
        <time>2014-05-09T14:44:40Z</time>
      </trkpt>
      <trkpt lat="44.6975" lon="5.89258">
        <ele>1423</ele>
        <time>2014-05-09T14:44:49Z</time>
      </trkpt>
      <trkpt lat="44.69723" lon="5.89269">
        <ele>1424.2</ele>
        <time>2014-05-09T14:44:55Z</time>
      </trkpt>
      <trkpt lat="44.69705" lon="5.8927">
        <ele>1425.2</ele>
        <time>2014-05-09T14:44:59Z</time>
      </trkpt>
      <trkpt lat="44.69656" lon="5.89263">
        <ele>1428.3</ele>
        <time>2014-05-09T14:45:11Z</time>
      </trkpt>
      <trkpt lat="44.69635" lon="5.89263">
        <ele>1429.4</ele>
        <time>2014-05-09T14:45:17Z</time>
      </trkpt>
      <trkpt lat="44.69615" lon="5.89265">
        <ele>1431.1</ele>
        <time>2014-05-09T14:45:23Z</time>
      </trkpt>
      <trkpt lat="44.69593" lon="5.89271">
        <ele>1431.1</ele>
        <time>2014-05-09T14:45:29Z</time>
      </trkpt>
      <trkpt lat="44.69574" lon="5.89282">
        <ele>1431.5</ele>
        <time>2014-05-09T14:45:35Z</time>
      </trkpt>
      <trkpt lat="44.69556" lon="5.89286">
        <ele>1431.6</ele>
        <time>2014-05-09T14:46:45Z</time>
      </trkpt>
      <trkpt lat="44.69574" lon="5.89288">
        <ele>1430.7</ele>
        <time>2014-05-09T14:51:14Z</time>
      </trkpt>
      <trkpt lat="44.69604" lon="5.89272">
        <ele>1430.3</ele>
        <time>2014-05-09T14:51:27Z</time>
      </trkpt>
      <trkpt lat="44.69623" lon="5.89268">
        <ele>1430.1</ele>
        <time>2014-05-09T14:51:33Z</time>
      </trkpt>
      <trkpt lat="44.69636" lon="5.89267">
        <ele>1429.7</ele>
        <time>2014-05-09T14:51:36Z</time>
      </trkpt>
      <trkpt lat="44.6966" lon="5.89269">
        <ele>1429</ele>
        <time>2014-05-09T14:51:41Z</time>
      </trkpt>
      <trkpt lat="44.69686" lon="5.89273">
        <ele>1428.2</ele>
        <time>2014-05-09T14:51:45Z</time>
      </trkpt>
      <trkpt lat="44.69715" lon="5.89276">
        <ele>1427</ele>
        <time>2014-05-09T14:51:49Z</time>
      </trkpt>
      <trkpt lat="44.69745" lon="5.89269">
        <ele>1426</ele>
        <time>2014-05-09T14:51:53Z</time>
      </trkpt>
      <trkpt lat="44.69773" lon="5.89251">
        <ele>1424.7</ele>
        <time>2014-05-09T14:51:57Z</time>
      </trkpt>
      <trkpt lat="44.69788" lon="5.89244">
        <ele>1423.7</ele>
        <time>2014-05-09T14:51:59Z</time>
      </trkpt>
      <trkpt lat="44.69804" lon="5.8924">
        <ele>1422.5</ele>
        <time>2014-05-09T14:52:01Z</time>
      </trkpt>
      <trkpt lat="44.6982" lon="5.89242">
        <ele>1421.2</ele>
        <time>2014-05-09T14:52:03Z</time>
      </trkpt>
      <trkpt lat="44.69847" lon="5.89253">
        <ele>1418.7</ele>
        <time>2014-05-09T14:52:07Z</time>
      </trkpt>
      <trkpt lat="44.69855" lon="5.89234">
        <ele>1417.4</ele>
        <time>2014-05-09T14:52:12Z</time>
      </trkpt>
      <trkpt lat="44.69841" lon="5.892">
        <ele>1415.7</ele>
        <time>2014-05-09T14:52:16Z</time>
      </trkpt>
      <trkpt lat="44.69824" lon="5.89169">
        <ele>1414.3</ele>
        <time>2014-05-09T14:52:19Z</time>
      </trkpt>
      <trkpt lat="44.69803" lon="5.89136">
        <ele>1413.2</ele>
        <time>2014-05-09T14:52:22Z</time>
      </trkpt>
      <trkpt lat="44.69787" lon="5.89111">
        <ele>1411.8</ele>
        <time>2014-05-09T14:52:24Z</time>
      </trkpt>
      <trkpt lat="44.6977" lon="5.89087">
        <ele>1410.7</ele>
        <time>2014-05-09T14:52:26Z</time>
      </trkpt>
      <trkpt lat="44.69751" lon="5.89064">
        <ele>1408.9</ele>
        <time>2014-05-09T14:52:28Z</time>
      </trkpt>
      <trkpt lat="44.69729" lon="5.89046">
        <ele>1407.5</ele>
        <time>2014-05-09T14:52:30Z</time>
      </trkpt>
      <trkpt lat="44.69705" lon="5.89031">
        <ele>1406.1</ele>
        <time>2014-05-09T14:52:32Z</time>
      </trkpt>
      <trkpt lat="44.69678" lon="5.89023">
        <ele>1404.5</ele>
        <time>2014-05-09T14:52:34Z</time>
      </trkpt>
      <trkpt lat="44.6965" lon="5.89017">
        <ele>1402.7</ele>
        <time>2014-05-09T14:52:36Z</time>
      </trkpt>
      <trkpt lat="44.69622" lon="5.89014">
        <ele>1401.3</ele>
        <time>2014-05-09T14:52:38Z</time>
      </trkpt>
      <trkpt lat="44.69563" lon="5.89013">
        <ele>1398</ele>
        <time>2014-05-09T14:52:42Z</time>
      </trkpt>
      <trkpt lat="44.69548" lon="5.89011">
        <ele>1397.2</ele>
        <time>2014-05-09T14:52:43Z</time>
      </trkpt>
      <trkpt lat="44.69521" lon="5.88997">
        <ele>1395.4</ele>
        <time>2014-05-09T14:52:45Z</time>
      </trkpt>
      <trkpt lat="44.69498" lon="5.88972">
        <ele>1393.5</ele>
        <time>2014-05-09T14:52:47Z</time>
      </trkpt>
      <trkpt lat="44.69474" lon="5.8895">
        <ele>1391.2</ele>
        <time>2014-05-09T14:52:49Z</time>
      </trkpt>
      <trkpt lat="44.69446" lon="5.88934">
        <ele>1389.3</ele>
        <time>2014-05-09T14:52:51Z</time>
      </trkpt>
      <trkpt lat="44.69432" lon="5.88927">
        <ele>1388.4</ele>
        <time>2014-05-09T14:52:52Z</time>
      </trkpt>
      <trkpt lat="44.69404" lon="5.88911">
        <ele>1385</ele>
        <time>2014-05-09T14:52:54Z</time>
      </trkpt>
      <trkpt lat="44.69366" lon="5.88877">
        <ele>1382.8</ele>
        <time>2014-05-09T14:52:57Z</time>
      </trkpt>
      <trkpt lat="44.69357" lon="5.8886">
        <ele>1381.7</ele>
        <time>2014-05-09T14:52:58Z</time>
      </trkpt>
      <trkpt lat="44.69341" lon="5.88824">
        <ele>1380</ele>
        <time>2014-05-09T14:53:00Z</time>
      </trkpt>
      <trkpt lat="44.69333" lon="5.88809">
        <ele>1378.8</ele>
        <time>2014-05-09T14:53:01Z</time>
      </trkpt>
      <trkpt lat="44.69311" lon="5.88794">
        <ele>1376.5</ele>
        <time>2014-05-09T14:53:03Z</time>
      </trkpt>
      <trkpt lat="44.69286" lon="5.88797">
        <ele>1374.6</ele>
        <time>2014-05-09T14:53:05Z</time>
      </trkpt>
      <trkpt lat="44.69262" lon="5.88805">
        <ele>1372.1</ele>
        <time>2014-05-09T14:53:07Z</time>
      </trkpt>
      <trkpt lat="44.69251" lon="5.88806">
        <ele>1371.1</ele>
        <time>2014-05-09T14:53:08Z</time>
      </trkpt>
      <trkpt lat="44.69233" lon="5.88792">
        <ele>1369</ele>
        <time>2014-05-09T14:53:10Z</time>
      </trkpt>
      <trkpt lat="44.69218" lon="5.88752">
        <ele>1367.9</ele>
        <time>2014-05-09T14:53:13Z</time>
      </trkpt>
      <trkpt lat="44.69214" lon="5.88704">
        <ele>1366.2</ele>
        <time>2014-05-09T14:53:16Z</time>
      </trkpt>
      <trkpt lat="44.69211" lon="5.88688">
        <ele>1365.6</ele>
        <time>2014-05-09T14:53:17Z</time>
      </trkpt>
      <trkpt lat="44.69198" lon="5.88659">
        <ele>1364.8</ele>
        <time>2014-05-09T14:53:19Z</time>
      </trkpt>
      <trkpt lat="44.69178" lon="5.88639">
        <ele>1363.6</ele>
        <time>2014-05-09T14:53:21Z</time>
      </trkpt>
      <trkpt lat="44.69156" lon="5.88623">
        <ele>1362.3</ele>
        <time>2014-05-09T14:53:23Z</time>
      </trkpt>
      <trkpt lat="44.69121" lon="5.88602">
        <ele>1360.5</ele>
        <time>2014-05-09T14:53:26Z</time>
      </trkpt>
      <trkpt lat="44.69073" lon="5.88573">
        <ele>1358.2</ele>
        <time>2014-05-09T14:53:30Z</time>
      </trkpt>
      <trkpt lat="44.6905" lon="5.88557">
        <ele>1356.6</ele>
        <time>2014-05-09T14:53:32Z</time>
      </trkpt>
      <trkpt lat="44.69039" lon="5.88548">
        <ele>1356.1</ele>
        <time>2014-05-09T14:53:33Z</time>
      </trkpt>
      <trkpt lat="44.69018" lon="5.88525">
        <ele>1355.5</ele>
        <time>2014-05-09T14:53:35Z</time>
      </trkpt>
      <trkpt lat="44.69003" lon="5.88496">
        <ele>1354.6</ele>
        <time>2014-05-09T14:53:37Z</time>
      </trkpt>
      <trkpt lat="44.68993" lon="5.88463">
        <ele>1353.3</ele>
        <time>2014-05-09T14:53:39Z</time>
      </trkpt>
      <trkpt lat="44.68977" lon="5.88397">
        <ele>1350.6</ele>
        <time>2014-05-09T14:53:43Z</time>
      </trkpt>
      <trkpt lat="44.68966" lon="5.88365">
        <ele>1349.3</ele>
        <time>2014-05-09T14:53:45Z</time>
      </trkpt>
      <trkpt lat="44.6896" lon="5.8835">
        <ele>1348.8</ele>
        <time>2014-05-09T14:53:46Z</time>
      </trkpt>
      <trkpt lat="44.68947" lon="5.8832">
        <ele>1348</ele>
        <time>2014-05-09T14:53:48Z</time>
      </trkpt>
      <trkpt lat="44.68933" lon="5.88292">
        <ele>1347.2</ele>
        <time>2014-05-09T14:53:50Z</time>
      </trkpt>
      <trkpt lat="44.68918" lon="5.88265">
        <ele>1346.2</ele>
        <time>2014-05-09T14:53:52Z</time>
      </trkpt>
      <trkpt lat="44.68903" lon="5.8824">
        <ele>1345</ele>
        <time>2014-05-09T14:53:54Z</time>
      </trkpt>
      <trkpt lat="44.68871" lon="5.8819">
        <ele>1342.7</ele>
        <time>2014-05-09T14:53:58Z</time>
      </trkpt>
      <trkpt lat="44.68847" lon="5.88153">
        <ele>1340.7</ele>
        <time>2014-05-09T14:54:01Z</time>
      </trkpt>
      <trkpt lat="44.68831" lon="5.8813">
        <ele>1339.5</ele>
        <time>2014-05-09T14:54:03Z</time>
      </trkpt>
      <trkpt lat="44.68813" lon="5.88111">
        <ele>1338.2</ele>
        <time>2014-05-09T14:54:05Z</time>
      </trkpt>
      <trkpt lat="44.68792" lon="5.88098">
        <ele>1337.3</ele>
        <time>2014-05-09T14:54:07Z</time>
      </trkpt>
      <trkpt lat="44.6877" lon="5.8809">
        <ele>1336.2</ele>
        <time>2014-05-09T14:54:09Z</time>
      </trkpt>
      <trkpt lat="44.68759" lon="5.88087">
        <ele>1335.6</ele>
        <time>2014-05-09T14:54:10Z</time>
      </trkpt>
      <trkpt lat="44.68712" lon="5.88076">
        <ele>1333.8</ele>
        <time>2014-05-09T14:54:14Z</time>
      </trkpt>
      <trkpt lat="44.68701" lon="5.88074">
        <ele>1333.6</ele>
        <time>2014-05-09T14:54:15Z</time>
      </trkpt>
      <trkpt lat="44.68679" lon="5.88065">
        <ele>1332.6</ele>
        <time>2014-05-09T14:54:17Z</time>
      </trkpt>
      <trkpt lat="44.68657" lon="5.88051">
        <ele>1331.6</ele>
        <time>2014-05-09T14:54:19Z</time>
      </trkpt>
      <trkpt lat="44.68638" lon="5.88032">
        <ele>1330.7</ele>
        <time>2014-05-09T14:54:21Z</time>
      </trkpt>
      <trkpt lat="44.6861" lon="5.87999">
        <ele>1329.7</ele>
        <time>2014-05-09T14:54:24Z</time>
      </trkpt>
      <trkpt lat="44.68583" lon="5.87967">
        <ele>1328.8</ele>
        <time>2014-05-09T14:54:27Z</time>
      </trkpt>
      <trkpt lat="44.68547" lon="5.87924">
        <ele>1326.6</ele>
        <time>2014-05-09T14:54:31Z</time>
      </trkpt>
      <trkpt lat="44.68539" lon="5.87913">
        <ele>1325.9</ele>
        <time>2014-05-09T14:54:32Z</time>
      </trkpt>
      <trkpt lat="44.68524" lon="5.87888">
        <ele>1324.8</ele>
        <time>2014-05-09T14:54:34Z</time>
      </trkpt>
      <trkpt lat="44.68512" lon="5.8786">
        <ele>1323.9</ele>
        <time>2014-05-09T14:54:36Z</time>
      </trkpt>
      <trkpt lat="44.68508" lon="5.87845">
        <ele>1323.4</ele>
        <time>2014-05-09T14:54:37Z</time>
      </trkpt>
      <trkpt lat="44.68502" lon="5.87814">
        <ele>1322.2</ele>
        <time>2014-05-09T14:54:39Z</time>
      </trkpt>
      <trkpt lat="44.68498" lon="5.87799">
        <ele>1321.7</ele>
        <time>2014-05-09T14:54:40Z</time>
      </trkpt>
      <trkpt lat="44.68488" lon="5.87771">
        <ele>1320.5</ele>
        <time>2014-05-09T14:54:42Z</time>
      </trkpt>
      <trkpt lat="44.68475" lon="5.87745">
        <ele>1319</ele>
        <time>2014-05-09T14:54:44Z</time>
      </trkpt>
      <trkpt lat="44.68445" lon="5.87693">
        <ele>1316.9</ele>
        <time>2014-05-09T14:54:48Z</time>
      </trkpt>
      <trkpt lat="44.68436" lon="5.87681">
        <ele>1316.4</ele>
        <time>2014-05-09T14:54:49Z</time>
      </trkpt>
      <trkpt lat="44.68419" lon="5.87658">
        <ele>1315.5</ele>
        <time>2014-05-09T14:54:51Z</time>
      </trkpt>
      <trkpt lat="44.684" lon="5.87638">
        <ele>1314.4</ele>
        <time>2014-05-09T14:54:53Z</time>
      </trkpt>
      <trkpt lat="44.68379" lon="5.87621">
        <ele>1313.8</ele>
        <time>2014-05-09T14:54:55Z</time>
      </trkpt>
      <trkpt lat="44.68358" lon="5.87607">
        <ele>1313.3</ele>
        <time>2014-05-09T14:54:57Z</time>
      </trkpt>
      <trkpt lat="44.68317" lon="5.87583">
        <ele>1312</ele>
        <time>2014-05-09T14:55:01Z</time>
      </trkpt>
      <trkpt lat="44.68272" lon="5.87553">
        <ele>1311.7</ele>
        <time>2014-05-09T14:55:06Z</time>
      </trkpt>
      <trkpt lat="44.68241" lon="5.8753">
        <ele>1312</ele>
        <time>2014-05-09T14:55:10Z</time>
      </trkpt>
      <trkpt lat="44.68227" lon="5.87518">
        <ele>1311.9</ele>
        <time>2014-05-09T14:55:12Z</time>
      </trkpt>
      <trkpt lat="44.68202" lon="5.87492">
        <ele>1311.6</ele>
        <time>2014-05-09T14:55:16Z</time>
      </trkpt>
      <trkpt lat="44.68179" lon="5.87466">
        <ele>1311.3</ele>
        <time>2014-05-09T14:55:20Z</time>
      </trkpt>
      <trkpt lat="44.68137" lon="5.87417">
        <ele>1311.3</ele>
        <time>2014-05-09T14:55:28Z</time>
      </trkpt>
      <trkpt lat="44.68109" lon="5.87384">
        <ele>1312</ele>
        <time>2014-05-09T14:55:34Z</time>
      </trkpt>
      <trkpt lat="44.68073" lon="5.87342">
        <ele>1313.6</ele>
        <time>2014-05-09T14:55:42Z</time>
      </trkpt>
      <trkpt lat="44.68047" lon="5.87311">
        <ele>1314.5</ele>
        <time>2014-05-09T14:55:48Z</time>
      </trkpt>
      <trkpt lat="44.68013" lon="5.87271">
        <ele>1316.2</ele>
        <time>2014-05-09T14:55:56Z</time>
      </trkpt>
      <trkpt lat="44.67997" lon="5.87253">
        <ele>1317</ele>
        <time>2014-05-09T14:56:00Z</time>
      </trkpt>
      <trkpt lat="44.67982" lon="5.87234">
        <ele>1317.4</ele>
        <time>2014-05-09T14:56:04Z</time>
      </trkpt>
      <trkpt lat="44.67961" lon="5.87204">
        <ele>1317.9</ele>
        <time>2014-05-09T14:56:10Z</time>
      </trkpt>
      <trkpt lat="44.67947" lon="5.87182">
        <ele>1318.2</ele>
        <time>2014-05-09T14:56:14Z</time>
      </trkpt>
      <trkpt lat="44.67934" lon="5.87158">
        <ele>1318.8</ele>
        <time>2014-05-09T14:56:18Z</time>
      </trkpt>
      <trkpt lat="44.67913" lon="5.87117">
        <ele>1318.5</ele>
        <time>2014-05-09T14:56:24Z</time>
      </trkpt>
      <trkpt lat="44.67897" lon="5.87088">
        <ele>1318.5</ele>
        <time>2014-05-09T14:56:28Z</time>
      </trkpt>
      <trkpt lat="44.67879" lon="5.87062">
        <ele>1318.5</ele>
        <time>2014-05-09T14:56:32Z</time>
      </trkpt>
      <trkpt lat="44.6786" lon="5.87041">
        <ele>1319</ele>
        <time>2014-05-09T14:56:36Z</time>
      </trkpt>
      <trkpt lat="44.67843" lon="5.87024">
        <ele>1319.6</ele>
        <time>2014-05-09T14:56:40Z</time>
      </trkpt>
      <trkpt lat="44.67823" lon="5.87009">
        <ele>1320.4</ele>
        <time>2014-05-09T14:56:45Z</time>
      </trkpt>
      <trkpt lat="44.67796" lon="5.86986">
        <ele>1322.6</ele>
        <time>2014-05-09T14:56:54Z</time>
      </trkpt>
      <trkpt lat="44.67763" lon="5.86952">
        <ele>1325.5</ele>
        <time>2014-05-09T14:57:06Z</time>
      </trkpt>
      <trkpt lat="44.67747" lon="5.86935">
        <ele>1326.9</ele>
        <time>2014-05-09T14:57:12Z</time>
      </trkpt>
      <trkpt lat="44.67733" lon="5.86915">
        <ele>1328.3</ele>
        <time>2014-05-09T14:57:18Z</time>
      </trkpt>
      <trkpt lat="44.67721" lon="5.86893">
        <ele>1329.5</ele>
        <time>2014-05-09T14:57:24Z</time>
      </trkpt>
      <trkpt lat="44.67695" lon="5.86832">
        <ele>1333.1</ele>
        <time>2014-05-09T14:57:39Z</time>
      </trkpt>
      <trkpt lat="44.67662" lon="5.86761">
        <ele>1336.4</ele>
        <time>2014-05-09T14:57:57Z</time>
      </trkpt>
      <trkpt lat="44.67649" lon="5.86738">
        <ele>1337.8</ele>
        <time>2014-05-09T14:58:03Z</time>
      </trkpt>
      <trkpt lat="44.67632" lon="5.86722">
        <ele>1339.2</ele>
        <time>2014-05-09T14:58:09Z</time>
      </trkpt>
      <trkpt lat="44.67612" lon="5.86718">
        <ele>1340.8</ele>
        <time>2014-05-09T14:58:15Z</time>
      </trkpt>
      <trkpt lat="44.67592" lon="5.86725">
        <ele>1342.2</ele>
        <time>2014-05-09T14:58:21Z</time>
      </trkpt>
      <trkpt lat="44.67562" lon="5.86738">
        <ele>1344.3</ele>
        <time>2014-05-09T14:58:30Z</time>
      </trkpt>
      <trkpt lat="44.67541" lon="5.86746">
        <ele>1345.6</ele>
        <time>2014-05-09T14:58:36Z</time>
      </trkpt>
      <trkpt lat="44.67531" lon="5.8675">
        <ele>1346.3</ele>
        <time>2014-05-09T14:58:39Z</time>
      </trkpt>
      <trkpt lat="44.6751" lon="5.86754">
        <ele>1347.5</ele>
        <time>2014-05-09T14:58:45Z</time>
      </trkpt>
      <trkpt lat="44.67488" lon="5.86756">
        <ele>1348.7</ele>
        <time>2014-05-09T14:58:51Z</time>
      </trkpt>
      <trkpt lat="44.67466" lon="5.86757">
        <ele>1350</ele>
        <time>2014-05-09T14:58:57Z</time>
      </trkpt>
      <trkpt lat="44.67455" lon="5.86757">
        <ele>1350.5</ele>
        <time>2014-05-09T14:59:00Z</time>
      </trkpt>
      <trkpt lat="44.67434" lon="5.86754">
        <ele>1351.9</ele>
        <time>2014-05-09T14:59:06Z</time>
      </trkpt>
      <trkpt lat="44.67413" lon="5.86747">
        <ele>1353.4</ele>
        <time>2014-05-09T14:59:12Z</time>
      </trkpt>
      <trkpt lat="44.67392" lon="5.86739">
        <ele>1354.4</ele>
        <time>2014-05-09T14:59:18Z</time>
      </trkpt>
      <trkpt lat="44.67382" lon="5.86734">
        <ele>1354.9</ele>
        <time>2014-05-09T14:59:21Z</time>
      </trkpt>
      <trkpt lat="44.67361" lon="5.86723">
        <ele>1356.2</ele>
        <time>2014-05-09T14:59:27Z</time>
      </trkpt>
      <trkpt lat="44.67341" lon="5.86714">
        <ele>1357.7</ele>
        <time>2014-05-09T14:59:33Z</time>
      </trkpt>
      <trkpt lat="44.6732" lon="5.86707">
        <ele>1359.2</ele>
        <time>2014-05-09T14:59:39Z</time>
      </trkpt>
      <trkpt lat="44.6731" lon="5.86704">
        <ele>1359.8</ele>
        <time>2014-05-09T14:59:42Z</time>
      </trkpt>
      <trkpt lat="44.67267" lon="5.86696">
        <ele>1362.6</ele>
        <time>2014-05-09T14:59:54Z</time>
      </trkpt>
      <trkpt lat="44.67246" lon="5.86691">
        <ele>1364.3</ele>
        <time>2014-05-09T15:00:00Z</time>
      </trkpt>
      <trkpt lat="44.67235" lon="5.86686">
        <ele>1364.8</ele>
        <time>2014-05-09T15:00:03Z</time>
      </trkpt>
      <trkpt lat="44.67215" lon="5.86677">
        <ele>1366.1</ele>
        <time>2014-05-09T15:00:09Z</time>
      </trkpt>
      <trkpt lat="44.67187" lon="5.8666">
        <ele>1368.3</ele>
        <time>2014-05-09T15:00:23Z</time>
      </trkpt>
      <trkpt lat="44.67167" lon="5.86648">
        <ele>1369.1</ele>
        <time>2014-05-09T15:00:38Z</time>
      </trkpt>
      <trkpt lat="44.67151" lon="5.86635">
        <ele>1370.6</ele>
        <time>2014-05-09T15:00:44Z</time>
      </trkpt>
      <trkpt lat="44.67138" lon="5.86614">
        <ele>1372.2</ele>
        <time>2014-05-09T15:00:50Z</time>
      </trkpt>
      <trkpt lat="44.67124" lon="5.86577">
        <ele>1374.6</ele>
        <time>2014-05-09T15:00:59Z</time>
      </trkpt>
      <trkpt lat="44.67112" lon="5.86555">
        <ele>1376.6</ele>
        <time>2014-05-09T15:01:05Z</time>
      </trkpt>
      <trkpt lat="44.67104" lon="5.86546">
        <ele>1377.1</ele>
        <time>2014-05-09T15:01:08Z</time>
      </trkpt>
      <trkpt lat="44.67087" lon="5.86532">
        <ele>1378.6</ele>
        <time>2014-05-09T15:01:14Z</time>
      </trkpt>
      <trkpt lat="44.67057" lon="5.86517">
        <ele>1381</ele>
        <time>2014-05-09T15:01:23Z</time>
      </trkpt>
      <trkpt lat="44.67038" lon="5.86504">
        <ele>1382.5</ele>
        <time>2014-05-09T15:01:29Z</time>
      </trkpt>
      <trkpt lat="44.67022" lon="5.86482">
        <ele>1384.2</ele>
        <time>2014-05-09T15:01:35Z</time>
      </trkpt>
      <trkpt lat="44.67008" lon="5.86459">
        <ele>1385.6</ele>
        <time>2014-05-09T15:01:41Z</time>
      </trkpt>
      <trkpt lat="44.66991" lon="5.86439">
        <ele>1387.2</ele>
        <time>2014-05-09T15:01:47Z</time>
      </trkpt>
      <trkpt lat="44.66982" lon="5.86431">
        <ele>1388.1</ele>
        <time>2014-05-09T15:01:50Z</time>
      </trkpt>
      <trkpt lat="44.66961" lon="5.8642">
        <ele>1389.2</ele>
        <time>2014-05-09T15:01:56Z</time>
      </trkpt>
      <trkpt lat="44.66939" lon="5.86415">
        <ele>1390.6</ele>
        <time>2014-05-09T15:02:02Z</time>
      </trkpt>
      <trkpt lat="44.66917" lon="5.86412">
        <ele>1391.8</ele>
        <time>2014-05-09T15:02:08Z</time>
      </trkpt>
      <trkpt lat="44.66895" lon="5.86407">
        <ele>1393</ele>
        <time>2014-05-09T15:02:14Z</time>
      </trkpt>
      <trkpt lat="44.66875" lon="5.86396">
        <ele>1395</ele>
        <time>2014-05-09T15:02:20Z</time>
      </trkpt>
      <trkpt lat="44.66856" lon="5.86381">
        <ele>1396.7</ele>
        <time>2014-05-09T15:02:26Z</time>
      </trkpt>
      <trkpt lat="44.6684" lon="5.86362">
        <ele>1398.7</ele>
        <time>2014-05-09T15:02:32Z</time>
      </trkpt>
      <trkpt lat="44.66827" lon="5.86338">
        <ele>1400.6</ele>
        <time>2014-05-09T15:02:38Z</time>
      </trkpt>
      <trkpt lat="44.66817" lon="5.86313">
        <ele>1402.2</ele>
        <time>2014-05-09T15:02:44Z</time>
      </trkpt>
      <trkpt lat="44.66792" lon="5.86251">
        <ele>1406.3</ele>
        <time>2014-05-09T15:02:59Z</time>
      </trkpt>
      <trkpt lat="44.66783" lon="5.86224">
        <ele>1407.9</ele>
        <time>2014-05-09T15:03:05Z</time>
      </trkpt>
      <trkpt lat="44.66782" lon="5.86195">
        <ele>1409.8</ele>
        <time>2014-05-09T15:03:11Z</time>
      </trkpt>
      <trkpt lat="44.66787" lon="5.86181">
        <ele>1410.9</ele>
        <time>2014-05-09T15:03:14Z</time>
      </trkpt>
      <trkpt lat="44.66802" lon="5.86162">
        <ele>1412.7</ele>
        <time>2014-05-09T15:03:20Z</time>
      </trkpt>
      <trkpt lat="44.66817" lon="5.86142">
        <ele>1414.2</ele>
        <time>2014-05-09T15:03:26Z</time>
      </trkpt>
      <trkpt lat="44.66822" lon="5.86113">
        <ele>1415.4</ele>
        <time>2014-05-09T15:03:32Z</time>
      </trkpt>
      <trkpt lat="44.66822" lon="5.86096">
        <ele>1415.9</ele>
        <time>2014-05-09T15:03:35Z</time>
      </trkpt>
      <trkpt lat="44.66828" lon="5.86067">
        <ele>1417.3</ele>
        <time>2014-05-09T15:03:41Z</time>
      </trkpt>
      <trkpt lat="44.6684" lon="5.86043">
        <ele>1418.8</ele>
        <time>2014-05-09T15:03:47Z</time>
      </trkpt>
      <trkpt lat="44.66846" lon="5.86015">
        <ele>1420</ele>
        <time>2014-05-09T15:03:53Z</time>
      </trkpt>
      <trkpt lat="44.66838" lon="5.85985">
        <ele>1420.6</ele>
        <time>2014-05-09T15:03:59Z</time>
      </trkpt>
      <trkpt lat="44.66811" lon="5.85928">
        <ele>1422.4</ele>
        <time>2014-05-09T15:04:11Z</time>
      </trkpt>
      <trkpt lat="44.6679" lon="5.85884">
        <ele>1423.3</ele>
        <time>2014-05-09T15:04:20Z</time>
      </trkpt>
      <trkpt lat="44.66768" lon="5.85839">
        <ele>1424.2</ele>
        <time>2014-05-09T15:04:29Z</time>
      </trkpt>
      <trkpt lat="44.66761" lon="5.85826">
        <ele>1424.7</ele>
        <time>2014-05-09T15:04:32Z</time>
      </trkpt>
      <trkpt lat="44.66746" lon="5.85805">
        <ele>1425.6</ele>
        <time>2014-05-09T15:04:38Z</time>
      </trkpt>
      <trkpt lat="44.66726" lon="5.85794">
        <ele>1426.6</ele>
        <time>2014-05-09T15:04:44Z</time>
      </trkpt>
      <trkpt lat="44.66706" lon="5.85789">
        <ele>1427.1</ele>
        <time>2014-05-09T15:04:50Z</time>
      </trkpt>
      <trkpt lat="44.66685" lon="5.85782">
        <ele>1427.1</ele>
        <time>2014-05-09T15:04:59Z</time>
      </trkpt>
      <trkpt lat="44.66666" lon="5.85783">
        <ele>1427.3</ele>
        <time>2014-05-09T15:05:08Z</time>
      </trkpt>
      <trkpt lat="44.6665" lon="5.85779">
        <ele>1427</ele>
        <time>2014-05-09T15:08:11Z</time>
      </trkpt>
      <trkpt lat="44.66632" lon="5.85747">
        <ele>1426.5</ele>
        <time>2014-05-09T15:08:21Z</time>
      </trkpt>
      <trkpt lat="44.66623" lon="5.85718">
        <ele>1427</ele>
        <time>2014-05-09T15:08:27Z</time>
      </trkpt>
      <trkpt lat="44.66617" lon="5.85685">
        <ele>1427</ele>
        <time>2014-05-09T15:08:33Z</time>
      </trkpt>
      <trkpt lat="44.66609" lon="5.85617">
        <ele>1427.5</ele>
        <time>2014-05-09T15:08:45Z</time>
      </trkpt>
      <trkpt lat="44.66606" lon="5.85601">
        <ele>1428.1</ele>
        <time>2014-05-09T15:08:48Z</time>
      </trkpt>
      <trkpt lat="44.66592" lon="5.85576">
        <ele>1428.7</ele>
        <time>2014-05-09T15:08:54Z</time>
      </trkpt>
      <trkpt lat="44.66582" lon="5.85568">
        <ele>1429</ele>
        <time>2014-05-09T15:08:57Z</time>
      </trkpt>
      <trkpt lat="44.66559" lon="5.85553">
        <ele>1429.4</ele>
        <time>2014-05-09T15:09:03Z</time>
      </trkpt>
      <trkpt lat="44.66525" lon="5.85529">
        <ele>1428.9</ele>
        <time>2014-05-09T15:09:11Z</time>
      </trkpt>
      <trkpt lat="44.66463" lon="5.85486">
        <ele>1426.2</ele>
        <time>2014-05-09T15:09:21Z</time>
      </trkpt>
      <trkpt lat="44.66412" lon="5.85453">
        <ele>1424.2</ele>
        <time>2014-05-09T15:09:27Z</time>
      </trkpt>
      <trkpt lat="44.66395" lon="5.85442">
        <ele>1423.5</ele>
        <time>2014-05-09T15:09:29Z</time>
      </trkpt>
      <trkpt lat="44.66377" lon="5.85434">
        <ele>1423.1</ele>
        <time>2014-05-09T15:09:31Z</time>
      </trkpt>
      <trkpt lat="44.6636" lon="5.85432">
        <ele>1422.7</ele>
        <time>2014-05-09T15:09:33Z</time>
      </trkpt>
      <trkpt lat="44.66341" lon="5.85433">
        <ele>1422.1</ele>
        <time>2014-05-09T15:09:35Z</time>
      </trkpt>
      <trkpt lat="44.663" lon="5.85437">
        <ele>1420.3</ele>
        <time>2014-05-09T15:09:39Z</time>
      </trkpt>
      <trkpt lat="44.66289" lon="5.85438">
        <ele>1419.9</ele>
        <time>2014-05-09T15:09:40Z</time>
      </trkpt>
      <trkpt lat="44.66254" lon="5.85441">
        <ele>1418.7</ele>
        <time>2014-05-09T15:09:43Z</time>
      </trkpt>
      <trkpt lat="44.66218" lon="5.85443">
        <ele>1416.7</ele>
        <time>2014-05-09T15:09:46Z</time>
      </trkpt>
      <trkpt lat="44.66193" lon="5.85443">
        <ele>1414.7</ele>
        <time>2014-05-09T15:09:48Z</time>
      </trkpt>
      <trkpt lat="44.66141" lon="5.85443">
        <ele>1412.1</ele>
        <time>2014-05-09T15:09:52Z</time>
      </trkpt>
      <trkpt lat="44.66127" lon="5.85443">
        <ele>1411.4</ele>
        <time>2014-05-09T15:09:53Z</time>
      </trkpt>
      <trkpt lat="44.66072" lon="5.85442">
        <ele>1408.6</ele>
        <time>2014-05-09T15:09:57Z</time>
      </trkpt>
      <trkpt lat="44.66058" lon="5.85443">
        <ele>1407.8</ele>
        <time>2014-05-09T15:09:58Z</time>
      </trkpt>
      <trkpt lat="44.66032" lon="5.8545">
        <ele>1406.6</ele>
        <time>2014-05-09T15:10:00Z</time>
      </trkpt>
      <trkpt lat="44.66019" lon="5.85456">
        <ele>1406.3</ele>
        <time>2014-05-09T15:10:01Z</time>
      </trkpt>
      <trkpt lat="44.65968" lon="5.85486">
        <ele>1402.4</ele>
        <time>2014-05-09T15:10:05Z</time>
      </trkpt>
      <trkpt lat="44.65941" lon="5.85499">
        <ele>1399.9</ele>
        <time>2014-05-09T15:10:07Z</time>
      </trkpt>
      <trkpt lat="44.65913" lon="5.85504">
        <ele>1398.1</ele>
        <time>2014-05-09T15:10:09Z</time>
      </trkpt>
      <trkpt lat="44.65884" lon="5.85502">
        <ele>1396.9</ele>
        <time>2014-05-09T15:10:11Z</time>
      </trkpt>
      <trkpt lat="44.65855" lon="5.85496">
        <ele>1394.8</ele>
        <time>2014-05-09T15:10:13Z</time>
      </trkpt>
      <trkpt lat="44.6581" lon="5.85484">
        <ele>1392.4</ele>
        <time>2014-05-09T15:10:16Z</time>
      </trkpt>
      <trkpt lat="44.6578" lon="5.85477">
        <ele>1390.9</ele>
        <time>2014-05-09T15:10:18Z</time>
      </trkpt>
      <trkpt lat="44.65765" lon="5.85474">
        <ele>1390.4</ele>
        <time>2014-05-09T15:10:19Z</time>
      </trkpt>
      <trkpt lat="44.65735" lon="5.85471">
        <ele>1388.7</ele>
        <time>2014-05-09T15:10:21Z</time>
      </trkpt>
      <trkpt lat="44.6572" lon="5.85471">
        <ele>1387.7</ele>
        <time>2014-05-09T15:10:22Z</time>
      </trkpt>
      <trkpt lat="44.6569" lon="5.85472">
        <ele>1385.3</ele>
        <time>2014-05-09T15:10:24Z</time>
      </trkpt>
      <trkpt lat="44.6566" lon="5.8548">
        <ele>1383.5</ele>
        <time>2014-05-09T15:10:26Z</time>
      </trkpt>
      <trkpt lat="44.65634" lon="5.85497">
        <ele>1381.1</ele>
        <time>2014-05-09T15:10:28Z</time>
      </trkpt>
      <trkpt lat="44.65611" lon="5.85523">
        <ele>1379.2</ele>
        <time>2014-05-09T15:10:30Z</time>
      </trkpt>
      <trkpt lat="44.65589" lon="5.85554">
        <ele>1376.9</ele>
        <time>2014-05-09T15:10:32Z</time>
      </trkpt>
      <trkpt lat="44.65566" lon="5.85583">
        <ele>1374.1</ele>
        <time>2014-05-09T15:10:34Z</time>
      </trkpt>
      <trkpt lat="44.6554" lon="5.85604">
        <ele>1371.4</ele>
        <time>2014-05-09T15:10:36Z</time>
      </trkpt>
      <trkpt lat="44.65525" lon="5.85611">
        <ele>1370.1</ele>
        <time>2014-05-09T15:10:37Z</time>
      </trkpt>
      <trkpt lat="44.65509" lon="5.85615">
        <ele>1369.2</ele>
        <time>2014-05-09T15:10:38Z</time>
      </trkpt>
      <trkpt lat="44.65493" lon="5.85617">
        <ele>1368.2</ele>
        <time>2014-05-09T15:10:39Z</time>
      </trkpt>
      <trkpt lat="44.65443" lon="5.85621">
        <ele>1364.2</ele>
        <time>2014-05-09T15:10:42Z</time>
      </trkpt>
      <trkpt lat="44.65411" lon="5.85627">
        <ele>1361.8</ele>
        <time>2014-05-09T15:10:44Z</time>
      </trkpt>
      <trkpt lat="44.65365" lon="5.8564">
        <ele>1358.7</ele>
        <time>2014-05-09T15:10:47Z</time>
      </trkpt>
      <trkpt lat="44.65335" lon="5.85644">
        <ele>1357.1</ele>
        <time>2014-05-09T15:10:49Z</time>
      </trkpt>
      <trkpt lat="44.65306" lon="5.85643">
        <ele>1356</ele>
        <time>2014-05-09T15:10:51Z</time>
      </trkpt>
      <trkpt lat="44.65279" lon="5.85637">
        <ele>1355</ele>
        <time>2014-05-09T15:10:53Z</time>
      </trkpt>
      <trkpt lat="44.65253" lon="5.85627">
        <ele>1354.3</ele>
        <time>2014-05-09T15:10:55Z</time>
      </trkpt>
      <trkpt lat="44.65241" lon="5.8562">
        <ele>1354.1</ele>
        <time>2014-05-09T15:10:56Z</time>
      </trkpt>
      <trkpt lat="44.65219" lon="5.85605">
        <ele>1353.3</ele>
        <time>2014-05-09T15:10:58Z</time>
      </trkpt>
      <trkpt lat="44.65187" lon="5.8558">
        <ele>1352.2</ele>
        <time>2014-05-09T15:11:01Z</time>
      </trkpt>
      <trkpt lat="44.65156" lon="5.85554">
        <ele>1351.4</ele>
        <time>2014-05-09T15:11:04Z</time>
      </trkpt>
      <trkpt lat="44.65114" lon="5.8552">
        <ele>1350.7</ele>
        <time>2014-05-09T15:11:08Z</time>
      </trkpt>
      <trkpt lat="44.65069" lon="5.85485">
        <ele>1348.3</ele>
        <time>2014-05-09T15:11:12Z</time>
      </trkpt>
      <trkpt lat="44.65045" lon="5.85466">
        <ele>1347.3</ele>
        <time>2014-05-09T15:11:14Z</time>
      </trkpt>
      <trkpt lat="44.64983" lon="5.85417">
        <ele>1341</ele>
        <time>2014-05-09T15:11:19Z</time>
      </trkpt>
      <trkpt lat="44.64956" lon="5.85397">
        <ele>1338.9</ele>
        <time>2014-05-09T15:11:21Z</time>
      </trkpt>
      <trkpt lat="44.64942" lon="5.85388">
        <ele>1337.7</ele>
        <time>2014-05-09T15:11:22Z</time>
      </trkpt>
      <trkpt lat="44.64927" lon="5.85379">
        <ele>1336.6</ele>
        <time>2014-05-09T15:11:23Z</time>
      </trkpt>
      <trkpt lat="44.64912" lon="5.85372">
        <ele>1335.6</ele>
        <time>2014-05-09T15:11:24Z</time>
      </trkpt>
      <trkpt lat="44.64896" lon="5.85366">
        <ele>1334.6</ele>
        <time>2014-05-09T15:11:25Z</time>
      </trkpt>
      <trkpt lat="44.6488" lon="5.85361">
        <ele>1333.7</ele>
        <time>2014-05-09T15:11:26Z</time>
      </trkpt>
      <trkpt lat="44.64849" lon="5.85354">
        <ele>1331.6</ele>
        <time>2014-05-09T15:11:28Z</time>
      </trkpt>
      <trkpt lat="44.64784" lon="5.85339">
        <ele>1326.8</ele>
        <time>2014-05-09T15:11:32Z</time>
      </trkpt>
      <trkpt lat="44.64715" lon="5.85323">
        <ele>1321.6</ele>
        <time>2014-05-09T15:11:36Z</time>
      </trkpt>
      <trkpt lat="44.64681" lon="5.85314">
        <ele>1318.8</ele>
        <time>2014-05-09T15:11:38Z</time>
      </trkpt>
      <trkpt lat="44.64629" lon="5.85295">
        <ele>1315.2</ele>
        <time>2014-05-09T15:11:41Z</time>
      </trkpt>
      <trkpt lat="44.64562" lon="5.85271">
        <ele>1310.8</ele>
        <time>2014-05-09T15:11:45Z</time>
      </trkpt>
      <trkpt lat="44.64529" lon="5.85259">
        <ele>1308.2</ele>
        <time>2014-05-09T15:11:47Z</time>
      </trkpt>
      <trkpt lat="44.64481" lon="5.85241">
        <ele>1303.8</ele>
        <time>2014-05-09T15:11:50Z</time>
      </trkpt>
      <trkpt lat="44.64466" lon="5.85236">
        <ele>1302.8</ele>
        <time>2014-05-09T15:11:51Z</time>
      </trkpt>
      <trkpt lat="44.64451" lon="5.85229">
        <ele>1301.8</ele>
        <time>2014-05-09T15:11:52Z</time>
      </trkpt>
      <trkpt lat="44.64437" lon="5.8522">
        <ele>1300.5</ele>
        <time>2014-05-09T15:11:53Z</time>
      </trkpt>
      <trkpt lat="44.64409" lon="5.85196">
        <ele>1298.1</ele>
        <time>2014-05-09T15:11:55Z</time>
      </trkpt>
      <trkpt lat="44.64395" lon="5.85185">
        <ele>1297.2</ele>
        <time>2014-05-09T15:11:56Z</time>
      </trkpt>
      <trkpt lat="44.64379" lon="5.85175">
        <ele>1296.1</ele>
        <time>2014-05-09T15:11:57Z</time>
      </trkpt>
      <trkpt lat="44.64364" lon="5.85167">
        <ele>1295.1</ele>
        <time>2014-05-09T15:11:58Z</time>
      </trkpt>
      <trkpt lat="44.64316" lon="5.85146">
        <ele>1291</ele>
        <time>2014-05-09T15:12:01Z</time>
      </trkpt>
      <trkpt lat="44.64302" lon="5.85139">
        <ele>1289.3</ele>
        <time>2014-05-09T15:12:02Z</time>
      </trkpt>
      <trkpt lat="44.64275" lon="5.8512">
        <ele>1286.1</ele>
        <time>2014-05-09T15:12:04Z</time>
      </trkpt>
      <trkpt lat="44.64256" lon="5.85094">
        <ele>1283</ele>
        <time>2014-05-09T15:12:06Z</time>
      </trkpt>
      <trkpt lat="44.64241" lon="5.85067">
        <ele>1280.3</ele>
        <time>2014-05-09T15:12:08Z</time>
      </trkpt>
      <trkpt lat="44.64234" lon="5.85057">
        <ele>1279.2</ele>
        <time>2014-05-09T15:12:09Z</time>
      </trkpt>
      <trkpt lat="44.64216" lon="5.85049">
        <ele>1277.4</ele>
        <time>2014-05-09T15:12:11Z</time>
      </trkpt>
      <trkpt lat="44.642" lon="5.85066">
        <ele>1276.1</ele>
        <time>2014-05-09T15:12:13Z</time>
      </trkpt>
      <trkpt lat="44.64201" lon="5.85093">
        <ele>1276.6</ele>
        <time>2014-05-09T15:12:15Z</time>
      </trkpt>
      <trkpt lat="44.64208" lon="5.85105">
        <ele>1276.5</ele>
        <time>2014-05-09T15:12:16Z</time>
      </trkpt>
      <trkpt lat="44.64224" lon="5.85124">
        <ele>1274.8</ele>
        <time>2014-05-09T15:12:18Z</time>
      </trkpt>
      <trkpt lat="44.6425" lon="5.85147">
        <ele>1272.9</ele>
        <time>2014-05-09T15:12:21Z</time>
      </trkpt>
      <trkpt lat="44.6427" lon="5.85162">
        <ele>1271.4</ele>
        <time>2014-05-09T15:12:23Z</time>
      </trkpt>
      <trkpt lat="44.6428" lon="5.85171">
        <ele>1270.5</ele>
        <time>2014-05-09T15:12:24Z</time>
      </trkpt>
      <trkpt lat="44.64291" lon="5.85194">
        <ele>1268.8</ele>
        <time>2014-05-09T15:12:26Z</time>
      </trkpt>
      <trkpt lat="44.64287" lon="5.8522">
        <ele>1266.8</ele>
        <time>2014-05-09T15:12:28Z</time>
      </trkpt>
      <trkpt lat="44.6427" lon="5.85233">
        <ele>1264.7</ele>
        <time>2014-05-09T15:12:30Z</time>
      </trkpt>
      <trkpt lat="44.64259" lon="5.85232">
        <ele>1263.7</ele>
        <time>2014-05-09T15:12:31Z</time>
      </trkpt>
      <trkpt lat="44.64223" lon="5.85221">
        <ele>1259</ele>
        <time>2014-05-09T15:12:34Z</time>
      </trkpt>
      <trkpt lat="44.64171" lon="5.85201">
        <ele>1255</ele>
        <time>2014-05-09T15:12:38Z</time>
      </trkpt>
      <trkpt lat="44.64125" lon="5.85151">
        <ele>1251</ele>
        <time>2014-05-09T15:12:42Z</time>
      </trkpt>
      <trkpt lat="44.64091" lon="5.85077">
        <ele>1246</ele>
        <time>2014-05-09T15:12:46Z</time>
      </trkpt>
      <trkpt lat="44.64046" lon="5.85017">
        <ele>1241</ele>
        <time>2014-05-09T15:12:50Z</time>
      </trkpt>
      <trkpt lat="44.63985" lon="5.84984">
        <ele>1236</ele>
        <time>2014-05-09T15:12:54Z</time>
      </trkpt>
      <trkpt lat="44.63921" lon="5.84954">
        <ele>1231</ele>
        <time>2014-05-09T15:12:58Z</time>
      </trkpt>
      <trkpt lat="44.6386" lon="5.84928">
        <ele>1226</ele>
        <time>2014-05-09T15:13:02Z</time>
      </trkpt>
      <trkpt lat="44.63803" lon="5.84936">
        <ele>1221</ele>
        <time>2014-05-09T15:13:06Z</time>
      </trkpt>
      <trkpt lat="44.63765" lon="5.84972">
        <ele>1218.8</ele>
        <time>2014-05-09T15:13:09Z</time>
      </trkpt>
      <trkpt lat="44.63754" lon="5.84987">
        <ele>1217.4</ele>
        <time>2014-05-09T15:13:10Z</time>
      </trkpt>
      <trkpt lat="44.63722" lon="5.85035">
        <ele>1212.4</ele>
        <time>2014-05-09T15:13:13Z</time>
      </trkpt>
      <trkpt lat="44.63699" lon="5.85066">
        <ele>1210.3</ele>
        <time>2014-05-09T15:13:15Z</time>
      </trkpt>
      <trkpt lat="44.63688" lon="5.8508">
        <ele>1209.3</ele>
        <time>2014-05-09T15:13:16Z</time>
      </trkpt>
      <trkpt lat="44.63674" lon="5.85092">
        <ele>1207.9</ele>
        <time>2014-05-09T15:13:17Z</time>
      </trkpt>
      <trkpt lat="44.63658" lon="5.85099">
        <ele>1206.4</ele>
        <time>2014-05-09T15:13:18Z</time>
      </trkpt>
      <trkpt lat="44.63643" lon="5.85105">
        <ele>1204.7</ele>
        <time>2014-05-09T15:13:19Z</time>
      </trkpt>
      <trkpt lat="44.63611" lon="5.85105">
        <ele>1201</ele>
        <time>2014-05-09T15:13:21Z</time>
      </trkpt>
      <trkpt lat="44.63489" lon="5.8507">
        <ele>1191</ele>
        <time>2014-05-09T15:13:29Z</time>
      </trkpt>
      <trkpt lat="44.63434" lon="5.85038">
        <ele>1185</ele>
        <time>2014-05-09T15:13:33Z</time>
      </trkpt>
      <trkpt lat="44.63375" lon="5.85045">
        <ele>1180</ele>
        <time>2014-05-09T15:13:37Z</time>
      </trkpt>
      <trkpt lat="44.63331" lon="5.85042">
        <ele>1177.5</ele>
        <time>2014-05-09T15:13:40Z</time>
      </trkpt>
      <trkpt lat="44.63302" lon="5.85031">
        <ele>1175.2</ele>
        <time>2014-05-09T15:13:42Z</time>
      </trkpt>
      <trkpt lat="44.63288" lon="5.85027">
        <ele>1173.7</ele>
        <time>2014-05-09T15:13:43Z</time>
      </trkpt>
      <trkpt lat="44.63259" lon="5.85024">
        <ele>1171.6</ele>
        <time>2014-05-09T15:13:45Z</time>
      </trkpt>
      <trkpt lat="44.63244" lon="5.85025">
        <ele>1170.5</ele>
        <time>2014-05-09T15:13:46Z</time>
      </trkpt>
      <trkpt lat="44.63227" lon="5.8503">
        <ele>1169.6</ele>
        <time>2014-05-09T15:13:47Z</time>
      </trkpt>
      <trkpt lat="44.63212" lon="5.85036">
        <ele>1168.6</ele>
        <time>2014-05-09T15:13:48Z</time>
      </trkpt>
      <trkpt lat="44.63181" lon="5.85045">
        <ele>1166.2</ele>
        <time>2014-05-09T15:13:50Z</time>
      </trkpt>
      <trkpt lat="44.63151" lon="5.8505">
        <ele>1164.3</ele>
        <time>2014-05-09T15:13:52Z</time>
      </trkpt>
      <trkpt lat="44.63092" lon="5.85055">
        <ele>1160.9</ele>
        <time>2014-05-09T15:13:56Z</time>
      </trkpt>
      <trkpt lat="44.63035" lon="5.85055">
        <ele>1157.2</ele>
        <time>2014-05-09T15:14:00Z</time>
      </trkpt>
      <trkpt lat="44.63006" lon="5.85057">
        <ele>1155.7</ele>
        <time>2014-05-09T15:14:02Z</time>
      </trkpt>
      <trkpt lat="44.62976" lon="5.85061">
        <ele>1154.6</ele>
        <time>2014-05-09T15:14:04Z</time>
      </trkpt>
      <trkpt lat="44.62946" lon="5.85068">
        <ele>1153.3</ele>
        <time>2014-05-09T15:14:06Z</time>
      </trkpt>
      <trkpt lat="44.62915" lon="5.85076">
        <ele>1152.2</ele>
        <time>2014-05-09T15:14:08Z</time>
      </trkpt>
      <trkpt lat="44.62885" lon="5.85087">
        <ele>1150.5</ele>
        <time>2014-05-09T15:14:10Z</time>
      </trkpt>
      <trkpt lat="44.6284" lon="5.8511">
        <ele>1147.8</ele>
        <time>2014-05-09T15:14:13Z</time>
      </trkpt>
      <trkpt lat="44.62825" lon="5.85119">
        <ele>1146.9</ele>
        <time>2014-05-09T15:14:14Z</time>
      </trkpt>
      <trkpt lat="44.62809" lon="5.85127">
        <ele>1146.6</ele>
        <time>2014-05-09T15:14:15Z</time>
      </trkpt>
      <trkpt lat="44.62768" lon="5.85153">
        <ele>1143.6</ele>
        <time>2014-05-09T15:14:18Z</time>
      </trkpt>
      <trkpt lat="44.62743" lon="5.8517">
        <ele>1141.9</ele>
        <time>2014-05-09T15:14:20Z</time>
      </trkpt>
      <trkpt lat="44.62695" lon="5.85195">
        <ele>1135.8</ele>
        <time>2014-05-09T15:14:26Z</time>
      </trkpt>
      <trkpt lat="44.62661" lon="5.85205">
        <ele>1134.1</ele>
        <time>2014-05-09T15:14:29Z</time>
      </trkpt>
      <trkpt lat="44.62646" lon="5.85212">
        <ele>1133.5</ele>
        <time>2014-05-09T15:14:30Z</time>
      </trkpt>
      <trkpt lat="44.62559" lon="5.85249">
        <ele>1130</ele>
        <time>2014-05-09T15:14:35Z</time>
      </trkpt>
      <trkpt lat="44.62484" lon="5.85276">
        <ele>1128.1</ele>
        <time>2014-05-09T15:14:40Z</time>
      </trkpt>
      <trkpt lat="44.62455" lon="5.85285">
        <ele>1127</ele>
        <time>2014-05-09T15:14:42Z</time>
      </trkpt>
      <trkpt lat="44.62412" lon="5.85294">
        <ele>1125.2</ele>
        <time>2014-05-09T15:14:45Z</time>
      </trkpt>
      <trkpt lat="44.62389" lon="5.85308">
        <ele>1124.4</ele>
        <time>2014-05-09T15:14:47Z</time>
      </trkpt>
      <trkpt lat="44.62363" lon="5.85318">
        <ele>1123.6</ele>
        <time>2014-05-09T15:14:49Z</time>
      </trkpt>
      <trkpt lat="44.62336" lon="5.8533">
        <ele>1122.7</ele>
        <time>2014-05-09T15:14:51Z</time>
      </trkpt>
      <trkpt lat="44.62288" lon="5.85359">
        <ele>1119.9</ele>
        <time>2014-05-09T15:14:55Z</time>
      </trkpt>
      <trkpt lat="44.62275" lon="5.85365">
        <ele>1119.2</ele>
        <time>2014-05-09T15:14:56Z</time>
      </trkpt>
      <trkpt lat="44.62254" lon="5.85382">
        <ele>1118.3</ele>
        <time>2014-05-09T15:14:58Z</time>
      </trkpt>
      <trkpt lat="44.62241" lon="5.85389">
        <ele>1118</ele>
        <time>2014-05-09T15:14:59Z</time>
      </trkpt>
      <trkpt lat="44.6219" lon="5.85413">
        <ele>1115.9</ele>
        <time>2014-05-09T15:15:03Z</time>
      </trkpt>
      <trkpt lat="44.62139" lon="5.85438">
        <ele>1113.8</ele>
        <time>2014-05-09T15:15:07Z</time>
      </trkpt>
      <trkpt lat="44.62112" lon="5.85447">
        <ele>1112.6</ele>
        <time>2014-05-09T15:15:09Z</time>
      </trkpt>
      <trkpt lat="44.62087" lon="5.85457">
        <ele>1111.7</ele>
        <time>2014-05-09T15:15:11Z</time>
      </trkpt>
      <trkpt lat="44.62078" lon="5.85461">
        <ele>1111.6</ele>
        <time>2014-05-09T15:15:12Z</time>
      </trkpt>
      <trkpt lat="44.62052" lon="5.8547">
        <ele>1111.2</ele>
        <time>2014-05-09T15:15:14Z</time>
      </trkpt>
      <trkpt lat="44.6204" lon="5.85475">
        <ele>1110.4</ele>
        <time>2014-05-09T15:15:15Z</time>
      </trkpt>
      <trkpt lat="44.6199" lon="5.85494">
        <ele>1108.1</ele>
        <time>2014-05-09T15:15:19Z</time>
      </trkpt>
      <trkpt lat="44.61978" lon="5.85499">
        <ele>1107.9</ele>
        <time>2014-05-09T15:15:20Z</time>
      </trkpt>
      <trkpt lat="44.61929" lon="5.85518">
        <ele>1105.7</ele>
        <time>2014-05-09T15:15:24Z</time>
      </trkpt>
      <trkpt lat="44.61892" lon="5.85533">
        <ele>1104.4</ele>
        <time>2014-05-09T15:15:27Z</time>
      </trkpt>
      <trkpt lat="44.61829" lon="5.85558">
        <ele>1102.7</ele>
        <time>2014-05-09T15:15:32Z</time>
      </trkpt>
      <trkpt lat="44.61804" lon="5.85569">
        <ele>1101.4</ele>
        <time>2014-05-09T15:15:34Z</time>
      </trkpt>
      <trkpt lat="44.61791" lon="5.85576">
        <ele>1100.8</ele>
        <time>2014-05-09T15:15:35Z</time>
      </trkpt>
      <trkpt lat="44.61741" lon="5.85602">
        <ele>1099.2</ele>
        <time>2014-05-09T15:15:39Z</time>
      </trkpt>
      <trkpt lat="44.61703" lon="5.85622">
        <ele>1097.8</ele>
        <time>2014-05-09T15:15:42Z</time>
      </trkpt>
      <trkpt lat="44.61655" lon="5.85645">
        <ele>1096.7</ele>
        <time>2014-05-09T15:15:46Z</time>
      </trkpt>
      <trkpt lat="44.61632" lon="5.85654">
        <ele>1096.3</ele>
        <time>2014-05-09T15:15:48Z</time>
      </trkpt>
      <trkpt lat="44.61614" lon="5.85659">
        <ele>1096.5</ele>
        <time>2014-05-09T15:15:50Z</time>
      </trkpt>
      <trkpt lat="44.61554" lon="5.85673">
        <ele>1095.8</ele>
        <time>2014-05-09T15:15:56Z</time>
      </trkpt>
      <trkpt lat="44.61528" lon="5.85673">
        <ele>1095.8</ele>
        <time>2014-05-09T15:15:58Z</time>
      </trkpt>
      <trkpt lat="44.61515" lon="5.8567">
        <ele>1095.8</ele>
        <time>2014-05-09T15:15:59Z</time>
      </trkpt>
      <trkpt lat="44.6148" lon="5.85665">
        <ele>1095.9</ele>
        <time>2014-05-09T15:16:02Z</time>
      </trkpt>
      <trkpt lat="44.61462" lon="5.85661">
        <ele>1096.4</ele>
        <time>2014-05-09T15:16:04Z</time>
      </trkpt>
      <trkpt lat="44.61434" lon="5.8566">
        <ele>1096.7</ele>
        <time>2014-05-09T15:16:07Z</time>
      </trkpt>
      <trkpt lat="44.61424" lon="5.85661">
        <ele>1096.5</ele>
        <time>2014-05-09T15:16:08Z</time>
      </trkpt>
      <trkpt lat="44.61405" lon="5.85666">
        <ele>1096.2</ele>
        <time>2014-05-09T15:16:10Z</time>
      </trkpt>
      <trkpt lat="44.61363" lon="5.85695">
        <ele>1094.9</ele>
        <time>2014-05-09T15:16:14Z</time>
      </trkpt>
      <trkpt lat="44.61354" lon="5.85705">
        <ele>1094.4</ele>
        <time>2014-05-09T15:16:15Z</time>
      </trkpt>
      <trkpt lat="44.61334" lon="5.85723">
        <ele>1093.7</ele>
        <time>2014-05-09T15:16:17Z</time>
      </trkpt>
      <trkpt lat="44.61329" lon="5.85734">
        <ele>1093.3</ele>
        <time>2014-05-09T15:16:18Z</time>
      </trkpt>
      <trkpt lat="44.61311" lon="5.85751">
        <ele>1092.6</ele>
        <time>2014-05-09T15:16:20Z</time>
      </trkpt>
      <trkpt lat="44.61271" lon="5.85782">
        <ele>1091.3</ele>
        <time>2014-05-09T15:16:25Z</time>
      </trkpt>
      <trkpt lat="44.6126" lon="5.85795">
        <ele>1090.8</ele>
        <time>2014-05-09T15:16:27Z</time>
      </trkpt>
      <trkpt lat="44.61244" lon="5.85805">
        <ele>1090.1</ele>
        <time>2014-05-09T15:16:29Z</time>
      </trkpt>
      <trkpt lat="44.61231" lon="5.85816">
        <ele>1089.3</ele>
        <time>2014-05-09T15:16:31Z</time>
      </trkpt>
      <trkpt lat="44.61194" lon="5.8583">
        <ele>1088.3</ele>
        <time>2014-05-09T15:16:35Z</time>
      </trkpt>
      <trkpt lat="44.61166" lon="5.85834">
        <ele>1087.8</ele>
        <time>2014-05-09T15:16:37Z</time>
      </trkpt>
      <trkpt lat="44.61143" lon="5.85842">
        <ele>1086.9</ele>
        <time>2014-05-09T15:16:39Z</time>
      </trkpt>
      <trkpt lat="44.61119" lon="5.85846">
        <ele>1086.3</ele>
        <time>2014-05-09T15:16:41Z</time>
      </trkpt>
      <trkpt lat="44.61103" lon="5.85847">
        <ele>1085.9</ele>
        <time>2014-05-09T15:16:42Z</time>
      </trkpt>
      <trkpt lat="44.61074" lon="5.85844">
        <ele>1085.2</ele>
        <time>2014-05-09T15:16:44Z</time>
      </trkpt>
      <trkpt lat="44.61051" lon="5.85835">
        <ele>1084.3</ele>
        <time>2014-05-09T15:16:46Z</time>
      </trkpt>
      <trkpt lat="44.6103" lon="5.85818">
        <ele>1083.2</ele>
        <time>2014-05-09T15:16:48Z</time>
      </trkpt>
      <trkpt lat="44.6101" lon="5.85798">
        <ele>1082</ele>
        <time>2014-05-09T15:16:50Z</time>
      </trkpt>
      <trkpt lat="44.60885" lon="5.85746">
        <ele>1077</ele>
        <time>2014-05-09T15:17:00Z</time>
      </trkpt>
      <trkpt lat="44.60769" lon="5.85735">
        <ele>1069</ele>
        <time>2014-05-09T15:17:09Z</time>
      </trkpt>
      <trkpt lat="44.60717" lon="5.85748">
        <ele>1065</ele>
        <time>2014-05-09T15:17:13Z</time>
      </trkpt>
      <trkpt lat="44.60665" lon="5.85742">
        <ele>1060</ele>
        <time>2014-05-09T15:17:17Z</time>
      </trkpt>
      <trkpt lat="44.60612" lon="5.85759">
        <ele>1056</ele>
        <time>2014-05-09T15:17:21Z</time>
      </trkpt>
      <trkpt lat="44.60557" lon="5.8578">
        <ele>1053</ele>
        <time>2014-05-09T15:17:25Z</time>
      </trkpt>
      <trkpt lat="44.60498" lon="5.85787">
        <ele>1049</ele>
        <time>2014-05-09T15:17:29Z</time>
      </trkpt>
      <trkpt lat="44.60264" lon="5.85791">
        <ele>1035</ele>
        <time>2014-05-09T15:17:45Z</time>
      </trkpt>
      <trkpt lat="44.60019" lon="5.8579">
        <ele>1019</ele>
        <time>2014-05-09T15:18:01Z</time>
      </trkpt>
      <trkpt lat="44.5981" lon="5.85793">
        <ele>1010</ele>
        <time>2014-05-09T15:18:17Z</time>
      </trkpt>
      <trkpt lat="44.59623" lon="5.85802">
        <ele>1004</ele>
        <time>2014-05-09T15:18:33Z</time>
      </trkpt>
      <trkpt lat="44.59577" lon="5.85803">
        <ele>1002</ele>
        <time>2014-05-09T15:18:37Z</time>
      </trkpt>
      <trkpt lat="44.59486" lon="5.85794">
        <ele>999</ele>
        <time>2014-05-09T15:18:45Z</time>
      </trkpt>
      <trkpt lat="44.59445" lon="5.85769">
        <ele>998</ele>
        <time>2014-05-09T15:18:49Z</time>
      </trkpt>
      <trkpt lat="44.59409" lon="5.85731">
        <ele>996</ele>
        <time>2014-05-09T15:18:53Z</time>
      </trkpt>
      <trkpt lat="44.59341" lon="5.8564">
        <ele>994.4</ele>
        <time>2014-05-09T15:19:02Z</time>
      </trkpt>
      <trkpt lat="44.59308" lon="5.85595">
        <ele>992.2</ele>
        <time>2014-05-09T15:19:06Z</time>
      </trkpt>
      <trkpt lat="44.59291" lon="5.85574">
        <ele>991.6</ele>
        <time>2014-05-09T15:19:08Z</time>
      </trkpt>
      <trkpt lat="44.59272" lon="5.85555">
        <ele>990.9</ele>
        <time>2014-05-09T15:19:10Z</time>
      </trkpt>
      <trkpt lat="44.59252" lon="5.8554">
        <ele>990</ele>
        <time>2014-05-09T15:19:12Z</time>
      </trkpt>
      <trkpt lat="44.59229" lon="5.85529">
        <ele>988.7</ele>
        <time>2014-05-09T15:19:14Z</time>
      </trkpt>
      <trkpt lat="44.59206" lon="5.85523">
        <ele>987.8</ele>
        <time>2014-05-09T15:19:16Z</time>
      </trkpt>
      <trkpt lat="44.59182" lon="5.85522">
        <ele>986.9</ele>
        <time>2014-05-09T15:19:18Z</time>
      </trkpt>
      <trkpt lat="44.59169" lon="5.85522">
        <ele>986.6</ele>
        <time>2014-05-09T15:19:19Z</time>
      </trkpt>
      <trkpt lat="44.59144" lon="5.85525">
        <ele>986</ele>
        <time>2014-05-09T15:19:21Z</time>
      </trkpt>
      <trkpt lat="44.59119" lon="5.8553">
        <ele>985.2</ele>
        <time>2014-05-09T15:19:23Z</time>
      </trkpt>
      <trkpt lat="44.59082" lon="5.85538">
        <ele>984.7</ele>
        <time>2014-05-09T15:19:26Z</time>
      </trkpt>
      <trkpt lat="44.59057" lon="5.85543">
        <ele>983.6</ele>
        <time>2014-05-09T15:19:28Z</time>
      </trkpt>
      <trkpt lat="44.5902" lon="5.8555">
        <ele>982.6</ele>
        <time>2014-05-09T15:19:31Z</time>
      </trkpt>
      <trkpt lat="44.58982" lon="5.85558">
        <ele>981.7</ele>
        <time>2014-05-09T15:19:34Z</time>
      </trkpt>
      <trkpt lat="44.58934" lon="5.85568">
        <ele>980.1</ele>
        <time>2014-05-09T15:19:38Z</time>
      </trkpt>
      <trkpt lat="44.5891" lon="5.85573">
        <ele>979.1</ele>
        <time>2014-05-09T15:19:40Z</time>
      </trkpt>
      <trkpt lat="44.58847" lon="5.85586">
        <ele>977</ele>
        <time>2014-05-09T15:19:45Z</time>
      </trkpt>
      <trkpt lat="44.58799" lon="5.85595">
        <ele>975.9</ele>
        <time>2014-05-09T15:19:49Z</time>
      </trkpt>
      <trkpt lat="44.58776" lon="5.856">
        <ele>975.8</ele>
        <time>2014-05-09T15:19:51Z</time>
      </trkpt>
      <trkpt lat="44.5873" lon="5.85605">
        <ele>975</ele>
        <time>2014-05-09T15:19:55Z</time>
      </trkpt>
      <trkpt lat="44.58719" lon="5.85605">
        <ele>974.6</ele>
        <time>2014-05-09T15:19:56Z</time>
      </trkpt>
      <trkpt lat="44.58696" lon="5.85605">
        <ele>973.4</ele>
        <time>2014-05-09T15:19:58Z</time>
      </trkpt>
      <trkpt lat="44.58673" lon="5.85603">
        <ele>972.8</ele>
        <time>2014-05-09T15:20:00Z</time>
      </trkpt>
      <trkpt lat="44.58661" lon="5.85601">
        <ele>972.4</ele>
        <time>2014-05-09T15:20:01Z</time>
      </trkpt>
      <trkpt lat="44.58626" lon="5.85595">
        <ele>970</ele>
        <time>2014-05-09T15:20:04Z</time>
      </trkpt>
      <trkpt lat="44.58421" lon="5.85556">
        <ele>963</ele>
        <time>2014-05-09T15:20:20Z</time>
      </trkpt>
      <trkpt lat="44.5837" lon="5.85547">
        <ele>960</ele>
        <time>2014-05-09T15:20:24Z</time>
      </trkpt>
      <trkpt lat="44.58226" lon="5.85521">
        <ele>956.5</ele>
        <time>2014-05-09T15:20:36Z</time>
      </trkpt>
      <trkpt lat="44.58214" lon="5.85519">
        <ele>956.1</ele>
        <time>2014-05-09T15:20:37Z</time>
      </trkpt>
      <trkpt lat="44.58166" lon="5.8551">
        <ele>954.1</ele>
        <time>2014-05-09T15:20:41Z</time>
      </trkpt>
      <trkpt lat="44.58119" lon="5.85502">
        <ele>952.3</ele>
        <time>2014-05-09T15:20:45Z</time>
      </trkpt>
      <trkpt lat="44.58072" lon="5.85493">
        <ele>951.4</ele>
        <time>2014-05-09T15:20:49Z</time>
      </trkpt>
      <trkpt lat="44.58025" lon="5.85484">
        <ele>949.6</ele>
        <time>2014-05-09T15:20:53Z</time>
      </trkpt>
      <trkpt lat="44.58013" lon="5.85481">
        <ele>949.3</ele>
        <time>2014-05-09T15:20:54Z</time>
      </trkpt>
      <trkpt lat="44.5799" lon="5.85473">
        <ele>948.6</ele>
        <time>2014-05-09T15:20:56Z</time>
      </trkpt>
      <trkpt lat="44.57967" lon="5.85462">
        <ele>948.1</ele>
        <time>2014-05-09T15:20:58Z</time>
      </trkpt>
      <trkpt lat="44.57946" lon="5.85448">
        <ele>947.7</ele>
        <time>2014-05-09T15:21:00Z</time>
      </trkpt>
      <trkpt lat="44.57926" lon="5.85432">
        <ele>947.2</ele>
        <time>2014-05-09T15:21:02Z</time>
      </trkpt>
      <trkpt lat="44.57906" lon="5.85418">
        <ele>945.8</ele>
        <time>2014-05-09T15:21:04Z</time>
      </trkpt>
      <trkpt lat="44.57885" lon="5.85409">
        <ele>943</ele>
        <time>2014-05-09T15:21:06Z</time>
      </trkpt>
      <trkpt lat="44.5784" lon="5.85402">
        <ele>942</ele>
        <time>2014-05-09T15:21:10Z</time>
      </trkpt>
      <trkpt lat="44.57793" lon="5.85417">
        <ele>940</ele>
        <time>2014-05-09T15:21:14Z</time>
      </trkpt>
      <trkpt lat="44.57747" lon="5.85445">
        <ele>939</ele>
        <time>2014-05-09T15:21:18Z</time>
      </trkpt>
      <trkpt lat="44.57702" lon="5.85477">
        <ele>938</ele>
        <time>2014-05-09T15:21:22Z</time>
      </trkpt>
      <trkpt lat="44.57659" lon="5.85513">
        <ele>937</ele>
        <time>2014-05-09T15:21:26Z</time>
      </trkpt>
      <trkpt lat="44.57623" lon="5.85552">
        <ele>937</ele>
        <time>2014-05-09T15:21:30Z</time>
      </trkpt>
      <trkpt lat="44.576" lon="5.85593">
        <ele>936</ele>
        <time>2014-05-09T15:21:34Z</time>
      </trkpt>
      <trkpt lat="44.57573" lon="5.85619">
        <ele>937</ele>
        <time>2014-05-09T15:21:38Z</time>
      </trkpt>
      <trkpt lat="44.57549" lon="5.85646">
        <ele>937</ele>
        <time>2014-05-09T15:21:42Z</time>
      </trkpt>
      <trkpt lat="44.57477" lon="5.85729">
        <ele>935.5</ele>
        <time>2014-05-09T15:21:53Z</time>
      </trkpt>
      <trkpt lat="44.57465" lon="5.85745">
        <ele>935.2</ele>
        <time>2014-05-09T15:21:55Z</time>
      </trkpt>
      <trkpt lat="44.57453" lon="5.85762">
        <ele>935.1</ele>
        <time>2014-05-09T15:21:57Z</time>
      </trkpt>
      <trkpt lat="44.57426" lon="5.85809">
        <ele>935.7</ele>
        <time>2014-05-09T15:22:02Z</time>
      </trkpt>
      <trkpt lat="44.57416" lon="5.85828">
        <ele>935</ele>
        <time>2014-05-09T15:22:04Z</time>
      </trkpt>
      <trkpt lat="44.57403" lon="5.85857">
        <ele>935.4</ele>
        <time>2014-05-09T15:22:07Z</time>
      </trkpt>
      <trkpt lat="44.57393" lon="5.85875">
        <ele>935.1</ele>
        <time>2014-05-09T15:22:09Z</time>
      </trkpt>
      <trkpt lat="44.57378" lon="5.85903">
        <ele>933</ele>
        <time>2014-05-09T15:22:12Z</time>
      </trkpt>
      <trkpt lat="44.57361" lon="5.8593">
        <ele>934</ele>
        <time>2014-05-09T15:22:15Z</time>
      </trkpt>
      <trkpt lat="44.57349" lon="5.85945">
        <ele>934.3</ele>
        <time>2014-05-09T15:22:17Z</time>
      </trkpt>
      <trkpt lat="44.57338" lon="5.8596">
        <ele>934.3</ele>
        <time>2014-05-09T15:22:19Z</time>
      </trkpt>
      <trkpt lat="44.57314" lon="5.85988">
        <ele>934.4</ele>
        <time>2014-05-09T15:22:23Z</time>
      </trkpt>
      <trkpt lat="44.57289" lon="5.86016">
        <ele>933.8</ele>
        <time>2014-05-09T15:22:27Z</time>
      </trkpt>
      <trkpt lat="44.57264" lon="5.86046">
        <ele>934.3</ele>
        <time>2014-05-09T15:22:31Z</time>
      </trkpt>
      <trkpt lat="44.57239" lon="5.86074">
        <ele>933.6</ele>
        <time>2014-05-09T15:22:35Z</time>
      </trkpt>
      <trkpt lat="44.57226" lon="5.86085">
        <ele>933</ele>
        <time>2014-05-09T15:22:37Z</time>
      </trkpt>
      <trkpt lat="44.57181" lon="5.8612">
        <ele>934.4</ele>
        <time>2014-05-09T15:22:44Z</time>
      </trkpt>
      <trkpt lat="44.57145" lon="5.86153">
        <ele>936.3</ele>
        <time>2014-05-09T15:22:50Z</time>
      </trkpt>
      <trkpt lat="44.57112" lon="5.86224">
        <ele>936.3</ele>
        <time>2014-05-09T15:22:58Z</time>
      </trkpt>
      <trkpt lat="44.57102" lon="5.86242">
        <ele>935.9</ele>
        <time>2014-05-09T15:23:00Z</time>
      </trkpt>
      <trkpt lat="44.57093" lon="5.86261">
        <ele>935.2</ele>
        <time>2014-05-09T15:23:02Z</time>
      </trkpt>
      <trkpt lat="44.57085" lon="5.86282">
        <ele>934.5</ele>
        <time>2014-05-09T15:23:04Z</time>
      </trkpt>
      <trkpt lat="44.57078" lon="5.86304">
        <ele>933.8</ele>
        <time>2014-05-09T15:23:06Z</time>
      </trkpt>
      <trkpt lat="44.57061" lon="5.86374">
        <ele>932.7</ele>
        <time>2014-05-09T15:23:12Z</time>
      </trkpt>
      <trkpt lat="44.57056" lon="5.86397">
        <ele>932.5</ele>
        <time>2014-05-09T15:23:14Z</time>
      </trkpt>
      <trkpt lat="44.57054" lon="5.8642">
        <ele>932.5</ele>
        <time>2014-05-09T15:23:16Z</time>
      </trkpt>
      <trkpt lat="44.57052" lon="5.86444">
        <ele>932.6</ele>
        <time>2014-05-09T15:23:18Z</time>
      </trkpt>
      <trkpt lat="44.57054" lon="5.86506">
        <ele>931.9</ele>
        <time>2014-05-09T15:23:23Z</time>
      </trkpt>
      <trkpt lat="44.57051" lon="5.86545">
        <ele>931.7</ele>
        <time>2014-05-09T15:23:26Z</time>
      </trkpt>
      <trkpt lat="44.57048" lon="5.86572">
        <ele>931</ele>
        <time>2014-05-09T15:23:28Z</time>
      </trkpt>
      <trkpt lat="44.57047" lon="5.866">
        <ele>930.2</ele>
        <time>2014-05-09T15:23:30Z</time>
      </trkpt>
      <trkpt lat="44.57048" lon="5.86615">
        <ele>929.5</ele>
        <time>2014-05-09T15:23:31Z</time>
      </trkpt>
      <trkpt lat="44.5705" lon="5.86644">
        <ele>928.1</ele>
        <time>2014-05-09T15:23:33Z</time>
      </trkpt>
      <trkpt lat="44.57051" lon="5.8666">
        <ele>927.4</ele>
        <time>2014-05-09T15:23:34Z</time>
      </trkpt>
      <trkpt lat="44.57051" lon="5.86692">
        <ele>926.5</ele>
        <time>2014-05-09T15:23:36Z</time>
      </trkpt>
      <trkpt lat="44.5705" lon="5.86707">
        <ele>926</ele>
        <time>2014-05-09T15:23:37Z</time>
      </trkpt>
      <trkpt lat="44.57048" lon="5.86772">
        <ele>923.5</ele>
        <time>2014-05-09T15:23:41Z</time>
      </trkpt>
      <trkpt lat="44.57044" lon="5.86803">
        <ele>922.4</ele>
        <time>2014-05-09T15:23:43Z</time>
      </trkpt>
      <trkpt lat="44.57039" lon="5.86833">
        <ele>921.8</ele>
        <time>2014-05-09T15:23:45Z</time>
      </trkpt>
      <trkpt lat="44.57037" lon="5.86849">
        <ele>921.1</ele>
        <time>2014-05-09T15:23:46Z</time>
      </trkpt>
      <trkpt lat="44.57032" lon="5.86879">
        <ele>919.8</ele>
        <time>2014-05-09T15:23:48Z</time>
      </trkpt>
      <trkpt lat="44.57028" lon="5.86908">
        <ele>919</ele>
        <time>2014-05-09T15:23:50Z</time>
      </trkpt>
      <trkpt lat="44.57027" lon="5.86937">
        <ele>918.2</ele>
        <time>2014-05-09T15:23:52Z</time>
      </trkpt>
      <trkpt lat="44.5703" lon="5.86965">
        <ele>917.1</ele>
        <time>2014-05-09T15:23:54Z</time>
      </trkpt>
      <trkpt lat="44.57035" lon="5.86992">
        <ele>916.3</ele>
        <time>2014-05-09T15:23:56Z</time>
      </trkpt>
      <trkpt lat="44.57047" lon="5.87058">
        <ele>914.5</ele>
        <time>2014-05-09T15:24:01Z</time>
      </trkpt>
      <trkpt lat="44.57047" lon="5.87084">
        <ele>913.9</ele>
        <time>2014-05-09T15:24:03Z</time>
      </trkpt>
      <trkpt lat="44.57049" lon="5.87108">
        <ele>913.9</ele>
        <time>2014-05-09T15:24:05Z</time>
      </trkpt>
      <trkpt lat="44.57052" lon="5.8713">
        <ele>914.2</ele>
        <time>2014-05-09T15:24:07Z</time>
      </trkpt>
      <trkpt lat="44.57052" lon="5.87169">
        <ele>914.3</ele>
        <time>2014-05-09T15:24:11Z</time>
      </trkpt>
      <trkpt lat="44.57056" lon="5.8724">
        <ele>914.7</ele>
        <time>2014-05-09T15:24:19Z</time>
      </trkpt>
      <trkpt lat="44.57058" lon="5.87257">
        <ele>914.7</ele>
        <time>2014-05-09T15:24:21Z</time>
      </trkpt>
      <trkpt lat="44.57059" lon="5.87287">
        <ele>914.8</ele>
        <time>2014-05-09T15:24:25Z</time>
      </trkpt>
      <trkpt lat="44.57063" lon="5.87318">
        <ele>915.2</ele>
        <time>2014-05-09T15:24:29Z</time>
      </trkpt>
      <trkpt lat="44.57063" lon="5.87333">
        <ele>915.7</ele>
        <time>2014-05-09T15:24:31Z</time>
      </trkpt>
      <trkpt lat="44.57065" lon="5.87365">
        <ele>916.4</ele>
        <time>2014-05-09T15:24:35Z</time>
      </trkpt>
      <trkpt lat="44.57064" lon="5.87394">
        <ele>917.2</ele>
        <time>2014-05-09T15:24:39Z</time>
      </trkpt>
      <trkpt lat="44.57062" lon="5.87409">
        <ele>917.9</ele>
        <time>2014-05-09T15:24:41Z</time>
      </trkpt>
      <trkpt lat="44.57056" lon="5.87439">
        <ele>918.8</ele>
        <time>2014-05-09T15:24:45Z</time>
      </trkpt>
      <trkpt lat="44.57053" lon="5.87471">
        <ele>918.6</ele>
        <time>2014-05-09T15:24:49Z</time>
      </trkpt>
      <trkpt lat="44.57048" lon="5.87488">
        <ele>918.3</ele>
        <time>2014-05-09T15:24:51Z</time>
      </trkpt>
      <trkpt lat="44.57015" lon="5.87582">
        <ele>916.5</ele>
        <time>2014-05-09T15:25:01Z</time>
      </trkpt>
      <trkpt lat="44.56993" lon="5.87642">
        <ele>915.5</ele>
        <time>2014-05-09T15:25:07Z</time>
      </trkpt>
      <trkpt lat="44.5698" lon="5.87681">
        <ele>915.5</ele>
        <time>2014-05-09T15:25:11Z</time>
      </trkpt>
      <trkpt lat="44.56957" lon="5.87744">
        <ele>917.2</ele>
        <time>2014-05-09T15:25:19Z</time>
      </trkpt>
      <trkpt lat="44.56942" lon="5.87787">
        <ele>919.1</ele>
        <time>2014-05-09T15:25:25Z</time>
      </trkpt>
      <trkpt lat="44.56933" lon="5.87823">
        <ele>918.9</ele>
        <time>2014-05-09T15:25:29Z</time>
      </trkpt>
      <trkpt lat="44.56929" lon="5.87844">
        <ele>918.4</ele>
        <time>2014-05-09T15:25:31Z</time>
      </trkpt>
      <trkpt lat="44.56926" lon="5.87867">
        <ele>917.8</ele>
        <time>2014-05-09T15:25:33Z</time>
      </trkpt>
      <trkpt lat="44.56924" lon="5.87889">
        <ele>917.4</ele>
        <time>2014-05-09T15:25:35Z</time>
      </trkpt>
      <trkpt lat="44.56924" lon="5.87934">
        <ele>917.1</ele>
        <time>2014-05-09T15:25:39Z</time>
      </trkpt>
      <trkpt lat="44.56909" lon="5.87971">
        <ele>916.4</ele>
        <time>2014-05-09T15:25:43Z</time>
      </trkpt>
      <trkpt lat="44.56885" lon="5.87993">
        <ele>916.9</ele>
        <time>2014-05-09T15:25:47Z</time>
      </trkpt>
      <trkpt lat="44.56861" lon="5.88011">
        <ele>917.1</ele>
        <time>2014-05-09T15:25:51Z</time>
      </trkpt>
      <trkpt lat="44.56838" lon="5.88036">
        <ele>916.7</ele>
        <time>2014-05-09T15:25:55Z</time>
      </trkpt>
      <trkpt lat="44.56828" lon="5.88051">
        <ele>916.6</ele>
        <time>2014-05-09T15:25:57Z</time>
      </trkpt>
      <trkpt lat="44.5681" lon="5.88084">
        <ele>916.3</ele>
        <time>2014-05-09T15:26:01Z</time>
      </trkpt>
      <trkpt lat="44.56802" lon="5.88101">
        <ele>916.1</ele>
        <time>2014-05-09T15:26:03Z</time>
      </trkpt>
      <trkpt lat="44.56791" lon="5.88136">
        <ele>916.5</ele>
        <time>2014-05-09T15:26:07Z</time>
      </trkpt>
      <trkpt lat="44.5679" lon="5.88197">
        <ele>916.1</ele>
        <time>2014-05-09T15:26:13Z</time>
      </trkpt>
      <trkpt lat="44.5678" lon="5.88277">
        <ele>915.5</ele>
        <time>2014-05-09T15:26:21Z</time>
      </trkpt>
      <trkpt lat="44.56774" lon="5.88313">
        <ele>915.5</ele>
        <time>2014-05-09T15:26:25Z</time>
      </trkpt>
      <trkpt lat="44.5677" lon="5.88348">
        <ele>916.1</ele>
        <time>2014-05-09T15:26:29Z</time>
      </trkpt>
      <trkpt lat="44.56769" lon="5.88364">
        <ele>916.8</ele>
        <time>2014-05-09T15:26:31Z</time>
      </trkpt>
      <trkpt lat="44.56767" lon="5.88397">
        <ele>917.3</ele>
        <time>2014-05-09T15:26:35Z</time>
      </trkpt>
      <trkpt lat="44.56752" lon="5.8843">
        <ele>916.4</ele>
        <time>2014-05-09T15:26:39Z</time>
      </trkpt>
      <trkpt lat="44.56738" lon="5.88444">
        <ele>915.5</ele>
        <time>2014-05-09T15:26:41Z</time>
      </trkpt>
      <trkpt lat="44.56722" lon="5.88458">
        <ele>914.7</ele>
        <time>2014-05-09T15:26:43Z</time>
      </trkpt>
      <trkpt lat="44.5668" lon="5.88497">
        <ele>912.2</ele>
        <time>2014-05-09T15:26:48Z</time>
      </trkpt>
      <trkpt lat="44.56671" lon="5.88505">
        <ele>911.5</ele>
        <time>2014-05-09T15:26:49Z</time>
      </trkpt>
      <trkpt lat="44.56634" lon="5.88539">
        <ele>909</ele>
        <time>2014-05-09T15:26:53Z</time>
      </trkpt>
      <trkpt lat="44.56615" lon="5.88556">
        <ele>908.5</ele>
        <time>2014-05-09T15:26:55Z</time>
      </trkpt>
      <trkpt lat="44.56586" lon="5.88582">
        <ele>906.9</ele>
        <time>2014-05-09T15:26:58Z</time>
      </trkpt>
      <trkpt lat="44.56557" lon="5.88608">
        <ele>905.5</ele>
        <time>2014-05-09T15:27:01Z</time>
      </trkpt>
      <trkpt lat="44.56518" lon="5.88645">
        <ele>903.5</ele>
        <time>2014-05-09T15:27:05Z</time>
      </trkpt>
      <trkpt lat="44.56479" lon="5.88681">
        <ele>901.8</ele>
        <time>2014-05-09T15:27:09Z</time>
      </trkpt>
      <trkpt lat="44.56469" lon="5.8869">
        <ele>901.3</ele>
        <time>2014-05-09T15:27:10Z</time>
      </trkpt>
      <trkpt lat="44.5643" lon="5.88727">
        <ele>899.5</ele>
        <time>2014-05-09T15:27:14Z</time>
      </trkpt>
      <trkpt lat="44.56401" lon="5.88754">
        <ele>898.1</ele>
        <time>2014-05-09T15:27:17Z</time>
      </trkpt>
      <trkpt lat="44.56381" lon="5.88772">
        <ele>896.7</ele>
        <time>2014-05-09T15:27:19Z</time>
      </trkpt>
      <trkpt lat="44.56352" lon="5.88798">
        <ele>895.5</ele>
        <time>2014-05-09T15:27:22Z</time>
      </trkpt>
      <trkpt lat="44.56324" lon="5.88825">
        <ele>893.6</ele>
        <time>2014-05-09T15:27:25Z</time>
      </trkpt>
      <trkpt lat="44.56286" lon="5.88859">
        <ele>891.6</ele>
        <time>2014-05-09T15:27:29Z</time>
      </trkpt>
      <trkpt lat="44.56268" lon="5.88875">
        <ele>890.5</ele>
        <time>2014-05-09T15:27:31Z</time>
      </trkpt>
      <trkpt lat="44.56251" lon="5.88892">
        <ele>889.3</ele>
        <time>2014-05-09T15:27:33Z</time>
      </trkpt>
      <trkpt lat="44.56233" lon="5.88908">
        <ele>888.3</ele>
        <time>2014-05-09T15:27:35Z</time>
      </trkpt>
      <trkpt lat="44.56195" lon="5.88942">
        <ele>885.8</ele>
        <time>2014-05-09T15:27:40Z</time>
      </trkpt>
      <trkpt lat="44.56183" lon="5.88949">
        <ele>885</ele>
        <time>2014-05-09T15:27:42Z</time>
      </trkpt>
      <trkpt lat="44.56165" lon="5.88964">
        <ele>883.2</ele>
        <time>2014-05-09T15:27:48Z</time>
      </trkpt>
      <trkpt lat="44.56166" lon="5.88992">
        <ele>882.4</ele>
        <time>2014-05-09T15:27:52Z</time>
      </trkpt>
      <trkpt lat="44.56172" lon="5.89025">
        <ele>881.5</ele>
        <time>2014-05-09T15:27:56Z</time>
      </trkpt>
      <trkpt lat="44.56179" lon="5.89065">
        <ele>880.8</ele>
        <time>2014-05-09T15:28:00Z</time>
      </trkpt>
      <trkpt lat="44.56181" lon="5.89086">
        <ele>880.4</ele>
        <time>2014-05-09T15:28:02Z</time>
      </trkpt>
      <trkpt lat="44.56186" lon="5.8913">
        <ele>879.9</ele>
        <time>2014-05-09T15:28:06Z</time>
      </trkpt>
      <trkpt lat="44.56187" lon="5.89152">
        <ele>879.7</ele>
        <time>2014-05-09T15:28:08Z</time>
      </trkpt>
      <trkpt lat="44.56187" lon="5.89242">
        <ele>879.7</ele>
        <time>2014-05-09T15:28:16Z</time>
      </trkpt>
      <trkpt lat="44.56187" lon="5.89287">
        <ele>879.7</ele>
        <time>2014-05-09T15:28:20Z</time>
      </trkpt>
      <trkpt lat="44.56187" lon="5.89375">
        <ele>880.1</ele>
        <time>2014-05-09T15:28:28Z</time>
      </trkpt>
      <trkpt lat="44.56187" lon="5.89441">
        <ele>880.4</ele>
        <time>2014-05-09T15:28:34Z</time>
      </trkpt>
      <trkpt lat="44.56187" lon="5.89504">
        <ele>880.7</ele>
        <time>2014-05-09T15:28:40Z</time>
      </trkpt>
      <trkpt lat="44.56187" lon="5.89543">
        <ele>881.1</ele>
        <time>2014-05-09T15:28:44Z</time>
      </trkpt>
      <trkpt lat="44.56187" lon="5.89622">
        <ele>881.7</ele>
        <time>2014-05-09T15:28:52Z</time>
      </trkpt>
      <trkpt lat="44.56187" lon="5.89642">
        <ele>881.9</ele>
        <time>2014-05-09T15:28:54Z</time>
      </trkpt>
      <trkpt lat="44.56187" lon="5.89721">
        <ele>882.6</ele>
        <time>2014-05-09T15:29:02Z</time>
      </trkpt>
      <trkpt lat="44.56187" lon="5.8974">
        <ele>882.7</ele>
        <time>2014-05-09T15:29:04Z</time>
      </trkpt>
      <trkpt lat="44.56187" lon="5.89835">
        <ele>883.9</ele>
        <time>2014-05-09T15:29:14Z</time>
      </trkpt>
      <trkpt lat="44.56187" lon="5.89855">
        <ele>884</ele>
        <time>2014-05-09T15:29:16Z</time>
      </trkpt>
      <trkpt lat="44.56187" lon="5.89932">
        <ele>884.3</ele>
        <time>2014-05-09T15:29:24Z</time>
      </trkpt>
      <trkpt lat="44.56187" lon="5.90006">
        <ele>884.4</ele>
        <time>2014-05-09T15:29:32Z</time>
      </trkpt>
      <trkpt lat="44.56187" lon="5.90062">
        <ele>884.6</ele>
        <time>2014-05-09T15:29:38Z</time>
      </trkpt>
      <trkpt lat="44.56187" lon="5.90138">
        <ele>885.2</ele>
        <time>2014-05-09T15:29:46Z</time>
      </trkpt>
      <trkpt lat="44.56187" lon="5.90194">
        <ele>885.5</ele>
        <time>2014-05-09T15:29:52Z</time>
      </trkpt>
      <trkpt lat="44.56187" lon="5.90251">
        <ele>886</ele>
        <time>2014-05-09T15:29:58Z</time>
      </trkpt>
      <trkpt lat="44.56187" lon="5.90289">
        <ele>886.3</ele>
        <time>2014-05-09T15:30:02Z</time>
      </trkpt>
      <trkpt lat="44.56187" lon="5.90385">
        <ele>887.1</ele>
        <time>2014-05-09T15:30:12Z</time>
      </trkpt>
      <trkpt lat="44.56187" lon="5.90461">
        <ele>887.3</ele>
        <time>2014-05-09T15:30:20Z</time>
      </trkpt>
      <trkpt lat="44.56187" lon="5.90537">
        <ele>887.8</ele>
        <time>2014-05-09T15:30:28Z</time>
      </trkpt>
      <trkpt lat="44.56187" lon="5.90595">
        <ele>888.3</ele>
        <time>2014-05-09T15:30:34Z</time>
      </trkpt>
      <trkpt lat="44.56187" lon="5.90675">
        <ele>888.5</ele>
        <time>2014-05-09T15:30:42Z</time>
      </trkpt>
      <trkpt lat="44.56187" lon="5.90753">
        <ele>888.9</ele>
        <time>2014-05-09T15:30:50Z</time>
      </trkpt>
      <trkpt lat="44.56186" lon="5.90811">
        <ele>889.9</ele>
        <time>2014-05-09T15:30:56Z</time>
      </trkpt>
      <trkpt lat="44.56186" lon="5.90868">
        <ele>890.1</ele>
        <time>2014-05-09T15:31:02Z</time>
      </trkpt>
      <trkpt lat="44.56186" lon="5.90906">
        <ele>890.4</ele>
        <time>2014-05-09T15:31:06Z</time>
      </trkpt>
      <trkpt lat="44.56186" lon="5.91003">
        <ele>891.3</ele>
        <time>2014-05-09T15:31:16Z</time>
      </trkpt>
      <trkpt lat="44.56186" lon="5.91082">
        <ele>892</ele>
        <time>2014-05-09T15:31:24Z</time>
      </trkpt>
      <trkpt lat="44.56186" lon="5.91159">
        <ele>892.8</ele>
        <time>2014-05-09T15:31:32Z</time>
      </trkpt>
      <trkpt lat="44.56187" lon="5.91234">
        <ele>894.1</ele>
        <time>2014-05-09T15:31:40Z</time>
      </trkpt>
      <trkpt lat="44.56187" lon="5.91308">
        <ele>895.6</ele>
        <time>2014-05-09T15:31:48Z</time>
      </trkpt>
      <trkpt lat="44.56187" lon="5.91345">
        <ele>896.1</ele>
        <time>2014-05-09T15:31:52Z</time>
      </trkpt>
      <trkpt lat="44.56187" lon="5.91418">
        <ele>897.2</ele>
        <time>2014-05-09T15:32:00Z</time>
      </trkpt>
      <trkpt lat="44.56187" lon="5.91474">
        <ele>897.5</ele>
        <time>2014-05-09T15:32:06Z</time>
      </trkpt>
      <trkpt lat="44.56187" lon="5.91549">
        <ele>897.9</ele>
        <time>2014-05-09T15:32:14Z</time>
      </trkpt>
      <trkpt lat="44.56187" lon="5.9162">
        <ele>898.4</ele>
        <time>2014-05-09T15:32:22Z</time>
      </trkpt>
      <trkpt lat="44.56187" lon="5.91673">
        <ele>899.4</ele>
        <time>2014-05-09T15:32:28Z</time>
      </trkpt>
      <trkpt lat="44.56187" lon="5.91707">
        <ele>899.8</ele>
        <time>2014-05-09T15:32:32Z</time>
      </trkpt>
      <trkpt lat="44.56187" lon="5.91757">
        <ele>901</ele>
        <time>2014-05-09T15:32:38Z</time>
      </trkpt>
      <trkpt lat="44.56186" lon="5.91826">
        <ele>902.2</ele>
        <time>2014-05-09T15:32:46Z</time>
      </trkpt>
      <trkpt lat="44.56186" lon="5.91895">
        <ele>903.6</ele>
        <time>2014-05-09T15:32:54Z</time>
      </trkpt>
      <trkpt lat="44.56186" lon="5.91945">
        <ele>904.8</ele>
        <time>2014-05-09T15:33:00Z</time>
      </trkpt>
      <trkpt lat="44.56186" lon="5.92012">
        <ele>906.1</ele>
        <time>2014-05-09T15:33:08Z</time>
      </trkpt>
      <trkpt lat="44.56187" lon="5.92092">
        <ele>907.8</ele>
        <time>2014-05-09T15:33:18Z</time>
      </trkpt>
      <trkpt lat="44.56187" lon="5.92155">
        <ele>909</ele>
        <time>2014-05-09T15:33:26Z</time>
      </trkpt>
      <trkpt lat="44.56186" lon="5.92217">
        <ele>910.5</ele>
        <time>2014-05-09T15:33:34Z</time>
      </trkpt>
      <trkpt lat="44.56186" lon="5.9228">
        <ele>911.8</ele>
        <time>2014-05-09T15:33:42Z</time>
      </trkpt>
      <trkpt lat="44.56186" lon="5.92324">
        <ele>913</ele>
        <time>2014-05-09T15:33:48Z</time>
      </trkpt>
      <trkpt lat="44.56186" lon="5.92384">
        <ele>914.7</ele>
        <time>2014-05-09T15:33:56Z</time>
      </trkpt>
      <trkpt lat="44.56186" lon="5.9243">
        <ele>915.8</ele>
        <time>2014-05-09T15:34:02Z</time>
      </trkpt>
      <trkpt lat="44.56185" lon="5.92491">
        <ele>917.1</ele>
        <time>2014-05-09T15:34:10Z</time>
      </trkpt>
      <trkpt lat="44.56185" lon="5.9257">
        <ele>917.6</ele>
        <time>2014-05-09T15:34:20Z</time>
      </trkpt>
      <trkpt lat="44.56185" lon="5.92618">
        <ele>918.1</ele>
        <time>2014-05-09T15:34:26Z</time>
      </trkpt>
      <trkpt lat="44.56185" lon="5.92685">
        <ele>918.6</ele>
        <time>2014-05-09T15:34:34Z</time>
      </trkpt>
      <trkpt lat="44.56184" lon="5.92702">
        <ele>918.5</ele>
        <time>2014-05-09T15:34:36Z</time>
      </trkpt>
      <trkpt lat="44.56184" lon="5.9277">
        <ele>919.1</ele>
        <time>2014-05-09T15:34:44Z</time>
      </trkpt>
      <trkpt lat="44.56184" lon="5.92823">
        <ele>919.6</ele>
        <time>2014-05-09T15:34:50Z</time>
      </trkpt>
      <trkpt lat="44.56184" lon="5.92876">
        <ele>919.9</ele>
        <time>2014-05-09T15:34:56Z</time>
      </trkpt>
      <trkpt lat="44.56184" lon="5.9293">
        <ele>920.1</ele>
        <time>2014-05-09T15:35:02Z</time>
      </trkpt>
      <trkpt lat="44.56184" lon="5.92968">
        <ele>919.9</ele>
        <time>2014-05-09T15:35:06Z</time>
      </trkpt>
      <trkpt lat="44.56184" lon="5.93028">
        <ele>920.2</ele>
        <time>2014-05-09T15:35:12Z</time>
      </trkpt>
      <trkpt lat="44.56183" lon="5.93112">
        <ele>920</ele>
        <time>2014-05-09T15:35:20Z</time>
      </trkpt>
      <trkpt lat="44.56184" lon="5.93157">
        <ele>919.2</ele>
        <time>2014-05-09T15:35:24Z</time>
      </trkpt>
      <trkpt lat="44.56184" lon="5.93219">
        <ele>918.8</ele>
        <time>2014-05-09T15:35:29Z</time>
      </trkpt>
      <trkpt lat="44.56184" lon="5.93271">
        <ele>918.6</ele>
        <time>2014-05-09T15:35:33Z</time>
      </trkpt>
      <trkpt lat="44.56184" lon="5.93337">
        <ele>918.3</ele>
        <time>2014-05-09T15:35:38Z</time>
      </trkpt>
      <trkpt lat="44.56184" lon="5.93363">
        <ele>918.2</ele>
        <time>2014-05-09T15:35:40Z</time>
      </trkpt>
      <trkpt lat="44.56184" lon="5.93415">
        <ele>917.5</ele>
        <time>2014-05-09T15:35:44Z</time>
      </trkpt>
      <trkpt lat="44.56184" lon="5.93479">
        <ele>918.1</ele>
        <time>2014-05-09T15:35:49Z</time>
      </trkpt>
      <trkpt lat="44.56184" lon="5.93578">
        <ele>918.2</ele>
        <time>2014-05-09T15:35:57Z</time>
      </trkpt>
      <trkpt lat="44.56184" lon="5.9367">
        <ele>918.3</ele>
        <time>2014-05-09T15:36:05Z</time>
      </trkpt>
      <trkpt lat="44.56184" lon="5.93755">
        <ele>919.6</ele>
        <time>2014-05-09T15:36:13Z</time>
      </trkpt>
      <trkpt lat="44.56184" lon="5.93859">
        <ele>920.7</ele>
        <time>2014-05-09T15:36:23Z</time>
      </trkpt>
      <trkpt lat="44.56184" lon="5.93941">
        <ele>921.4</ele>
        <time>2014-05-09T15:36:31Z</time>
      </trkpt>
      <trkpt lat="44.56183" lon="5.93983">
        <ele>922.2</ele>
        <time>2014-05-09T15:36:35Z</time>
      </trkpt>
      <trkpt lat="44.56183" lon="5.94064">
        <ele>923</ele>
        <time>2014-05-09T15:36:43Z</time>
      </trkpt>
      <trkpt lat="44.56183" lon="5.94104">
        <ele>923.3</ele>
        <time>2014-05-09T15:36:47Z</time>
      </trkpt>
      <trkpt lat="44.56183" lon="5.94164">
        <ele>923.9</ele>
        <time>2014-05-09T15:36:53Z</time>
      </trkpt>
      <trkpt lat="44.56183" lon="5.94244">
        <ele>924.9</ele>
        <time>2014-05-09T15:37:01Z</time>
      </trkpt>
      <trkpt lat="44.56183" lon="5.94325">
        <ele>925.7</ele>
        <time>2014-05-09T15:37:09Z</time>
      </trkpt>
      <trkpt lat="44.56183" lon="5.94366">
        <ele>926</ele>
        <time>2014-05-09T15:37:13Z</time>
      </trkpt>
      <trkpt lat="44.56183" lon="5.94427">
        <ele>926.8</ele>
        <time>2014-05-09T15:37:19Z</time>
      </trkpt>
      <trkpt lat="44.56183" lon="5.94529">
        <ele>927.5</ele>
        <time>2014-05-09T15:37:29Z</time>
      </trkpt>
      <trkpt lat="44.56183" lon="5.9457">
        <ele>928.2</ele>
        <time>2014-05-09T15:37:33Z</time>
      </trkpt>
      <trkpt lat="44.56183" lon="5.94632">
        <ele>929</ele>
        <time>2014-05-09T15:37:39Z</time>
      </trkpt>
      <trkpt lat="44.56183" lon="5.94693">
        <ele>930.2</ele>
        <time>2014-05-09T15:37:45Z</time>
      </trkpt>
      <trkpt lat="44.56182" lon="5.9473">
        <ele>930.7</ele>
        <time>2014-05-09T15:37:49Z</time>
      </trkpt>
      <trkpt lat="44.5618" lon="5.94801">
        <ele>931.3</ele>
        <time>2014-05-09T15:37:57Z</time>
      </trkpt>
      <trkpt lat="44.5618" lon="5.94873">
        <ele>932.6</ele>
        <time>2014-05-09T15:38:05Z</time>
      </trkpt>
      <trkpt lat="44.5618" lon="5.94947">
        <ele>933</ele>
        <time>2014-05-09T15:38:15Z</time>
      </trkpt>
      <trkpt lat="44.5618" lon="5.94978">
        <ele>933.5</ele>
        <time>2014-05-09T15:38:19Z</time>
      </trkpt>
      <trkpt lat="44.56179" lon="5.95061">
        <ele>934.7</ele>
        <time>2014-05-09T15:38:29Z</time>
      </trkpt>
      <trkpt lat="44.56179" lon="5.95131">
        <ele>935.9</ele>
        <time>2014-05-09T15:38:37Z</time>
      </trkpt>
      <trkpt lat="44.56179" lon="5.95167">
        <ele>936.6</ele>
        <time>2014-05-09T15:38:41Z</time>
      </trkpt>
      <trkpt lat="44.5618" lon="5.95186">
        <ele>936.7</ele>
        <time>2014-05-09T15:38:43Z</time>
      </trkpt>
      <trkpt lat="44.56184" lon="5.9522">
        <ele>937.2</ele>
        <time>2014-05-09T15:38:47Z</time>
      </trkpt>
      <trkpt lat="44.56186" lon="5.95256">
        <ele>937.6</ele>
        <time>2014-05-09T15:38:51Z</time>
      </trkpt>
      <trkpt lat="44.56185" lon="5.95291">
        <ele>938.1</ele>
        <time>2014-05-09T15:38:55Z</time>
      </trkpt>
      <trkpt lat="44.56186" lon="5.95309">
        <ele>938.5</ele>
        <time>2014-05-09T15:38:57Z</time>
      </trkpt>
      <trkpt lat="44.56185" lon="5.9538">
        <ele>939.3</ele>
        <time>2014-05-09T15:39:05Z</time>
      </trkpt>
      <trkpt lat="44.56188" lon="5.95433">
        <ele>939.5</ele>
        <time>2014-05-09T15:39:11Z</time>
      </trkpt>
      <trkpt lat="44.56188" lon="5.95452">
        <ele>939.8</ele>
        <time>2014-05-09T15:39:13Z</time>
      </trkpt>
      <trkpt lat="44.56188" lon="5.95486">
        <ele>940.1</ele>
        <time>2014-05-09T15:39:17Z</time>
      </trkpt>
      <trkpt lat="44.56188" lon="5.95503">
        <ele>940.2</ele>
        <time>2014-05-09T15:39:19Z</time>
      </trkpt>
      <trkpt lat="44.56184" lon="5.95539">
        <ele>940.5</ele>
        <time>2014-05-09T15:39:23Z</time>
      </trkpt>
      <trkpt lat="44.5618" lon="5.95555">
        <ele>940.7</ele>
        <time>2014-05-09T15:39:25Z</time>
      </trkpt>
      <trkpt lat="44.56163" lon="5.95579">
        <ele>941.4</ele>
        <time>2014-05-09T15:39:29Z</time>
      </trkpt>
      <trkpt lat="44.56141" lon="5.95595">
        <ele>942.2</ele>
        <time>2014-05-09T15:39:33Z</time>
      </trkpt>
      <trkpt lat="44.56091" lon="5.95623">
        <ele>943.9</ele>
        <time>2014-05-09T15:39:45Z</time>
      </trkpt>
      <trkpt lat="44.56091" lon="5.9565">
        <ele>944</ele>
        <time>2014-05-09T15:40:12Z</time>
      </trkpt>
      <trkpt lat="44.56088" lon="5.95666">
        <ele>944.5</ele>
        <time>2014-05-09T15:40:17Z</time>
      </trkpt>
      <trkpt lat="44.5608" lon="5.95694">
        <ele>945.5</ele>
        <time>2014-05-09T15:40:23Z</time>
      </trkpt>
      <trkpt lat="44.56073" lon="5.95722">
        <ele>946.5</ele>
        <time>2014-05-09T15:40:29Z</time>
      </trkpt>
      <trkpt lat="44.56067" lon="5.95762">
        <ele>948.5</ele>
        <time>2014-05-09T15:40:39Z</time>
      </trkpt>
      <trkpt lat="44.5606" lon="5.95789">
        <ele>950.3</ele>
        <time>2014-05-09T15:40:47Z</time>
      </trkpt>
      <trkpt lat="44.56024" lon="5.9584">
        <ele>954.9</ele>
        <time>2014-05-09T15:41:07Z</time>
      </trkpt>
      <trkpt lat="44.56005" lon="5.95873">
        <ele>957.6</ele>
        <time>2014-05-09T15:41:19Z</time>
      </trkpt>
      <trkpt lat="44.55992" lon="5.95896">
        <ele>959.6</ele>
        <time>2014-05-09T15:41:27Z</time>
      </trkpt>
      <trkpt lat="44.55984" lon="5.95907">
        <ele>960.6</ele>
        <time>2014-05-09T15:41:31Z</time>
      </trkpt>
      <trkpt lat="44.5597" lon="5.95929">
        <ele>962.3</ele>
        <time>2014-05-09T15:41:39Z</time>
      </trkpt>
      <trkpt lat="44.55944" lon="5.95974">
        <ele>965.6</ele>
        <time>2014-05-09T15:41:55Z</time>
      </trkpt>
      <trkpt lat="44.55913" lon="5.96013">
        <ele>969</ele>
        <time>2014-05-09T15:42:11Z</time>
      </trkpt>
      <trkpt lat="44.55897" lon="5.96033">
        <ele>971</ele>
        <time>2014-05-09T15:42:19Z</time>
      </trkpt>
      <trkpt lat="44.55882" lon="5.96054">
        <ele>973.2</ele>
        <time>2014-05-09T15:42:27Z</time>
      </trkpt>
      <trkpt lat="44.55875" lon="5.96065">
        <ele>974.2</ele>
        <time>2014-05-09T15:42:31Z</time>
      </trkpt>
      <trkpt lat="44.55844" lon="5.96128">
        <ele>978.7</ele>
        <time>2014-05-09T15:42:51Z</time>
      </trkpt>
      <trkpt lat="44.55817" lon="5.96174">
        <ele>982.4</ele>
        <time>2014-05-09T15:43:07Z</time>
      </trkpt>
      <trkpt lat="44.55804" lon="5.962">
        <ele>984</ele>
        <time>2014-05-09T15:43:15Z</time>
      </trkpt>
      <trkpt lat="44.55806" lon="5.96228">
        <ele>985.1</ele>
        <time>2014-05-09T15:43:22Z</time>
      </trkpt>
      <trkpt lat="44.55824" lon="5.96247">
        <ele>987.3</ele>
        <time>2014-05-09T15:43:30Z</time>
      </trkpt>
      <trkpt lat="44.55846" lon="5.96255">
        <ele>989.8</ele>
        <time>2014-05-09T15:43:38Z</time>
      </trkpt>
      <trkpt lat="44.55863" lon="5.96273">
        <ele>991.7</ele>
        <time>2014-05-09T15:43:46Z</time>
      </trkpt>
      <trkpt lat="44.5587" lon="5.96284">
        <ele>992.4</ele>
        <time>2014-05-09T15:43:50Z</time>
      </trkpt>
      <trkpt lat="44.55884" lon="5.96309">
        <ele>993.8</ele>
        <time>2014-05-09T15:43:58Z</time>
      </trkpt>
      <trkpt lat="44.5589" lon="5.96321">
        <ele>994.6</ele>
        <time>2014-05-09T15:44:02Z</time>
      </trkpt>
      <trkpt lat="44.55898" lon="5.96348">
        <ele>996.2</ele>
        <time>2014-05-09T15:44:10Z</time>
      </trkpt>
      <trkpt lat="44.55894" lon="5.96379">
        <ele>998.6</ele>
        <time>2014-05-09T15:44:18Z</time>
      </trkpt>
      <trkpt lat="44.55882" lon="5.96406">
        <ele>1000.6</ele>
        <time>2014-05-09T15:44:26Z</time>
      </trkpt>
      <trkpt lat="44.55854" lon="5.96455">
        <ele>1004.1</ele>
        <time>2014-05-09T15:44:42Z</time>
      </trkpt>
      <trkpt lat="44.55842" lon="5.9648">
        <ele>1006.5</ele>
        <time>2014-05-09T15:44:50Z</time>
      </trkpt>
      <trkpt lat="44.55834" lon="5.96508">
        <ele>1007.9</ele>
        <time>2014-05-09T15:44:58Z</time>
      </trkpt>
      <trkpt lat="44.55824" lon="5.96554">
        <ele>1010.9</ele>
        <time>2014-05-09T15:45:10Z</time>
      </trkpt>
      <trkpt lat="44.55821" lon="5.96581">
        <ele>1012.6</ele>
        <time>2014-05-09T15:45:17Z</time>
      </trkpt>
      <trkpt lat="44.5582" lon="5.96597">
        <ele>1013.5</ele>
        <time>2014-05-09T15:45:21Z</time>
      </trkpt>
      <trkpt lat="44.55821" lon="5.9663">
        <ele>1015.7</ele>
        <time>2014-05-09T15:45:29Z</time>
      </trkpt>
      <trkpt lat="44.55824" lon="5.96662">
        <ele>1017.6</ele>
        <time>2014-05-09T15:45:37Z</time>
      </trkpt>
      <trkpt lat="44.55833" lon="5.96726">
        <ele>1021.7</ele>
        <time>2014-05-09T15:45:53Z</time>
      </trkpt>
      <trkpt lat="44.55836" lon="5.96742">
        <ele>1022.9</ele>
        <time>2014-05-09T15:45:57Z</time>
      </trkpt>
      <trkpt lat="44.55845" lon="5.96778">
        <ele>1025.1</ele>
        <time>2014-05-09T15:46:06Z</time>
      </trkpt>
      <trkpt lat="44.55849" lon="5.96804">
        <ele>1026.6</ele>
        <time>2014-05-09T15:46:12Z</time>
      </trkpt>
      <trkpt lat="44.5585" lon="5.9683">
        <ele>1027.5</ele>
        <time>2014-05-09T15:46:18Z</time>
      </trkpt>
      <trkpt lat="44.55846" lon="5.9687">
        <ele>1030.6</ele>
        <time>2014-05-09T15:46:27Z</time>
      </trkpt>
      <trkpt lat="44.55846" lon="5.96897">
        <ele>1032.5</ele>
        <time>2014-05-09T15:46:33Z</time>
      </trkpt>
      <trkpt lat="44.55846" lon="5.96912">
        <ele>1033.2</ele>
        <time>2014-05-09T15:46:36Z</time>
      </trkpt>
      <trkpt lat="44.55846" lon="5.96942">
        <ele>1034.6</ele>
        <time>2014-05-09T15:46:42Z</time>
      </trkpt>
      <trkpt lat="44.55844" lon="5.96973">
        <ele>1035.5</ele>
        <time>2014-05-09T15:46:48Z</time>
      </trkpt>
      <trkpt lat="44.5584" lon="5.97009">
        <ele>1036.2</ele>
        <time>2014-05-09T15:46:54Z</time>
      </trkpt>
      <trkpt lat="44.5583" lon="5.97039">
        <ele>1036.3</ele>
        <time>2014-05-09T15:46:59Z</time>
      </trkpt>
      <trkpt lat="44.55815" lon="5.97056">
        <ele>1036.8</ele>
        <time>2014-05-09T15:47:03Z</time>
      </trkpt>
      <trkpt lat="44.55796" lon="5.97075">
        <ele>1038.3</ele>
        <time>2014-05-09T15:47:09Z</time>
      </trkpt>
      <trkpt lat="44.55778" lon="5.97093">
        <ele>1040.5</ele>
        <time>2014-05-09T15:47:15Z</time>
      </trkpt>
      <trkpt lat="44.55769" lon="5.97102">
        <ele>1041.8</ele>
        <time>2014-05-09T15:47:18Z</time>
      </trkpt>
      <trkpt lat="44.55755" lon="5.97125">
        <ele>1043.7</ele>
        <time>2014-05-09T15:47:24Z</time>
      </trkpt>
      <trkpt lat="44.55744" lon="5.9715">
        <ele>1044.9</ele>
        <time>2014-05-09T15:47:30Z</time>
      </trkpt>
      <trkpt lat="44.55739" lon="5.97163">
        <ele>1045.8</ele>
        <time>2014-05-09T15:47:33Z</time>
      </trkpt>
      <trkpt lat="44.55731" lon="5.9719">
        <ele>1047.7</ele>
        <time>2014-05-09T15:47:39Z</time>
      </trkpt>
      <trkpt lat="44.55727" lon="5.97203">
        <ele>1048.6</ele>
        <time>2014-05-09T15:47:42Z</time>
      </trkpt>
      <trkpt lat="44.55715" lon="5.97228">
        <ele>1051.2</ele>
        <time>2014-05-09T15:47:48Z</time>
      </trkpt>
      <trkpt lat="44.55696" lon="5.97263">
        <ele>1054.2</ele>
        <time>2014-05-09T15:47:57Z</time>
      </trkpt>
      <trkpt lat="44.55682" lon="5.97286">
        <ele>1056</ele>
        <time>2014-05-09T15:48:03Z</time>
      </trkpt>
      <trkpt lat="44.5567" lon="5.97311">
        <ele>1057.5</ele>
        <time>2014-05-09T15:48:09Z</time>
      </trkpt>
      <trkpt lat="44.5566" lon="5.97341">
        <ele>1058.6</ele>
        <time>2014-05-09T15:48:15Z</time>
      </trkpt>
      <trkpt lat="44.55657" lon="5.97357">
        <ele>1058.7</ele>
        <time>2014-05-09T15:48:18Z</time>
      </trkpt>
      <trkpt lat="44.55654" lon="5.9739">
        <ele>1059.8</ele>
        <time>2014-05-09T15:48:24Z</time>
      </trkpt>
      <trkpt lat="44.55655" lon="5.97407">
        <ele>1060.5</ele>
        <time>2014-05-09T15:48:27Z</time>
      </trkpt>
      <trkpt lat="44.55665" lon="5.97438">
        <ele>1061.9</ele>
        <time>2014-05-09T15:48:33Z</time>
      </trkpt>
      <trkpt lat="44.55676" lon="5.97465">
        <ele>1063.3</ele>
        <time>2014-05-09T15:48:39Z</time>
      </trkpt>
      <trkpt lat="44.55689" lon="5.9749">
        <ele>1064.8</ele>
        <time>2014-05-09T15:48:45Z</time>
      </trkpt>
      <trkpt lat="44.55692" lon="5.97516">
        <ele>1066.8</ele>
        <time>2014-05-09T15:48:51Z</time>
      </trkpt>
      <trkpt lat="44.5569" lon="5.97561">
        <ele>1069.4</ele>
        <time>2014-05-09T15:49:00Z</time>
      </trkpt>
      <trkpt lat="44.55688" lon="5.97576">
        <ele>1070.3</ele>
        <time>2014-05-09T15:49:03Z</time>
      </trkpt>
      <trkpt lat="44.55684" lon="5.97605">
        <ele>1072.1</ele>
        <time>2014-05-09T15:49:09Z</time>
      </trkpt>
      <trkpt lat="44.55676" lon="5.97646">
        <ele>1075.1</ele>
        <time>2014-05-09T15:49:18Z</time>
      </trkpt>
      <trkpt lat="44.55673" lon="5.97675">
        <ele>1076.8</ele>
        <time>2014-05-09T15:49:24Z</time>
      </trkpt>
      <trkpt lat="44.55673" lon="5.9769">
        <ele>1077.4</ele>
        <time>2014-05-09T15:49:27Z</time>
      </trkpt>
      <trkpt lat="44.55675" lon="5.97719">
        <ele>1079.2</ele>
        <time>2014-05-09T15:49:33Z</time>
      </trkpt>
      <trkpt lat="44.55681" lon="5.97776">
        <ele>1082.8</ele>
        <time>2014-05-09T15:49:45Z</time>
      </trkpt>
      <trkpt lat="44.55683" lon="5.97805">
        <ele>1084.7</ele>
        <time>2014-05-09T15:49:51Z</time>
      </trkpt>
      <trkpt lat="44.55688" lon="5.97835">
        <ele>1086.2</ele>
        <time>2014-05-09T15:49:57Z</time>
      </trkpt>
      <trkpt lat="44.55694" lon="5.97863">
        <ele>1088.3</ele>
        <time>2014-05-09T15:50:03Z</time>
      </trkpt>
      <trkpt lat="44.55707" lon="5.97919">
        <ele>1091.2</ele>
        <time>2014-05-09T15:50:15Z</time>
      </trkpt>
      <trkpt lat="44.55712" lon="5.97948">
        <ele>1093.1</ele>
        <time>2014-05-09T15:50:21Z</time>
      </trkpt>
      <trkpt lat="44.55716" lon="5.97977">
        <ele>1095</ele>
        <time>2014-05-09T15:50:27Z</time>
      </trkpt>
      <trkpt lat="44.55721" lon="5.98006">
        <ele>1096.9</ele>
        <time>2014-05-09T15:50:33Z</time>
      </trkpt>
      <trkpt lat="44.55731" lon="5.98034">
        <ele>1098.2</ele>
        <time>2014-05-09T15:50:39Z</time>
      </trkpt>
      <trkpt lat="44.55736" lon="5.98048">
        <ele>1099.2</ele>
        <time>2014-05-09T15:50:42Z</time>
      </trkpt>
      <trkpt lat="44.55747" lon="5.98075">
        <ele>1100.7</ele>
        <time>2014-05-09T15:50:48Z</time>
      </trkpt>
      <trkpt lat="44.55764" lon="5.98116">
        <ele>1102.5</ele>
        <time>2014-05-09T15:50:57Z</time>
      </trkpt>
      <trkpt lat="44.5577" lon="5.9813">
        <ele>1103.2</ele>
        <time>2014-05-09T15:51:00Z</time>
      </trkpt>
      <trkpt lat="44.5578" lon="5.98159">
        <ele>1105</ele>
        <time>2014-05-09T15:51:06Z</time>
      </trkpt>
      <trkpt lat="44.55784" lon="5.98193">
        <ele>1106.3</ele>
        <time>2014-05-09T15:51:12Z</time>
      </trkpt>
      <trkpt lat="44.55783" lon="5.98211">
        <ele>1106.8</ele>
        <time>2014-05-09T15:51:15Z</time>
      </trkpt>
      <trkpt lat="44.55778" lon="5.98278">
        <ele>1108.6</ele>
        <time>2014-05-09T15:51:25Z</time>
      </trkpt>
      <trkpt lat="44.55772" lon="5.98349">
        <ele>1110.5</ele>
        <time>2014-05-09T15:51:35Z</time>
      </trkpt>
      <trkpt lat="44.5577" lon="5.98379">
        <ele>1111</ele>
        <time>2014-05-09T15:51:39Z</time>
      </trkpt>
      <trkpt lat="44.55767" lon="5.98422">
        <ele>1112.2</ele>
        <time>2014-05-09T15:51:45Z</time>
      </trkpt>
      <trkpt lat="44.55764" lon="5.98453">
        <ele>1112.8</ele>
        <time>2014-05-09T15:51:49Z</time>
      </trkpt>
      <trkpt lat="44.55763" lon="5.98468">
        <ele>1112.9</ele>
        <time>2014-05-09T15:51:51Z</time>
      </trkpt>
      <trkpt lat="44.55762" lon="5.985">
        <ele>1113.7</ele>
        <time>2014-05-09T15:51:55Z</time>
      </trkpt>
      <trkpt lat="44.55762" lon="5.98551">
        <ele>1114.6</ele>
        <time>2014-05-09T15:52:01Z</time>
      </trkpt>
      <trkpt lat="44.55764" lon="5.98615">
        <ele>1117.1</ele>
        <time>2014-05-09T15:52:09Z</time>
      </trkpt>
      <trkpt lat="44.55766" lon="5.98658">
        <ele>1117.9</ele>
        <time>2014-05-09T15:52:15Z</time>
      </trkpt>
      <trkpt lat="44.55769" lon="5.98716">
        <ele>1119.3</ele>
        <time>2014-05-09T15:52:23Z</time>
      </trkpt>
      <trkpt lat="44.55773" lon="5.98777">
        <ele>1120.5</ele>
        <time>2014-05-09T15:52:31Z</time>
      </trkpt>
      <trkpt lat="44.55774" lon="5.98825">
        <ele>1121.7</ele>
        <time>2014-05-09T15:52:37Z</time>
      </trkpt>
      <trkpt lat="44.55775" lon="5.98841">
        <ele>1121.9</ele>
        <time>2014-05-09T15:52:39Z</time>
      </trkpt>
      <trkpt lat="44.55773" lon="5.98873">
        <ele>1122.1</ele>
        <time>2014-05-09T15:52:43Z</time>
      </trkpt>
      <trkpt lat="44.55764" lon="5.98936">
        <ele>1123.5</ele>
        <time>2014-05-09T15:52:51Z</time>
      </trkpt>
      <trkpt lat="44.55761" lon="5.98968">
        <ele>1124.2</ele>
        <time>2014-05-09T15:52:55Z</time>
      </trkpt>
      <trkpt lat="44.5576" lon="5.98984">
        <ele>1124.7</ele>
        <time>2014-05-09T15:52:57Z</time>
      </trkpt>
      <trkpt lat="44.55761" lon="5.99016">
        <ele>1125.4</ele>
        <time>2014-05-09T15:53:01Z</time>
      </trkpt>
      <trkpt lat="44.55766" lon="5.99064">
        <ele>1126.6</ele>
        <time>2014-05-09T15:53:07Z</time>
      </trkpt>
      <trkpt lat="44.55775" lon="5.99125">
        <ele>1128.2</ele>
        <time>2014-05-09T15:53:15Z</time>
      </trkpt>
      <trkpt lat="44.55783" lon="5.99186">
        <ele>1129.6</ele>
        <time>2014-05-09T15:53:23Z</time>
      </trkpt>
      <trkpt lat="44.55791" lon="5.99246">
        <ele>1130.7</ele>
        <time>2014-05-09T15:53:31Z</time>
      </trkpt>
      <trkpt lat="44.55798" lon="5.99303">
        <ele>1132.3</ele>
        <time>2014-05-09T15:53:39Z</time>
      </trkpt>
      <trkpt lat="44.55806" lon="5.99359">
        <ele>1132.9</ele>
        <time>2014-05-09T15:53:47Z</time>
      </trkpt>
      <trkpt lat="44.55809" lon="5.99387">
        <ele>1133.4</ele>
        <time>2014-05-09T15:53:51Z</time>
      </trkpt>
      <trkpt lat="44.55817" lon="5.99446">
        <ele>1135.2</ele>
        <time>2014-05-09T15:54:00Z</time>
      </trkpt>
      <trkpt lat="44.55821" lon="5.99481">
        <ele>1136.9</ele>
        <time>2014-05-09T15:54:06Z</time>
      </trkpt>
      <trkpt lat="44.55829" lon="5.99535">
        <ele>1139.6</ele>
        <time>2014-05-09T15:54:15Z</time>
      </trkpt>
      <trkpt lat="44.5584" lon="5.99567">
        <ele>1141.6</ele>
        <time>2014-05-09T15:54:21Z</time>
      </trkpt>
      <trkpt lat="44.5586" lon="5.99587">
        <ele>1142.4</ele>
        <time>2014-05-09T15:54:27Z</time>
      </trkpt>
      <trkpt lat="44.55883" lon="5.99594">
        <ele>1144.2</ele>
        <time>2014-05-09T15:54:33Z</time>
      </trkpt>
      <trkpt lat="44.55905" lon="5.99596">
        <ele>1145.8</ele>
        <time>2014-05-09T15:54:39Z</time>
      </trkpt>
      <trkpt lat="44.55926" lon="5.99601">
        <ele>1147.1</ele>
        <time>2014-05-09T15:54:45Z</time>
      </trkpt>
      <trkpt lat="44.55948" lon="5.99611">
        <ele>1147.9</ele>
        <time>2014-05-09T15:54:51Z</time>
      </trkpt>
      <trkpt lat="44.55969" lon="5.99624">
        <ele>1149.8</ele>
        <time>2014-05-09T15:54:57Z</time>
      </trkpt>
      <trkpt lat="44.55989" lon="5.99639">
        <ele>1151.2</ele>
        <time>2014-05-09T15:55:03Z</time>
      </trkpt>
      <trkpt lat="44.5603" lon="5.99668">
        <ele>1154.2</ele>
        <time>2014-05-09T15:55:15Z</time>
      </trkpt>
      <trkpt lat="44.56051" lon="5.99685">
        <ele>1155.3</ele>
        <time>2014-05-09T15:55:21Z</time>
      </trkpt>
      <trkpt lat="44.56061" lon="5.99694">
        <ele>1155.3</ele>
        <time>2014-05-09T15:55:24Z</time>
      </trkpt>
      <trkpt lat="44.56102" lon="5.99735">
        <ele>1156.2</ele>
        <time>2014-05-09T15:55:36Z</time>
      </trkpt>
      <trkpt lat="44.56122" lon="5.99753">
        <ele>1156.8</ele>
        <time>2014-05-09T15:55:42Z</time>
      </trkpt>
      <trkpt lat="44.56145" lon="5.99769">
        <ele>1156.7</ele>
        <time>2014-05-09T15:55:48Z</time>
      </trkpt>
      <trkpt lat="44.56156" lon="5.99777">
        <ele>1157.1</ele>
        <time>2014-05-09T15:55:51Z</time>
      </trkpt>
      <trkpt lat="44.56178" lon="5.99792">
        <ele>1158.4</ele>
        <time>2014-05-09T15:55:57Z</time>
      </trkpt>
      <trkpt lat="44.56189" lon="5.99798">
        <ele>1159.3</ele>
        <time>2014-05-09T15:56:00Z</time>
      </trkpt>
      <trkpt lat="44.56212" lon="5.99807">
        <ele>1160.9</ele>
        <time>2014-05-09T15:56:06Z</time>
      </trkpt>
      <trkpt lat="44.56267" lon="5.99825">
        <ele>1163.8</ele>
        <time>2014-05-09T15:56:21Z</time>
      </trkpt>
      <trkpt lat="44.56288" lon="5.99833">
        <ele>1165.3</ele>
        <time>2014-05-09T15:56:27Z</time>
      </trkpt>
      <trkpt lat="44.56295" lon="5.99859">
        <ele>1166.4</ele>
        <time>2014-05-09T15:56:33Z</time>
      </trkpt>
      <trkpt lat="44.5629" lon="5.99874">
        <ele>1166.7</ele>
        <time>2014-05-09T15:56:36Z</time>
      </trkpt>
      <trkpt lat="44.56277" lon="5.99899">
        <ele>1167.7</ele>
        <time>2014-05-09T15:56:41Z</time>
      </trkpt>
      <trkpt lat="44.5625" lon="5.99953">
        <ele>1169.1</ele>
        <time>2014-05-09T15:56:51Z</time>
      </trkpt>
      <trkpt lat="44.56238" lon="5.99975">
        <ele>1170</ele>
        <time>2014-05-09T15:56:55Z</time>
      </trkpt>
      <trkpt lat="44.56228" lon="5.99998">
        <ele>1170.1</ele>
        <time>2014-05-09T15:56:59Z</time>
      </trkpt>
      <trkpt lat="44.5622" lon="6.00023">
        <ele>1170.3</ele>
        <time>2014-05-09T15:57:03Z</time>
      </trkpt>
      <trkpt lat="44.56217" lon="6.00041">
        <ele>1171.3</ele>
        <time>2014-05-09T15:57:06Z</time>
      </trkpt>
      <trkpt lat="44.56213" lon="6.00077">
        <ele>1173.7</ele>
        <time>2014-05-09T15:57:12Z</time>
      </trkpt>
      <trkpt lat="44.56213" lon="6.0013">
        <ele>1176.3</ele>
        <time>2014-05-09T15:57:21Z</time>
      </trkpt>
      <trkpt lat="44.56213" lon="6.00147">
        <ele>1176.6</ele>
        <time>2014-05-09T15:57:24Z</time>
      </trkpt>
      <trkpt lat="44.5621" lon="6.00177">
        <ele>1177.6</ele>
        <time>2014-05-09T15:57:30Z</time>
      </trkpt>
      <trkpt lat="44.56205" lon="6.00204">
        <ele>1177.1</ele>
        <time>2014-05-09T15:57:36Z</time>
      </trkpt>
      <trkpt lat="44.56201" lon="6.00233">
        <ele>1176.8</ele>
        <time>2014-05-09T15:57:42Z</time>
      </trkpt>
      <trkpt lat="44.56197" lon="6.00262">
        <ele>1176.5</ele>
        <time>2014-05-09T15:57:48Z</time>
      </trkpt>
      <trkpt lat="44.56184" lon="6.00317">
        <ele>1177.5</ele>
        <time>2014-05-09T15:58:00Z</time>
      </trkpt>
      <trkpt lat="44.5618" lon="6.0033">
        <ele>1178.3</ele>
        <time>2014-05-09T15:58:03Z</time>
      </trkpt>
      <trkpt lat="44.56173" lon="6.00359">
        <ele>1178.1</ele>
        <time>2014-05-09T15:58:10Z</time>
      </trkpt>
      <trkpt lat="44.56164" lon="6.00389">
        <ele>1177.8</ele>
        <time>2014-05-09T15:58:16Z</time>
      </trkpt>
      <trkpt lat="44.56163" lon="6.00405">
        <ele>1177.7</ele>
        <time>2014-05-09T15:58:19Z</time>
      </trkpt>
      <trkpt lat="44.56165" lon="6.00436">
        <ele>1178.1</ele>
        <time>2014-05-09T15:58:26Z</time>
      </trkpt>
      <trkpt lat="44.56156" lon="6.00461">
        <ele>1176.9</ele>
        <time>2014-05-09T16:02:25Z</time>
      </trkpt>
      <trkpt lat="44.56138" lon="6.00475">
        <ele>1175.9</ele>
        <time>2014-05-09T16:02:30Z</time>
      </trkpt>
      <trkpt lat="44.56116" lon="6.00492">
        <ele>1174.6</ele>
        <time>2014-05-09T16:02:34Z</time>
      </trkpt>
      <trkpt lat="44.56094" lon="6.00521">
        <ele>1173.7</ele>
        <time>2014-05-09T16:02:38Z</time>
      </trkpt>
      <trkpt lat="44.56086" lon="6.00541">
        <ele>1173.3</ele>
        <time>2014-05-09T16:02:40Z</time>
      </trkpt>
      <trkpt lat="44.56067" lon="6.00599">
        <ele>1171.7</ele>
        <time>2014-05-09T16:02:46Z</time>
      </trkpt>
      <trkpt lat="44.56053" lon="6.00641">
        <ele>1171.1</ele>
        <time>2014-05-09T16:02:50Z</time>
      </trkpt>
      <trkpt lat="44.56047" lon="6.00663">
        <ele>1170</ele>
        <time>2014-05-09T16:02:52Z</time>
      </trkpt>
      <trkpt lat="44.56027" lon="6.00747">
        <ele>1167.6</ele>
        <time>2014-05-09T16:02:59Z</time>
      </trkpt>
      <trkpt lat="44.56022" lon="6.00783">
        <ele>1166.7</ele>
        <time>2014-05-09T16:03:02Z</time>
      </trkpt>
      <trkpt lat="44.56021" lon="6.00806">
        <ele>1166.5</ele>
        <time>2014-05-09T16:03:04Z</time>
      </trkpt>
      <trkpt lat="44.56022" lon="6.00851">
        <ele>1166.1</ele>
        <time>2014-05-09T16:03:08Z</time>
      </trkpt>
      <trkpt lat="44.56023" lon="6.0091">
        <ele>1166.3</ele>
        <time>2014-05-09T16:03:14Z</time>
      </trkpt>
      <trkpt lat="44.56024" lon="6.00945">
        <ele>1166.7</ele>
        <time>2014-05-09T16:03:18Z</time>
      </trkpt>
      <trkpt lat="44.56027" lon="6.00979">
        <ele>1167.3</ele>
        <time>2014-05-09T16:03:22Z</time>
      </trkpt>
      <trkpt lat="44.56032" lon="6.01045">
        <ele>1168.2</ele>
        <time>2014-05-09T16:03:30Z</time>
      </trkpt>
      <trkpt lat="44.56037" lon="6.0108">
        <ele>1167.9</ele>
        <time>2014-05-09T16:03:34Z</time>
      </trkpt>
      <trkpt lat="44.5604" lon="6.01098">
        <ele>1167.9</ele>
        <time>2014-05-09T16:03:36Z</time>
      </trkpt>
      <trkpt lat="44.56047" lon="6.01132">
        <ele>1167.4</ele>
        <time>2014-05-09T16:03:40Z</time>
      </trkpt>
      <trkpt lat="44.56053" lon="6.01168">
        <ele>1166.8</ele>
        <time>2014-05-09T16:03:44Z</time>
      </trkpt>
      <trkpt lat="44.56056" lon="6.0121">
        <ele>1165.5</ele>
        <time>2014-05-09T16:03:48Z</time>
      </trkpt>
      <trkpt lat="44.56057" lon="6.01257">
        <ele>1164.1</ele>
        <time>2014-05-09T16:03:52Z</time>
      </trkpt>
      <trkpt lat="44.56055" lon="6.01294">
        <ele>1162.5</ele>
        <time>2014-05-09T16:03:55Z</time>
      </trkpt>
      <trkpt lat="44.56049" lon="6.01349">
        <ele>1160.3</ele>
        <time>2014-05-09T16:03:59Z</time>
      </trkpt>
      <trkpt lat="44.56041" lon="6.01405">
        <ele>1157.7</ele>
        <time>2014-05-09T16:04:03Z</time>
      </trkpt>
      <trkpt lat="44.56038" lon="6.01433">
        <ele>1156.7</ele>
        <time>2014-05-09T16:04:05Z</time>
      </trkpt>
      <trkpt lat="44.56033" lon="6.01478">
        <ele>1155.4</ele>
        <time>2014-05-09T16:04:08Z</time>
      </trkpt>
      <trkpt lat="44.56032" lon="6.01494">
        <ele>1155</ele>
        <time>2014-05-09T16:04:09Z</time>
      </trkpt>
      <trkpt lat="44.56026" lon="6.01558">
        <ele>1151.7</ele>
        <time>2014-05-09T16:04:13Z</time>
      </trkpt>
      <trkpt lat="44.56023" lon="6.01591">
        <ele>1150.2</ele>
        <time>2014-05-09T16:04:15Z</time>
      </trkpt>
      <trkpt lat="44.5602" lon="6.01608">
        <ele>1149.2</ele>
        <time>2014-05-09T16:04:16Z</time>
      </trkpt>
      <trkpt lat="44.56014" lon="6.01642">
        <ele>1147.6</ele>
        <time>2014-05-09T16:04:18Z</time>
      </trkpt>
      <trkpt lat="44.56" lon="6.01711">
        <ele>1144.5</ele>
        <time>2014-05-09T16:04:22Z</time>
      </trkpt>
      <trkpt lat="44.55991" lon="6.01747">
        <ele>1142.2</ele>
        <time>2014-05-09T16:04:24Z</time>
      </trkpt>
      <trkpt lat="44.55978" lon="6.018">
        <ele>1139.3</ele>
        <time>2014-05-09T16:04:27Z</time>
      </trkpt>
      <trkpt lat="44.5597" lon="6.01838">
        <ele>1137</ele>
        <time>2014-05-09T16:04:29Z</time>
      </trkpt>
      <trkpt lat="44.55968" lon="6.01858">
        <ele>1136</ele>
        <time>2014-05-09T16:04:30Z</time>
      </trkpt>
      <trkpt lat="44.55963" lon="6.01899">
        <ele>1133.7</ele>
        <time>2014-05-09T16:04:32Z</time>
      </trkpt>
      <trkpt lat="44.55961" lon="6.01938">
        <ele>1131.5</ele>
        <time>2014-05-09T16:04:34Z</time>
      </trkpt>
      <trkpt lat="44.5596" lon="6.01978">
        <ele>1129.2</ele>
        <time>2014-05-09T16:04:36Z</time>
      </trkpt>
      <trkpt lat="44.55962" lon="6.02036">
        <ele>1125.6</ele>
        <time>2014-05-09T16:04:39Z</time>
      </trkpt>
      <trkpt lat="44.55962" lon="6.02069">
        <ele>1123.6</ele>
        <time>2014-05-09T16:04:41Z</time>
      </trkpt>
      <trkpt lat="44.55962" lon="6.021">
        <ele>1121.2</ele>
        <time>2014-05-09T16:04:43Z</time>
      </trkpt>
      <trkpt lat="44.5596" lon="6.02132">
        <ele>1118.4</ele>
        <time>2014-05-09T16:04:46Z</time>
      </trkpt>
      <trkpt lat="44.55943" lon="6.02124">
        <ele>1115.3</ele>
        <time>2014-05-09T16:04:50Z</time>
      </trkpt>
      <trkpt lat="44.55934" lon="6.02106">
        <ele>1114.1</ele>
        <time>2014-05-09T16:04:52Z</time>
      </trkpt>
      <trkpt lat="44.55921" lon="6.02091">
        <ele>1112.7</ele>
        <time>2014-05-09T16:04:54Z</time>
      </trkpt>
      <trkpt lat="44.55906" lon="6.02079">
        <ele>1111.3</ele>
        <time>2014-05-09T16:04:56Z</time>
      </trkpt>
      <trkpt lat="44.55888" lon="6.02069">
        <ele>1110</ele>
        <time>2014-05-09T16:04:58Z</time>
      </trkpt>
      <trkpt lat="44.55869" lon="6.02062">
        <ele>1108.8</ele>
        <time>2014-05-09T16:05:00Z</time>
      </trkpt>
      <trkpt lat="44.55849" lon="6.02056">
        <ele>1107</ele>
        <time>2014-05-09T16:05:02Z</time>
      </trkpt>
      <trkpt lat="44.55833" lon="6.02057">
        <ele>1105.1</ele>
        <time>2014-05-09T16:05:04Z</time>
      </trkpt>
      <trkpt lat="44.55827" lon="6.02094">
        <ele>1102.4</ele>
        <time>2014-05-09T16:05:08Z</time>
      </trkpt>
      <trkpt lat="44.5584" lon="6.02155">
        <ele>1100.1</ele>
        <time>2014-05-09T16:05:13Z</time>
      </trkpt>
      <trkpt lat="44.55852" lon="6.0221">
        <ele>1098.1</ele>
        <time>2014-05-09T16:05:17Z</time>
      </trkpt>
      <trkpt lat="44.55858" lon="6.02238">
        <ele>1097.1</ele>
        <time>2014-05-09T16:05:19Z</time>
      </trkpt>
      <trkpt lat="44.55866" lon="6.02268">
        <ele>1095.7</ele>
        <time>2014-05-09T16:05:21Z</time>
      </trkpt>
      <trkpt lat="44.55879" lon="6.0233">
        <ele>1092.7</ele>
        <time>2014-05-09T16:05:25Z</time>
      </trkpt>
      <trkpt lat="44.55889" lon="6.02377">
        <ele>1091.2</ele>
        <time>2014-05-09T16:05:28Z</time>
      </trkpt>
      <trkpt lat="44.559" lon="6.02426">
        <ele>1088.3</ele>
        <time>2014-05-09T16:05:31Z</time>
      </trkpt>
      <trkpt lat="44.55911" lon="6.02474">
        <ele>1085.8</ele>
        <time>2014-05-09T16:05:34Z</time>
      </trkpt>
      <trkpt lat="44.5592" lon="6.0252">
        <ele>1084</ele>
        <time>2014-05-09T16:05:37Z</time>
      </trkpt>
      <trkpt lat="44.55932" lon="6.02567">
        <ele>1082</ele>
        <time>2014-05-09T16:05:40Z</time>
      </trkpt>
      <trkpt lat="44.55946" lon="6.02634">
        <ele>1079.3</ele>
        <time>2014-05-09T16:05:44Z</time>
      </trkpt>
      <trkpt lat="44.55961" lon="6.02706">
        <ele>1075.9</ele>
        <time>2014-05-09T16:05:48Z</time>
      </trkpt>
      <trkpt lat="44.55974" lon="6.02765">
        <ele>1073.5</ele>
        <time>2014-05-09T16:05:51Z</time>
      </trkpt>
      <trkpt lat="44.55982" lon="6.02805">
        <ele>1071.7</ele>
        <time>2014-05-09T16:05:53Z</time>
      </trkpt>
      <trkpt lat="44.55998" lon="6.02878">
        <ele>1067.8</ele>
        <time>2014-05-09T16:05:57Z</time>
      </trkpt>
      <trkpt lat="44.55999" lon="6.02913">
        <ele>1064.4</ele>
        <time>2014-05-09T16:06:00Z</time>
      </trkpt>
      <trkpt lat="44.55985" lon="6.02923">
        <ele>1062.8</ele>
        <time>2014-05-09T16:06:02Z</time>
      </trkpt>
      <trkpt lat="44.55966" lon="6.02926">
        <ele>1061.1</ele>
        <time>2014-05-09T16:06:04Z</time>
      </trkpt>
      <trkpt lat="44.55926" lon="6.02929">
        <ele>1058.2</ele>
        <time>2014-05-09T16:06:08Z</time>
      </trkpt>
      <trkpt lat="44.55902" lon="6.02922">
        <ele>1056.8</ele>
        <time>2014-05-09T16:06:10Z</time>
      </trkpt>
      <trkpt lat="44.55866" lon="6.02904">
        <ele>1054</ele>
        <time>2014-05-09T16:06:13Z</time>
      </trkpt>
      <trkpt lat="44.55844" lon="6.0289">
        <ele>1052</ele>
        <time>2014-05-09T16:06:15Z</time>
      </trkpt>
      <trkpt lat="44.55826" lon="6.02871">
        <ele>1049.9</ele>
        <time>2014-05-09T16:06:17Z</time>
      </trkpt>
      <trkpt lat="44.55815" lon="6.02847">
        <ele>1048.1</ele>
        <time>2014-05-09T16:06:19Z</time>
      </trkpt>
      <trkpt lat="44.55793" lon="6.02836">
        <ele>1044.4</ele>
        <time>2014-05-09T16:06:23Z</time>
      </trkpt>
      <trkpt lat="44.5579" lon="6.02859">
        <ele>1042.9</ele>
        <time>2014-05-09T16:06:25Z</time>
      </trkpt>
      <trkpt lat="44.55793" lon="6.02886">
        <ele>1040.8</ele>
        <time>2014-05-09T16:06:27Z</time>
      </trkpt>
      <trkpt lat="44.55795" lon="6.029">
        <ele>1039.8</ele>
        <time>2014-05-09T16:06:28Z</time>
      </trkpt>
      <trkpt lat="44.55806" lon="6.0295">
        <ele>1037.1</ele>
        <time>2014-05-09T16:06:31Z</time>
      </trkpt>
      <trkpt lat="44.55815" lon="6.02985">
        <ele>1034.6</ele>
        <time>2014-05-09T16:06:33Z</time>
      </trkpt>
      <trkpt lat="44.55826" lon="6.03018">
        <ele>1032.3</ele>
        <time>2014-05-09T16:06:35Z</time>
      </trkpt>
      <trkpt lat="44.55834" lon="6.03049">
        <ele>1029.7</ele>
        <time>2014-05-09T16:06:37Z</time>
      </trkpt>
      <trkpt lat="44.55831" lon="6.03078">
        <ele>1028</ele>
        <time>2014-05-09T16:06:39Z</time>
      </trkpt>
      <trkpt lat="44.55827" lon="6.03092">
        <ele>1027.3</ele>
        <time>2014-05-09T16:06:40Z</time>
      </trkpt>
      <trkpt lat="44.55818" lon="6.03118">
        <ele>1026.1</ele>
        <time>2014-05-09T16:06:42Z</time>
      </trkpt>
      <trkpt lat="44.558" lon="6.03149">
        <ele>1023.6</ele>
        <time>2014-05-09T16:06:45Z</time>
      </trkpt>
      <trkpt lat="44.55789" lon="6.03167">
        <ele>1022.5</ele>
        <time>2014-05-09T16:06:47Z</time>
      </trkpt>
      <trkpt lat="44.55772" lon="6.032">
        <ele>1021.4</ele>
        <time>2014-05-09T16:06:51Z</time>
      </trkpt>
      <trkpt lat="44.55784" lon="6.03226">
        <ele>1023.8</ele>
        <time>2014-05-09T16:06:57Z</time>
      </trkpt>
      <trkpt lat="44.55803" lon="6.03243">
        <ele>1025.7</ele>
        <time>2014-05-09T16:07:02Z</time>
      </trkpt>
      <trkpt lat="44.55847" lon="6.03274">
        <ele>1028.6</ele>
        <time>2014-05-09T16:07:12Z</time>
      </trkpt>
      <trkpt lat="44.55866" lon="6.03285">
        <ele>1029.2</ele>
        <time>2014-05-09T16:07:16Z</time>
      </trkpt>
      <trkpt lat="44.55876" lon="6.03292">
        <ele>1028.9</ele>
        <time>2014-05-09T16:07:18Z</time>
      </trkpt>
      <trkpt lat="44.55926" lon="6.03325">
        <ele>1030.3</ele>
        <time>2014-05-09T16:07:30Z</time>
      </trkpt>
      <trkpt lat="44.55936" lon="6.03333">
        <ele>1031.1</ele>
        <time>2014-05-09T16:07:33Z</time>
      </trkpt>
      <trkpt lat="44.55984" lon="6.03362">
        <ele>1032.2</ele>
        <time>2014-05-09T16:07:44Z</time>
      </trkpt>
      <trkpt lat="44.56016" lon="6.03383">
        <ele>1032.1</ele>
        <time>2014-05-09T16:07:50Z</time>
      </trkpt>
      <trkpt lat="44.56051" lon="6.03405">
        <ele>1032</ele>
        <time>2014-05-09T16:07:56Z</time>
      </trkpt>
      <trkpt lat="44.56073" lon="6.03419">
        <ele>1031.5</ele>
        <time>2014-05-09T16:08:00Z</time>
      </trkpt>
      <trkpt lat="44.56122" lon="6.03448">
        <ele>1030.5</ele>
        <time>2014-05-09T16:08:08Z</time>
      </trkpt>
      <trkpt lat="44.56134" lon="6.03457">
        <ele>1030.4</ele>
        <time>2014-05-09T16:08:10Z</time>
      </trkpt>
      <trkpt lat="44.56156" lon="6.03479">
        <ele>1029.2</ele>
        <time>2014-05-09T16:08:14Z</time>
      </trkpt>
      <trkpt lat="44.56181" lon="6.03497">
        <ele>1027.6</ele>
        <time>2014-05-09T16:08:18Z</time>
      </trkpt>
      <trkpt lat="44.56227" lon="6.03499">
        <ele>1027.1</ele>
        <time>2014-05-09T16:08:24Z</time>
      </trkpt>
      <trkpt lat="44.56248" lon="6.03499">
        <ele>1028.8</ele>
        <time>2014-05-09T16:08:28Z</time>
      </trkpt>
      <trkpt lat="44.56281" lon="6.03485">
        <ele>1033.4</ele>
        <time>2014-05-09T16:08:37Z</time>
      </trkpt>
      <trkpt lat="44.56309" lon="6.0348">
        <ele>1036.5</ele>
        <time>2014-05-09T16:08:46Z</time>
      </trkpt>
      <trkpt lat="44.56328" lon="6.03476">
        <ele>1038</ele>
        <time>2014-05-09T16:08:52Z</time>
      </trkpt>
      <trkpt lat="44.56348" lon="6.03469">
        <ele>1040.5</ele>
        <time>2014-05-09T16:08:59Z</time>
      </trkpt>
      <trkpt lat="44.56364" lon="6.03454">
        <ele>1042.7</ele>
        <time>2014-05-09T16:09:07Z</time>
      </trkpt>
      <trkpt lat="44.5638" lon="6.03434">
        <ele>1045</ele>
        <time>2014-05-09T16:09:14Z</time>
      </trkpt>
      <trkpt lat="44.56398" lon="6.03443">
        <ele>1046.5</ele>
        <time>2014-05-09T16:09:21Z</time>
      </trkpt>
      <trkpt lat="44.56419" lon="6.03445">
        <ele>1050</ele>
        <time>2014-05-09T16:09:30Z</time>
      </trkpt>
      <trkpt lat="44.5646" lon="6.03452">
        <ele>1054.2</ele>
        <time>2014-05-09T16:09:47Z</time>
      </trkpt>
      <trkpt lat="44.56499" lon="6.03472">
        <ele>1056.2</ele>
        <time>2014-05-09T16:10:00Z</time>
      </trkpt>
      <trkpt lat="44.56514" lon="6.03487">
        <ele>1057.5</ele>
        <time>2014-05-09T16:10:06Z</time>
      </trkpt>
      <trkpt lat="44.56529" lon="6.03503">
        <ele>1058.7</ele>
        <time>2014-05-09T16:10:12Z</time>
      </trkpt>
      <trkpt lat="44.56539" lon="6.03511">
        <ele>1059.7</ele>
        <time>2014-05-09T16:10:16Z</time>
      </trkpt>
      <trkpt lat="44.56558" lon="6.0352">
        <ele>1062.1</ele>
        <time>2014-05-09T16:10:23Z</time>
      </trkpt>
      <trkpt lat="44.56573" lon="6.03536">
        <ele>1065</ele>
        <time>2014-05-09T16:10:30Z</time>
      </trkpt>
      <trkpt lat="44.56583" lon="6.03546">
        <ele>1065.9</ele>
        <time>2014-05-09T16:10:34Z</time>
      </trkpt>
      <trkpt lat="44.56602" lon="6.03562">
        <ele>1068</ele>
        <time>2014-05-09T16:10:42Z</time>
      </trkpt>
      <trkpt lat="44.56632" lon="6.0358">
        <ele>1071</ele>
        <time>2014-05-09T16:10:54Z</time>
      </trkpt>
      <trkpt lat="44.56649" lon="6.03593">
        <ele>1071.8</ele>
        <time>2014-05-09T16:11:06Z</time>
      </trkpt>
      <trkpt lat="44.56659" lon="6.03603">
        <ele>1071.3</ele>
        <time>2014-05-09T16:11:10Z</time>
      </trkpt>
      <trkpt lat="44.56694" lon="6.03642">
        <ele>1069</ele>
        <time>2014-05-09T16:11:20Z</time>
      </trkpt>
      <trkpt lat="44.56718" lon="6.03665">
        <ele>1068.1</ele>
        <time>2014-05-09T16:11:26Z</time>
      </trkpt>
      <trkpt lat="44.56739" lon="6.03676">
        <ele>1067.5</ele>
        <time>2014-05-09T16:11:32Z</time>
      </trkpt>
      <trkpt lat="44.56763" lon="6.0368">
        <ele>1067.6</ele>
        <time>2014-05-09T16:11:38Z</time>
      </trkpt>
      <trkpt lat="44.56784" lon="6.03688">
        <ele>1066.7</ele>
        <time>2014-05-09T16:11:42Z</time>
      </trkpt>
      <trkpt lat="44.56797" lon="6.03693">
        <ele>1065.7</ele>
        <time>2014-05-09T16:11:44Z</time>
      </trkpt>
      <trkpt lat="44.56829" lon="6.03707">
        <ele>1063.7</ele>
        <time>2014-05-09T16:11:48Z</time>
      </trkpt>
      <trkpt lat="44.56846" lon="6.03716">
        <ele>1063</ele>
        <time>2014-05-09T16:11:50Z</time>
      </trkpt>
      <trkpt lat="44.56865" lon="6.03742">
        <ele>1061.1</ele>
        <time>2014-05-09T16:11:53Z</time>
      </trkpt>
      <trkpt lat="44.56868" lon="6.03754">
        <ele>1060.5</ele>
        <time>2014-05-09T16:11:54Z</time>
      </trkpt>
      <trkpt lat="44.56867" lon="6.0378">
        <ele>1059.2</ele>
        <time>2014-05-09T16:11:56Z</time>
      </trkpt>
      <trkpt lat="44.56857" lon="6.038">
        <ele>1057.9</ele>
        <time>2014-05-09T16:11:58Z</time>
      </trkpt>
      <trkpt lat="44.56839" lon="6.0382">
        <ele>1055.3</ele>
        <time>2014-05-09T16:12:01Z</time>
      </trkpt>
      <trkpt lat="44.56805" lon="6.03815">
        <ele>1051.4</ele>
        <time>2014-05-09T16:12:05Z</time>
      </trkpt>
      <trkpt lat="44.56785" lon="6.03818">
        <ele>1049.1</ele>
        <time>2014-05-09T16:12:07Z</time>
      </trkpt>
      <trkpt lat="44.56774" lon="6.03824">
        <ele>1047.6</ele>
        <time>2014-05-09T16:12:08Z</time>
      </trkpt>
      <trkpt lat="44.56752" lon="6.03839">
        <ele>1045</ele>
        <time>2014-05-09T16:12:10Z</time>
      </trkpt>
      <trkpt lat="44.56729" lon="6.03859">
        <ele>1042.5</ele>
        <time>2014-05-09T16:12:12Z</time>
      </trkpt>
      <trkpt lat="44.56719" lon="6.0387">
        <ele>1040.7</ele>
        <time>2014-05-09T16:12:13Z</time>
      </trkpt>
      <trkpt lat="44.56702" lon="6.0389">
        <ele>1037.9</ele>
        <time>2014-05-09T16:12:15Z</time>
      </trkpt>
      <trkpt lat="44.56684" lon="6.03913">
        <ele>1033.1</ele>
        <time>2014-05-09T16:12:18Z</time>
      </trkpt>
      <trkpt lat="44.56667" lon="6.03924">
        <ele>1024.9</ele>
        <time>2014-05-09T16:12:35Z</time>
      </trkpt>
      <trkpt lat="44.56644" lon="6.03915">
        <ele>1023.8</ele>
        <time>2014-05-09T16:12:41Z</time>
      </trkpt>
      <trkpt lat="44.56623" lon="6.03932">
        <ele>1021.7</ele>
        <time>2014-05-09T16:12:45Z</time>
      </trkpt>
      <trkpt lat="44.56608" lon="6.0396">
        <ele>1019.3</ele>
        <time>2014-05-09T16:12:48Z</time>
      </trkpt>
      <trkpt lat="44.56589" lon="6.03991">
        <ele>1016.7</ele>
        <time>2014-05-09T16:12:51Z</time>
      </trkpt>
      <trkpt lat="44.56574" lon="6.0401">
        <ele>1014.3</ele>
        <time>2014-05-09T16:12:53Z</time>
      </trkpt>
      <trkpt lat="44.5654" lon="6.04047">
        <ele>1008.7</ele>
        <time>2014-05-09T16:12:57Z</time>
      </trkpt>
      <trkpt lat="44.56521" lon="6.04061">
        <ele>1005.4</ele>
        <time>2014-05-09T16:12:59Z</time>
      </trkpt>
      <trkpt lat="44.56502" lon="6.04069">
        <ele>1002.2</ele>
        <time>2014-05-09T16:13:01Z</time>
      </trkpt>
      <trkpt lat="44.56483" lon="6.04074">
        <ele>999.1</ele>
        <time>2014-05-09T16:13:03Z</time>
      </trkpt>
      <trkpt lat="44.56467" lon="6.04074">
        <ele>996.7</ele>
        <time>2014-05-09T16:13:05Z</time>
      </trkpt>
      <trkpt lat="44.56451" lon="6.04079">
        <ele>994.4</ele>
        <time>2014-05-09T16:13:07Z</time>
      </trkpt>
      <trkpt lat="44.56439" lon="6.04094">
        <ele>992.4</ele>
        <time>2014-05-09T16:13:09Z</time>
      </trkpt>
      <trkpt lat="44.56429" lon="6.04111">
        <ele>990.4</ele>
        <time>2014-05-09T16:13:11Z</time>
      </trkpt>
      <trkpt lat="44.56416" lon="6.04124">
        <ele>988.6</ele>
        <time>2014-05-09T16:13:13Z</time>
      </trkpt>
      <trkpt lat="44.56397" lon="6.04132">
        <ele>986.8</ele>
        <time>2014-05-09T16:13:15Z</time>
      </trkpt>
      <trkpt lat="44.56376" lon="6.0414">
        <ele>985</ele>
        <time>2014-05-09T16:13:17Z</time>
      </trkpt>
      <trkpt lat="44.56353" lon="6.04143">
        <ele>982.4</ele>
        <time>2014-05-09T16:13:19Z</time>
      </trkpt>
      <trkpt lat="44.56341" lon="6.04142">
        <ele>981.4</ele>
        <time>2014-05-09T16:13:20Z</time>
      </trkpt>
      <trkpt lat="44.5629" lon="6.04145">
        <ele>975.9</ele>
        <time>2014-05-09T16:13:24Z</time>
      </trkpt>
      <trkpt lat="44.56251" lon="6.04145">
        <ele>971.1</ele>
        <time>2014-05-09T16:13:27Z</time>
      </trkpt>
      <trkpt lat="44.56227" lon="6.04142">
        <ele>968.2</ele>
        <time>2014-05-09T16:13:29Z</time>
      </trkpt>
      <trkpt lat="44.56215" lon="6.04143">
        <ele>966.5</ele>
        <time>2014-05-09T16:13:30Z</time>
      </trkpt>
      <trkpt lat="44.56192" lon="6.04153">
        <ele>963.1</ele>
        <time>2014-05-09T16:13:32Z</time>
      </trkpt>
      <trkpt lat="44.56169" lon="6.04166">
        <ele>959.8</ele>
        <time>2014-05-09T16:13:34Z</time>
      </trkpt>
      <trkpt lat="44.56157" lon="6.04173">
        <ele>958.3</ele>
        <time>2014-05-09T16:13:35Z</time>
      </trkpt>
      <trkpt lat="44.56135" lon="6.04189">
        <ele>955.4</ele>
        <time>2014-05-09T16:13:37Z</time>
      </trkpt>
      <trkpt lat="44.56113" lon="6.04207">
        <ele>952.3</ele>
        <time>2014-05-09T16:13:39Z</time>
      </trkpt>
      <trkpt lat="44.56102" lon="6.04214">
        <ele>950.7</ele>
        <time>2014-05-09T16:13:40Z</time>
      </trkpt>
      <trkpt lat="44.56082" lon="6.04223">
        <ele>947.2</ele>
        <time>2014-05-09T16:13:42Z</time>
      </trkpt>
      <trkpt lat="44.56071" lon="6.04232">
        <ele>943.4</ele>
        <time>2014-05-09T16:13:44Z</time>
      </trkpt>
      <trkpt lat="44.56059" lon="6.04259">
        <ele>937.7</ele>
        <time>2014-05-09T16:13:49Z</time>
      </trkpt>
      <trkpt lat="44.56043" lon="6.04232">
        <ele>933.8</ele>
        <time>2014-05-09T16:13:53Z</time>
      </trkpt>
      <trkpt lat="44.5602" lon="6.04236">
        <ele>930.6</ele>
        <time>2014-05-09T16:13:57Z</time>
      </trkpt>
      <trkpt lat="44.55986" lon="6.0426">
        <ele>927.6</ele>
        <time>2014-05-09T16:14:01Z</time>
      </trkpt>
      <trkpt lat="44.5597" lon="6.04268">
        <ele>926.2</ele>
        <time>2014-05-09T16:14:03Z</time>
      </trkpt>
      <trkpt lat="44.55955" lon="6.04269">
        <ele>925</ele>
        <time>2014-05-09T16:14:05Z</time>
      </trkpt>
      <trkpt lat="44.55932" lon="6.04287">
        <ele>923.1</ele>
        <time>2014-05-09T16:14:09Z</time>
      </trkpt>
      <trkpt lat="44.55921" lon="6.04303">
        <ele>921.7</ele>
        <time>2014-05-09T16:14:11Z</time>
      </trkpt>
      <trkpt lat="44.559" lon="6.04338">
        <ele>918.1</ele>
        <time>2014-05-09T16:14:15Z</time>
      </trkpt>
      <trkpt lat="44.55888" lon="6.04354">
        <ele>915.9</ele>
        <time>2014-05-09T16:14:17Z</time>
      </trkpt>
      <trkpt lat="44.55866" lon="6.0439">
        <ele>912.2</ele>
        <time>2014-05-09T16:14:21Z</time>
      </trkpt>
      <trkpt lat="44.55853" lon="6.04405">
        <ele>910.2</ele>
        <time>2014-05-09T16:14:23Z</time>
      </trkpt>
      <trkpt lat="44.55838" lon="6.04415">
        <ele>908.4</ele>
        <time>2014-05-09T16:14:25Z</time>
      </trkpt>
      <trkpt lat="44.55822" lon="6.0442">
        <ele>906.3</ele>
        <time>2014-05-09T16:14:27Z</time>
      </trkpt>
      <trkpt lat="44.55807" lon="6.04421">
        <ele>904.2</ele>
        <time>2014-05-09T16:14:29Z</time>
      </trkpt>
      <trkpt lat="44.5579" lon="6.04439">
        <ele>900.9</ele>
        <time>2014-05-09T16:14:34Z</time>
      </trkpt>
      <trkpt lat="44.55787" lon="6.04475">
        <ele>899.3</ele>
        <time>2014-05-09T16:14:39Z</time>
      </trkpt>
      <trkpt lat="44.55787" lon="6.0456">
        <ele>896.8</ele>
        <time>2014-05-09T16:14:47Z</time>
      </trkpt>
      <trkpt lat="44.55785" lon="6.04616">
        <ele>894.6</ele>
        <time>2014-05-09T16:14:51Z</time>
      </trkpt>
      <trkpt lat="44.55783" lon="6.04679">
        <ele>891.2</ele>
        <time>2014-05-09T16:14:55Z</time>
      </trkpt>
      <trkpt lat="44.55781" lon="6.04712">
        <ele>889.4</ele>
        <time>2014-05-09T16:14:57Z</time>
      </trkpt>
      <trkpt lat="44.5578" lon="6.04762">
        <ele>885.8</ele>
        <time>2014-05-09T16:15:00Z</time>
      </trkpt>
      <trkpt lat="44.55779" lon="6.04797">
        <ele>884.3</ele>
        <time>2014-05-09T16:15:02Z</time>
      </trkpt>
      <trkpt lat="44.55777" lon="6.04867">
        <ele>880.4</ele>
        <time>2014-05-09T16:15:06Z</time>
      </trkpt>
      <trkpt lat="44.55776" lon="6.0492">
        <ele>877.3</ele>
        <time>2014-05-09T16:15:09Z</time>
      </trkpt>
      <trkpt lat="44.55774" lon="6.04989">
        <ele>873.1</ele>
        <time>2014-05-09T16:15:13Z</time>
      </trkpt>
      <trkpt lat="44.55772" lon="6.05058">
        <ele>869.8</ele>
        <time>2014-05-09T16:15:17Z</time>
      </trkpt>
      <trkpt lat="44.55771" lon="6.05075">
        <ele>868.6</ele>
        <time>2014-05-09T16:15:18Z</time>
      </trkpt>
      <trkpt lat="44.5577" lon="6.05106">
        <ele>867.1</ele>
        <time>2014-05-09T16:15:20Z</time>
      </trkpt>
      <trkpt lat="44.55771" lon="6.05137">
        <ele>865.2</ele>
        <time>2014-05-09T16:15:22Z</time>
      </trkpt>
      <trkpt lat="44.55773" lon="6.05169">
        <ele>863.6</ele>
        <time>2014-05-09T16:15:24Z</time>
      </trkpt>
      <trkpt lat="44.55778" lon="6.05217">
        <ele>861.5</ele>
        <time>2014-05-09T16:15:27Z</time>
      </trkpt>
      <trkpt lat="44.5578" lon="6.05249">
        <ele>860.3</ele>
        <time>2014-05-09T16:15:29Z</time>
      </trkpt>
      <trkpt lat="44.5578" lon="6.05282">
        <ele>858.9</ele>
        <time>2014-05-09T16:15:31Z</time>
      </trkpt>
      <trkpt lat="44.55778" lon="6.05315">
        <ele>857.5</ele>
        <time>2014-05-09T16:15:33Z</time>
      </trkpt>
      <trkpt lat="44.55777" lon="6.05379">
        <ele>855.2</ele>
        <time>2014-05-09T16:15:37Z</time>
      </trkpt>
      <trkpt lat="44.55777" lon="6.05409">
        <ele>854</ele>
        <time>2014-05-09T16:15:39Z</time>
      </trkpt>
      <trkpt lat="44.55778" lon="6.05423">
        <ele>853.6</ele>
        <time>2014-05-09T16:15:40Z</time>
      </trkpt>
      <trkpt lat="44.55786" lon="6.05448">
        <ele>852.6</ele>
        <time>2014-05-09T16:15:42Z</time>
      </trkpt>
      <trkpt lat="44.558" lon="6.05478">
        <ele>850.8</ele>
        <time>2014-05-09T16:15:45Z</time>
      </trkpt>
      <trkpt lat="44.55803" lon="6.05495">
        <ele>849.6</ele>
        <time>2014-05-09T16:15:47Z</time>
      </trkpt>
      <trkpt lat="44.55791" lon="6.05513">
        <ele>847.3</ele>
        <time>2014-05-09T16:16:27Z</time>
      </trkpt>
      <trkpt lat="44.55778" lon="6.05499">
        <ele>847.9</ele>
        <time>2014-05-09T16:16:39Z</time>
      </trkpt>
      <trkpt lat="44.55761" lon="6.05483">
        <ele>848.2</ele>
        <time>2014-05-09T16:16:47Z</time>
      </trkpt>
      <trkpt lat="44.55738" lon="6.05494">
        <ele>848.5</ele>
        <time>2014-05-09T16:16:53Z</time>
      </trkpt>
      <trkpt lat="44.55718" lon="6.05505">
        <ele>848</ele>
        <time>2014-05-09T16:16:57Z</time>
      </trkpt>
      <trkpt lat="44.55707" lon="6.05506">
        <ele>847.9</ele>
        <time>2014-05-09T16:16:59Z</time>
      </trkpt>
      <trkpt lat="44.55682" lon="6.05506">
        <ele>847</ele>
        <time>2014-05-09T16:17:03Z</time>
      </trkpt>
      <trkpt lat="44.55652" lon="6.05505">
        <ele>845.5</ele>
        <time>2014-05-09T16:17:07Z</time>
      </trkpt>
      <trkpt lat="44.55589" lon="6.05501">
        <ele>841.9</ele>
        <time>2014-05-09T16:17:14Z</time>
      </trkpt>
      <trkpt lat="44.55569" lon="6.05501">
        <ele>840.9</ele>
        <time>2014-05-09T16:17:16Z</time>
      </trkpt>
      <trkpt lat="44.55528" lon="6.05499">
        <ele>837.9</ele>
        <time>2014-05-09T16:17:20Z</time>
      </trkpt>
      <trkpt lat="44.55498" lon="6.05496">
        <ele>835.8</ele>
        <time>2014-05-09T16:17:23Z</time>
      </trkpt>
      <trkpt lat="44.55458" lon="6.05493">
        <ele>834.6</ele>
        <time>2014-05-09T16:17:27Z</time>
      </trkpt>
      <trkpt lat="44.55438" lon="6.05493">
        <ele>834.2</ele>
        <time>2014-05-09T16:17:29Z</time>
      </trkpt>
      <trkpt lat="44.55392" lon="6.0549">
        <ele>833.6</ele>
        <time>2014-05-09T16:17:34Z</time>
      </trkpt>
      <trkpt lat="44.55355" lon="6.05488">
        <ele>833.3</ele>
        <time>2014-05-09T16:17:38Z</time>
      </trkpt>
      <trkpt lat="44.55319" lon="6.05488">
        <ele>833.2</ele>
        <time>2014-05-09T16:17:42Z</time>
      </trkpt>
      <trkpt lat="44.55256" lon="6.05489">
        <ele>832.4</ele>
        <time>2014-05-09T16:17:49Z</time>
      </trkpt>
      <trkpt lat="44.55194" lon="6.05498">
        <ele>830.9</ele>
        <time>2014-05-09T16:17:56Z</time>
      </trkpt>
      <trkpt lat="44.55157" lon="6.05503">
        <ele>830.1</ele>
        <time>2014-05-09T16:18:00Z</time>
      </trkpt>
      <trkpt lat="44.55138" lon="6.05506">
        <ele>829.7</ele>
        <time>2014-05-09T16:18:02Z</time>
      </trkpt>
      <trkpt lat="44.55119" lon="6.05508">
        <ele>829.3</ele>
        <time>2014-05-09T16:18:04Z</time>
      </trkpt>
      <trkpt lat="44.55072" lon="6.05513">
        <ele>828.1</ele>
        <time>2014-05-09T16:18:09Z</time>
      </trkpt>
      <trkpt lat="44.55015" lon="6.05516">
        <ele>828.1</ele>
        <time>2014-05-09T16:18:16Z</time>
      </trkpt>
      <trkpt lat="44.55" lon="6.05516">
        <ele>828.3</ele>
        <time>2014-05-09T16:18:18Z</time>
      </trkpt>
      <trkpt lat="44.5497" lon="6.05515">
        <ele>828.3</ele>
        <time>2014-05-09T16:18:22Z</time>
      </trkpt>
      <trkpt lat="44.54953" lon="6.05513">
        <ele>827.6</ele>
        <time>2014-05-09T16:18:24Z</time>
      </trkpt>
      <trkpt lat="44.54934" lon="6.0551">
        <ele>827</ele>
        <time>2014-05-09T16:18:26Z</time>
      </trkpt>
      <trkpt lat="44.54893" lon="6.05498">
        <ele>824.7</ele>
        <time>2014-05-09T16:18:30Z</time>
      </trkpt>
      <trkpt lat="44.54872" lon="6.0549">
        <ele>823.9</ele>
        <time>2014-05-09T16:18:32Z</time>
      </trkpt>
      <trkpt lat="44.54853" lon="6.05481">
        <ele>822.8</ele>
        <time>2014-05-09T16:18:34Z</time>
      </trkpt>
      <trkpt lat="44.54838" lon="6.05472">
        <ele>821.9</ele>
        <time>2014-05-09T16:18:36Z</time>
      </trkpt>
      <trkpt lat="44.54818" lon="6.05483">
        <ele>820.2</ele>
        <time>2014-05-09T16:18:40Z</time>
      </trkpt>
      <trkpt lat="44.54802" lon="6.05518">
        <ele>818.1</ele>
        <time>2014-05-09T16:18:44Z</time>
      </trkpt>
      <trkpt lat="44.5479" lon="6.05534">
        <ele>816.8</ele>
        <time>2014-05-09T16:18:46Z</time>
      </trkpt>
      <trkpt lat="44.54754" lon="6.05551">
        <ele>813.5</ele>
        <time>2014-05-09T16:18:50Z</time>
      </trkpt>
      <trkpt lat="44.5474" lon="6.05569">
        <ele>812</ele>
        <time>2014-05-09T16:18:52Z</time>
      </trkpt>
      <trkpt lat="44.54734" lon="6.0558">
        <ele>811.1</ele>
        <time>2014-05-09T16:18:53Z</time>
      </trkpt>
      <trkpt lat="44.5472" lon="6.05615">
        <ele>809</ele>
        <time>2014-05-09T16:18:56Z</time>
      </trkpt>
      <trkpt lat="44.5471" lon="6.05636">
        <ele>807.7</ele>
        <time>2014-05-09T16:18:58Z</time>
      </trkpt>
      <trkpt lat="44.54695" lon="6.05652">
        <ele>806.6</ele>
        <time>2014-05-09T16:19:00Z</time>
      </trkpt>
      <trkpt lat="44.54676" lon="6.05658">
        <ele>805.3</ele>
        <time>2014-05-09T16:19:02Z</time>
      </trkpt>
      <trkpt lat="44.54655" lon="6.05657">
        <ele>803.8</ele>
        <time>2014-05-09T16:19:04Z</time>
      </trkpt>
      <trkpt lat="44.54645" lon="6.05655">
        <ele>803.4</ele>
        <time>2014-05-09T16:19:05Z</time>
      </trkpt>
      <trkpt lat="44.54627" lon="6.05645">
        <ele>802.3</ele>
        <time>2014-05-09T16:19:07Z</time>
      </trkpt>
      <trkpt lat="44.54602" lon="6.05637">
        <ele>799.9</ele>
        <time>2014-05-09T16:19:11Z</time>
      </trkpt>
      <trkpt lat="44.54602" lon="6.05662">
        <ele>797</ele>
        <time>2014-05-09T16:19:28Z</time>
      </trkpt>
      <trkpt lat="44.54609" lon="6.05676">
        <ele>796.5</ele>
        <time>2014-05-09T16:19:30Z</time>
      </trkpt>
      <trkpt lat="44.54637" lon="6.05722">
        <ele>793.6</ele>
        <time>2014-05-09T16:19:35Z</time>
      </trkpt>
      <trkpt lat="44.54665" lon="6.05765">
        <ele>791</ele>
        <time>2014-05-09T16:19:39Z</time>
      </trkpt>
      <trkpt lat="44.54693" lon="6.05811">
        <ele>787.4</ele>
        <time>2014-05-09T16:19:43Z</time>
      </trkpt>
      <trkpt lat="44.547" lon="6.05823">
        <ele>786.7</ele>
        <time>2014-05-09T16:19:44Z</time>
      </trkpt>
      <trkpt lat="44.54727" lon="6.05869">
        <ele>783.9</ele>
        <time>2014-05-09T16:19:48Z</time>
      </trkpt>
      <trkpt lat="44.54738" lon="6.05892">
        <ele>782.5</ele>
        <time>2014-05-09T16:19:50Z</time>
      </trkpt>
      <trkpt lat="44.5474" lon="6.05916">
        <ele>781.1</ele>
        <time>2014-05-09T16:19:52Z</time>
      </trkpt>
      <trkpt lat="44.54729" lon="6.05951">
        <ele>777.8</ele>
        <time>2014-05-09T16:19:55Z</time>
      </trkpt>
      <trkpt lat="44.54718" lon="6.05974">
        <ele>776</ele>
        <time>2014-05-09T16:19:57Z</time>
      </trkpt>
      <trkpt lat="44.54703" lon="6.06002">
        <ele>774.1</ele>
        <time>2014-05-09T16:20:00Z</time>
      </trkpt>
      <trkpt lat="44.54667" lon="6.06073">
        <ele>768.9</ele>
        <time>2014-05-09T16:20:08Z</time>
      </trkpt>
      <trkpt lat="44.5464" lon="6.06127">
        <ele>765.1</ele>
        <time>2014-05-09T16:20:14Z</time>
      </trkpt>
      <trkpt lat="44.54611" lon="6.06184">
        <ele>761.4</ele>
        <time>2014-05-09T16:20:20Z</time>
      </trkpt>
      <trkpt lat="44.54584" lon="6.06237">
        <ele>758.4</ele>
        <time>2014-05-09T16:20:26Z</time>
      </trkpt>
      <trkpt lat="44.54576" lon="6.06253">
        <ele>757.5</ele>
        <time>2014-05-09T16:20:28Z</time>
      </trkpt>
      <trkpt lat="44.54563" lon="6.06278">
        <ele>755.4</ele>
        <time>2014-05-09T16:20:32Z</time>
      </trkpt>
      <trkpt lat="44.54556" lon="6.06287">
        <ele>753.5</ele>
        <time>2014-05-09T16:20:37Z</time>
      </trkpt>
      <trkpt lat="44.54571" lon="6.06309">
        <ele>753</ele>
        <time>2014-05-09T16:20:49Z</time>
      </trkpt>
      <trkpt lat="44.54581" lon="6.06334">
        <ele>752.7</ele>
        <time>2014-05-09T16:20:53Z</time>
      </trkpt>
      <trkpt lat="44.54588" lon="6.06346">
        <ele>752.8</ele>
        <time>2014-05-09T16:20:55Z</time>
      </trkpt>
      <trkpt lat="44.54607" lon="6.06368">
        <ele>752.5</ele>
        <time>2014-05-09T16:20:59Z</time>
      </trkpt>
      <trkpt lat="44.54625" lon="6.06389">
        <ele>752.1</ele>
        <time>2014-05-09T16:21:03Z</time>
      </trkpt>
      <trkpt lat="44.54664" lon="6.06438">
        <ele>751.5</ele>
        <time>2014-05-09T16:21:13Z</time>
      </trkpt>
      <trkpt lat="44.54679" lon="6.06456">
        <ele>751.6</ele>
        <time>2014-05-09T16:21:17Z</time>
      </trkpt>
      <trkpt lat="44.5471" lon="6.06496">
        <ele>751.6</ele>
        <time>2014-05-09T16:21:26Z</time>
      </trkpt>
      <trkpt lat="44.54741" lon="6.06532">
        <ele>751.5</ele>
        <time>2014-05-09T16:21:34Z</time>
      </trkpt>
      <trkpt lat="44.54758" lon="6.0655">
        <ele>751.4</ele>
        <time>2014-05-09T16:21:39Z</time>
      </trkpt>
      <trkpt lat="44.54772" lon="6.0657">
        <ele>751.7</ele>
        <time>2014-05-09T16:21:45Z</time>
      </trkpt>
      <trkpt lat="44.54789" lon="6.06588">
        <ele>751.4</ele>
        <time>2014-05-09T16:21:51Z</time>
      </trkpt>
      <trkpt lat="44.54806" lon="6.06608">
        <ele>751.5</ele>
        <time>2014-05-09T16:21:57Z</time>
      </trkpt>
      <trkpt lat="44.54821" lon="6.06629">
        <ele>751.3</ele>
        <time>2014-05-09T16:22:03Z</time>
      </trkpt>
      <trkpt lat="44.54837" lon="6.0662">
        <ele>751</ele>
        <time>2014-05-09T16:22:10Z</time>
      </trkpt>
      <trkpt lat="44.54851" lon="6.06594">
        <ele>752.4</ele>
        <time>2014-05-09T16:22:18Z</time>
      </trkpt>
      <trkpt lat="44.54863" lon="6.06573">
        <ele>753</ele>
        <time>2014-05-09T16:22:27Z</time>
      </trkpt>
      <trkpt lat="44.54876" lon="6.06563">
        <ele>753.7</ele>
        <time>2014-05-09T16:22:48Z</time>
      </trkpt>
    </trkseg>
  </trk>
</gpx>